
<gpx xmlns="http://www.topografix.com/GPX/1/1" xmlns:gpxx="http://www.garmin.com/xmlschemas/GpxExtensions/v3" xmlns:xsi="http://www.w3.org/2001/XMLSchema-instance" version="1.1" creator="Adze - https://getadze.com/" xsi:schemaLocation="http://www.topografix.com/GPX/1/1 http://www.topografix.com/GPX/1/1/gpx.xsd http://www.garmin.com/xmlschemas/GpxExtensions/v3 http://www.garmin.com/xmlschemas/GpxExtensionsv3.xsd">
    <metadata>
        <name>Untitled Document</name>
        <time>2018-07-23T07:02:05.798Z</time>
    </metadata>
    <trk>
        <name>July 2018 - Sunday</name>
        <type>1</type>
        <extensions>
            <gpxx:TrackExtension>
                <gpxx:DisplayColor>DarkMagenta</gpxx:DisplayColor>
            </gpxx:TrackExtension>
        </extensions>
        <trkseg>
            <trkpt lon="101.066392" lat="13.029973">
                <ele>113.100000</ele>
                <time>2018-07-22T03:00:25Z</time>
            </trkpt>
            <trkpt lon="101.066406" lat="13.030000">
                <ele>112.900000</ele>
                <time>2018-07-22T03:00:46Z</time>
            </trkpt>
            <trkpt lon="101.066391" lat="13.030023">
                <ele>112.600000</ele>
                <time>2018-07-22T03:00:56Z</time>
            </trkpt>
            <trkpt lon="101.066363" lat="13.030014">
                <ele>112.200000</ele>
                <time>2018-07-22T03:02:12Z</time>
            </trkpt>
            <trkpt lon="101.066395" lat="13.030014">
                <ele>112.900000</ele>
                <time>2018-07-22T03:02:31Z</time>
            </trkpt>
            <trkpt lon="101.066435" lat="13.030018">
                <ele>113.500000</ele>
                <time>2018-07-22T03:02:39Z</time>
            </trkpt>
            <trkpt lon="101.066481" lat="13.030016">
                <ele>114.000000</ele>
                <time>2018-07-22T03:02:43Z</time>
            </trkpt>
            <trkpt lon="101.066509" lat="13.030010">
                <ele>114.600000</ele>
                <time>2018-07-22T03:02:44Z</time>
            </trkpt>
            <trkpt lon="101.066539" lat="13.029998">
                <ele>115.100000</ele>
                <time>2018-07-22T03:02:45Z</time>
            </trkpt>
            <trkpt lon="101.066567" lat="13.030006">
                <ele>115.100000</ele>
                <time>2018-07-22T03:02:46Z</time>
            </trkpt>
            <trkpt lon="101.066609" lat="13.030012">
                <ele>115.800000</ele>
                <time>2018-07-22T03:02:48Z</time>
            </trkpt>
            <trkpt lon="101.066637" lat="13.030011">
                <ele>116.500000</ele>
                <time>2018-07-22T03:02:49Z</time>
            </trkpt>
            <trkpt lon="101.066677" lat="13.030003">
                <ele>117.200000</ele>
                <time>2018-07-22T03:02:51Z</time>
            </trkpt>
            <trkpt lon="101.066722" lat="13.029991">
                <ele>117.900000</ele>
                <time>2018-07-22T03:02:53Z</time>
            </trkpt>
            <trkpt lon="101.066785" lat="13.029981">
                <ele>118.400000</ele>
                <time>2018-07-22T03:02:55Z</time>
            </trkpt>
            <trkpt lon="101.066816" lat="13.029989">
                <ele>118.800000</ele>
                <time>2018-07-22T03:02:56Z</time>
            </trkpt>
            <trkpt lon="101.066840" lat="13.029952">
                <ele>119.200000</ele>
                <time>2018-07-22T03:02:58Z</time>
            </trkpt>
            <trkpt lon="101.066847" lat="13.029919">
                <ele>119.400000</ele>
                <time>2018-07-22T03:02:59Z</time>
            </trkpt>
            <trkpt lon="101.066841" lat="13.029872">
                <ele>119.600000</ele>
                <time>2018-07-22T03:03:00Z</time>
            </trkpt>
            <trkpt lon="101.066837" lat="13.029825">
                <ele>119.400000</ele>
                <time>2018-07-22T03:03:01Z</time>
            </trkpt>
            <trkpt lon="101.066855" lat="13.029760">
                <ele>119.600000</ele>
                <time>2018-07-22T03:03:02Z</time>
            </trkpt>
            <trkpt lon="101.066870" lat="13.029676">
                <ele>119.200000</ele>
                <time>2018-07-22T03:03:03Z</time>
            </trkpt>
            <trkpt lon="101.066865" lat="13.029633">
                <ele>118.900000</ele>
                <time>2018-07-22T03:03:04Z</time>
            </trkpt>
            <trkpt lon="101.066861" lat="13.029587">
                <ele>118.500000</ele>
                <time>2018-07-22T03:03:05Z</time>
            </trkpt>
            <trkpt lon="101.066858" lat="13.029545">
                <ele>117.900000</ele>
                <time>2018-07-22T03:03:06Z</time>
            </trkpt>
            <trkpt lon="101.066859" lat="13.029509">
                <ele>117.200000</ele>
                <time>2018-07-22T03:03:07Z</time>
            </trkpt>
            <trkpt lon="101.066857" lat="13.029471">
                <ele>116.500000</ele>
                <time>2018-07-22T03:03:08Z</time>
            </trkpt>
            <trkpt lon="101.066852" lat="13.029429">
                <ele>115.800000</ele>
                <time>2018-07-22T03:03:09Z</time>
            </trkpt>
            <trkpt lon="101.066845" lat="13.029390">
                <ele>115.100000</ele>
                <time>2018-07-22T03:03:10Z</time>
            </trkpt>
            <trkpt lon="101.066836" lat="13.029355">
                <ele>114.900000</ele>
                <time>2018-07-22T03:03:11Z</time>
            </trkpt>
            <trkpt lon="101.066829" lat="13.029316">
                <ele>114.500000</ele>
                <time>2018-07-22T03:03:12Z</time>
            </trkpt>
            <trkpt lon="101.066824" lat="13.029278">
                <ele>114.100000</ele>
                <time>2018-07-22T03:03:13Z</time>
            </trkpt>
            <trkpt lon="101.066819" lat="13.029237">
                <ele>113.900000</ele>
                <time>2018-07-22T03:03:14Z</time>
            </trkpt>
            <trkpt lon="101.066819" lat="13.029194">
                <ele>113.700000</ele>
                <time>2018-07-22T03:03:15Z</time>
            </trkpt>
            <trkpt lon="101.066828" lat="13.029145">
                <ele>113.500000</ele>
                <time>2018-07-22T03:03:16Z</time>
            </trkpt>
            <trkpt lon="101.066844" lat="13.029098">
                <ele>113.400000</ele>
                <time>2018-07-22T03:03:17Z</time>
            </trkpt>
            <trkpt lon="101.066861" lat="13.029059">
                <ele>113.300000</ele>
                <time>2018-07-22T03:03:18Z</time>
            </trkpt>
            <trkpt lon="101.066877" lat="13.029008">
                <ele>113.200000</ele>
                <time>2018-07-22T03:03:19Z</time>
            </trkpt>
            <trkpt lon="101.066879" lat="13.028945">
                <ele>113.100000</ele>
                <time>2018-07-22T03:03:20Z</time>
            </trkpt>
            <trkpt lon="101.066859" lat="13.028887">
                <ele>113.000000</ele>
                <time>2018-07-22T03:03:21Z</time>
            </trkpt>
            <trkpt lon="101.066832" lat="13.028833">
                <ele>112.600000</ele>
                <time>2018-07-22T03:03:22Z</time>
            </trkpt>
            <trkpt lon="101.066796" lat="13.028776">
                <ele>112.800000</ele>
                <time>2018-07-22T03:03:23Z</time>
            </trkpt>
            <trkpt lon="101.066760" lat="13.028718">
                <ele>112.900000</ele>
                <time>2018-07-22T03:03:24Z</time>
            </trkpt>
            <trkpt lon="101.066730" lat="13.028660">
                <ele>112.500000</ele>
                <time>2018-07-22T03:03:25Z</time>
            </trkpt>
            <trkpt lon="101.066703" lat="13.028593">
                <ele>111.800000</ele>
                <time>2018-07-22T03:03:26Z</time>
            </trkpt>
            <trkpt lon="101.066681" lat="13.028528">
                <ele>111.500000</ele>
                <time>2018-07-22T03:03:27Z</time>
            </trkpt>
            <trkpt lon="101.066665" lat="13.028465">
                <ele>111.100000</ele>
                <time>2018-07-22T03:03:28Z</time>
            </trkpt>
            <trkpt lon="101.066650" lat="13.028405">
                <ele>110.800000</ele>
                <time>2018-07-22T03:03:29Z</time>
            </trkpt>
            <trkpt lon="101.066632" lat="13.028341">
                <ele>110.200000</ele>
                <time>2018-07-22T03:03:30Z</time>
            </trkpt>
            <trkpt lon="101.066613" lat="13.028279">
                <ele>109.900000</ele>
                <time>2018-07-22T03:03:31Z</time>
            </trkpt>
            <trkpt lon="101.066596" lat="13.028220">
                <ele>109.600000</ele>
                <time>2018-07-22T03:03:32Z</time>
            </trkpt>
            <trkpt lon="101.066584" lat="13.028162">
                <ele>109.600000</ele>
                <time>2018-07-22T03:03:33Z</time>
            </trkpt>
            <trkpt lon="101.066570" lat="13.028107">
                <ele>109.800000</ele>
                <time>2018-07-22T03:03:34Z</time>
            </trkpt>
            <trkpt lon="101.066558" lat="13.028050">
                <ele>109.800000</ele>
                <time>2018-07-22T03:03:35Z</time>
            </trkpt>
            <trkpt lon="101.066543" lat="13.027998">
                <ele>109.500000</ele>
                <time>2018-07-22T03:03:36Z</time>
            </trkpt>
            <trkpt lon="101.066520" lat="13.027951">
                <ele>109.500000</ele>
                <time>2018-07-22T03:03:37Z</time>
            </trkpt>
            <trkpt lon="101.066484" lat="13.027907">
                <ele>109.500000</ele>
                <time>2018-07-22T03:03:38Z</time>
            </trkpt>
            <trkpt lon="101.066449" lat="13.027864">
                <ele>109.500000</ele>
                <time>2018-07-22T03:03:39Z</time>
            </trkpt>
            <trkpt lon="101.066415" lat="13.027824">
                <ele>109.400000</ele>
                <time>2018-07-22T03:03:40Z</time>
            </trkpt>
            <trkpt lon="101.066378" lat="13.027784">
                <ele>109.600000</ele>
                <time>2018-07-22T03:03:41Z</time>
            </trkpt>
            <trkpt lon="101.066341" lat="13.027748">
                <ele>110.000000</ele>
                <time>2018-07-22T03:03:42Z</time>
            </trkpt>
            <trkpt lon="101.066306" lat="13.027714">
                <ele>110.400000</ele>
                <time>2018-07-22T03:03:43Z</time>
            </trkpt>
            <trkpt lon="101.066268" lat="13.027679">
                <ele>110.900000</ele>
                <time>2018-07-22T03:03:44Z</time>
            </trkpt>
            <trkpt lon="101.066230" lat="13.027645">
                <ele>111.100000</ele>
                <time>2018-07-22T03:03:45Z</time>
            </trkpt>
            <trkpt lon="101.066194" lat="13.027615">
                <ele>111.400000</ele>
                <time>2018-07-22T03:03:46Z</time>
            </trkpt>
            <trkpt lon="101.066163" lat="13.027589">
                <ele>111.700000</ele>
                <time>2018-07-22T03:03:47Z</time>
            </trkpt>
            <trkpt lon="101.066131" lat="13.027563">
                <ele>111.700000</ele>
                <time>2018-07-22T03:03:48Z</time>
            </trkpt>
            <trkpt lon="101.066100" lat="13.027539">
                <ele>111.700000</ele>
                <time>2018-07-22T03:03:49Z</time>
            </trkpt>
            <trkpt lon="101.066074" lat="13.027517">
                <ele>111.700000</ele>
                <time>2018-07-22T03:03:50Z</time>
            </trkpt>
            <trkpt lon="101.066054" lat="13.027499">
                <ele>111.400000</ele>
                <time>2018-07-22T03:03:51Z</time>
            </trkpt>
            <trkpt lon="101.066032" lat="13.027480">
                <ele>111.400000</ele>
                <time>2018-07-22T03:03:52Z</time>
            </trkpt>
            <trkpt lon="101.065997" lat="13.027452">
                <ele>110.900000</ele>
                <time>2018-07-22T03:03:54Z</time>
            </trkpt>
            <trkpt lon="101.065972" lat="13.027434">
                <ele>110.700000</ele>
                <time>2018-07-22T03:03:56Z</time>
            </trkpt>
            <trkpt lon="101.065927" lat="13.027423">
                <ele>110.100000</ele>
                <time>2018-07-22T03:04:01Z</time>
            </trkpt>
            <trkpt lon="101.065884" lat="13.027447">
                <ele>109.900000</ele>
                <time>2018-07-22T03:04:03Z</time>
            </trkpt>
            <trkpt lon="101.065858" lat="13.027466">
                <ele>109.900000</ele>
                <time>2018-07-22T03:04:04Z</time>
            </trkpt>
            <trkpt lon="101.065827" lat="13.027487">
                <ele>109.800000</ele>
                <time>2018-07-22T03:04:05Z</time>
            </trkpt>
            <trkpt lon="101.065797" lat="13.027518">
                <ele>109.700000</ele>
                <time>2018-07-22T03:04:06Z</time>
            </trkpt>
            <trkpt lon="101.065769" lat="13.027551">
                <ele>109.700000</ele>
                <time>2018-07-22T03:04:07Z</time>
            </trkpt>
            <trkpt lon="101.065735" lat="13.027586">
                <ele>109.600000</ele>
                <time>2018-07-22T03:04:08Z</time>
            </trkpt>
            <trkpt lon="101.065701" lat="13.027620">
                <ele>109.500000</ele>
                <time>2018-07-22T03:04:09Z</time>
            </trkpt>
            <trkpt lon="101.065665" lat="13.027652">
                <ele>109.400000</ele>
                <time>2018-07-22T03:04:10Z</time>
            </trkpt>
            <trkpt lon="101.065634" lat="13.027681">
                <ele>109.400000</ele>
                <time>2018-07-22T03:04:11Z</time>
            </trkpt>
            <trkpt lon="101.065588" lat="13.027718">
                <ele>109.300000</ele>
                <time>2018-07-22T03:04:12Z</time>
            </trkpt>
            <trkpt lon="101.065541" lat="13.027752">
                <ele>109.200000</ele>
                <time>2018-07-22T03:04:13Z</time>
            </trkpt>
            <trkpt lon="101.065500" lat="13.027779">
                <ele>109.100000</ele>
                <time>2018-07-22T03:04:14Z</time>
            </trkpt>
            <trkpt lon="101.065454" lat="13.027809">
                <ele>109.000000</ele>
                <time>2018-07-22T03:04:15Z</time>
            </trkpt>
            <trkpt lon="101.065407" lat="13.027833">
                <ele>109.000000</ele>
                <time>2018-07-22T03:04:16Z</time>
            </trkpt>
            <trkpt lon="101.065366" lat="13.027852">
                <ele>108.900000</ele>
                <time>2018-07-22T03:04:17Z</time>
            </trkpt>
            <trkpt lon="101.065310" lat="13.027874">
                <ele>108.700000</ele>
                <time>2018-07-22T03:04:18Z</time>
            </trkpt>
            <trkpt lon="101.065257" lat="13.027892">
                <ele>108.500000</ele>
                <time>2018-07-22T03:04:19Z</time>
            </trkpt>
            <trkpt lon="101.065205" lat="13.027906">
                <ele>108.200000</ele>
                <time>2018-07-22T03:04:20Z</time>
            </trkpt>
            <trkpt lon="101.065155" lat="13.027919">
                <ele>108.100000</ele>
                <time>2018-07-22T03:04:21Z</time>
            </trkpt>
            <trkpt lon="101.065109" lat="13.027933">
                <ele>107.900000</ele>
                <time>2018-07-22T03:04:22Z</time>
            </trkpt>
            <trkpt lon="101.065063" lat="13.027940">
                <ele>107.800000</ele>
                <time>2018-07-22T03:04:23Z</time>
            </trkpt>
            <trkpt lon="101.065014" lat="13.027947">
                <ele>107.800000</ele>
                <time>2018-07-22T03:04:24Z</time>
            </trkpt>
            <trkpt lon="101.064968" lat="13.027946">
                <ele>107.700000</ele>
                <time>2018-07-22T03:04:25Z</time>
            </trkpt>
            <trkpt lon="101.064923" lat="13.027947">
                <ele>107.700000</ele>
                <time>2018-07-22T03:04:26Z</time>
            </trkpt>
            <trkpt lon="101.064869" lat="13.027955">
                <ele>107.600000</ele>
                <time>2018-07-22T03:04:27Z</time>
            </trkpt>
            <trkpt lon="101.064814" lat="13.027965">
                <ele>107.500000</ele>
                <time>2018-07-22T03:04:28Z</time>
            </trkpt>
            <trkpt lon="101.064757" lat="13.027971">
                <ele>107.500000</ele>
                <time>2018-07-22T03:04:29Z</time>
            </trkpt>
            <trkpt lon="101.064711" lat="13.027977">
                <ele>107.400000</ele>
                <time>2018-07-22T03:04:30Z</time>
            </trkpt>
            <trkpt lon="101.064665" lat="13.027983">
                <ele>107.400000</ele>
                <time>2018-07-22T03:04:31Z</time>
            </trkpt>
            <trkpt lon="101.064614" lat="13.027987">
                <ele>107.400000</ele>
                <time>2018-07-22T03:04:32Z</time>
            </trkpt>
            <trkpt lon="101.064565" lat="13.027992">
                <ele>107.300000</ele>
                <time>2018-07-22T03:04:33Z</time>
            </trkpt>
            <trkpt lon="101.064512" lat="13.027995">
                <ele>107.300000</ele>
                <time>2018-07-22T03:04:34Z</time>
            </trkpt>
            <trkpt lon="101.064462" lat="13.027998">
                <ele>107.200000</ele>
                <time>2018-07-22T03:04:35Z</time>
            </trkpt>
            <trkpt lon="101.064405" lat="13.028001">
                <ele>107.200000</ele>
                <time>2018-07-22T03:04:36Z</time>
            </trkpt>
            <trkpt lon="101.064345" lat="13.028000">
                <ele>107.200000</ele>
                <time>2018-07-22T03:04:37Z</time>
            </trkpt>
            <trkpt lon="101.064293" lat="13.027989">
                <ele>107.100000</ele>
                <time>2018-07-22T03:04:38Z</time>
            </trkpt>
            <trkpt lon="101.064242" lat="13.027976">
                <ele>107.100000</ele>
                <time>2018-07-22T03:04:39Z</time>
            </trkpt>
            <trkpt lon="101.064187" lat="13.027965">
                <ele>107.000000</ele>
                <time>2018-07-22T03:04:40Z</time>
            </trkpt>
            <trkpt lon="101.064127" lat="13.027949">
                <ele>106.900000</ele>
                <time>2018-07-22T03:04:41Z</time>
            </trkpt>
            <trkpt lon="101.064070" lat="13.027930">
                <ele>106.700000</ele>
                <time>2018-07-22T03:04:42Z</time>
            </trkpt>
            <trkpt lon="101.064016" lat="13.027909">
                <ele>106.500000</ele>
                <time>2018-07-22T03:04:43Z</time>
            </trkpt>
            <trkpt lon="101.063962" lat="13.027871">
                <ele>106.200000</ele>
                <time>2018-07-22T03:04:44Z</time>
            </trkpt>
            <trkpt lon="101.063905" lat="13.027841">
                <ele>105.900000</ele>
                <time>2018-07-22T03:04:45Z</time>
            </trkpt>
            <trkpt lon="101.063842" lat="13.027832">
                <ele>105.600000</ele>
                <time>2018-07-22T03:04:46Z</time>
            </trkpt>
            <trkpt lon="101.063766" lat="13.027829">
                <ele>105.400000</ele>
                <time>2018-07-22T03:04:47Z</time>
            </trkpt>
            <trkpt lon="101.063695" lat="13.027833">
                <ele>105.400000</ele>
                <time>2018-07-22T03:04:48Z</time>
            </trkpt>
            <trkpt lon="101.063619" lat="13.027837">
                <ele>105.300000</ele>
                <time>2018-07-22T03:04:49Z</time>
            </trkpt>
            <trkpt lon="101.063540" lat="13.027836">
                <ele>105.200000</ele>
                <time>2018-07-22T03:04:50Z</time>
            </trkpt>
            <trkpt lon="101.063463" lat="13.027835">
                <ele>105.200000</ele>
                <time>2018-07-22T03:04:51Z</time>
            </trkpt>
            <trkpt lon="101.063386" lat="13.027833">
                <ele>105.100000</ele>
                <time>2018-07-22T03:04:52Z</time>
            </trkpt>
            <trkpt lon="101.063310" lat="13.027832">
                <ele>105.000000</ele>
                <time>2018-07-22T03:04:53Z</time>
            </trkpt>
            <trkpt lon="101.063235" lat="13.027833">
                <ele>105.000000</ele>
                <time>2018-07-22T03:04:54Z</time>
            </trkpt>
            <trkpt lon="101.063157" lat="13.027832">
                <ele>104.900000</ele>
                <time>2018-07-22T03:04:55Z</time>
            </trkpt>
            <trkpt lon="101.063080" lat="13.027828">
                <ele>104.800000</ele>
                <time>2018-07-22T03:04:56Z</time>
            </trkpt>
            <trkpt lon="101.063005" lat="13.027823">
                <ele>104.700000</ele>
                <time>2018-07-22T03:04:57Z</time>
            </trkpt>
            <trkpt lon="101.062932" lat="13.027825">
                <ele>104.400000</ele>
                <time>2018-07-22T03:04:58Z</time>
            </trkpt>
            <trkpt lon="101.062860" lat="13.027828">
                <ele>104.200000</ele>
                <time>2018-07-22T03:04:59Z</time>
            </trkpt>
            <trkpt lon="101.062786" lat="13.027833">
                <ele>103.900000</ele>
                <time>2018-07-22T03:05:00Z</time>
            </trkpt>
            <trkpt lon="101.062715" lat="13.027841">
                <ele>103.600000</ele>
                <time>2018-07-22T03:05:01Z</time>
            </trkpt>
            <trkpt lon="101.062641" lat="13.027842">
                <ele>103.500000</ele>
                <time>2018-07-22T03:05:02Z</time>
            </trkpt>
            <trkpt lon="101.062570" lat="13.027843">
                <ele>103.400000</ele>
                <time>2018-07-22T03:05:03Z</time>
            </trkpt>
            <trkpt lon="101.062496" lat="13.027844">
                <ele>103.300000</ele>
                <time>2018-07-22T03:05:04Z</time>
            </trkpt>
            <trkpt lon="101.062420" lat="13.027841">
                <ele>103.300000</ele>
                <time>2018-07-22T03:05:05Z</time>
            </trkpt>
            <trkpt lon="101.062344" lat="13.027838">
                <ele>103.300000</ele>
                <time>2018-07-22T03:05:06Z</time>
            </trkpt>
            <trkpt lon="101.062267" lat="13.027837">
                <ele>103.200000</ele>
                <time>2018-07-22T03:05:07Z</time>
            </trkpt>
            <trkpt lon="101.062197" lat="13.027836">
                <ele>103.200000</ele>
                <time>2018-07-22T03:05:08Z</time>
            </trkpt>
            <trkpt lon="101.062129" lat="13.027841">
                <ele>103.100000</ele>
                <time>2018-07-22T03:05:09Z</time>
            </trkpt>
            <trkpt lon="101.062060" lat="13.027843">
                <ele>103.100000</ele>
                <time>2018-07-22T03:05:10Z</time>
            </trkpt>
            <trkpt lon="101.061989" lat="13.027842">
                <ele>103.100000</ele>
                <time>2018-07-22T03:05:11Z</time>
            </trkpt>
            <trkpt lon="101.061919" lat="13.027844">
                <ele>103.100000</ele>
                <time>2018-07-22T03:05:12Z</time>
            </trkpt>
            <trkpt lon="101.061849" lat="13.027846">
                <ele>103.100000</ele>
                <time>2018-07-22T03:05:13Z</time>
            </trkpt>
            <trkpt lon="101.061778" lat="13.027849">
                <ele>103.100000</ele>
                <time>2018-07-22T03:05:14Z</time>
            </trkpt>
            <trkpt lon="101.061709" lat="13.027854">
                <ele>103.100000</ele>
                <time>2018-07-22T03:05:15Z</time>
            </trkpt>
            <trkpt lon="101.061640" lat="13.027861">
                <ele>103.000000</ele>
                <time>2018-07-22T03:05:16Z</time>
            </trkpt>
            <trkpt lon="101.061571" lat="13.027868">
                <ele>103.000000</ele>
                <time>2018-07-22T03:05:17Z</time>
            </trkpt>
            <trkpt lon="101.061499" lat="13.027874">
                <ele>103.000000</ele>
                <time>2018-07-22T03:05:18Z</time>
            </trkpt>
            <trkpt lon="101.061431" lat="13.027881">
                <ele>103.000000</ele>
                <time>2018-07-22T03:05:19Z</time>
            </trkpt>
            <trkpt lon="101.061366" lat="13.027889">
                <ele>103.000000</ele>
                <time>2018-07-22T03:05:20Z</time>
            </trkpt>
            <trkpt lon="101.061303" lat="13.027898">
                <ele>103.000000</ele>
                <time>2018-07-22T03:05:21Z</time>
            </trkpt>
            <trkpt lon="101.061240" lat="13.027909">
                <ele>103.000000</ele>
                <time>2018-07-22T03:05:22Z</time>
            </trkpt>
            <trkpt lon="101.061178" lat="13.027921">
                <ele>103.000000</ele>
                <time>2018-07-22T03:05:23Z</time>
            </trkpt>
            <trkpt lon="101.061119" lat="13.027937">
                <ele>103.000000</ele>
                <time>2018-07-22T03:05:24Z</time>
            </trkpt>
            <trkpt lon="101.061062" lat="13.027955">
                <ele>103.000000</ele>
                <time>2018-07-22T03:05:25Z</time>
            </trkpt>
            <trkpt lon="101.061004" lat="13.027972">
                <ele>103.000000</ele>
                <time>2018-07-22T03:05:26Z</time>
            </trkpt>
            <trkpt lon="101.060948" lat="13.027990">
                <ele>103.000000</ele>
                <time>2018-07-22T03:05:27Z</time>
            </trkpt>
            <trkpt lon="101.060892" lat="13.028008">
                <ele>103.000000</ele>
                <time>2018-07-22T03:05:28Z</time>
            </trkpt>
            <trkpt lon="101.060833" lat="13.028025">
                <ele>103.000000</ele>
                <time>2018-07-22T03:05:29Z</time>
            </trkpt>
            <trkpt lon="101.060777" lat="13.028042">
                <ele>103.000000</ele>
                <time>2018-07-22T03:05:30Z</time>
            </trkpt>
            <trkpt lon="101.060727" lat="13.028056">
                <ele>103.000000</ele>
                <time>2018-07-22T03:05:31Z</time>
            </trkpt>
            <trkpt lon="101.060677" lat="13.028073">
                <ele>103.000000</ele>
                <time>2018-07-22T03:05:32Z</time>
            </trkpt>
            <trkpt lon="101.060626" lat="13.028089">
                <ele>103.000000</ele>
                <time>2018-07-22T03:05:33Z</time>
            </trkpt>
            <trkpt lon="101.060573" lat="13.028105">
                <ele>103.000000</ele>
                <time>2018-07-22T03:05:34Z</time>
            </trkpt>
            <trkpt lon="101.060520" lat="13.028123">
                <ele>103.000000</ele>
                <time>2018-07-22T03:05:35Z</time>
            </trkpt>
            <trkpt lon="101.060468" lat="13.028135">
                <ele>103.000000</ele>
                <time>2018-07-22T03:05:36Z</time>
            </trkpt>
            <trkpt lon="101.060418" lat="13.028144">
                <ele>102.900000</ele>
                <time>2018-07-22T03:05:37Z</time>
            </trkpt>
            <trkpt lon="101.060366" lat="13.028141">
                <ele>102.800000</ele>
                <time>2018-07-22T03:05:38Z</time>
            </trkpt>
            <trkpt lon="101.060307" lat="13.028120">
                <ele>102.500000</ele>
                <time>2018-07-22T03:05:39Z</time>
            </trkpt>
            <trkpt lon="101.060242" lat="13.028101">
                <ele>102.300000</ele>
                <time>2018-07-22T03:05:40Z</time>
            </trkpt>
            <trkpt lon="101.060170" lat="13.028089">
                <ele>101.800000</ele>
                <time>2018-07-22T03:05:41Z</time>
            </trkpt>
            <trkpt lon="101.060096" lat="13.028078">
                <ele>101.400000</ele>
                <time>2018-07-22T03:05:42Z</time>
            </trkpt>
            <trkpt lon="101.060020" lat="13.028068">
                <ele>101.300000</ele>
                <time>2018-07-22T03:05:43Z</time>
            </trkpt>
            <trkpt lon="101.059943" lat="13.028058">
                <ele>101.400000</ele>
                <time>2018-07-22T03:05:44Z</time>
            </trkpt>
            <trkpt lon="101.059864" lat="13.028051">
                <ele>101.800000</ele>
                <time>2018-07-22T03:05:45Z</time>
            </trkpt>
            <trkpt lon="101.059786" lat="13.028042">
                <ele>102.400000</ele>
                <time>2018-07-22T03:05:46Z</time>
            </trkpt>
            <trkpt lon="101.059707" lat="13.028032">
                <ele>102.600000</ele>
                <time>2018-07-22T03:05:47Z</time>
            </trkpt>
            <trkpt lon="101.059624" lat="13.028017">
                <ele>102.800000</ele>
                <time>2018-07-22T03:05:48Z</time>
            </trkpt>
            <trkpt lon="101.059534" lat="13.027995">
                <ele>102.800000</ele>
                <time>2018-07-22T03:05:49Z</time>
            </trkpt>
            <trkpt lon="101.059442" lat="13.027972">
                <ele>102.300000</ele>
                <time>2018-07-22T03:05:50Z</time>
            </trkpt>
            <trkpt lon="101.059353" lat="13.027946">
                <ele>101.600000</ele>
                <time>2018-07-22T03:05:51Z</time>
            </trkpt>
            <trkpt lon="101.059266" lat="13.027912">
                <ele>100.800000</ele>
                <time>2018-07-22T03:05:52Z</time>
            </trkpt>
            <trkpt lon="101.059177" lat="13.027873">
                <ele>99.900000</ele>
                <time>2018-07-22T03:05:53Z</time>
            </trkpt>
            <trkpt lon="101.059088" lat="13.027830">
                <ele>99.100000</ele>
                <time>2018-07-22T03:05:54Z</time>
            </trkpt>
            <trkpt lon="101.058997" lat="13.027795">
                <ele>98.500000</ele>
                <time>2018-07-22T03:05:55Z</time>
            </trkpt>
            <trkpt lon="101.058903" lat="13.027765">
                <ele>98.300000</ele>
                <time>2018-07-22T03:05:56Z</time>
            </trkpt>
            <trkpt lon="101.058815" lat="13.027721">
                <ele>98.300000</ele>
                <time>2018-07-22T03:05:57Z</time>
            </trkpt>
            <trkpt lon="101.058724" lat="13.027683">
                <ele>98.500000</ele>
                <time>2018-07-22T03:05:58Z</time>
            </trkpt>
            <trkpt lon="101.058632" lat="13.027647">
                <ele>98.500000</ele>
                <time>2018-07-22T03:05:59Z</time>
            </trkpt>
            <trkpt lon="101.058539" lat="13.027614">
                <ele>98.200000</ele>
                <time>2018-07-22T03:06:00Z</time>
            </trkpt>
            <trkpt lon="101.058440" lat="13.027579">
                <ele>98.200000</ele>
                <time>2018-07-22T03:06:01Z</time>
            </trkpt>
            <trkpt lon="101.058343" lat="13.027540">
                <ele>98.400000</ele>
                <time>2018-07-22T03:06:02Z</time>
            </trkpt>
            <trkpt lon="101.058251" lat="13.027501">
                <ele>98.100000</ele>
                <time>2018-07-22T03:06:03Z</time>
            </trkpt>
            <trkpt lon="101.058157" lat="13.027469">
                <ele>97.400000</ele>
                <time>2018-07-22T03:06:04Z</time>
            </trkpt>
            <trkpt lon="101.058061" lat="13.027442">
                <ele>96.900000</ele>
                <time>2018-07-22T03:06:05Z</time>
            </trkpt>
            <trkpt lon="101.057965" lat="13.027420">
                <ele>96.100000</ele>
                <time>2018-07-22T03:06:06Z</time>
            </trkpt>
            <trkpt lon="101.057874" lat="13.027406">
                <ele>95.700000</ele>
                <time>2018-07-22T03:06:07Z</time>
            </trkpt>
            <trkpt lon="101.057784" lat="13.027392">
                <ele>95.100000</ele>
                <time>2018-07-22T03:06:08Z</time>
            </trkpt>
            <trkpt lon="101.057698" lat="13.027378">
                <ele>95.100000</ele>
                <time>2018-07-22T03:06:09Z</time>
            </trkpt>
            <trkpt lon="101.057613" lat="13.027361">
                <ele>94.900000</ele>
                <time>2018-07-22T03:06:10Z</time>
            </trkpt>
            <trkpt lon="101.057526" lat="13.027340">
                <ele>95.000000</ele>
                <time>2018-07-22T03:06:11Z</time>
            </trkpt>
            <trkpt lon="101.057440" lat="13.027318">
                <ele>95.200000</ele>
                <time>2018-07-22T03:06:12Z</time>
            </trkpt>
            <trkpt lon="101.057359" lat="13.027291">
                <ele>95.600000</ele>
                <time>2018-07-22T03:06:13Z</time>
            </trkpt>
            <trkpt lon="101.057285" lat="13.027266">
                <ele>95.700000</ele>
                <time>2018-07-22T03:06:14Z</time>
            </trkpt>
            <trkpt lon="101.057224" lat="13.027239">
                <ele>96.000000</ele>
                <time>2018-07-22T03:06:15Z</time>
            </trkpt>
            <trkpt lon="101.057174" lat="13.027217">
                <ele>96.200000</ele>
                <time>2018-07-22T03:06:16Z</time>
            </trkpt>
            <trkpt lon="101.057127" lat="13.027191">
                <ele>96.500000</ele>
                <time>2018-07-22T03:06:17Z</time>
            </trkpt>
            <trkpt lon="101.057106" lat="13.027169">
                <ele>96.600000</ele>
                <time>2018-07-22T03:06:18Z</time>
            </trkpt>
            <trkpt lon="101.057079" lat="13.027159">
                <ele>96.800000</ele>
                <time>2018-07-22T03:06:19Z</time>
            </trkpt>
            <trkpt lon="101.057045" lat="13.027148">
                <ele>96.900000</ele>
                <time>2018-07-22T03:06:20Z</time>
            </trkpt>
            <trkpt lon="101.057007" lat="13.027145">
                <ele>97.000000</ele>
                <time>2018-07-22T03:06:21Z</time>
            </trkpt>
            <trkpt lon="101.056978" lat="13.027146">
                <ele>97.000000</ele>
                <time>2018-07-22T03:06:22Z</time>
            </trkpt>
            <trkpt lon="101.056942" lat="13.027154">
                <ele>97.000000</ele>
                <time>2018-07-22T03:06:23Z</time>
            </trkpt>
            <trkpt lon="101.056906" lat="13.027167">
                <ele>97.000000</ele>
                <time>2018-07-22T03:06:24Z</time>
            </trkpt>
            <trkpt lon="101.056865" lat="13.027186">
                <ele>97.000000</ele>
                <time>2018-07-22T03:06:25Z</time>
            </trkpt>
            <trkpt lon="101.056818" lat="13.027207">
                <ele>97.000000</ele>
                <time>2018-07-22T03:06:26Z</time>
            </trkpt>
            <trkpt lon="101.056764" lat="13.027233">
                <ele>97.000000</ele>
                <time>2018-07-22T03:06:27Z</time>
            </trkpt>
            <trkpt lon="101.056710" lat="13.027257">
                <ele>97.200000</ele>
                <time>2018-07-22T03:06:28Z</time>
            </trkpt>
            <trkpt lon="101.056653" lat="13.027280">
                <ele>97.700000</ele>
                <time>2018-07-22T03:06:29Z</time>
            </trkpt>
            <trkpt lon="101.056591" lat="13.027306">
                <ele>97.900000</ele>
                <time>2018-07-22T03:06:30Z</time>
            </trkpt>
            <trkpt lon="101.056529" lat="13.027332">
                <ele>97.900000</ele>
                <time>2018-07-22T03:06:31Z</time>
            </trkpt>
            <trkpt lon="101.056466" lat="13.027357">
                <ele>97.900000</ele>
                <time>2018-07-22T03:06:32Z</time>
            </trkpt>
            <trkpt lon="101.056400" lat="13.027382">
                <ele>97.500000</ele>
                <time>2018-07-22T03:06:33Z</time>
            </trkpt>
            <trkpt lon="101.056334" lat="13.027408">
                <ele>97.200000</ele>
                <time>2018-07-22T03:06:34Z</time>
            </trkpt>
            <trkpt lon="101.056268" lat="13.027433">
                <ele>96.900000</ele>
                <time>2018-07-22T03:06:35Z</time>
            </trkpt>
            <trkpt lon="101.056200" lat="13.027455">
                <ele>96.900000</ele>
                <time>2018-07-22T03:06:36Z</time>
            </trkpt>
            <trkpt lon="101.056133" lat="13.027476">
                <ele>96.900000</ele>
                <time>2018-07-22T03:06:37Z</time>
            </trkpt>
            <trkpt lon="101.056060" lat="13.027493">
                <ele>96.500000</ele>
                <time>2018-07-22T03:06:38Z</time>
            </trkpt>
            <trkpt lon="101.055988" lat="13.027509">
                <ele>96.300000</ele>
                <time>2018-07-22T03:06:39Z</time>
            </trkpt>
            <trkpt lon="101.055912" lat="13.027517">
                <ele>95.800000</ele>
                <time>2018-07-22T03:06:40Z</time>
            </trkpt>
            <trkpt lon="101.055834" lat="13.027526">
                <ele>95.300000</ele>
                <time>2018-07-22T03:06:41Z</time>
            </trkpt>
            <trkpt lon="101.055754" lat="13.027532">
                <ele>94.900000</ele>
                <time>2018-07-22T03:06:42Z</time>
            </trkpt>
            <trkpt lon="101.055674" lat="13.027534">
                <ele>94.400000</ele>
                <time>2018-07-22T03:06:43Z</time>
            </trkpt>
            <trkpt lon="101.055593" lat="13.027540">
                <ele>93.900000</ele>
                <time>2018-07-22T03:06:44Z</time>
            </trkpt>
            <trkpt lon="101.055510" lat="13.027540">
                <ele>93.600000</ele>
                <time>2018-07-22T03:06:45Z</time>
            </trkpt>
            <trkpt lon="101.055429" lat="13.027543">
                <ele>93.100000</ele>
                <time>2018-07-22T03:06:46Z</time>
            </trkpt>
            <trkpt lon="101.055351" lat="13.027546">
                <ele>92.500000</ele>
                <time>2018-07-22T03:06:47Z</time>
            </trkpt>
            <trkpt lon="101.055275" lat="13.027547">
                <ele>92.000000</ele>
                <time>2018-07-22T03:06:48Z</time>
            </trkpt>
            <trkpt lon="101.055204" lat="13.027556">
                <ele>91.400000</ele>
                <time>2018-07-22T03:06:49Z</time>
            </trkpt>
            <trkpt lon="101.055131" lat="13.027556">
                <ele>91.200000</ele>
                <time>2018-07-22T03:06:50Z</time>
            </trkpt>
            <trkpt lon="101.055059" lat="13.027560">
                <ele>91.000000</ele>
                <time>2018-07-22T03:06:51Z</time>
            </trkpt>
            <trkpt lon="101.054988" lat="13.027563">
                <ele>92.000000</ele>
                <time>2018-07-22T03:06:52Z</time>
            </trkpt>
            <trkpt lon="101.054920" lat="13.027561">
                <ele>92.400000</ele>
                <time>2018-07-22T03:06:53Z</time>
            </trkpt>
            <trkpt lon="101.054852" lat="13.027560">
                <ele>93.400000</ele>
                <time>2018-07-22T03:06:54Z</time>
            </trkpt>
            <trkpt lon="101.054789" lat="13.027561">
                <ele>93.900000</ele>
                <time>2018-07-22T03:06:55Z</time>
            </trkpt>
            <trkpt lon="101.054728" lat="13.027556">
                <ele>94.800000</ele>
                <time>2018-07-22T03:06:56Z</time>
            </trkpt>
            <trkpt lon="101.054667" lat="13.027550">
                <ele>95.200000</ele>
                <time>2018-07-22T03:06:57Z</time>
            </trkpt>
            <trkpt lon="101.054606" lat="13.027543">
                <ele>95.700000</ele>
                <time>2018-07-22T03:06:58Z</time>
            </trkpt>
            <trkpt lon="101.054545" lat="13.027528">
                <ele>95.900000</ele>
                <time>2018-07-22T03:06:59Z</time>
            </trkpt>
            <trkpt lon="101.054490" lat="13.027504">
                <ele>95.900000</ele>
                <time>2018-07-22T03:07:00Z</time>
            </trkpt>
            <trkpt lon="101.054441" lat="13.027473">
                <ele>95.900000</ele>
                <time>2018-07-22T03:07:01Z</time>
            </trkpt>
            <trkpt lon="101.054395" lat="13.027441">
                <ele>95.900000</ele>
                <time>2018-07-22T03:07:02Z</time>
            </trkpt>
            <trkpt lon="101.054350" lat="13.027411">
                <ele>95.900000</ele>
                <time>2018-07-22T03:07:03Z</time>
            </trkpt>
            <trkpt lon="101.054305" lat="13.027379">
                <ele>95.900000</ele>
                <time>2018-07-22T03:07:04Z</time>
            </trkpt>
            <trkpt lon="101.054262" lat="13.027351">
                <ele>95.900000</ele>
                <time>2018-07-22T03:07:05Z</time>
            </trkpt>
            <trkpt lon="101.054222" lat="13.027325">
                <ele>95.900000</ele>
                <time>2018-07-22T03:07:06Z</time>
            </trkpt>
            <trkpt lon="101.054182" lat="13.027296">
                <ele>95.800000</ele>
                <time>2018-07-22T03:07:07Z</time>
            </trkpt>
            <trkpt lon="101.054141" lat="13.027266">
                <ele>95.600000</ele>
                <time>2018-07-22T03:07:08Z</time>
            </trkpt>
            <trkpt lon="101.054098" lat="13.027236">
                <ele>95.300000</ele>
                <time>2018-07-22T03:07:09Z</time>
            </trkpt>
            <trkpt lon="101.054058" lat="13.027209">
                <ele>95.100000</ele>
                <time>2018-07-22T03:07:10Z</time>
            </trkpt>
            <trkpt lon="101.054020" lat="13.027183">
                <ele>94.900000</ele>
                <time>2018-07-22T03:07:11Z</time>
            </trkpt>
            <trkpt lon="101.053984" lat="13.027157">
                <ele>94.900000</ele>
                <time>2018-07-22T03:07:12Z</time>
            </trkpt>
            <trkpt lon="101.053944" lat="13.027132">
                <ele>94.900000</ele>
                <time>2018-07-22T03:07:13Z</time>
            </trkpt>
            <trkpt lon="101.053905" lat="13.027110">
                <ele>94.600000</ele>
                <time>2018-07-22T03:07:14Z</time>
            </trkpt>
            <trkpt lon="101.053867" lat="13.027090">
                <ele>94.700000</ele>
                <time>2018-07-22T03:07:15Z</time>
            </trkpt>
            <trkpt lon="101.053829" lat="13.027071">
                <ele>94.600000</ele>
                <time>2018-07-22T03:07:16Z</time>
            </trkpt>
            <trkpt lon="101.053789" lat="13.027053">
                <ele>95.000000</ele>
                <time>2018-07-22T03:07:17Z</time>
            </trkpt>
            <trkpt lon="101.053747" lat="13.027042">
                <ele>95.000000</ele>
                <time>2018-07-22T03:07:18Z</time>
            </trkpt>
            <trkpt lon="101.053710" lat="13.027036">
                <ele>95.000000</ele>
                <time>2018-07-22T03:07:19Z</time>
            </trkpt>
            <trkpt lon="101.053671" lat="13.027031">
                <ele>94.900000</ele>
                <time>2018-07-22T03:07:20Z</time>
            </trkpt>
            <trkpt lon="101.053633" lat="13.027027">
                <ele>94.600000</ele>
                <time>2018-07-22T03:07:21Z</time>
            </trkpt>
            <trkpt lon="101.053597" lat="13.027022">
                <ele>94.400000</ele>
                <time>2018-07-22T03:07:22Z</time>
            </trkpt>
            <trkpt lon="101.053564" lat="13.027020">
                <ele>94.100000</ele>
                <time>2018-07-22T03:07:23Z</time>
            </trkpt>
            <trkpt lon="101.053532" lat="13.027017">
                <ele>93.900000</ele>
                <time>2018-07-22T03:07:24Z</time>
            </trkpt>
            <trkpt lon="101.053503" lat="13.027010">
                <ele>94.100000</ele>
                <time>2018-07-22T03:07:25Z</time>
            </trkpt>
            <trkpt lon="101.053458" lat="13.026994">
                <ele>93.900000</ele>
                <time>2018-07-22T03:07:27Z</time>
            </trkpt>
            <trkpt lon="101.053415" lat="13.026973">
                <ele>93.600000</ele>
                <time>2018-07-22T03:07:29Z</time>
            </trkpt>
            <trkpt lon="101.053392" lat="13.026954">
                <ele>93.600000</ele>
                <time>2018-07-22T03:07:30Z</time>
            </trkpt>
            <trkpt lon="101.053379" lat="13.026921">
                <ele>93.900000</ele>
                <time>2018-07-22T03:07:32Z</time>
            </trkpt>
            <trkpt lon="101.053373" lat="13.026881">
                <ele>94.200000</ele>
                <time>2018-07-22T03:07:35Z</time>
            </trkpt>
            <trkpt lon="101.053389" lat="13.026855">
                <ele>94.200000</ele>
                <time>2018-07-22T03:07:37Z</time>
            </trkpt>
            <trkpt lon="101.053411" lat="13.026829">
                <ele>94.800000</ele>
                <time>2018-07-22T03:07:39Z</time>
            </trkpt>
            <trkpt lon="101.053437" lat="13.026803">
                <ele>94.800000</ele>
                <time>2018-07-22T03:07:41Z</time>
            </trkpt>
            <trkpt lon="101.053460" lat="13.026782">
                <ele>95.300000</ele>
                <time>2018-07-22T03:07:43Z</time>
            </trkpt>
            <trkpt lon="101.053485" lat="13.026753">
                <ele>95.600000</ele>
                <time>2018-07-22T03:07:45Z</time>
            </trkpt>
            <trkpt lon="101.053508" lat="13.026730">
                <ele>95.700000</ele>
                <time>2018-07-22T03:07:47Z</time>
            </trkpt>
            <trkpt lon="101.053537" lat="13.026692">
                <ele>96.200000</ele>
                <time>2018-07-22T03:07:49Z</time>
            </trkpt>
            <trkpt lon="101.053563" lat="13.026654">
                <ele>96.700000</ele>
                <time>2018-07-22T03:07:51Z</time>
            </trkpt>
            <trkpt lon="101.053589" lat="13.026618">
                <ele>97.400000</ele>
                <time>2018-07-22T03:07:53Z</time>
            </trkpt>
            <trkpt lon="101.053610" lat="13.026587">
                <ele>97.900000</ele>
                <time>2018-07-22T03:07:55Z</time>
            </trkpt>
            <trkpt lon="101.053624" lat="13.026561">
                <ele>98.200000</ele>
                <time>2018-07-22T03:07:57Z</time>
            </trkpt>
            <trkpt lon="101.053644" lat="13.026529">
                <ele>98.600000</ele>
                <time>2018-07-22T03:07:59Z</time>
            </trkpt>
            <trkpt lon="101.053664" lat="13.026502">
                <ele>99.100000</ele>
                <time>2018-07-22T03:08:01Z</time>
            </trkpt>
            <trkpt lon="101.053686" lat="13.026470">
                <ele>99.100000</ele>
                <time>2018-07-22T03:08:03Z</time>
            </trkpt>
            <trkpt lon="101.053711" lat="13.026433">
                <ele>99.400000</ele>
                <time>2018-07-22T03:08:05Z</time>
            </trkpt>
            <trkpt lon="101.053743" lat="13.026402">
                <ele>99.700000</ele>
                <time>2018-07-22T03:08:07Z</time>
            </trkpt>
            <trkpt lon="101.053763" lat="13.026375">
                <ele>99.900000</ele>
                <time>2018-07-22T03:08:09Z</time>
            </trkpt>
            <trkpt lon="101.053787" lat="13.026342">
                <ele>100.200000</ele>
                <time>2018-07-22T03:08:11Z</time>
            </trkpt>
            <trkpt lon="101.053809" lat="13.026310">
                <ele>100.200000</ele>
                <time>2018-07-22T03:08:13Z</time>
            </trkpt>
            <trkpt lon="101.053830" lat="13.026285">
                <ele>100.400000</ele>
                <time>2018-07-22T03:08:15Z</time>
            </trkpt>
            <trkpt lon="101.053854" lat="13.026257">
                <ele>100.700000</ele>
                <time>2018-07-22T03:08:17Z</time>
            </trkpt>
            <trkpt lon="101.053876" lat="13.026233">
                <ele>100.700000</ele>
                <time>2018-07-22T03:08:19Z</time>
            </trkpt>
            <trkpt lon="101.053906" lat="13.026204">
                <ele>100.900000</ele>
                <time>2018-07-22T03:08:21Z</time>
            </trkpt>
            <trkpt lon="101.053924" lat="13.026181">
                <ele>100.900000</ele>
                <time>2018-07-22T03:08:25Z</time>
            </trkpt>
            <trkpt lon="101.053945" lat="13.026148">
                <ele>101.200000</ele>
                <time>2018-07-22T03:08:32Z</time>
            </trkpt>
            <trkpt lon="101.053967" lat="13.026120">
                <ele>101.400000</ele>
                <time>2018-07-22T03:08:34Z</time>
            </trkpt>
            <trkpt lon="101.054004" lat="13.026097">
                <ele>101.400000</ele>
                <time>2018-07-22T03:08:36Z</time>
            </trkpt>
            <trkpt lon="101.054040" lat="13.026063">
                <ele>101.700000</ele>
                <time>2018-07-22T03:08:38Z</time>
            </trkpt>
            <trkpt lon="101.054074" lat="13.026031">
                <ele>101.800000</ele>
                <time>2018-07-22T03:08:40Z</time>
            </trkpt>
            <trkpt lon="101.054110" lat="13.025986">
                <ele>102.000000</ele>
                <time>2018-07-22T03:08:42Z</time>
            </trkpt>
            <trkpt lon="101.054133" lat="13.025960">
                <ele>102.800000</ele>
                <time>2018-07-22T03:08:43Z</time>
            </trkpt>
            <trkpt lon="101.054152" lat="13.025940">
                <ele>102.900000</ele>
                <time>2018-07-22T03:08:44Z</time>
            </trkpt>
            <trkpt lon="101.054171" lat="13.025919">
                <ele>103.400000</ele>
                <time>2018-07-22T03:08:45Z</time>
            </trkpt>
            <trkpt lon="101.054196" lat="13.025891">
                <ele>103.700000</ele>
                <time>2018-07-22T03:08:47Z</time>
            </trkpt>
            <trkpt lon="101.054231" lat="13.025854">
                <ele>104.100000</ele>
                <time>2018-07-22T03:08:49Z</time>
            </trkpt>
            <trkpt lon="101.054257" lat="13.025822">
                <ele>104.300000</ele>
                <time>2018-07-22T03:08:51Z</time>
            </trkpt>
            <trkpt lon="101.054296" lat="13.025791">
                <ele>104.600000</ele>
                <time>2018-07-22T03:08:53Z</time>
            </trkpt>
            <trkpt lon="101.054316" lat="13.025766">
                <ele>104.600000</ele>
                <time>2018-07-22T03:08:54Z</time>
            </trkpt>
            <trkpt lon="101.054352" lat="13.025730">
                <ele>104.800000</ele>
                <time>2018-07-22T03:08:56Z</time>
            </trkpt>
            <trkpt lon="101.054385" lat="13.025694">
                <ele>104.900000</ele>
                <time>2018-07-22T03:08:58Z</time>
            </trkpt>
            <trkpt lon="101.054399" lat="13.025669">
                <ele>104.900000</ele>
                <time>2018-07-22T03:08:59Z</time>
            </trkpt>
            <trkpt lon="101.054422" lat="13.025624">
                <ele>104.900000</ele>
                <time>2018-07-22T03:09:01Z</time>
            </trkpt>
            <trkpt lon="101.054436" lat="13.025589">
                <ele>104.900000</ele>
                <time>2018-07-22T03:09:03Z</time>
            </trkpt>
            <trkpt lon="101.054457" lat="13.025558">
                <ele>104.900000</ele>
                <time>2018-07-22T03:09:05Z</time>
            </trkpt>
            <trkpt lon="101.054471" lat="13.025517">
                <ele>105.100000</ele>
                <time>2018-07-22T03:09:07Z</time>
            </trkpt>
            <trkpt lon="101.054485" lat="13.025475">
                <ele>105.300000</ele>
                <time>2018-07-22T03:09:09Z</time>
            </trkpt>
            <trkpt lon="101.054503" lat="13.025434">
                <ele>105.600000</ele>
                <time>2018-07-22T03:09:11Z</time>
            </trkpt>
            <trkpt lon="101.054510" lat="13.025390">
                <ele>105.800000</ele>
                <time>2018-07-22T03:09:13Z</time>
            </trkpt>
            <trkpt lon="101.054516" lat="13.025350">
                <ele>105.900000</ele>
                <time>2018-07-22T03:09:15Z</time>
            </trkpt>
            <trkpt lon="101.054520" lat="13.025301">
                <ele>105.900000</ele>
                <time>2018-07-22T03:09:17Z</time>
            </trkpt>
            <trkpt lon="101.054528" lat="13.025250">
                <ele>105.900000</ele>
                <time>2018-07-22T03:09:19Z</time>
            </trkpt>
            <trkpt lon="101.054534" lat="13.025206">
                <ele>106.100000</ele>
                <time>2018-07-22T03:09:21Z</time>
            </trkpt>
            <trkpt lon="101.054543" lat="13.025176">
                <ele>106.100000</ele>
                <time>2018-07-22T03:09:23Z</time>
            </trkpt>
            <trkpt lon="101.054551" lat="13.025136">
                <ele>106.300000</ele>
                <time>2018-07-22T03:09:25Z</time>
            </trkpt>
            <trkpt lon="101.054555" lat="13.025099">
                <ele>106.600000</ele>
                <time>2018-07-22T03:09:27Z</time>
            </trkpt>
            <trkpt lon="101.054566" lat="13.025062">
                <ele>107.000000</ele>
                <time>2018-07-22T03:09:29Z</time>
            </trkpt>
            <trkpt lon="101.054576" lat="13.025024">
                <ele>107.200000</ele>
                <time>2018-07-22T03:09:31Z</time>
            </trkpt>
            <trkpt lon="101.054585" lat="13.024987">
                <ele>107.500000</ele>
                <time>2018-07-22T03:09:33Z</time>
            </trkpt>
            <trkpt lon="101.054593" lat="13.024951">
                <ele>107.700000</ele>
                <time>2018-07-22T03:09:35Z</time>
            </trkpt>
            <trkpt lon="101.054599" lat="13.024900">
                <ele>108.000000</ele>
                <time>2018-07-22T03:09:37Z</time>
            </trkpt>
            <trkpt lon="101.054602" lat="13.024854">
                <ele>108.200000</ele>
                <time>2018-07-22T03:09:39Z</time>
            </trkpt>
            <trkpt lon="101.054606" lat="13.024817">
                <ele>108.400000</ele>
                <time>2018-07-22T03:09:41Z</time>
            </trkpt>
            <trkpt lon="101.054606" lat="13.024775">
                <ele>108.600000</ele>
                <time>2018-07-22T03:09:43Z</time>
            </trkpt>
            <trkpt lon="101.054606" lat="13.024738">
                <ele>108.800000</ele>
                <time>2018-07-22T03:09:45Z</time>
            </trkpt>
            <trkpt lon="101.054605" lat="13.024693">
                <ele>108.700000</ele>
                <time>2018-07-22T03:09:47Z</time>
            </trkpt>
            <trkpt lon="101.054614" lat="13.024651">
                <ele>108.600000</ele>
                <time>2018-07-22T03:09:49Z</time>
            </trkpt>
            <trkpt lon="101.054623" lat="13.024613">
                <ele>108.500000</ele>
                <time>2018-07-22T03:09:51Z</time>
            </trkpt>
            <trkpt lon="101.054628" lat="13.024581">
                <ele>108.300000</ele>
                <time>2018-07-22T03:09:53Z</time>
            </trkpt>
            <trkpt lon="101.054639" lat="13.024541">
                <ele>108.400000</ele>
                <time>2018-07-22T03:09:55Z</time>
            </trkpt>
            <trkpt lon="101.054650" lat="13.024496">
                <ele>108.700000</ele>
                <time>2018-07-22T03:09:57Z</time>
            </trkpt>
            <trkpt lon="101.054660" lat="13.024456">
                <ele>108.800000</ele>
                <time>2018-07-22T03:09:59Z</time>
            </trkpt>
            <trkpt lon="101.054666" lat="13.024430">
                <ele>108.800000</ele>
                <time>2018-07-22T03:10:00Z</time>
            </trkpt>
            <trkpt lon="101.054673" lat="13.024376">
                <ele>109.000000</ele>
                <time>2018-07-22T03:10:02Z</time>
            </trkpt>
            <trkpt lon="101.054677" lat="13.024347">
                <ele>109.000000</ele>
                <time>2018-07-22T03:10:03Z</time>
            </trkpt>
            <trkpt lon="101.054685" lat="13.024293">
                <ele>109.300000</ele>
                <time>2018-07-22T03:10:05Z</time>
            </trkpt>
            <trkpt lon="101.054690" lat="13.024264">
                <ele>109.300000</ele>
                <time>2018-07-22T03:10:06Z</time>
            </trkpt>
            <trkpt lon="101.054696" lat="13.024234">
                <ele>109.700000</ele>
                <time>2018-07-22T03:10:07Z</time>
            </trkpt>
            <trkpt lon="101.054703" lat="13.024207">
                <ele>110.000000</ele>
                <time>2018-07-22T03:10:08Z</time>
            </trkpt>
            <trkpt lon="101.054709" lat="13.024179">
                <ele>110.000000</ele>
                <time>2018-07-22T03:10:09Z</time>
            </trkpt>
            <trkpt lon="101.054714" lat="13.024152">
                <ele>110.200000</ele>
                <time>2018-07-22T03:10:10Z</time>
            </trkpt>
            <trkpt lon="101.054722" lat="13.024105">
                <ele>110.500000</ele>
                <time>2018-07-22T03:10:12Z</time>
            </trkpt>
            <trkpt lon="101.054728" lat="13.024060">
                <ele>110.700000</ele>
                <time>2018-07-22T03:10:14Z</time>
            </trkpt>
            <trkpt lon="101.054734" lat="13.024032">
                <ele>110.800000</ele>
                <time>2018-07-22T03:10:15Z</time>
            </trkpt>
            <trkpt lon="101.054738" lat="13.024004">
                <ele>110.900000</ele>
                <time>2018-07-22T03:10:16Z</time>
            </trkpt>
            <trkpt lon="101.054740" lat="13.023977">
                <ele>110.900000</ele>
                <time>2018-07-22T03:10:17Z</time>
            </trkpt>
            <trkpt lon="101.054747" lat="13.023928">
                <ele>110.900000</ele>
                <time>2018-07-22T03:10:19Z</time>
            </trkpt>
            <trkpt lon="101.054753" lat="13.023901">
                <ele>110.900000</ele>
                <time>2018-07-22T03:10:20Z</time>
            </trkpt>
            <trkpt lon="101.054766" lat="13.023856">
                <ele>110.900000</ele>
                <time>2018-07-22T03:10:22Z</time>
            </trkpt>
            <trkpt lon="101.054782" lat="13.023800">
                <ele>111.100000</ele>
                <time>2018-07-22T03:10:24Z</time>
            </trkpt>
            <trkpt lon="101.054785" lat="13.023765">
                <ele>111.200000</ele>
                <time>2018-07-22T03:10:25Z</time>
            </trkpt>
            <trkpt lon="101.054787" lat="13.023731">
                <ele>111.300000</ele>
                <time>2018-07-22T03:10:26Z</time>
            </trkpt>
            <trkpt lon="101.054788" lat="13.023695">
                <ele>111.300000</ele>
                <time>2018-07-22T03:10:27Z</time>
            </trkpt>
            <trkpt lon="101.054797" lat="13.023662">
                <ele>111.300000</ele>
                <time>2018-07-22T03:10:28Z</time>
            </trkpt>
            <trkpt lon="101.054805" lat="13.023634">
                <ele>111.300000</ele>
                <time>2018-07-22T03:10:29Z</time>
            </trkpt>
            <trkpt lon="101.054808" lat="13.023600">
                <ele>111.300000</ele>
                <time>2018-07-22T03:10:30Z</time>
            </trkpt>
            <trkpt lon="101.054813" lat="13.023568">
                <ele>111.300000</ele>
                <time>2018-07-22T03:10:31Z</time>
            </trkpt>
            <trkpt lon="101.054818" lat="13.023541">
                <ele>111.300000</ele>
                <time>2018-07-22T03:10:32Z</time>
            </trkpt>
            <trkpt lon="101.054824" lat="13.023514">
                <ele>111.600000</ele>
                <time>2018-07-22T03:10:33Z</time>
            </trkpt>
            <trkpt lon="101.054830" lat="13.023487">
                <ele>111.700000</ele>
                <time>2018-07-22T03:10:34Z</time>
            </trkpt>
            <trkpt lon="101.054839" lat="13.023436">
                <ele>111.800000</ele>
                <time>2018-07-22T03:10:36Z</time>
            </trkpt>
            <trkpt lon="101.054843" lat="13.023405">
                <ele>111.900000</ele>
                <time>2018-07-22T03:10:37Z</time>
            </trkpt>
            <trkpt lon="101.054847" lat="13.023370">
                <ele>112.100000</ele>
                <time>2018-07-22T03:10:38Z</time>
            </trkpt>
            <trkpt lon="101.054854" lat="13.023312">
                <ele>112.300000</ele>
                <time>2018-07-22T03:10:40Z</time>
            </trkpt>
            <trkpt lon="101.054858" lat="13.023283">
                <ele>112.600000</ele>
                <time>2018-07-22T03:10:41Z</time>
            </trkpt>
            <trkpt lon="101.054863" lat="13.023253">
                <ele>112.600000</ele>
                <time>2018-07-22T03:10:42Z</time>
            </trkpt>
            <trkpt lon="101.054865" lat="13.023222">
                <ele>112.800000</ele>
                <time>2018-07-22T03:10:43Z</time>
            </trkpt>
            <trkpt lon="101.054868" lat="13.023194">
                <ele>113.000000</ele>
                <time>2018-07-22T03:10:44Z</time>
            </trkpt>
            <trkpt lon="101.054872" lat="13.023138">
                <ele>113.300000</ele>
                <time>2018-07-22T03:10:46Z</time>
            </trkpt>
            <trkpt lon="101.054875" lat="13.023110">
                <ele>113.500000</ele>
                <time>2018-07-22T03:10:47Z</time>
            </trkpt>
            <trkpt lon="101.054877" lat="13.023081">
                <ele>113.500000</ele>
                <time>2018-07-22T03:10:48Z</time>
            </trkpt>
            <trkpt lon="101.054876" lat="13.023032">
                <ele>113.800000</ele>
                <time>2018-07-22T03:10:50Z</time>
            </trkpt>
            <trkpt lon="101.054879" lat="13.023003">
                <ele>113.800000</ele>
                <time>2018-07-22T03:10:51Z</time>
            </trkpt>
            <trkpt lon="101.054884" lat="13.022973">
                <ele>113.800000</ele>
                <time>2018-07-22T03:10:52Z</time>
            </trkpt>
            <trkpt lon="101.054883" lat="13.022942">
                <ele>113.900000</ele>
                <time>2018-07-22T03:10:53Z</time>
            </trkpt>
            <trkpt lon="101.054882" lat="13.022908">
                <ele>113.900000</ele>
                <time>2018-07-22T03:10:54Z</time>
            </trkpt>
            <trkpt lon="101.054887" lat="13.022881">
                <ele>113.900000</ele>
                <time>2018-07-22T03:10:55Z</time>
            </trkpt>
            <trkpt lon="101.054891" lat="13.022854">
                <ele>114.000000</ele>
                <time>2018-07-22T03:10:56Z</time>
            </trkpt>
            <trkpt lon="101.054893" lat="13.022822">
                <ele>114.300000</ele>
                <time>2018-07-22T03:10:57Z</time>
            </trkpt>
            <trkpt lon="101.054894" lat="13.022785">
                <ele>114.500000</ele>
                <time>2018-07-22T03:10:58Z</time>
            </trkpt>
            <trkpt lon="101.054890" lat="13.022752">
                <ele>114.500000</ele>
                <time>2018-07-22T03:10:59Z</time>
            </trkpt>
            <trkpt lon="101.054888" lat="13.022723">
                <ele>114.800000</ele>
                <time>2018-07-22T03:11:00Z</time>
            </trkpt>
            <trkpt lon="101.054892" lat="13.022696">
                <ele>115.000000</ele>
                <time>2018-07-22T03:11:01Z</time>
            </trkpt>
            <trkpt lon="101.054894" lat="13.022666">
                <ele>115.000000</ele>
                <time>2018-07-22T03:11:02Z</time>
            </trkpt>
            <trkpt lon="101.054893" lat="13.022630">
                <ele>115.300000</ele>
                <time>2018-07-22T03:11:03Z</time>
            </trkpt>
            <trkpt lon="101.054893" lat="13.022593">
                <ele>115.500000</ele>
                <time>2018-07-22T03:11:04Z</time>
            </trkpt>
            <trkpt lon="101.054894" lat="13.022554">
                <ele>115.800000</ele>
                <time>2018-07-22T03:11:05Z</time>
            </trkpt>
            <trkpt lon="101.054894" lat="13.022516">
                <ele>115.900000</ele>
                <time>2018-07-22T03:11:06Z</time>
            </trkpt>
            <trkpt lon="101.054894" lat="13.022480">
                <ele>115.900000</ele>
                <time>2018-07-22T03:11:07Z</time>
            </trkpt>
            <trkpt lon="101.054895" lat="13.022442">
                <ele>115.900000</ele>
                <time>2018-07-22T03:11:08Z</time>
            </trkpt>
            <trkpt lon="101.054893" lat="13.022407">
                <ele>115.900000</ele>
                <time>2018-07-22T03:11:09Z</time>
            </trkpt>
            <trkpt lon="101.054889" lat="13.022380">
                <ele>115.900000</ele>
                <time>2018-07-22T03:11:10Z</time>
            </trkpt>
            <trkpt lon="101.054889" lat="13.022347">
                <ele>115.900000</ele>
                <time>2018-07-22T03:11:11Z</time>
            </trkpt>
            <trkpt lon="101.054889" lat="13.022306">
                <ele>115.900000</ele>
                <time>2018-07-22T03:11:12Z</time>
            </trkpt>
            <trkpt lon="101.054884" lat="13.022263">
                <ele>115.900000</ele>
                <time>2018-07-22T03:11:13Z</time>
            </trkpt>
            <trkpt lon="101.054883" lat="13.022226">
                <ele>115.900000</ele>
                <time>2018-07-22T03:11:14Z</time>
            </trkpt>
            <trkpt lon="101.054882" lat="13.022195">
                <ele>115.900000</ele>
                <time>2018-07-22T03:11:15Z</time>
            </trkpt>
            <trkpt lon="101.054878" lat="13.022164">
                <ele>115.900000</ele>
                <time>2018-07-22T03:11:16Z</time>
            </trkpt>
            <trkpt lon="101.054877" lat="13.022127">
                <ele>115.900000</ele>
                <time>2018-07-22T03:11:17Z</time>
            </trkpt>
            <trkpt lon="101.054878" lat="13.022095">
                <ele>115.900000</ele>
                <time>2018-07-22T03:11:18Z</time>
            </trkpt>
            <trkpt lon="101.054877" lat="13.022051">
                <ele>116.000000</ele>
                <time>2018-07-22T03:11:19Z</time>
            </trkpt>
            <trkpt lon="101.054873" lat="13.022010">
                <ele>116.100000</ele>
                <time>2018-07-22T03:11:20Z</time>
            </trkpt>
            <trkpt lon="101.054869" lat="13.021976">
                <ele>116.300000</ele>
                <time>2018-07-22T03:11:21Z</time>
            </trkpt>
            <trkpt lon="101.054866" lat="13.021941">
                <ele>116.600000</ele>
                <time>2018-07-22T03:11:22Z</time>
            </trkpt>
            <trkpt lon="101.054862" lat="13.021905">
                <ele>116.800000</ele>
                <time>2018-07-22T03:11:23Z</time>
            </trkpt>
            <trkpt lon="101.054859" lat="13.021870">
                <ele>116.800000</ele>
                <time>2018-07-22T03:11:24Z</time>
            </trkpt>
            <trkpt lon="101.054854" lat="13.021830">
                <ele>116.900000</ele>
                <time>2018-07-22T03:11:25Z</time>
            </trkpt>
            <trkpt lon="101.054848" lat="13.021794">
                <ele>117.000000</ele>
                <time>2018-07-22T03:11:26Z</time>
            </trkpt>
            <trkpt lon="101.054845" lat="13.021757">
                <ele>117.100000</ele>
                <time>2018-07-22T03:11:27Z</time>
            </trkpt>
            <trkpt lon="101.054838" lat="13.021718">
                <ele>117.200000</ele>
                <time>2018-07-22T03:11:28Z</time>
            </trkpt>
            <trkpt lon="101.054830" lat="13.021678">
                <ele>117.200000</ele>
                <time>2018-07-22T03:11:29Z</time>
            </trkpt>
            <trkpt lon="101.054822" lat="13.021638">
                <ele>117.200000</ele>
                <time>2018-07-22T03:11:30Z</time>
            </trkpt>
            <trkpt lon="101.054814" lat="13.021601">
                <ele>117.500000</ele>
                <time>2018-07-22T03:11:31Z</time>
            </trkpt>
            <trkpt lon="101.054806" lat="13.021564">
                <ele>117.500000</ele>
                <time>2018-07-22T03:11:32Z</time>
            </trkpt>
            <trkpt lon="101.054800" lat="13.021525">
                <ele>117.400000</ele>
                <time>2018-07-22T03:11:33Z</time>
            </trkpt>
            <trkpt lon="101.054793" lat="13.021490">
                <ele>117.200000</ele>
                <time>2018-07-22T03:11:34Z</time>
            </trkpt>
            <trkpt lon="101.054787" lat="13.021452">
                <ele>117.200000</ele>
                <time>2018-07-22T03:11:35Z</time>
            </trkpt>
            <trkpt lon="101.054780" lat="13.021415">
                <ele>117.100000</ele>
                <time>2018-07-22T03:11:36Z</time>
            </trkpt>
            <trkpt lon="101.054769" lat="13.021379">
                <ele>117.000000</ele>
                <time>2018-07-22T03:11:37Z</time>
            </trkpt>
            <trkpt lon="101.054754" lat="13.021352">
                <ele>116.900000</ele>
                <time>2018-07-22T03:11:38Z</time>
            </trkpt>
            <trkpt lon="101.054733" lat="13.021328">
                <ele>116.900000</ele>
                <time>2018-07-22T03:11:39Z</time>
            </trkpt>
            <trkpt lon="101.054706" lat="13.021317">
                <ele>116.900000</ele>
                <time>2018-07-22T03:11:40Z</time>
            </trkpt>
            <trkpt lon="101.054653" lat="13.021330">
                <ele>116.800000</ele>
                <time>2018-07-22T03:11:42Z</time>
            </trkpt>
            <trkpt lon="101.054624" lat="13.021342">
                <ele>116.800000</ele>
                <time>2018-07-22T03:11:43Z</time>
            </trkpt>
            <trkpt lon="101.054591" lat="13.021357">
                <ele>116.800000</ele>
                <time>2018-07-22T03:11:44Z</time>
            </trkpt>
            <trkpt lon="101.054558" lat="13.021374">
                <ele>116.900000</ele>
                <time>2018-07-22T03:11:45Z</time>
            </trkpt>
            <trkpt lon="101.054518" lat="13.021389">
                <ele>116.900000</ele>
                <time>2018-07-22T03:11:46Z</time>
            </trkpt>
            <trkpt lon="101.054479" lat="13.021401">
                <ele>116.900000</ele>
                <time>2018-07-22T03:11:47Z</time>
            </trkpt>
            <trkpt lon="101.054443" lat="13.021412">
                <ele>116.900000</ele>
                <time>2018-07-22T03:11:48Z</time>
            </trkpt>
            <trkpt lon="101.054405" lat="13.021424">
                <ele>116.900000</ele>
                <time>2018-07-22T03:11:49Z</time>
            </trkpt>
            <trkpt lon="101.054365" lat="13.021436">
                <ele>116.900000</ele>
                <time>2018-07-22T03:11:50Z</time>
            </trkpt>
            <trkpt lon="101.054323" lat="13.021449">
                <ele>116.800000</ele>
                <time>2018-07-22T03:11:51Z</time>
            </trkpt>
            <trkpt lon="101.054279" lat="13.021460">
                <ele>116.500000</ele>
                <time>2018-07-22T03:11:52Z</time>
            </trkpt>
            <trkpt lon="101.054239" lat="13.021468">
                <ele>116.400000</ele>
                <time>2018-07-22T03:11:53Z</time>
            </trkpt>
            <trkpt lon="101.054193" lat="13.021481">
                <ele>116.300000</ele>
                <time>2018-07-22T03:11:54Z</time>
            </trkpt>
            <trkpt lon="101.054151" lat="13.021490">
                <ele>116.300000</ele>
                <time>2018-07-22T03:11:55Z</time>
            </trkpt>
            <trkpt lon="101.054103" lat="13.021500">
                <ele>116.000000</ele>
                <time>2018-07-22T03:11:56Z</time>
            </trkpt>
            <trkpt lon="101.054054" lat="13.021511">
                <ele>116.000000</ele>
                <time>2018-07-22T03:11:57Z</time>
            </trkpt>
            <trkpt lon="101.053997" lat="13.021523">
                <ele>115.400000</ele>
                <time>2018-07-22T03:11:58Z</time>
            </trkpt>
            <trkpt lon="101.053949" lat="13.021536">
                <ele>114.600000</ele>
                <time>2018-07-22T03:11:59Z</time>
            </trkpt>
            <trkpt lon="101.053891" lat="13.021550">
                <ele>114.100000</ele>
                <time>2018-07-22T03:12:00Z</time>
            </trkpt>
            <trkpt lon="101.053836" lat="13.021563">
                <ele>113.600000</ele>
                <time>2018-07-22T03:12:01Z</time>
            </trkpt>
            <trkpt lon="101.053781" lat="13.021575">
                <ele>112.100000</ele>
                <time>2018-07-22T03:12:02Z</time>
            </trkpt>
            <trkpt lon="101.053722" lat="13.021587">
                <ele>111.100000</ele>
                <time>2018-07-22T03:12:03Z</time>
            </trkpt>
            <trkpt lon="101.053663" lat="13.021600">
                <ele>110.400000</ele>
                <time>2018-07-22T03:12:04Z</time>
            </trkpt>
            <trkpt lon="101.053609" lat="13.021609">
                <ele>109.400000</ele>
                <time>2018-07-22T03:12:05Z</time>
            </trkpt>
            <trkpt lon="101.053557" lat="13.021614">
                <ele>108.900000</ele>
                <time>2018-07-22T03:12:06Z</time>
            </trkpt>
            <trkpt lon="101.053505" lat="13.021622">
                <ele>108.300000</ele>
                <time>2018-07-22T03:12:07Z</time>
            </trkpt>
            <trkpt lon="101.053455" lat="13.021633">
                <ele>108.200000</ele>
                <time>2018-07-22T03:12:08Z</time>
            </trkpt>
            <trkpt lon="101.053401" lat="13.021644">
                <ele>108.000000</ele>
                <time>2018-07-22T03:12:09Z</time>
            </trkpt>
            <trkpt lon="101.053355" lat="13.021658">
                <ele>107.900000</ele>
                <time>2018-07-22T03:12:10Z</time>
            </trkpt>
            <trkpt lon="101.053313" lat="13.021674">
                <ele>108.200000</ele>
                <time>2018-07-22T03:12:11Z</time>
            </trkpt>
            <trkpt lon="101.053270" lat="13.021691">
                <ele>108.400000</ele>
                <time>2018-07-22T03:12:12Z</time>
            </trkpt>
            <trkpt lon="101.053227" lat="13.021707">
                <ele>108.600000</ele>
                <time>2018-07-22T03:12:13Z</time>
            </trkpt>
            <trkpt lon="101.053187" lat="13.021720">
                <ele>108.800000</ele>
                <time>2018-07-22T03:12:14Z</time>
            </trkpt>
            <trkpt lon="101.053141" lat="13.021738">
                <ele>108.800000</ele>
                <time>2018-07-22T03:12:15Z</time>
            </trkpt>
            <trkpt lon="101.053100" lat="13.021755">
                <ele>108.500000</ele>
                <time>2018-07-22T03:12:16Z</time>
            </trkpt>
            <trkpt lon="101.053057" lat="13.021772">
                <ele>108.500000</ele>
                <time>2018-07-22T03:12:17Z</time>
            </trkpt>
            <trkpt lon="101.053021" lat="13.021785">
                <ele>108.300000</ele>
                <time>2018-07-22T03:12:18Z</time>
            </trkpt>
            <trkpt lon="101.052984" lat="13.021802">
                <ele>108.300000</ele>
                <time>2018-07-22T03:12:19Z</time>
            </trkpt>
            <trkpt lon="101.052955" lat="13.021824">
                <ele>108.300000</ele>
                <time>2018-07-22T03:12:20Z</time>
            </trkpt>
            <trkpt lon="101.052925" lat="13.021850">
                <ele>108.000000</ele>
                <time>2018-07-22T03:12:21Z</time>
            </trkpt>
            <trkpt lon="101.052900" lat="13.021868">
                <ele>108.000000</ele>
                <time>2018-07-22T03:12:22Z</time>
            </trkpt>
            <trkpt lon="101.052879" lat="13.021887">
                <ele>107.800000</ele>
                <time>2018-07-22T03:12:23Z</time>
            </trkpt>
            <trkpt lon="101.052868" lat="13.021915">
                <ele>107.600000</ele>
                <time>2018-07-22T03:12:24Z</time>
            </trkpt>
            <trkpt lon="101.052856" lat="13.021942">
                <ele>107.600000</ele>
                <time>2018-07-22T03:12:25Z</time>
            </trkpt>
            <trkpt lon="101.052842" lat="13.021967">
                <ele>107.200000</ele>
                <time>2018-07-22T03:12:26Z</time>
            </trkpt>
            <trkpt lon="101.052827" lat="13.022010">
                <ele>107.000000</ele>
                <time>2018-07-22T03:12:28Z</time>
            </trkpt>
            <trkpt lon="101.052811" lat="13.022066">
                <ele>106.900000</ele>
                <time>2018-07-22T03:12:30Z</time>
            </trkpt>
            <trkpt lon="101.052804" lat="13.022098">
                <ele>107.200000</ele>
                <time>2018-07-22T03:12:31Z</time>
            </trkpt>
            <trkpt lon="101.052794" lat="13.022155">
                <ele>107.000000</ele>
                <time>2018-07-22T03:12:33Z</time>
            </trkpt>
            <trkpt lon="101.052782" lat="13.022188">
                <ele>107.200000</ele>
                <time>2018-07-22T03:12:34Z</time>
            </trkpt>
            <trkpt lon="101.052762" lat="13.022246">
                <ele>107.600000</ele>
                <time>2018-07-22T03:12:36Z</time>
            </trkpt>
            <trkpt lon="101.052752" lat="13.022272">
                <ele>107.100000</ele>
                <time>2018-07-22T03:12:37Z</time>
            </trkpt>
            <trkpt lon="101.052742" lat="13.022303">
                <ele>107.400000</ele>
                <time>2018-07-22T03:12:38Z</time>
            </trkpt>
            <trkpt lon="101.052728" lat="13.022332">
                <ele>107.600000</ele>
                <time>2018-07-22T03:12:39Z</time>
            </trkpt>
            <trkpt lon="101.052709" lat="13.022361">
                <ele>107.100000</ele>
                <time>2018-07-22T03:12:40Z</time>
            </trkpt>
            <trkpt lon="101.052687" lat="13.022386">
                <ele>107.500000</ele>
                <time>2018-07-22T03:12:41Z</time>
            </trkpt>
            <trkpt lon="101.052661" lat="13.022415">
                <ele>107.600000</ele>
                <time>2018-07-22T03:12:42Z</time>
            </trkpt>
            <trkpt lon="101.052638" lat="13.022446">
                <ele>107.600000</ele>
                <time>2018-07-22T03:12:43Z</time>
            </trkpt>
            <trkpt lon="101.052620" lat="13.022483">
                <ele>108.100000</ele>
                <time>2018-07-22T03:12:44Z</time>
            </trkpt>
            <trkpt lon="101.052611" lat="13.022515">
                <ele>108.600000</ele>
                <time>2018-07-22T03:12:45Z</time>
            </trkpt>
            <trkpt lon="101.052597" lat="13.022572">
                <ele>109.000000</ele>
                <time>2018-07-22T03:12:47Z</time>
            </trkpt>
            <trkpt lon="101.052592" lat="13.022615">
                <ele>109.200000</ele>
                <time>2018-07-22T03:12:48Z</time>
            </trkpt>
            <trkpt lon="101.052593" lat="13.022657">
                <ele>109.500000</ele>
                <time>2018-07-22T03:12:49Z</time>
            </trkpt>
            <trkpt lon="101.052590" lat="13.022693">
                <ele>109.700000</ele>
                <time>2018-07-22T03:12:50Z</time>
            </trkpt>
            <trkpt lon="101.052592" lat="13.022732">
                <ele>109.900000</ele>
                <time>2018-07-22T03:12:51Z</time>
            </trkpt>
            <trkpt lon="101.052600" lat="13.022761">
                <ele>109.800000</ele>
                <time>2018-07-22T03:12:52Z</time>
            </trkpt>
            <trkpt lon="101.052619" lat="13.022810">
                <ele>109.700000</ele>
                <time>2018-07-22T03:12:54Z</time>
            </trkpt>
            <trkpt lon="101.052636" lat="13.022832">
                <ele>109.800000</ele>
                <time>2018-07-22T03:12:55Z</time>
            </trkpt>
            <trkpt lon="101.052647" lat="13.022861">
                <ele>109.800000</ele>
                <time>2018-07-22T03:12:56Z</time>
            </trkpt>
            <trkpt lon="101.052659" lat="13.022888">
                <ele>109.700000</ele>
                <time>2018-07-22T03:12:57Z</time>
            </trkpt>
            <trkpt lon="101.052677" lat="13.022930">
                <ele>109.500000</ele>
                <time>2018-07-22T03:12:59Z</time>
            </trkpt>
            <trkpt lon="101.052685" lat="13.022966">
                <ele>109.300000</ele>
                <time>2018-07-22T03:13:00Z</time>
            </trkpt>
            <trkpt lon="101.052696" lat="13.023016">
                <ele>109.000000</ele>
                <time>2018-07-22T03:13:02Z</time>
            </trkpt>
            <trkpt lon="101.052709" lat="13.023045">
                <ele>108.900000</ele>
                <time>2018-07-22T03:13:03Z</time>
            </trkpt>
            <trkpt lon="101.052726" lat="13.023081">
                <ele>108.900000</ele>
                <time>2018-07-22T03:13:04Z</time>
            </trkpt>
            <trkpt lon="101.052740" lat="13.023110">
                <ele>108.900000</ele>
                <time>2018-07-22T03:13:05Z</time>
            </trkpt>
            <trkpt lon="101.052751" lat="13.023136">
                <ele>108.900000</ele>
                <time>2018-07-22T03:13:06Z</time>
            </trkpt>
            <trkpt lon="101.052763" lat="13.023163">
                <ele>108.900000</ele>
                <time>2018-07-22T03:13:07Z</time>
            </trkpt>
            <trkpt lon="101.052779" lat="13.023189">
                <ele>108.900000</ele>
                <time>2018-07-22T03:13:08Z</time>
            </trkpt>
            <trkpt lon="101.052800" lat="13.023208">
                <ele>108.900000</ele>
                <time>2018-07-22T03:13:09Z</time>
            </trkpt>
            <trkpt lon="101.052854" lat="13.023232">
                <ele>108.700000</ele>
                <time>2018-07-22T03:13:11Z</time>
            </trkpt>
            <trkpt lon="101.052873" lat="13.023255">
                <ele>108.700000</ele>
                <time>2018-07-22T03:13:12Z</time>
            </trkpt>
            <trkpt lon="101.052895" lat="13.023279">
                <ele>108.400000</ele>
                <time>2018-07-22T03:13:13Z</time>
            </trkpt>
            <trkpt lon="101.052915" lat="13.023304">
                <ele>108.400000</ele>
                <time>2018-07-22T03:13:14Z</time>
            </trkpt>
            <trkpt lon="101.052916" lat="13.023333">
                <ele>108.400000</ele>
                <time>2018-07-22T03:13:15Z</time>
            </trkpt>
            <trkpt lon="101.052913" lat="13.023368">
                <ele>108.400000</ele>
                <time>2018-07-22T03:13:16Z</time>
            </trkpt>
            <trkpt lon="101.052907" lat="13.023406">
                <ele>108.500000</ele>
                <time>2018-07-22T03:13:17Z</time>
            </trkpt>
            <trkpt lon="101.052900" lat="13.023446">
                <ele>108.700000</ele>
                <time>2018-07-22T03:13:18Z</time>
            </trkpt>
            <trkpt lon="101.052884" lat="13.023498">
                <ele>108.900000</ele>
                <time>2018-07-22T03:13:19Z</time>
            </trkpt>
            <trkpt lon="101.052875" lat="13.023536">
                <ele>109.000000</ele>
                <time>2018-07-22T03:13:20Z</time>
            </trkpt>
            <trkpt lon="101.052850" lat="13.023571">
                <ele>109.000000</ele>
                <time>2018-07-22T03:13:21Z</time>
            </trkpt>
            <trkpt lon="101.052832" lat="13.023611">
                <ele>108.600000</ele>
                <time>2018-07-22T03:13:22Z</time>
            </trkpt>
            <trkpt lon="101.052813" lat="13.023658">
                <ele>108.300000</ele>
                <time>2018-07-22T03:13:23Z</time>
            </trkpt>
            <trkpt lon="101.052790" lat="13.023695">
                <ele>108.100000</ele>
                <time>2018-07-22T03:13:24Z</time>
            </trkpt>
            <trkpt lon="101.052758" lat="13.023737">
                <ele>107.600000</ele>
                <time>2018-07-22T03:13:25Z</time>
            </trkpt>
            <trkpt lon="101.052729" lat="13.023771">
                <ele>106.900000</ele>
                <time>2018-07-22T03:13:26Z</time>
            </trkpt>
            <trkpt lon="101.052692" lat="13.023812">
                <ele>106.100000</ele>
                <time>2018-07-22T03:13:27Z</time>
            </trkpt>
            <trkpt lon="101.052661" lat="13.023849">
                <ele>105.400000</ele>
                <time>2018-07-22T03:13:28Z</time>
            </trkpt>
            <trkpt lon="101.052631" lat="13.023888">
                <ele>104.700000</ele>
                <time>2018-07-22T03:13:29Z</time>
            </trkpt>
            <trkpt lon="101.052602" lat="13.023929">
                <ele>104.100000</ele>
                <time>2018-07-22T03:13:30Z</time>
            </trkpt>
            <trkpt lon="101.052582" lat="13.023973">
                <ele>103.400000</ele>
                <time>2018-07-22T03:13:31Z</time>
            </trkpt>
            <trkpt lon="101.052556" lat="13.024020">
                <ele>102.800000</ele>
                <time>2018-07-22T03:13:32Z</time>
            </trkpt>
            <trkpt lon="101.052532" lat="13.024055">
                <ele>102.000000</ele>
                <time>2018-07-22T03:13:33Z</time>
            </trkpt>
            <trkpt lon="101.052501" lat="13.024099">
                <ele>101.600000</ele>
                <time>2018-07-22T03:13:34Z</time>
            </trkpt>
            <trkpt lon="101.052462" lat="13.024133">
                <ele>101.300000</ele>
                <time>2018-07-22T03:13:35Z</time>
            </trkpt>
            <trkpt lon="101.052427" lat="13.024164">
                <ele>101.400000</ele>
                <time>2018-07-22T03:13:36Z</time>
            </trkpt>
            <trkpt lon="101.052386" lat="13.024196">
                <ele>101.200000</ele>
                <time>2018-07-22T03:13:37Z</time>
            </trkpt>
            <trkpt lon="101.052338" lat="13.024230">
                <ele>100.900000</ele>
                <time>2018-07-22T03:13:38Z</time>
            </trkpt>
            <trkpt lon="101.052292" lat="13.024260">
                <ele>100.900000</ele>
                <time>2018-07-22T03:13:39Z</time>
            </trkpt>
            <trkpt lon="101.052243" lat="13.024290">
                <ele>101.400000</ele>
                <time>2018-07-22T03:13:40Z</time>
            </trkpt>
            <trkpt lon="101.052186" lat="13.024327">
                <ele>101.300000</ele>
                <time>2018-07-22T03:13:41Z</time>
            </trkpt>
            <trkpt lon="101.052130" lat="13.024360">
                <ele>101.100000</ele>
                <time>2018-07-22T03:13:42Z</time>
            </trkpt>
            <trkpt lon="101.052080" lat="13.024391">
                <ele>100.900000</ele>
                <time>2018-07-22T03:13:43Z</time>
            </trkpt>
            <trkpt lon="101.052029" lat="13.024422">
                <ele>100.900000</ele>
                <time>2018-07-22T03:13:44Z</time>
            </trkpt>
            <trkpt lon="101.051980" lat="13.024447">
                <ele>100.900000</ele>
                <time>2018-07-22T03:13:45Z</time>
            </trkpt>
            <trkpt lon="101.051926" lat="13.024475">
                <ele>100.900000</ele>
                <time>2018-07-22T03:13:46Z</time>
            </trkpt>
            <trkpt lon="101.051880" lat="13.024497">
                <ele>100.900000</ele>
                <time>2018-07-22T03:13:47Z</time>
            </trkpt>
            <trkpt lon="101.051830" lat="13.024520">
                <ele>100.900000</ele>
                <time>2018-07-22T03:13:48Z</time>
            </trkpt>
            <trkpt lon="101.051771" lat="13.024538">
                <ele>100.500000</ele>
                <time>2018-07-22T03:13:49Z</time>
            </trkpt>
            <trkpt lon="101.051719" lat="13.024558">
                <ele>100.200000</ele>
                <time>2018-07-22T03:13:50Z</time>
            </trkpt>
            <trkpt lon="101.051667" lat="13.024582">
                <ele>99.900000</ele>
                <time>2018-07-22T03:13:51Z</time>
            </trkpt>
            <trkpt lon="101.051627" lat="13.024609">
                <ele>99.700000</ele>
                <time>2018-07-22T03:13:52Z</time>
            </trkpt>
            <trkpt lon="101.051595" lat="13.024637">
                <ele>99.400000</ele>
                <time>2018-07-22T03:13:53Z</time>
            </trkpt>
            <trkpt lon="101.051574" lat="13.024661">
                <ele>99.400000</ele>
                <time>2018-07-22T03:13:54Z</time>
            </trkpt>
            <trkpt lon="101.051557" lat="13.024686">
                <ele>99.200000</ele>
                <time>2018-07-22T03:13:55Z</time>
            </trkpt>
            <trkpt lon="101.051540" lat="13.024724">
                <ele>99.200000</ele>
                <time>2018-07-22T03:13:56Z</time>
            </trkpt>
            <trkpt lon="101.051529" lat="13.024754">
                <ele>99.400000</ele>
                <time>2018-07-22T03:13:57Z</time>
            </trkpt>
            <trkpt lon="101.051515" lat="13.024795">
                <ele>99.200000</ele>
                <time>2018-07-22T03:13:58Z</time>
            </trkpt>
            <trkpt lon="101.051497" lat="13.024832">
                <ele>99.500000</ele>
                <time>2018-07-22T03:13:59Z</time>
            </trkpt>
            <trkpt lon="101.051476" lat="13.024863">
                <ele>99.700000</ele>
                <time>2018-07-22T03:14:00Z</time>
            </trkpt>
            <trkpt lon="101.051452" lat="13.024896">
                <ele>99.600000</ele>
                <time>2018-07-22T03:14:01Z</time>
            </trkpt>
            <trkpt lon="101.051427" lat="13.024926">
                <ele>99.300000</ele>
                <time>2018-07-22T03:14:02Z</time>
            </trkpt>
            <trkpt lon="101.051405" lat="13.024956">
                <ele>99.300000</ele>
                <time>2018-07-22T03:14:03Z</time>
            </trkpt>
            <trkpt lon="101.051387" lat="13.024977">
                <ele>99.100000</ele>
                <time>2018-07-22T03:14:04Z</time>
            </trkpt>
            <trkpt lon="101.051363" lat="13.025001">
                <ele>99.100000</ele>
                <time>2018-07-22T03:14:05Z</time>
            </trkpt>
            <trkpt lon="101.051341" lat="13.025035">
                <ele>98.800000</ele>
                <time>2018-07-22T03:14:06Z</time>
            </trkpt>
            <trkpt lon="101.051319" lat="13.025067">
                <ele>99.100000</ele>
                <time>2018-07-22T03:14:07Z</time>
            </trkpt>
            <trkpt lon="101.051296" lat="13.025101">
                <ele>99.000000</ele>
                <time>2018-07-22T03:14:08Z</time>
            </trkpt>
            <trkpt lon="101.051275" lat="13.025136">
                <ele>99.300000</ele>
                <time>2018-07-22T03:14:09Z</time>
            </trkpt>
            <trkpt lon="101.051256" lat="13.025173">
                <ele>99.300000</ele>
                <time>2018-07-22T03:14:10Z</time>
            </trkpt>
            <trkpt lon="101.051237" lat="13.025210">
                <ele>99.300000</ele>
                <time>2018-07-22T03:14:11Z</time>
            </trkpt>
            <trkpt lon="101.051213" lat="13.025250">
                <ele>99.200000</ele>
                <time>2018-07-22T03:14:12Z</time>
            </trkpt>
            <trkpt lon="101.051191" lat="13.025288">
                <ele>99.200000</ele>
                <time>2018-07-22T03:14:13Z</time>
            </trkpt>
            <trkpt lon="101.051176" lat="13.025333">
                <ele>99.200000</ele>
                <time>2018-07-22T03:14:14Z</time>
            </trkpt>
            <trkpt lon="101.051162" lat="13.025377">
                <ele>99.000000</ele>
                <time>2018-07-22T03:14:15Z</time>
            </trkpt>
            <trkpt lon="101.051142" lat="13.025428">
                <ele>99.000000</ele>
                <time>2018-07-22T03:14:16Z</time>
            </trkpt>
            <trkpt lon="101.051126" lat="13.025476">
                <ele>98.300000</ele>
                <time>2018-07-22T03:14:17Z</time>
            </trkpt>
            <trkpt lon="101.051105" lat="13.025526">
                <ele>98.300000</ele>
                <time>2018-07-22T03:14:18Z</time>
            </trkpt>
            <trkpt lon="101.051087" lat="13.025587">
                <ele>97.700000</ele>
                <time>2018-07-22T03:14:19Z</time>
            </trkpt>
            <trkpt lon="101.051074" lat="13.025649">
                <ele>98.700000</ele>
                <time>2018-07-22T03:14:20Z</time>
            </trkpt>
            <trkpt lon="101.051068" lat="13.025701">
                <ele>99.200000</ele>
                <time>2018-07-22T03:14:21Z</time>
            </trkpt>
            <trkpt lon="101.051057" lat="13.025750">
                <ele>99.700000</ele>
                <time>2018-07-22T03:14:22Z</time>
            </trkpt>
            <trkpt lon="101.051040" lat="13.025794">
                <ele>99.300000</ele>
                <time>2018-07-22T03:14:23Z</time>
            </trkpt>
            <trkpt lon="101.051019" lat="13.025834">
                <ele>99.800000</ele>
                <time>2018-07-22T03:14:24Z</time>
            </trkpt>
            <trkpt lon="101.050998" lat="13.025879">
                <ele>99.600000</ele>
                <time>2018-07-22T03:14:25Z</time>
            </trkpt>
            <trkpt lon="101.050975" lat="13.025920">
                <ele>99.900000</ele>
                <time>2018-07-22T03:14:26Z</time>
            </trkpt>
            <trkpt lon="101.050952" lat="13.025963">
                <ele>98.600000</ele>
                <time>2018-07-22T03:14:27Z</time>
            </trkpt>
            <trkpt lon="101.050932" lat="13.026013">
                <ele>97.400000</ele>
                <time>2018-07-22T03:14:28Z</time>
            </trkpt>
            <trkpt lon="101.050919" lat="13.026067">
                <ele>96.800000</ele>
                <time>2018-07-22T03:14:29Z</time>
            </trkpt>
            <trkpt lon="101.050915" lat="13.026122">
                <ele>95.400000</ele>
                <time>2018-07-22T03:14:30Z</time>
            </trkpt>
            <trkpt lon="101.050917" lat="13.026174">
                <ele>95.400000</ele>
                <time>2018-07-22T03:14:31Z</time>
            </trkpt>
            <trkpt lon="101.050909" lat="13.026230">
                <ele>93.500000</ele>
                <time>2018-07-22T03:14:32Z</time>
            </trkpt>
            <trkpt lon="101.050882" lat="13.026293">
                <ele>92.900000</ele>
                <time>2018-07-22T03:14:33Z</time>
            </trkpt>
            <trkpt lon="101.050841" lat="13.026339">
                <ele>91.900000</ele>
                <time>2018-07-22T03:14:34Z</time>
            </trkpt>
            <trkpt lon="101.050795" lat="13.026377">
                <ele>91.100000</ele>
                <time>2018-07-22T03:14:35Z</time>
            </trkpt>
            <trkpt lon="101.050753" lat="13.026410">
                <ele>90.500000</ele>
                <time>2018-07-22T03:14:36Z</time>
            </trkpt>
            <trkpt lon="101.050711" lat="13.026448">
                <ele>90.200000</ele>
                <time>2018-07-22T03:14:37Z</time>
            </trkpt>
            <trkpt lon="101.050672" lat="13.026485">
                <ele>90.000000</ele>
                <time>2018-07-22T03:14:38Z</time>
            </trkpt>
            <trkpt lon="101.050630" lat="13.026510">
                <ele>89.900000</ele>
                <time>2018-07-22T03:14:39Z</time>
            </trkpt>
            <trkpt lon="101.050585" lat="13.026538">
                <ele>90.300000</ele>
                <time>2018-07-22T03:14:40Z</time>
            </trkpt>
            <trkpt lon="101.050538" lat="13.026567">
                <ele>90.800000</ele>
                <time>2018-07-22T03:14:41Z</time>
            </trkpt>
            <trkpt lon="101.050489" lat="13.026594">
                <ele>91.500000</ele>
                <time>2018-07-22T03:14:42Z</time>
            </trkpt>
            <trkpt lon="101.050445" lat="13.026614">
                <ele>92.100000</ele>
                <time>2018-07-22T03:14:43Z</time>
            </trkpt>
            <trkpt lon="101.050402" lat="13.026630">
                <ele>92.600000</ele>
                <time>2018-07-22T03:14:44Z</time>
            </trkpt>
            <trkpt lon="101.050365" lat="13.026632">
                <ele>93.000000</ele>
                <time>2018-07-22T03:14:45Z</time>
            </trkpt>
            <trkpt lon="101.050337" lat="13.026618">
                <ele>93.400000</ele>
                <time>2018-07-22T03:14:46Z</time>
            </trkpt>
            <trkpt lon="101.050312" lat="13.026600">
                <ele>93.800000</ele>
                <time>2018-07-22T03:14:47Z</time>
            </trkpt>
            <trkpt lon="101.050285" lat="13.026574">
                <ele>93.800000</ele>
                <time>2018-07-22T03:14:48Z</time>
            </trkpt>
            <trkpt lon="101.050262" lat="13.026542">
                <ele>93.900000</ele>
                <time>2018-07-22T03:14:49Z</time>
            </trkpt>
            <trkpt lon="101.050248" lat="13.026499">
                <ele>93.900000</ele>
                <time>2018-07-22T03:14:50Z</time>
            </trkpt>
            <trkpt lon="101.050226" lat="13.026463">
                <ele>94.100000</ele>
                <time>2018-07-22T03:14:51Z</time>
            </trkpt>
            <trkpt lon="101.050211" lat="13.026428">
                <ele>94.100000</ele>
                <time>2018-07-22T03:14:52Z</time>
            </trkpt>
            <trkpt lon="101.050195" lat="13.026389">
                <ele>94.200000</ele>
                <time>2018-07-22T03:14:53Z</time>
            </trkpt>
            <trkpt lon="101.050180" lat="13.026345">
                <ele>94.600000</ele>
                <time>2018-07-22T03:14:54Z</time>
            </trkpt>
            <trkpt lon="101.050157" lat="13.026299">
                <ele>94.900000</ele>
                <time>2018-07-22T03:14:55Z</time>
            </trkpt>
            <trkpt lon="101.050136" lat="13.026259">
                <ele>95.300000</ele>
                <time>2018-07-22T03:14:56Z</time>
            </trkpt>
            <trkpt lon="101.050118" lat="13.026223">
                <ele>95.500000</ele>
                <time>2018-07-22T03:14:57Z</time>
            </trkpt>
            <trkpt lon="101.050104" lat="13.026183">
                <ele>95.700000</ele>
                <time>2018-07-22T03:14:58Z</time>
            </trkpt>
            <trkpt lon="101.050098" lat="13.026147">
                <ele>96.100000</ele>
                <time>2018-07-22T03:14:59Z</time>
            </trkpt>
            <trkpt lon="101.050093" lat="13.026112">
                <ele>96.100000</ele>
                <time>2018-07-22T03:15:01Z</time>
            </trkpt>
            <trkpt lon="101.050062" lat="13.026077">
                <ele>96.100000</ele>
                <time>2018-07-22T03:15:04Z</time>
            </trkpt>
            <trkpt lon="101.050063" lat="13.026049">
                <ele>96.000000</ele>
                <time>2018-07-22T03:15:05Z</time>
            </trkpt>
            <trkpt lon="101.050056" lat="13.026018">
                <ele>96.300000</ele>
                <time>2018-07-22T03:15:06Z</time>
            </trkpt>
            <trkpt lon="101.050048" lat="13.025983">
                <ele>96.000000</ele>
                <time>2018-07-22T03:15:07Z</time>
            </trkpt>
            <trkpt lon="101.050045" lat="13.025947">
                <ele>95.600000</ele>
                <time>2018-07-22T03:15:08Z</time>
            </trkpt>
            <trkpt lon="101.050038" lat="13.025910">
                <ele>95.400000</ele>
                <time>2018-07-22T03:15:09Z</time>
            </trkpt>
            <trkpt lon="101.050021" lat="13.025877">
                <ele>95.100000</ele>
                <time>2018-07-22T03:15:10Z</time>
            </trkpt>
            <trkpt lon="101.049996" lat="13.025844">
                <ele>95.400000</ele>
                <time>2018-07-22T03:15:11Z</time>
            </trkpt>
            <trkpt lon="101.049974" lat="13.025816">
                <ele>95.100000</ele>
                <time>2018-07-22T03:15:12Z</time>
            </trkpt>
            <trkpt lon="101.049955" lat="13.025793">
                <ele>95.100000</ele>
                <time>2018-07-22T03:15:13Z</time>
            </trkpt>
            <trkpt lon="101.049920" lat="13.025768">
                <ele>95.200000</ele>
                <time>2018-07-22T03:15:15Z</time>
            </trkpt>
            <trkpt lon="101.049864" lat="13.025762">
                <ele>95.300000</ele>
                <time>2018-07-22T03:15:17Z</time>
            </trkpt>
            <trkpt lon="101.049834" lat="13.025762">
                <ele>95.400000</ele>
                <time>2018-07-22T03:15:18Z</time>
            </trkpt>
            <trkpt lon="101.049789" lat="13.025768">
                <ele>95.500000</ele>
                <time>2018-07-22T03:15:19Z</time>
            </trkpt>
            <trkpt lon="101.049752" lat="13.025770">
                <ele>95.300000</ele>
                <time>2018-07-22T03:15:20Z</time>
            </trkpt>
            <trkpt lon="101.049707" lat="13.025774">
                <ele>95.100000</ele>
                <time>2018-07-22T03:15:21Z</time>
            </trkpt>
            <trkpt lon="101.049662" lat="13.025781">
                <ele>94.800000</ele>
                <time>2018-07-22T03:15:22Z</time>
            </trkpt>
            <trkpt lon="101.049619" lat="13.025784">
                <ele>94.600000</ele>
                <time>2018-07-22T03:15:23Z</time>
            </trkpt>
            <trkpt lon="101.049579" lat="13.025788">
                <ele>94.200000</ele>
                <time>2018-07-22T03:15:24Z</time>
            </trkpt>
            <trkpt lon="101.049531" lat="13.025791">
                <ele>93.700000</ele>
                <time>2018-07-22T03:15:25Z</time>
            </trkpt>
            <trkpt lon="101.049483" lat="13.025797">
                <ele>93.200000</ele>
                <time>2018-07-22T03:15:26Z</time>
            </trkpt>
            <trkpt lon="101.049435" lat="13.025796">
                <ele>92.700000</ele>
                <time>2018-07-22T03:15:27Z</time>
            </trkpt>
            <trkpt lon="101.049390" lat="13.025796">
                <ele>92.300000</ele>
                <time>2018-07-22T03:15:28Z</time>
            </trkpt>
            <trkpt lon="101.049338" lat="13.025793">
                <ele>92.100000</ele>
                <time>2018-07-22T03:15:29Z</time>
            </trkpt>
            <trkpt lon="101.049292" lat="13.025788">
                <ele>91.800000</ele>
                <time>2018-07-22T03:15:30Z</time>
            </trkpt>
            <trkpt lon="101.049242" lat="13.025779">
                <ele>91.600000</ele>
                <time>2018-07-22T03:15:31Z</time>
            </trkpt>
            <trkpt lon="101.049194" lat="13.025773">
                <ele>91.800000</ele>
                <time>2018-07-22T03:15:32Z</time>
            </trkpt>
            <trkpt lon="101.049146" lat="13.025767">
                <ele>91.900000</ele>
                <time>2018-07-22T03:15:33Z</time>
            </trkpt>
            <trkpt lon="101.049101" lat="13.025760">
                <ele>92.100000</ele>
                <time>2018-07-22T03:15:34Z</time>
            </trkpt>
            <trkpt lon="101.049053" lat="13.025750">
                <ele>92.400000</ele>
                <time>2018-07-22T03:15:35Z</time>
            </trkpt>
            <trkpt lon="101.048998" lat="13.025735">
                <ele>93.100000</ele>
                <time>2018-07-22T03:15:36Z</time>
            </trkpt>
            <trkpt lon="101.048945" lat="13.025720">
                <ele>93.900000</ele>
                <time>2018-07-22T03:15:37Z</time>
            </trkpt>
            <trkpt lon="101.048893" lat="13.025704">
                <ele>94.700000</ele>
                <time>2018-07-22T03:15:38Z</time>
            </trkpt>
            <trkpt lon="101.048843" lat="13.025689">
                <ele>94.800000</ele>
                <time>2018-07-22T03:15:39Z</time>
            </trkpt>
            <trkpt lon="101.048801" lat="13.025676">
                <ele>94.800000</ele>
                <time>2018-07-22T03:15:40Z</time>
            </trkpt>
            <trkpt lon="101.048752" lat="13.025663">
                <ele>94.800000</ele>
                <time>2018-07-22T03:15:41Z</time>
            </trkpt>
            <trkpt lon="101.048703" lat="13.025651">
                <ele>95.000000</ele>
                <time>2018-07-22T03:15:42Z</time>
            </trkpt>
            <trkpt lon="101.048652" lat="13.025638">
                <ele>95.100000</ele>
                <time>2018-07-22T03:15:43Z</time>
            </trkpt>
            <trkpt lon="101.048601" lat="13.025623">
                <ele>95.300000</ele>
                <time>2018-07-22T03:15:44Z</time>
            </trkpt>
            <trkpt lon="101.048555" lat="13.025612">
                <ele>95.800000</ele>
                <time>2018-07-22T03:15:45Z</time>
            </trkpt>
            <trkpt lon="101.048506" lat="13.025599">
                <ele>96.300000</ele>
                <time>2018-07-22T03:15:46Z</time>
            </trkpt>
            <trkpt lon="101.048455" lat="13.025580">
                <ele>97.100000</ele>
                <time>2018-07-22T03:15:47Z</time>
            </trkpt>
            <trkpt lon="101.048402" lat="13.025552">
                <ele>97.600000</ele>
                <time>2018-07-22T03:15:48Z</time>
            </trkpt>
            <trkpt lon="101.048353" lat="13.025527">
                <ele>98.000000</ele>
                <time>2018-07-22T03:15:49Z</time>
            </trkpt>
            <trkpt lon="101.048310" lat="13.025499">
                <ele>98.300000</ele>
                <time>2018-07-22T03:15:50Z</time>
            </trkpt>
            <trkpt lon="101.048275" lat="13.025458">
                <ele>98.500000</ele>
                <time>2018-07-22T03:15:51Z</time>
            </trkpt>
            <trkpt lon="101.048250" lat="13.025413">
                <ele>98.800000</ele>
                <time>2018-07-22T03:15:52Z</time>
            </trkpt>
            <trkpt lon="101.048235" lat="13.025365">
                <ele>98.600000</ele>
                <time>2018-07-22T03:15:53Z</time>
            </trkpt>
            <trkpt lon="101.048225" lat="13.025314">
                <ele>98.300000</ele>
                <time>2018-07-22T03:15:54Z</time>
            </trkpt>
            <trkpt lon="101.048215" lat="13.025267">
                <ele>98.100000</ele>
                <time>2018-07-22T03:15:55Z</time>
            </trkpt>
            <trkpt lon="101.048204" lat="13.025222">
                <ele>97.800000</ele>
                <time>2018-07-22T03:15:56Z</time>
            </trkpt>
            <trkpt lon="101.048192" lat="13.025177">
                <ele>97.600000</ele>
                <time>2018-07-22T03:15:57Z</time>
            </trkpt>
            <trkpt lon="101.048184" lat="13.025127">
                <ele>97.200000</ele>
                <time>2018-07-22T03:15:58Z</time>
            </trkpt>
            <trkpt lon="101.048179" lat="13.025083">
                <ele>96.900000</ele>
                <time>2018-07-22T03:15:59Z</time>
            </trkpt>
            <trkpt lon="101.048171" lat="13.025041">
                <ele>97.000000</ele>
                <time>2018-07-22T03:16:00Z</time>
            </trkpt>
            <trkpt lon="101.048151" lat="13.024996">
                <ele>97.200000</ele>
                <time>2018-07-22T03:16:01Z</time>
            </trkpt>
            <trkpt lon="101.048129" lat="13.024949">
                <ele>97.300000</ele>
                <time>2018-07-22T03:16:02Z</time>
            </trkpt>
            <trkpt lon="101.048107" lat="13.024901">
                <ele>97.200000</ele>
                <time>2018-07-22T03:16:03Z</time>
            </trkpt>
            <trkpt lon="101.048094" lat="13.024849">
                <ele>97.500000</ele>
                <time>2018-07-22T03:16:04Z</time>
            </trkpt>
            <trkpt lon="101.048083" lat="13.024809">
                <ele>97.500000</ele>
                <time>2018-07-22T03:16:05Z</time>
            </trkpt>
            <trkpt lon="101.048063" lat="13.024765">
                <ele>97.800000</ele>
                <time>2018-07-22T03:16:06Z</time>
            </trkpt>
            <trkpt lon="101.048048" lat="13.024722">
                <ele>98.000000</ele>
                <time>2018-07-22T03:16:07Z</time>
            </trkpt>
            <trkpt lon="101.048035" lat="13.024675">
                <ele>98.200000</ele>
                <time>2018-07-22T03:16:08Z</time>
            </trkpt>
            <trkpt lon="101.048021" lat="13.024631">
                <ele>98.900000</ele>
                <time>2018-07-22T03:16:09Z</time>
            </trkpt>
            <trkpt lon="101.048003" lat="13.024589">
                <ele>99.500000</ele>
                <time>2018-07-22T03:16:10Z</time>
            </trkpt>
            <trkpt lon="101.047982" lat="13.024554">
                <ele>99.200000</ele>
                <time>2018-07-22T03:16:11Z</time>
            </trkpt>
            <trkpt lon="101.047965" lat="13.024518">
                <ele>99.600000</ele>
                <time>2018-07-22T03:16:12Z</time>
            </trkpt>
            <trkpt lon="101.047944" lat="13.024479">
                <ele>98.900000</ele>
                <time>2018-07-22T03:16:13Z</time>
            </trkpt>
            <trkpt lon="101.047917" lat="13.024440">
                <ele>99.200000</ele>
                <time>2018-07-22T03:16:14Z</time>
            </trkpt>
            <trkpt lon="101.047895" lat="13.024401">
                <ele>98.400000</ele>
                <time>2018-07-22T03:16:15Z</time>
            </trkpt>
            <trkpt lon="101.047873" lat="13.024360">
                <ele>98.800000</ele>
                <time>2018-07-22T03:16:16Z</time>
            </trkpt>
            <trkpt lon="101.047844" lat="13.024317">
                <ele>98.000000</ele>
                <time>2018-07-22T03:16:17Z</time>
            </trkpt>
            <trkpt lon="101.047821" lat="13.024277">
                <ele>97.300000</ele>
                <time>2018-07-22T03:16:18Z</time>
            </trkpt>
            <trkpt lon="101.047797" lat="13.024238">
                <ele>97.800000</ele>
                <time>2018-07-22T03:16:19Z</time>
            </trkpt>
            <trkpt lon="101.047771" lat="13.024199">
                <ele>96.900000</ele>
                <time>2018-07-22T03:16:20Z</time>
            </trkpt>
            <trkpt lon="101.047746" lat="13.024158">
                <ele>97.100000</ele>
                <time>2018-07-22T03:16:21Z</time>
            </trkpt>
            <trkpt lon="101.047722" lat="13.024115">
                <ele>96.100000</ele>
                <time>2018-07-22T03:16:22Z</time>
            </trkpt>
            <trkpt lon="101.047696" lat="13.024073">
                <ele>95.300000</ele>
                <time>2018-07-22T03:16:23Z</time>
            </trkpt>
            <trkpt lon="101.047671" lat="13.024031">
                <ele>95.500000</ele>
                <time>2018-07-22T03:16:24Z</time>
            </trkpt>
            <trkpt lon="101.047644" lat="13.023986">
                <ele>94.900000</ele>
                <time>2018-07-22T03:16:25Z</time>
            </trkpt>
            <trkpt lon="101.047617" lat="13.023943">
                <ele>95.300000</ele>
                <time>2018-07-22T03:16:26Z</time>
            </trkpt>
            <trkpt lon="101.047590" lat="13.023899">
                <ele>94.800000</ele>
                <time>2018-07-22T03:16:27Z</time>
            </trkpt>
            <trkpt lon="101.047563" lat="13.023858">
                <ele>94.600000</ele>
                <time>2018-07-22T03:16:28Z</time>
            </trkpt>
            <trkpt lon="101.047531" lat="13.023815">
                <ele>95.100000</ele>
                <time>2018-07-22T03:16:29Z</time>
            </trkpt>
            <trkpt lon="101.047501" lat="13.023769">
                <ele>94.900000</ele>
                <time>2018-07-22T03:16:30Z</time>
            </trkpt>
            <trkpt lon="101.047473" lat="13.023725">
                <ele>94.900000</ele>
                <time>2018-07-22T03:16:31Z</time>
            </trkpt>
            <trkpt lon="101.047445" lat="13.023680">
                <ele>95.700000</ele>
                <time>2018-07-22T03:16:32Z</time>
            </trkpt>
            <trkpt lon="101.047413" lat="13.023631">
                <ele>96.100000</ele>
                <time>2018-07-22T03:16:33Z</time>
            </trkpt>
            <trkpt lon="101.047380" lat="13.023588">
                <ele>96.700000</ele>
                <time>2018-07-22T03:16:34Z</time>
            </trkpt>
            <trkpt lon="101.047344" lat="13.023548">
                <ele>97.400000</ele>
                <time>2018-07-22T03:16:35Z</time>
            </trkpt>
            <trkpt lon="101.047307" lat="13.023511">
                <ele>97.800000</ele>
                <time>2018-07-22T03:16:36Z</time>
            </trkpt>
            <trkpt lon="101.047272" lat="13.023472">
                <ele>98.300000</ele>
                <time>2018-07-22T03:16:37Z</time>
            </trkpt>
            <trkpt lon="101.047234" lat="13.023440">
                <ele>98.600000</ele>
                <time>2018-07-22T03:16:38Z</time>
            </trkpt>
            <trkpt lon="101.047190" lat="13.023417">
                <ele>98.300000</ele>
                <time>2018-07-22T03:16:39Z</time>
            </trkpt>
            <trkpt lon="101.047141" lat="13.023404">
                <ele>98.500000</ele>
                <time>2018-07-22T03:16:40Z</time>
            </trkpt>
            <trkpt lon="101.047087" lat="13.023397">
                <ele>97.600000</ele>
                <time>2018-07-22T03:16:41Z</time>
            </trkpt>
            <trkpt lon="101.047032" lat="13.023398">
                <ele>97.100000</ele>
                <time>2018-07-22T03:16:42Z</time>
            </trkpt>
            <trkpt lon="101.046973" lat="13.023404">
                <ele>96.900000</ele>
                <time>2018-07-22T03:16:43Z</time>
            </trkpt>
            <trkpt lon="101.046918" lat="13.023411">
                <ele>96.900000</ele>
                <time>2018-07-22T03:16:44Z</time>
            </trkpt>
            <trkpt lon="101.046862" lat="13.023422">
                <ele>96.900000</ele>
                <time>2018-07-22T03:16:45Z</time>
            </trkpt>
            <trkpt lon="101.046808" lat="13.023436">
                <ele>96.800000</ele>
                <time>2018-07-22T03:16:46Z</time>
            </trkpt>
            <trkpt lon="101.046754" lat="13.023452">
                <ele>96.800000</ele>
                <time>2018-07-22T03:16:47Z</time>
            </trkpt>
            <trkpt lon="101.046701" lat="13.023466">
                <ele>97.000000</ele>
                <time>2018-07-22T03:16:48Z</time>
            </trkpt>
            <trkpt lon="101.046650" lat="13.023477">
                <ele>97.000000</ele>
                <time>2018-07-22T03:16:49Z</time>
            </trkpt>
            <trkpt lon="101.046601" lat="13.023489">
                <ele>96.800000</ele>
                <time>2018-07-22T03:16:50Z</time>
            </trkpt>
            <trkpt lon="101.046547" lat="13.023503">
                <ele>97.000000</ele>
                <time>2018-07-22T03:16:51Z</time>
            </trkpt>
            <trkpt lon="101.046495" lat="13.023519">
                <ele>96.700000</ele>
                <time>2018-07-22T03:16:52Z</time>
            </trkpt>
            <trkpt lon="101.046442" lat="13.023535">
                <ele>96.700000</ele>
                <time>2018-07-22T03:16:53Z</time>
            </trkpt>
            <trkpt lon="101.046386" lat="13.023551">
                <ele>96.900000</ele>
                <time>2018-07-22T03:16:54Z</time>
            </trkpt>
            <trkpt lon="101.046332" lat="13.023564">
                <ele>96.900000</ele>
                <time>2018-07-22T03:16:55Z</time>
            </trkpt>
            <trkpt lon="101.046275" lat="13.023575">
                <ele>97.200000</ele>
                <time>2018-07-22T03:16:56Z</time>
            </trkpt>
            <trkpt lon="101.046220" lat="13.023592">
                <ele>97.300000</ele>
                <time>2018-07-22T03:16:57Z</time>
            </trkpt>
            <trkpt lon="101.046171" lat="13.023608">
                <ele>97.500000</ele>
                <time>2018-07-22T03:16:58Z</time>
            </trkpt>
            <trkpt lon="101.046123" lat="13.023623">
                <ele>97.700000</ele>
                <time>2018-07-22T03:16:59Z</time>
            </trkpt>
            <trkpt lon="101.046066" lat="13.023642">
                <ele>98.300000</ele>
                <time>2018-07-22T03:17:00Z</time>
            </trkpt>
            <trkpt lon="101.046009" lat="13.023662">
                <ele>98.700000</ele>
                <time>2018-07-22T03:17:01Z</time>
            </trkpt>
            <trkpt lon="101.045947" lat="13.023690">
                <ele>99.100000</ele>
                <time>2018-07-22T03:17:02Z</time>
            </trkpt>
            <trkpt lon="101.045893" lat="13.023721">
                <ele>100.000000</ele>
                <time>2018-07-22T03:17:03Z</time>
            </trkpt>
            <trkpt lon="101.045847" lat="13.023752">
                <ele>100.300000</ele>
                <time>2018-07-22T03:17:04Z</time>
            </trkpt>
            <trkpt lon="101.045809" lat="13.023786">
                <ele>100.300000</ele>
                <time>2018-07-22T03:17:05Z</time>
            </trkpt>
            <trkpt lon="101.045785" lat="13.023810">
                <ele>100.500000</ele>
                <time>2018-07-22T03:17:06Z</time>
            </trkpt>
            <trkpt lon="101.045752" lat="13.023841">
                <ele>100.800000</ele>
                <time>2018-07-22T03:17:08Z</time>
            </trkpt>
            <trkpt lon="101.045708" lat="13.023835">
                <ele>101.300000</ele>
                <time>2018-07-22T03:17:11Z</time>
            </trkpt>
            <trkpt lon="101.045672" lat="13.023819">
                <ele>102.000000</ele>
                <time>2018-07-22T03:17:13Z</time>
            </trkpt>
            <trkpt lon="101.045616" lat="13.023805">
                <ele>102.300000</ele>
                <time>2018-07-22T03:17:15Z</time>
            </trkpt>
            <trkpt lon="101.045586" lat="13.023796">
                <ele>102.200000</ele>
                <time>2018-07-22T03:17:16Z</time>
            </trkpt>
            <trkpt lon="101.045540" lat="13.023790">
                <ele>102.100000</ele>
                <time>2018-07-22T03:17:18Z</time>
            </trkpt>
            <trkpt lon="101.045490" lat="13.023786">
                <ele>102.000000</ele>
                <time>2018-07-22T03:17:20Z</time>
            </trkpt>
            <trkpt lon="101.045459" lat="13.023781">
                <ele>101.800000</ele>
                <time>2018-07-22T03:17:21Z</time>
            </trkpt>
            <trkpt lon="101.045414" lat="13.023775">
                <ele>101.500000</ele>
                <time>2018-07-22T03:17:23Z</time>
            </trkpt>
            <trkpt lon="101.045386" lat="13.023768">
                <ele>101.500000</ele>
                <time>2018-07-22T03:17:24Z</time>
            </trkpt>
            <trkpt lon="101.045358" lat="13.023754">
                <ele>101.300000</ele>
                <time>2018-07-22T03:17:25Z</time>
            </trkpt>
            <trkpt lon="101.045313" lat="13.023734">
                <ele>101.000000</ele>
                <time>2018-07-22T03:17:27Z</time>
            </trkpt>
            <trkpt lon="101.045273" lat="13.023722">
                <ele>100.900000</ele>
                <time>2018-07-22T03:17:29Z</time>
            </trkpt>
            <trkpt lon="101.045229" lat="13.023715">
                <ele>100.900000</ele>
                <time>2018-07-22T03:17:31Z</time>
            </trkpt>
            <trkpt lon="101.045182" lat="13.023707">
                <ele>100.900000</ele>
                <time>2018-07-22T03:17:33Z</time>
            </trkpt>
            <trkpt lon="101.045153" lat="13.023701">
                <ele>100.900000</ele>
                <time>2018-07-22T03:17:34Z</time>
            </trkpt>
            <trkpt lon="101.045122" lat="13.023693">
                <ele>101.000000</ele>
                <time>2018-07-22T03:17:35Z</time>
            </trkpt>
            <trkpt lon="101.045086" lat="13.023685">
                <ele>101.000000</ele>
                <time>2018-07-22T03:17:36Z</time>
            </trkpt>
            <trkpt lon="101.045057" lat="13.023677">
                <ele>101.200000</ele>
                <time>2018-07-22T03:17:37Z</time>
            </trkpt>
            <trkpt lon="101.045011" lat="13.023676">
                <ele>101.400000</ele>
                <time>2018-07-22T03:17:39Z</time>
            </trkpt>
            <trkpt lon="101.044983" lat="13.023679">
                <ele>101.600000</ele>
                <time>2018-07-22T03:17:40Z</time>
            </trkpt>
            <trkpt lon="101.044947" lat="13.023696">
                <ele>101.700000</ele>
                <time>2018-07-22T03:17:42Z</time>
            </trkpt>
            <trkpt lon="101.044910" lat="13.023713">
                <ele>101.900000</ele>
                <time>2018-07-22T03:17:44Z</time>
            </trkpt>
            <trkpt lon="101.044888" lat="13.023730">
                <ele>101.900000</ele>
                <time>2018-07-22T03:17:45Z</time>
            </trkpt>
            <trkpt lon="101.044855" lat="13.023756">
                <ele>102.300000</ele>
                <time>2018-07-22T03:17:47Z</time>
            </trkpt>
            <trkpt lon="101.044820" lat="13.023785">
                <ele>102.400000</ele>
                <time>2018-07-22T03:17:49Z</time>
            </trkpt>
            <trkpt lon="101.044787" lat="13.023821">
                <ele>102.900000</ele>
                <time>2018-07-22T03:17:51Z</time>
            </trkpt>
            <trkpt lon="101.044766" lat="13.023841">
                <ele>103.600000</ele>
                <time>2018-07-22T03:17:52Z</time>
            </trkpt>
            <trkpt lon="101.044744" lat="13.023858">
                <ele>103.600000</ele>
                <time>2018-07-22T03:17:53Z</time>
            </trkpt>
            <trkpt lon="101.044712" lat="13.023871">
                <ele>103.700000</ele>
                <time>2018-07-22T03:17:54Z</time>
            </trkpt>
            <trkpt lon="101.044658" lat="13.023889">
                <ele>103.900000</ele>
                <time>2018-07-22T03:17:56Z</time>
            </trkpt>
            <trkpt lon="101.044632" lat="13.023900">
                <ele>104.000000</ele>
                <time>2018-07-22T03:17:57Z</time>
            </trkpt>
            <trkpt lon="101.044607" lat="13.023912">
                <ele>104.100000</ele>
                <time>2018-07-22T03:17:58Z</time>
            </trkpt>
            <trkpt lon="101.044579" lat="13.023929">
                <ele>104.300000</ele>
                <time>2018-07-22T03:17:59Z</time>
            </trkpt>
            <trkpt lon="101.044549" lat="13.023944">
                <ele>104.400000</ele>
                <time>2018-07-22T03:18:00Z</time>
            </trkpt>
            <trkpt lon="101.044525" lat="13.023960">
                <ele>104.600000</ele>
                <time>2018-07-22T03:18:01Z</time>
            </trkpt>
            <trkpt lon="101.044482" lat="13.023987">
                <ele>104.700000</ele>
                <time>2018-07-22T03:18:03Z</time>
            </trkpt>
            <trkpt lon="101.044456" lat="13.024004">
                <ele>104.900000</ele>
                <time>2018-07-22T03:18:04Z</time>
            </trkpt>
            <trkpt lon="101.044431" lat="13.024019">
                <ele>104.900000</ele>
                <time>2018-07-22T03:18:05Z</time>
            </trkpt>
            <trkpt lon="101.044406" lat="13.024037">
                <ele>104.900000</ele>
                <time>2018-07-22T03:18:06Z</time>
            </trkpt>
            <trkpt lon="101.044360" lat="13.024066">
                <ele>104.900000</ele>
                <time>2018-07-22T03:18:08Z</time>
            </trkpt>
            <trkpt lon="101.044336" lat="13.024082">
                <ele>104.900000</ele>
                <time>2018-07-22T03:18:09Z</time>
            </trkpt>
            <trkpt lon="101.044312" lat="13.024102">
                <ele>104.900000</ele>
                <time>2018-07-22T03:18:10Z</time>
            </trkpt>
            <trkpt lon="101.044290" lat="13.024119">
                <ele>104.900000</ele>
                <time>2018-07-22T03:18:11Z</time>
            </trkpt>
            <trkpt lon="101.044250" lat="13.024152">
                <ele>104.900000</ele>
                <time>2018-07-22T03:18:13Z</time>
            </trkpt>
            <trkpt lon="101.044212" lat="13.024178">
                <ele>104.900000</ele>
                <time>2018-07-22T03:18:15Z</time>
            </trkpt>
            <trkpt lon="101.044190" lat="13.024195">
                <ele>104.900000</ele>
                <time>2018-07-22T03:18:16Z</time>
            </trkpt>
            <trkpt lon="101.044158" lat="13.024221">
                <ele>105.000000</ele>
                <time>2018-07-22T03:18:18Z</time>
            </trkpt>
            <trkpt lon="101.044134" lat="13.024243">
                <ele>105.000000</ele>
                <time>2018-07-22T03:18:20Z</time>
            </trkpt>
            <trkpt lon="101.044107" lat="13.024263">
                <ele>105.500000</ele>
                <time>2018-07-22T03:18:22Z</time>
            </trkpt>
            <trkpt lon="101.044087" lat="13.024286">
                <ele>105.600000</ele>
                <time>2018-07-22T03:18:24Z</time>
            </trkpt>
            <trkpt lon="101.044061" lat="13.024302">
                <ele>106.100000</ele>
                <time>2018-07-22T03:18:26Z</time>
            </trkpt>
            <trkpt lon="101.044028" lat="13.024330">
                <ele>106.400000</ele>
                <time>2018-07-22T03:18:28Z</time>
            </trkpt>
            <trkpt lon="101.044003" lat="13.024348">
                <ele>107.100000</ele>
                <time>2018-07-22T03:18:30Z</time>
            </trkpt>
            <trkpt lon="101.043972" lat="13.024364">
                <ele>107.100000</ele>
                <time>2018-07-22T03:18:32Z</time>
            </trkpt>
            <trkpt lon="101.043943" lat="13.024380">
                <ele>108.000000</ele>
                <time>2018-07-22T03:18:34Z</time>
            </trkpt>
            <trkpt lon="101.043916" lat="13.024396">
                <ele>108.500000</ele>
                <time>2018-07-22T03:18:36Z</time>
            </trkpt>
            <trkpt lon="101.043891" lat="13.024414">
                <ele>108.500000</ele>
                <time>2018-07-22T03:18:38Z</time>
            </trkpt>
            <trkpt lon="101.043865" lat="13.024432">
                <ele>110.400000</ele>
                <time>2018-07-22T03:18:40Z</time>
            </trkpt>
            <trkpt lon="101.043840" lat="13.024453">
                <ele>110.400000</ele>
                <time>2018-07-22T03:18:42Z</time>
            </trkpt>
            <trkpt lon="101.043805" lat="13.024472">
                <ele>112.200000</ele>
                <time>2018-07-22T03:18:44Z</time>
            </trkpt>
            <trkpt lon="101.043776" lat="13.024492">
                <ele>113.000000</ele>
                <time>2018-07-22T03:18:46Z</time>
            </trkpt>
            <trkpt lon="101.043753" lat="13.024508">
                <ele>113.800000</ele>
                <time>2018-07-22T03:18:48Z</time>
            </trkpt>
            <trkpt lon="101.043717" lat="13.024534">
                <ele>114.700000</ele>
                <time>2018-07-22T03:18:50Z</time>
            </trkpt>
            <trkpt lon="101.043686" lat="13.024554">
                <ele>116.400000</ele>
                <time>2018-07-22T03:18:52Z</time>
            </trkpt>
            <trkpt lon="101.043657" lat="13.024574">
                <ele>117.400000</ele>
                <time>2018-07-22T03:18:56Z</time>
            </trkpt>
            <trkpt lon="101.043624" lat="13.024605">
                <ele>118.000000</ele>
                <time>2018-07-22T03:19:00Z</time>
            </trkpt>
            <trkpt lon="101.043600" lat="13.024622">
                <ele>118.900000</ele>
                <time>2018-07-22T03:19:03Z</time>
            </trkpt>
            <trkpt lon="101.043577" lat="13.024640">
                <ele>120.300000</ele>
                <time>2018-07-22T03:19:07Z</time>
            </trkpt>
            <trkpt lon="101.043562" lat="13.024667">
                <ele>120.300000</ele>
                <time>2018-07-22T03:19:10Z</time>
            </trkpt>
            <trkpt lon="101.043571" lat="13.024701">
                <ele>120.800000</ele>
                <time>2018-07-22T03:19:20Z</time>
            </trkpt>
            <trkpt lon="101.043559" lat="13.024731">
                <ele>121.400000</ele>
                <time>2018-07-22T03:19:26Z</time>
            </trkpt>
            <trkpt lon="101.043571" lat="13.024774">
                <ele>122.100000</ele>
                <time>2018-07-22T03:19:33Z</time>
            </trkpt>
            <trkpt lon="101.043574" lat="13.024815">
                <ele>122.900000</ele>
                <time>2018-07-22T03:19:37Z</time>
            </trkpt>
            <trkpt lon="101.043575" lat="13.024846">
                <ele>123.600000</ele>
                <time>2018-07-22T03:19:43Z</time>
            </trkpt>
            <trkpt lon="101.043574" lat="13.024884">
                <ele>124.300000</ele>
                <time>2018-07-22T03:19:46Z</time>
            </trkpt>
            <trkpt lon="101.043555" lat="13.024918">
                <ele>124.300000</ele>
                <time>2018-07-22T03:19:50Z</time>
            </trkpt>
            <trkpt lon="101.043526" lat="13.024915">
                <ele>125.000000</ele>
                <time>2018-07-22T03:19:54Z</time>
            </trkpt>
            <trkpt lon="101.043506" lat="13.024940">
                <ele>125.500000</ele>
                <time>2018-07-22T03:19:56Z</time>
            </trkpt>
            <trkpt lon="101.043473" lat="13.024960">
                <ele>126.300000</ele>
                <time>2018-07-22T03:19:59Z</time>
            </trkpt>
            <trkpt lon="101.043442" lat="13.024981">
                <ele>127.500000</ele>
                <time>2018-07-22T03:20:01Z</time>
            </trkpt>
            <trkpt lon="101.043418" lat="13.025000">
                <ele>127.500000</ele>
                <time>2018-07-22T03:20:03Z</time>
            </trkpt>
            <trkpt lon="101.043371" lat="13.025002">
                <ele>128.300000</ele>
                <time>2018-07-22T03:20:05Z</time>
            </trkpt>
            <trkpt lon="101.043336" lat="13.025012">
                <ele>129.600000</ele>
                <time>2018-07-22T03:20:06Z</time>
            </trkpt>
            <trkpt lon="101.043307" lat="13.025026">
                <ele>130.400000</ele>
                <time>2018-07-22T03:20:07Z</time>
            </trkpt>
            <trkpt lon="101.043268" lat="13.025031">
                <ele>131.100000</ele>
                <time>2018-07-22T03:20:09Z</time>
            </trkpt>
            <trkpt lon="101.043231" lat="13.025039">
                <ele>131.900000</ele>
                <time>2018-07-22T03:20:11Z</time>
            </trkpt>
            <trkpt lon="101.043199" lat="13.025048">
                <ele>132.100000</ele>
                <time>2018-07-22T03:20:14Z</time>
            </trkpt>
            <trkpt lon="101.043162" lat="13.025048">
                <ele>132.800000</ele>
                <time>2018-07-22T03:20:17Z</time>
            </trkpt>
            <trkpt lon="101.043133" lat="13.025050">
                <ele>133.600000</ele>
                <time>2018-07-22T03:20:21Z</time>
            </trkpt>
            <trkpt lon="101.043117" lat="13.025075">
                <ele>133.600000</ele>
                <time>2018-07-22T03:20:26Z</time>
            </trkpt>
            <trkpt lon="101.043096" lat="13.025095">
                <ele>134.100000</ele>
                <time>2018-07-22T03:20:30Z</time>
            </trkpt>
            <trkpt lon="101.043061" lat="13.025112">
                <ele>134.900000</ele>
                <time>2018-07-22T03:20:32Z</time>
            </trkpt>
            <trkpt lon="101.043034" lat="13.025126">
                <ele>134.900000</ele>
                <time>2018-07-22T03:20:35Z</time>
            </trkpt>
            <trkpt lon="101.043005" lat="13.025146">
                <ele>135.600000</ele>
                <time>2018-07-22T03:20:39Z</time>
            </trkpt>
            <trkpt lon="101.042987" lat="13.025168">
                <ele>135.600000</ele>
                <time>2018-07-22T03:20:42Z</time>
            </trkpt>
            <trkpt lon="101.042963" lat="13.025183">
                <ele>136.400000</ele>
                <time>2018-07-22T03:20:44Z</time>
            </trkpt>
            <trkpt lon="101.042933" lat="13.025204">
                <ele>137.400000</ele>
                <time>2018-07-22T03:20:48Z</time>
            </trkpt>
            <trkpt lon="101.042906" lat="13.025217">
                <ele>137.100000</ele>
                <time>2018-07-22T03:20:53Z</time>
            </trkpt>
            <trkpt lon="101.042904" lat="13.025248">
                <ele>137.100000</ele>
                <time>2018-07-22T03:20:57Z</time>
            </trkpt>
            <trkpt lon="101.042888" lat="13.025276">
                <ele>137.600000</ele>
                <time>2018-07-22T03:21:00Z</time>
            </trkpt>
            <trkpt lon="101.042887" lat="13.025307">
                <ele>137.100000</ele>
                <time>2018-07-22T03:21:02Z</time>
            </trkpt>
            <trkpt lon="101.042884" lat="13.025336">
                <ele>137.100000</ele>
                <time>2018-07-22T03:21:04Z</time>
            </trkpt>
            <trkpt lon="101.042909" lat="13.025357">
                <ele>135.700000</ele>
                <time>2018-07-22T03:21:06Z</time>
            </trkpt>
            <trkpt lon="101.042907" lat="13.025392">
                <ele>135.200000</ele>
                <time>2018-07-22T03:21:10Z</time>
            </trkpt>
            <trkpt lon="101.042905" lat="13.025420">
                <ele>135.200000</ele>
                <time>2018-07-22T03:21:11Z</time>
            </trkpt>
            <trkpt lon="101.042890" lat="13.025473">
                <ele>134.600000</ele>
                <time>2018-07-22T03:21:13Z</time>
            </trkpt>
            <trkpt lon="101.042901" lat="13.025504">
                <ele>133.700000</ele>
                <time>2018-07-22T03:21:14Z</time>
            </trkpt>
            <trkpt lon="101.042911" lat="13.025553">
                <ele>132.100000</ele>
                <time>2018-07-22T03:21:15Z</time>
            </trkpt>
            <trkpt lon="101.042930" lat="13.025608">
                <ele>131.100000</ele>
                <time>2018-07-22T03:21:16Z</time>
            </trkpt>
            <trkpt lon="101.042945" lat="13.025654">
                <ele>129.400000</ele>
                <time>2018-07-22T03:21:17Z</time>
            </trkpt>
            <trkpt lon="101.042948" lat="13.025721">
                <ele>127.400000</ele>
                <time>2018-07-22T03:21:18Z</time>
            </trkpt>
            <trkpt lon="101.042944" lat="13.025777">
                <ele>126.400000</ele>
                <time>2018-07-22T03:21:19Z</time>
            </trkpt>
            <trkpt lon="101.042938" lat="13.025806">
                <ele>125.400000</ele>
                <time>2018-07-22T03:21:20Z</time>
            </trkpt>
            <trkpt lon="101.042914" lat="13.025834">
                <ele>126.100000</ele>
                <time>2018-07-22T03:21:21Z</time>
            </trkpt>
            <trkpt lon="101.042880" lat="13.025868">
                <ele>126.100000</ele>
                <time>2018-07-22T03:21:23Z</time>
            </trkpt>
            <trkpt lon="101.042863" lat="13.025896">
                <ele>125.100000</ele>
                <time>2018-07-22T03:21:24Z</time>
            </trkpt>
            <trkpt lon="101.042830" lat="13.025926">
                <ele>125.600000</ele>
                <time>2018-07-22T03:21:26Z</time>
            </trkpt>
            <trkpt lon="101.042799" lat="13.025953">
                <ele>127.100000</ele>
                <time>2018-07-22T03:21:28Z</time>
            </trkpt>
            <trkpt lon="101.042775" lat="13.025969">
                <ele>125.500000</ele>
                <time>2018-07-22T03:21:30Z</time>
            </trkpt>
            <trkpt lon="101.042755" lat="13.025994">
                <ele>127.000000</ele>
                <time>2018-07-22T03:21:32Z</time>
            </trkpt>
            <trkpt lon="101.042725" lat="13.026012">
                <ele>126.000000</ele>
                <time>2018-07-22T03:21:35Z</time>
            </trkpt>
            <trkpt lon="101.042693" lat="13.026038">
                <ele>127.800000</ele>
                <time>2018-07-22T03:21:38Z</time>
            </trkpt>
            <trkpt lon="101.042677" lat="13.026067">
                <ele>127.200000</ele>
                <time>2018-07-22T03:21:40Z</time>
            </trkpt>
            <trkpt lon="101.042671" lat="13.026096">
                <ele>128.900000</ele>
                <time>2018-07-22T03:21:42Z</time>
            </trkpt>
            <trkpt lon="101.042645" lat="13.026122">
                <ele>128.900000</ele>
                <time>2018-07-22T03:21:44Z</time>
            </trkpt>
            <trkpt lon="101.042634" lat="13.026155">
                <ele>128.200000</ele>
                <time>2018-07-22T03:21:46Z</time>
            </trkpt>
            <trkpt lon="101.042632" lat="13.026204">
                <ele>129.600000</ele>
                <time>2018-07-22T03:21:48Z</time>
            </trkpt>
            <trkpt lon="101.042636" lat="13.026247">
                <ele>126.900000</ele>
                <time>2018-07-22T03:21:49Z</time>
            </trkpt>
            <trkpt lon="101.042635" lat="13.026280">
                <ele>126.300000</ele>
                <time>2018-07-22T03:21:50Z</time>
            </trkpt>
            <trkpt lon="101.042635" lat="13.026322">
                <ele>125.600000</ele>
                <time>2018-07-22T03:21:52Z</time>
            </trkpt>
            <trkpt lon="101.042606" lat="13.026366">
                <ele>126.500000</ele>
                <time>2018-07-22T03:21:54Z</time>
            </trkpt>
            <trkpt lon="101.042590" lat="13.026392">
                <ele>127.200000</ele>
                <time>2018-07-22T03:21:55Z</time>
            </trkpt>
            <trkpt lon="101.042568" lat="13.026418">
                <ele>127.200000</ele>
                <time>2018-07-22T03:21:59Z</time>
            </trkpt>
            <trkpt lon="101.042535" lat="13.026472">
                <ele>127.200000</ele>
                <time>2018-07-22T03:22:03Z</time>
            </trkpt>
            <trkpt lon="101.042519" lat="13.026506">
                <ele>127.200000</ele>
                <time>2018-07-22T03:22:06Z</time>
            </trkpt>
            <trkpt lon="101.042489" lat="13.026517">
                <ele>128.000000</ele>
                <time>2018-07-22T03:22:07Z</time>
            </trkpt>
            <trkpt lon="101.042435" lat="13.026521">
                <ele>129.500000</ele>
                <time>2018-07-22T03:22:09Z</time>
            </trkpt>
            <trkpt lon="101.042402" lat="13.026538">
                <ele>131.000000</ele>
                <time>2018-07-22T03:22:11Z</time>
            </trkpt>
            <trkpt lon="101.042373" lat="13.026560">
                <ele>131.600000</ele>
                <time>2018-07-22T03:22:13Z</time>
            </trkpt>
            <trkpt lon="101.042337" lat="13.026585">
                <ele>131.600000</ele>
                <time>2018-07-22T03:22:15Z</time>
            </trkpt>
            <trkpt lon="101.042313" lat="13.026613">
                <ele>132.200000</ele>
                <time>2018-07-22T03:22:18Z</time>
            </trkpt>
            <trkpt lon="101.042297" lat="13.026636">
                <ele>131.100000</ele>
                <time>2018-07-22T03:22:20Z</time>
            </trkpt>
            <trkpt lon="101.042281" lat="13.026659">
                <ele>132.700000</ele>
                <time>2018-07-22T03:22:24Z</time>
            </trkpt>
            <trkpt lon="101.042249" lat="13.026670">
                <ele>132.700000</ele>
                <time>2018-07-22T03:22:28Z</time>
            </trkpt>
            <trkpt lon="101.042239" lat="13.026698">
                <ele>133.100000</ele>
                <time>2018-07-22T03:22:32Z</time>
            </trkpt>
            <trkpt lon="101.042208" lat="13.026702">
                <ele>133.100000</ele>
                <time>2018-07-22T03:22:37Z</time>
            </trkpt>
            <trkpt lon="101.042183" lat="13.026679">
                <ele>134.800000</ele>
                <time>2018-07-22T03:22:42Z</time>
            </trkpt>
            <trkpt lon="101.042174" lat="13.026708">
                <ele>134.800000</ele>
                <time>2018-07-22T03:22:45Z</time>
            </trkpt>
            <trkpt lon="101.042157" lat="13.026732">
                <ele>135.600000</ele>
                <time>2018-07-22T03:22:54Z</time>
            </trkpt>
            <trkpt lon="101.042139" lat="13.026763">
                <ele>134.100000</ele>
                <time>2018-07-22T03:22:58Z</time>
            </trkpt>
            <trkpt lon="101.042112" lat="13.026780">
                <ele>136.000000</ele>
                <time>2018-07-22T03:23:00Z</time>
            </trkpt>
            <trkpt lon="101.042074" lat="13.026780">
                <ele>137.900000</ele>
                <time>2018-07-22T03:23:02Z</time>
            </trkpt>
            <trkpt lon="101.042046" lat="13.026789">
                <ele>137.900000</ele>
                <time>2018-07-22T03:23:03Z</time>
            </trkpt>
            <trkpt lon="101.041996" lat="13.026802">
                <ele>139.800000</ele>
                <time>2018-07-22T03:23:05Z</time>
            </trkpt>
            <trkpt lon="101.041958" lat="13.026811">
                <ele>139.300000</ele>
                <time>2018-07-22T03:23:06Z</time>
            </trkpt>
            <trkpt lon="101.041897" lat="13.026808">
                <ele>142.500000</ele>
                <time>2018-07-22T03:23:08Z</time>
            </trkpt>
            <trkpt lon="101.041868" lat="13.026807">
                <ele>142.500000</ele>
                <time>2018-07-22T03:23:09Z</time>
            </trkpt>
            <trkpt lon="101.041825" lat="13.026815">
                <ele>144.100000</ele>
                <time>2018-07-22T03:23:12Z</time>
            </trkpt>
            <trkpt lon="101.041800" lat="13.026840">
                <ele>145.800000</ele>
                <time>2018-07-22T03:23:14Z</time>
            </trkpt>
            <trkpt lon="101.041781" lat="13.026862">
                <ele>143.600000</ele>
                <time>2018-07-22T03:23:21Z</time>
            </trkpt>
            <trkpt lon="101.041764" lat="13.026891">
                <ele>143.400000</ele>
                <time>2018-07-22T03:23:30Z</time>
            </trkpt>
            <trkpt lon="101.041752" lat="13.026922">
                <ele>143.400000</ele>
                <time>2018-07-22T03:23:32Z</time>
            </trkpt>
            <trkpt lon="101.041719" lat="13.026975">
                <ele>141.200000</ele>
                <time>2018-07-22T03:23:34Z</time>
            </trkpt>
            <trkpt lon="101.041695" lat="13.027004">
                <ele>141.200000</ele>
                <time>2018-07-22T03:23:35Z</time>
            </trkpt>
            <trkpt lon="101.041670" lat="13.027033">
                <ele>140.600000</ele>
                <time>2018-07-22T03:23:36Z</time>
            </trkpt>
            <trkpt lon="101.041635" lat="13.027064">
                <ele>139.300000</ele>
                <time>2018-07-22T03:23:38Z</time>
            </trkpt>
            <trkpt lon="101.041589" lat="13.027088">
                <ele>140.000000</ele>
                <time>2018-07-22T03:23:40Z</time>
            </trkpt>
            <trkpt lon="101.041559" lat="13.027097">
                <ele>138.500000</ele>
                <time>2018-07-22T03:23:41Z</time>
            </trkpt>
            <trkpt lon="101.041527" lat="13.027108">
                <ele>138.500000</ele>
                <time>2018-07-22T03:23:42Z</time>
            </trkpt>
            <trkpt lon="101.041486" lat="13.027123">
                <ele>139.100000</ele>
                <time>2018-07-22T03:23:43Z</time>
            </trkpt>
            <trkpt lon="101.041448" lat="13.027132">
                <ele>139.700000</ele>
                <time>2018-07-22T03:23:44Z</time>
            </trkpt>
            <trkpt lon="101.041404" lat="13.027147">
                <ele>138.200000</ele>
                <time>2018-07-22T03:23:45Z</time>
            </trkpt>
            <trkpt lon="101.041362" lat="13.027159">
                <ele>138.900000</ele>
                <time>2018-07-22T03:23:46Z</time>
            </trkpt>
            <trkpt lon="101.041320" lat="13.027166">
                <ele>139.500000</ele>
                <time>2018-07-22T03:23:47Z</time>
            </trkpt>
            <trkpt lon="101.041279" lat="13.027170">
                <ele>140.100000</ele>
                <time>2018-07-22T03:23:48Z</time>
            </trkpt>
            <trkpt lon="101.041245" lat="13.027170">
                <ele>141.000000</ele>
                <time>2018-07-22T03:23:49Z</time>
            </trkpt>
            <trkpt lon="101.041206" lat="13.027164">
                <ele>141.600000</ele>
                <time>2018-07-22T03:23:51Z</time>
            </trkpt>
            <trkpt lon="101.041170" lat="13.027174">
                <ele>141.900000</ele>
                <time>2018-07-22T03:23:53Z</time>
            </trkpt>
            <trkpt lon="101.041123" lat="13.027168">
                <ele>142.000000</ele>
                <time>2018-07-22T03:23:55Z</time>
            </trkpt>
            <trkpt lon="101.041090" lat="13.027172">
                <ele>142.000000</ele>
                <time>2018-07-22T03:23:56Z</time>
            </trkpt>
            <trkpt lon="101.041055" lat="13.027168">
                <ele>142.200000</ele>
                <time>2018-07-22T03:23:57Z</time>
            </trkpt>
            <trkpt lon="101.041024" lat="13.027174">
                <ele>142.300000</ele>
                <time>2018-07-22T03:23:58Z</time>
            </trkpt>
            <trkpt lon="101.040993" lat="13.027195">
                <ele>139.800000</ele>
                <time>2018-07-22T03:24:00Z</time>
            </trkpt>
            <trkpt lon="101.040964" lat="13.027217">
                <ele>139.800000</ele>
                <time>2018-07-22T03:24:02Z</time>
            </trkpt>
            <trkpt lon="101.040934" lat="13.027237">
                <ele>137.900000</ele>
                <time>2018-07-22T03:24:05Z</time>
            </trkpt>
            <trkpt lon="101.040902" lat="13.027224">
                <ele>138.100000</ele>
                <time>2018-07-22T03:24:07Z</time>
            </trkpt>
            <trkpt lon="101.040865" lat="13.027212">
                <ele>140.600000</ele>
                <time>2018-07-22T03:24:09Z</time>
            </trkpt>
            <trkpt lon="101.040829" lat="13.027208">
                <ele>141.000000</ele>
                <time>2018-07-22T03:24:10Z</time>
            </trkpt>
            <trkpt lon="101.040790" lat="13.027197">
                <ele>141.000000</ele>
                <time>2018-07-22T03:24:11Z</time>
            </trkpt>
            <trkpt lon="101.040751" lat="13.027181">
                <ele>141.500000</ele>
                <time>2018-07-22T03:24:12Z</time>
            </trkpt>
            <trkpt lon="101.040717" lat="13.027176">
                <ele>144.500000</ele>
                <time>2018-07-22T03:24:14Z</time>
            </trkpt>
            <trkpt lon="101.040688" lat="13.027176">
                <ele>145.000000</ele>
                <time>2018-07-22T03:24:19Z</time>
            </trkpt>
            <trkpt lon="101.040654" lat="13.027171">
                <ele>145.600000</ele>
                <time>2018-07-22T03:24:23Z</time>
            </trkpt>
            <trkpt lon="101.040623" lat="13.027156">
                <ele>145.600000</ele>
                <time>2018-07-22T03:24:26Z</time>
            </trkpt>
            <trkpt lon="101.040584" lat="13.027152">
                <ele>146.200000</ele>
                <time>2018-07-22T03:24:30Z</time>
            </trkpt>
            <trkpt lon="101.040555" lat="13.027147">
                <ele>146.900000</ele>
                <time>2018-07-22T03:24:34Z</time>
            </trkpt>
            <trkpt lon="101.040526" lat="13.027163">
                <ele>147.600000</ele>
                <time>2018-07-22T03:24:40Z</time>
            </trkpt>
            <trkpt lon="101.040492" lat="13.027166">
                <ele>147.600000</ele>
                <time>2018-07-22T03:24:43Z</time>
            </trkpt>
            <trkpt lon="101.040462" lat="13.027165">
                <ele>148.100000</ele>
                <time>2018-07-22T03:24:46Z</time>
            </trkpt>
            <trkpt lon="101.040428" lat="13.027175">
                <ele>148.500000</ele>
                <time>2018-07-22T03:24:49Z</time>
            </trkpt>
            <trkpt lon="101.040400" lat="13.027175">
                <ele>148.900000</ele>
                <time>2018-07-22T03:24:51Z</time>
            </trkpt>
            <trkpt lon="101.040364" lat="13.027191">
                <ele>146.800000</ele>
                <time>2018-07-22T03:24:54Z</time>
            </trkpt>
            <trkpt lon="101.040331" lat="13.027211">
                <ele>147.300000</ele>
                <time>2018-07-22T03:24:56Z</time>
            </trkpt>
            <trkpt lon="101.040308" lat="13.027232">
                <ele>144.900000</ele>
                <time>2018-07-22T03:24:57Z</time>
            </trkpt>
            <trkpt lon="101.040269" lat="13.027251">
                <ele>145.000000</ele>
                <time>2018-07-22T03:24:59Z</time>
            </trkpt>
            <trkpt lon="101.040220" lat="13.027259">
                <ele>145.000000</ele>
                <time>2018-07-22T03:25:01Z</time>
            </trkpt>
            <trkpt lon="101.040185" lat="13.027247">
                <ele>145.100000</ele>
                <time>2018-07-22T03:25:02Z</time>
            </trkpt>
            <trkpt lon="101.040152" lat="13.027239">
                <ele>145.100000</ele>
                <time>2018-07-22T03:25:03Z</time>
            </trkpt>
            <trkpt lon="101.040085" lat="13.027236">
                <ele>144.400000</ele>
                <time>2018-07-22T03:25:05Z</time>
            </trkpt>
            <trkpt lon="101.040042" lat="13.027231">
                <ele>143.900000</ele>
                <time>2018-07-22T03:25:06Z</time>
            </trkpt>
            <trkpt lon="101.039999" lat="13.027210">
                <ele>145.400000</ele>
                <time>2018-07-22T03:25:07Z</time>
            </trkpt>
            <trkpt lon="101.039957" lat="13.027179">
                <ele>144.600000</ele>
                <time>2018-07-22T03:25:08Z</time>
            </trkpt>
            <trkpt lon="101.039921" lat="13.027144">
                <ele>145.100000</ele>
                <time>2018-07-22T03:25:09Z</time>
            </trkpt>
            <trkpt lon="101.039899" lat="13.027119">
                <ele>146.600000</ele>
                <time>2018-07-22T03:25:10Z</time>
            </trkpt>
            <trkpt lon="101.039883" lat="13.027094">
                <ele>147.100000</ele>
                <time>2018-07-22T03:25:11Z</time>
            </trkpt>
            <trkpt lon="101.039850" lat="13.027053">
                <ele>148.500000</ele>
                <time>2018-07-22T03:25:13Z</time>
            </trkpt>
            <trkpt lon="101.039820" lat="13.027027">
                <ele>147.500000</ele>
                <time>2018-07-22T03:25:15Z</time>
            </trkpt>
            <trkpt lon="101.039788" lat="13.027002">
                <ele>147.600000</ele>
                <time>2018-07-22T03:25:17Z</time>
            </trkpt>
            <trkpt lon="101.039748" lat="13.026967">
                <ele>147.600000</ele>
                <time>2018-07-22T03:25:19Z</time>
            </trkpt>
            <trkpt lon="101.039728" lat="13.026944">
                <ele>147.600000</ele>
                <time>2018-07-22T03:25:20Z</time>
            </trkpt>
            <trkpt lon="101.039706" lat="13.026917">
                <ele>147.600000</ele>
                <time>2018-07-22T03:25:21Z</time>
            </trkpt>
            <trkpt lon="101.039677" lat="13.026884">
                <ele>148.800000</ele>
                <time>2018-07-22T03:25:23Z</time>
            </trkpt>
            <trkpt lon="101.039636" lat="13.026861">
                <ele>147.600000</ele>
                <time>2018-07-22T03:25:25Z</time>
            </trkpt>
            <trkpt lon="101.039607" lat="13.026848">
                <ele>146.500000</ele>
                <time>2018-07-22T03:25:27Z</time>
            </trkpt>
            <trkpt lon="101.039574" lat="13.026815">
                <ele>146.500000</ele>
                <time>2018-07-22T03:25:29Z</time>
            </trkpt>
            <trkpt lon="101.039543" lat="13.026788">
                <ele>146.200000</ele>
                <time>2018-07-22T03:25:30Z</time>
            </trkpt>
            <trkpt lon="101.039502" lat="13.026771">
                <ele>146.200000</ele>
                <time>2018-07-22T03:25:31Z</time>
            </trkpt>
            <trkpt lon="101.039464" lat="13.026752">
                <ele>145.700000</ele>
                <time>2018-07-22T03:25:32Z</time>
            </trkpt>
            <trkpt lon="101.039433" lat="13.026721">
                <ele>144.600000</ele>
                <time>2018-07-22T03:25:33Z</time>
            </trkpt>
            <trkpt lon="101.039411" lat="13.026692">
                <ele>144.300000</ele>
                <time>2018-07-22T03:25:34Z</time>
            </trkpt>
            <trkpt lon="101.039380" lat="13.026672">
                <ele>144.900000</ele>
                <time>2018-07-22T03:25:35Z</time>
            </trkpt>
            <trkpt lon="101.039356" lat="13.026646">
                <ele>143.700000</ele>
                <time>2018-07-22T03:25:36Z</time>
            </trkpt>
            <trkpt lon="101.039335" lat="13.026615">
                <ele>144.100000</ele>
                <time>2018-07-22T03:25:37Z</time>
            </trkpt>
            <trkpt lon="101.039300" lat="13.026584">
                <ele>143.100000</ele>
                <time>2018-07-22T03:25:38Z</time>
            </trkpt>
            <trkpt lon="101.039264" lat="13.026562">
                <ele>142.200000</ele>
                <time>2018-07-22T03:25:39Z</time>
            </trkpt>
            <trkpt lon="101.039238" lat="13.026531">
                <ele>141.700000</ele>
                <time>2018-07-22T03:25:40Z</time>
            </trkpt>
            <trkpt lon="101.039219" lat="13.026487">
                <ele>142.000000</ele>
                <time>2018-07-22T03:25:41Z</time>
            </trkpt>
            <trkpt lon="101.039203" lat="13.026446">
                <ele>142.300000</ele>
                <time>2018-07-22T03:25:42Z</time>
            </trkpt>
            <trkpt lon="101.039178" lat="13.026411">
                <ele>141.400000</ele>
                <time>2018-07-22T03:25:43Z</time>
            </trkpt>
            <trkpt lon="101.039149" lat="13.026369">
                <ele>140.200000</ele>
                <time>2018-07-22T03:25:44Z</time>
            </trkpt>
            <trkpt lon="101.039131" lat="13.026317">
                <ele>140.000000</ele>
                <time>2018-07-22T03:25:45Z</time>
            </trkpt>
            <trkpt lon="101.039114" lat="13.026264">
                <ele>139.700000</ele>
                <time>2018-07-22T03:25:46Z</time>
            </trkpt>
            <trkpt lon="101.039108" lat="13.026196">
                <ele>138.500000</ele>
                <time>2018-07-22T03:25:47Z</time>
            </trkpt>
            <trkpt lon="101.039108" lat="13.026132">
                <ele>137.900000</ele>
                <time>2018-07-22T03:25:48Z</time>
            </trkpt>
            <trkpt lon="101.039103" lat="13.026084">
                <ele>137.600000</ele>
                <time>2018-07-22T03:25:49Z</time>
            </trkpt>
            <trkpt lon="101.039096" lat="13.026041">
                <ele>137.400000</ele>
                <time>2018-07-22T03:25:50Z</time>
            </trkpt>
            <trkpt lon="101.039098" lat="13.025997">
                <ele>137.300000</ele>
                <time>2018-07-22T03:25:51Z</time>
            </trkpt>
            <trkpt lon="101.039097" lat="13.025944">
                <ele>137.100000</ele>
                <time>2018-07-22T03:25:52Z</time>
            </trkpt>
            <trkpt lon="101.039094" lat="13.025901">
                <ele>137.100000</ele>
                <time>2018-07-22T03:25:53Z</time>
            </trkpt>
            <trkpt lon="101.039092" lat="13.025869">
                <ele>136.700000</ele>
                <time>2018-07-22T03:25:54Z</time>
            </trkpt>
            <trkpt lon="101.039093" lat="13.025828">
                <ele>136.200000</ele>
                <time>2018-07-22T03:25:55Z</time>
            </trkpt>
            <trkpt lon="101.039088" lat="13.025775">
                <ele>135.800000</ele>
                <time>2018-07-22T03:25:56Z</time>
            </trkpt>
            <trkpt lon="101.039088" lat="13.025742">
                <ele>135.300000</ele>
                <time>2018-07-22T03:25:57Z</time>
            </trkpt>
            <trkpt lon="101.039082" lat="13.025691">
                <ele>135.000000</ele>
                <time>2018-07-22T03:25:59Z</time>
            </trkpt>
            <trkpt lon="101.039077" lat="13.025660">
                <ele>134.800000</ele>
                <time>2018-07-22T03:26:00Z</time>
            </trkpt>
            <trkpt lon="101.039077" lat="13.025629">
                <ele>134.500000</ele>
                <time>2018-07-22T03:26:01Z</time>
            </trkpt>
            <trkpt lon="101.039065" lat="13.025595">
                <ele>133.500000</ele>
                <time>2018-07-22T03:26:02Z</time>
            </trkpt>
            <trkpt lon="101.039050" lat="13.025549">
                <ele>133.300000</ele>
                <time>2018-07-22T03:26:03Z</time>
            </trkpt>
            <trkpt lon="101.039033" lat="13.025503">
                <ele>132.800000</ele>
                <time>2018-07-22T03:26:04Z</time>
            </trkpt>
            <trkpt lon="101.039020" lat="13.025458">
                <ele>131.500000</ele>
                <time>2018-07-22T03:26:05Z</time>
            </trkpt>
            <trkpt lon="101.039016" lat="13.025403">
                <ele>131.300000</ele>
                <time>2018-07-22T03:26:06Z</time>
            </trkpt>
            <trkpt lon="101.039020" lat="13.025352">
                <ele>131.100000</ele>
                <time>2018-07-22T03:26:07Z</time>
            </trkpt>
            <trkpt lon="101.039028" lat="13.025300">
                <ele>131.100000</ele>
                <time>2018-07-22T03:26:08Z</time>
            </trkpt>
            <trkpt lon="101.039035" lat="13.025258">
                <ele>131.800000</ele>
                <time>2018-07-22T03:26:09Z</time>
            </trkpt>
            <trkpt lon="101.039043" lat="13.025220">
                <ele>131.700000</ele>
                <time>2018-07-22T03:26:10Z</time>
            </trkpt>
            <trkpt lon="101.039048" lat="13.025179">
                <ele>131.400000</ele>
                <time>2018-07-22T03:26:11Z</time>
            </trkpt>
            <trkpt lon="101.039053" lat="13.025147">
                <ele>131.200000</ele>
                <time>2018-07-22T03:26:12Z</time>
            </trkpt>
            <trkpt lon="101.039055" lat="13.025113">
                <ele>130.900000</ele>
                <time>2018-07-22T03:26:13Z</time>
            </trkpt>
            <trkpt lon="101.039048" lat="13.025078">
                <ele>130.700000</ele>
                <time>2018-07-22T03:26:14Z</time>
            </trkpt>
            <trkpt lon="101.039029" lat="13.025041">
                <ele>130.300000</ele>
                <time>2018-07-22T03:26:15Z</time>
            </trkpt>
            <trkpt lon="101.039002" lat="13.025002">
                <ele>129.300000</ele>
                <time>2018-07-22T03:26:16Z</time>
            </trkpt>
            <trkpt lon="101.038970" lat="13.024955">
                <ele>128.400000</ele>
                <time>2018-07-22T03:26:17Z</time>
            </trkpt>
            <trkpt lon="101.038944" lat="13.024916">
                <ele>128.100000</ele>
                <time>2018-07-22T03:26:18Z</time>
            </trkpt>
            <trkpt lon="101.038912" lat="13.024882">
                <ele>127.600000</ele>
                <time>2018-07-22T03:26:19Z</time>
            </trkpt>
            <trkpt lon="101.038887" lat="13.024836">
                <ele>126.400000</ele>
                <time>2018-07-22T03:26:20Z</time>
            </trkpt>
            <trkpt lon="101.038867" lat="13.024783">
                <ele>126.000000</ele>
                <time>2018-07-22T03:26:21Z</time>
            </trkpt>
            <trkpt lon="101.038852" lat="13.024733">
                <ele>125.300000</ele>
                <time>2018-07-22T03:26:22Z</time>
            </trkpt>
            <trkpt lon="101.038844" lat="13.024685">
                <ele>125.200000</ele>
                <time>2018-07-22T03:26:23Z</time>
            </trkpt>
            <trkpt lon="101.038824" lat="13.024645">
                <ele>125.100000</ele>
                <time>2018-07-22T03:26:24Z</time>
            </trkpt>
            <trkpt lon="101.038817" lat="13.024597">
                <ele>125.000000</ele>
                <time>2018-07-22T03:26:25Z</time>
            </trkpt>
            <trkpt lon="101.038825" lat="13.024553">
                <ele>124.900000</ele>
                <time>2018-07-22T03:26:26Z</time>
            </trkpt>
            <trkpt lon="101.038807" lat="13.024508">
                <ele>124.900000</ele>
                <time>2018-07-22T03:26:27Z</time>
            </trkpt>
            <trkpt lon="101.038789" lat="13.024471">
                <ele>124.900000</ele>
                <time>2018-07-22T03:26:28Z</time>
            </trkpt>
            <trkpt lon="101.038769" lat="13.024432">
                <ele>124.800000</ele>
                <time>2018-07-22T03:26:29Z</time>
            </trkpt>
            <trkpt lon="101.038750" lat="13.024395">
                <ele>124.900000</ele>
                <time>2018-07-22T03:26:30Z</time>
            </trkpt>
            <trkpt lon="101.038738" lat="13.024365">
                <ele>125.000000</ele>
                <time>2018-07-22T03:26:31Z</time>
            </trkpt>
            <trkpt lon="101.038739" lat="13.024311">
                <ele>125.200000</ele>
                <time>2018-07-22T03:26:33Z</time>
            </trkpt>
            <trkpt lon="101.038720" lat="13.024268">
                <ele>125.300000</ele>
                <time>2018-07-22T03:26:35Z</time>
            </trkpt>
            <trkpt lon="101.038665" lat="13.024228">
                <ele>125.200000</ele>
                <time>2018-07-22T03:26:37Z</time>
            </trkpt>
            <trkpt lon="101.038620" lat="13.024215">
                <ele>125.000000</ele>
                <time>2018-07-22T03:26:38Z</time>
            </trkpt>
            <trkpt lon="101.038580" lat="13.024204">
                <ele>124.400000</ele>
                <time>2018-07-22T03:26:39Z</time>
            </trkpt>
            <trkpt lon="101.038533" lat="13.024186">
                <ele>123.900000</ele>
                <time>2018-07-22T03:26:41Z</time>
            </trkpt>
            <trkpt lon="101.038486" lat="13.024139">
                <ele>123.100000</ele>
                <time>2018-07-22T03:26:43Z</time>
            </trkpt>
            <trkpt lon="101.038453" lat="13.024096">
                <ele>122.400000</ele>
                <time>2018-07-22T03:26:44Z</time>
            </trkpt>
            <trkpt lon="101.038422" lat="13.024048">
                <ele>121.800000</ele>
                <time>2018-07-22T03:26:45Z</time>
            </trkpt>
            <trkpt lon="101.038389" lat="13.023995">
                <ele>121.700000</ele>
                <time>2018-07-22T03:26:46Z</time>
            </trkpt>
            <trkpt lon="101.038362" lat="13.023953">
                <ele>121.500000</ele>
                <time>2018-07-22T03:26:47Z</time>
            </trkpt>
            <trkpt lon="101.038339" lat="13.023925">
                <ele>121.200000</ele>
                <time>2018-07-22T03:26:48Z</time>
            </trkpt>
            <trkpt lon="101.038316" lat="13.023903">
                <ele>121.200000</ele>
                <time>2018-07-22T03:26:49Z</time>
            </trkpt>
            <trkpt lon="101.038291" lat="13.023883">
                <ele>121.000000</ele>
                <time>2018-07-22T03:26:50Z</time>
            </trkpt>
            <trkpt lon="101.038253" lat="13.023862">
                <ele>120.600000</ele>
                <time>2018-07-22T03:26:52Z</time>
            </trkpt>
            <trkpt lon="101.038219" lat="13.023854">
                <ele>120.600000</ele>
                <time>2018-07-22T03:26:53Z</time>
            </trkpt>
            <trkpt lon="101.038182" lat="13.023850">
                <ele>120.300000</ele>
                <time>2018-07-22T03:26:54Z</time>
            </trkpt>
            <trkpt lon="101.038143" lat="13.023842">
                <ele>120.100000</ele>
                <time>2018-07-22T03:26:56Z</time>
            </trkpt>
            <trkpt lon="101.038109" lat="13.023820">
                <ele>119.600000</ele>
                <time>2018-07-22T03:26:58Z</time>
            </trkpt>
            <trkpt lon="101.038082" lat="13.023803">
                <ele>119.400000</ele>
                <time>2018-07-22T03:27:00Z</time>
            </trkpt>
            <trkpt lon="101.038036" lat="13.023776">
                <ele>119.100000</ele>
                <time>2018-07-22T03:27:02Z</time>
            </trkpt>
            <trkpt lon="101.038026" lat="13.023751">
                <ele>119.100000</ele>
                <time>2018-07-22T03:27:03Z</time>
            </trkpt>
            <trkpt lon="101.038007" lat="13.023727">
                <ele>118.900000</ele>
                <time>2018-07-22T03:27:04Z</time>
            </trkpt>
            <trkpt lon="101.037965" lat="13.023719">
                <ele>118.900000</ele>
                <time>2018-07-22T03:27:06Z</time>
            </trkpt>
            <trkpt lon="101.037922" lat="13.023710">
                <ele>118.900000</ele>
                <time>2018-07-22T03:27:08Z</time>
            </trkpt>
            <trkpt lon="101.037882" lat="13.023694">
                <ele>118.900000</ele>
                <time>2018-07-22T03:27:10Z</time>
            </trkpt>
            <trkpt lon="101.037846" lat="13.023693">
                <ele>118.900000</ele>
                <time>2018-07-22T03:27:13Z</time>
            </trkpt>
            <trkpt lon="101.037804" lat="13.023701">
                <ele>118.900000</ele>
                <time>2018-07-22T03:27:15Z</time>
            </trkpt>
            <trkpt lon="101.037763" lat="13.023699">
                <ele>118.900000</ele>
                <time>2018-07-22T03:27:16Z</time>
            </trkpt>
            <trkpt lon="101.037736" lat="13.023692">
                <ele>119.000000</ele>
                <time>2018-07-22T03:27:17Z</time>
            </trkpt>
            <trkpt lon="101.037696" lat="13.023689">
                <ele>119.200000</ele>
                <time>2018-07-22T03:27:19Z</time>
            </trkpt>
            <trkpt lon="101.037649" lat="13.023681">
                <ele>119.400000</ele>
                <time>2018-07-22T03:27:21Z</time>
            </trkpt>
            <trkpt lon="101.037599" lat="13.023681">
                <ele>119.600000</ele>
                <time>2018-07-22T03:27:23Z</time>
            </trkpt>
            <trkpt lon="101.037557" lat="13.023685">
                <ele>119.700000</ele>
                <time>2018-07-22T03:27:25Z</time>
            </trkpt>
            <trkpt lon="101.037520" lat="13.023689">
                <ele>119.800000</ele>
                <time>2018-07-22T03:27:28Z</time>
            </trkpt>
            <trkpt lon="101.037492" lat="13.023686">
                <ele>119.800000</ele>
                <time>2018-07-22T03:27:30Z</time>
            </trkpt>
            <trkpt lon="101.037441" lat="13.023685">
                <ele>119.800000</ele>
                <time>2018-07-22T03:27:33Z</time>
            </trkpt>
            <trkpt lon="101.037407" lat="13.023667">
                <ele>119.900000</ele>
                <time>2018-07-22T03:27:35Z</time>
            </trkpt>
            <trkpt lon="101.037357" lat="13.023651">
                <ele>120.000000</ele>
                <time>2018-07-22T03:27:38Z</time>
            </trkpt>
            <trkpt lon="101.037336" lat="13.023630">
                <ele>120.300000</ele>
                <time>2018-07-22T03:27:39Z</time>
            </trkpt>
            <trkpt lon="101.037308" lat="13.023601">
                <ele>120.500000</ele>
                <time>2018-07-22T03:27:40Z</time>
            </trkpt>
            <trkpt lon="101.037289" lat="13.023577">
                <ele>120.500000</ele>
                <time>2018-07-22T03:27:42Z</time>
            </trkpt>
            <trkpt lon="101.037285" lat="13.023541">
                <ele>120.500000</ele>
                <time>2018-07-22T03:27:44Z</time>
            </trkpt>
            <trkpt lon="101.037309" lat="13.023561">
                <ele>120.500000</ele>
                <time>2018-07-22T03:27:55Z</time>
            </trkpt>
            <trkpt lon="101.037344" lat="13.023569">
                <ele>120.300000</ele>
                <time>2018-07-22T03:27:58Z</time>
            </trkpt>
            <trkpt lon="101.037372" lat="13.023567">
                <ele>120.000000</ele>
                <time>2018-07-22T03:28:01Z</time>
            </trkpt>
            <trkpt lon="101.037377" lat="13.023598">
                <ele>120.000000</ele>
                <time>2018-07-22T03:28:08Z</time>
            </trkpt>
            <trkpt lon="101.037387" lat="13.023624">
                <ele>120.000000</ele>
                <time>2018-07-22T03:28:10Z</time>
            </trkpt>
            <trkpt lon="101.037394" lat="13.023654">
                <ele>120.000000</ele>
                <time>2018-07-22T03:28:16Z</time>
            </trkpt>
            <trkpt lon="101.037395" lat="13.023688">
                <ele>120.000000</ele>
                <time>2018-07-22T03:28:19Z</time>
            </trkpt>
            <trkpt lon="101.037375" lat="13.023712">
                <ele>120.000000</ele>
                <time>2018-07-22T03:28:21Z</time>
            </trkpt>
            <trkpt lon="101.037369" lat="13.023757">
                <ele>120.000000</ele>
                <time>2018-07-22T03:28:23Z</time>
            </trkpt>
            <trkpt lon="101.037368" lat="13.023795">
                <ele>119.900000</ele>
                <time>2018-07-22T03:28:25Z</time>
            </trkpt>
            <trkpt lon="101.037362" lat="13.023838">
                <ele>119.900000</ele>
                <time>2018-07-22T03:28:27Z</time>
            </trkpt>
            <trkpt lon="101.037356" lat="13.023879">
                <ele>119.900000</ele>
                <time>2018-07-22T03:28:30Z</time>
            </trkpt>
            <trkpt lon="101.037345" lat="13.023907">
                <ele>119.900000</ele>
                <time>2018-07-22T03:28:32Z</time>
            </trkpt>
            <trkpt lon="101.037322" lat="13.023943">
                <ele>119.900000</ele>
                <time>2018-07-22T03:28:34Z</time>
            </trkpt>
            <trkpt lon="101.037304" lat="13.023977">
                <ele>119.900000</ele>
                <time>2018-07-22T03:28:36Z</time>
            </trkpt>
            <trkpt lon="101.037289" lat="13.024010">
                <ele>119.900000</ele>
                <time>2018-07-22T03:28:38Z</time>
            </trkpt>
            <trkpt lon="101.037278" lat="13.024035">
                <ele>119.900000</ele>
                <time>2018-07-22T03:28:39Z</time>
            </trkpt>
            <trkpt lon="101.037258" lat="13.024078">
                <ele>119.900000</ele>
                <time>2018-07-22T03:28:41Z</time>
            </trkpt>
            <trkpt lon="101.037236" lat="13.024105">
                <ele>119.900000</ele>
                <time>2018-07-22T03:28:43Z</time>
            </trkpt>
            <trkpt lon="101.037206" lat="13.024138">
                <ele>120.000000</ele>
                <time>2018-07-22T03:28:45Z</time>
            </trkpt>
            <trkpt lon="101.037177" lat="13.024168">
                <ele>120.300000</ele>
                <time>2018-07-22T03:28:47Z</time>
            </trkpt>
            <trkpt lon="101.037152" lat="13.024181">
                <ele>120.300000</ele>
                <time>2018-07-22T03:28:48Z</time>
            </trkpt>
            <trkpt lon="101.037108" lat="13.024204">
                <ele>120.500000</ele>
                <time>2018-07-22T03:28:50Z</time>
            </trkpt>
            <trkpt lon="101.037081" lat="13.024217">
                <ele>120.800000</ele>
                <time>2018-07-22T03:28:51Z</time>
            </trkpt>
            <trkpt lon="101.037050" lat="13.024236">
                <ele>121.000000</ele>
                <time>2018-07-22T03:28:53Z</time>
            </trkpt>
            <trkpt lon="101.037014" lat="13.024257">
                <ele>121.000000</ele>
                <time>2018-07-22T03:28:55Z</time>
            </trkpt>
            <trkpt lon="101.036962" lat="13.024268">
                <ele>121.500000</ele>
                <time>2018-07-22T03:28:57Z</time>
            </trkpt>
            <trkpt lon="101.036903" lat="13.024244">
                <ele>121.800000</ele>
                <time>2018-07-22T03:28:59Z</time>
            </trkpt>
            <trkpt lon="101.036875" lat="13.024236">
                <ele>122.000000</ele>
                <time>2018-07-22T03:29:00Z</time>
            </trkpt>
            <trkpt lon="101.036846" lat="13.024232">
                <ele>122.000000</ele>
                <time>2018-07-22T03:29:01Z</time>
            </trkpt>
            <trkpt lon="101.036810" lat="13.024227">
                <ele>122.200000</ele>
                <time>2018-07-22T03:29:02Z</time>
            </trkpt>
            <trkpt lon="101.036778" lat="13.024218">
                <ele>122.500000</ele>
                <time>2018-07-22T03:29:03Z</time>
            </trkpt>
            <trkpt lon="101.036746" lat="13.024204">
                <ele>122.900000</ele>
                <time>2018-07-22T03:29:04Z</time>
            </trkpt>
            <trkpt lon="101.036716" lat="13.024193">
                <ele>122.900000</ele>
                <time>2018-07-22T03:29:05Z</time>
            </trkpt>
            <trkpt lon="101.036690" lat="13.024181">
                <ele>123.100000</ele>
                <time>2018-07-22T03:29:06Z</time>
            </trkpt>
            <trkpt lon="101.036662" lat="13.024172">
                <ele>123.100000</ele>
                <time>2018-07-22T03:29:07Z</time>
            </trkpt>
            <trkpt lon="101.036635" lat="13.024166">
                <ele>123.500000</ele>
                <time>2018-07-22T03:29:08Z</time>
            </trkpt>
            <trkpt lon="101.036593" lat="13.024167">
                <ele>123.600000</ele>
                <time>2018-07-22T03:29:10Z</time>
            </trkpt>
            <trkpt lon="101.036560" lat="13.024159">
                <ele>123.700000</ele>
                <time>2018-07-22T03:29:12Z</time>
            </trkpt>
            <trkpt lon="101.036523" lat="13.024139">
                <ele>123.900000</ele>
                <time>2018-07-22T03:29:15Z</time>
            </trkpt>
            <trkpt lon="101.036496" lat="13.024129">
                <ele>124.100000</ele>
                <time>2018-07-22T03:29:17Z</time>
            </trkpt>
            <trkpt lon="101.036457" lat="13.024149">
                <ele>124.100000</ele>
                <time>2018-07-22T03:29:19Z</time>
            </trkpt>
            <trkpt lon="101.036436" lat="13.024170">
                <ele>123.900000</ele>
                <time>2018-07-22T03:29:22Z</time>
            </trkpt>
            <trkpt lon="101.036405" lat="13.024145">
                <ele>124.600000</ele>
                <time>2018-07-22T03:29:25Z</time>
            </trkpt>
            <trkpt lon="101.036355" lat="13.024122">
                <ele>125.200000</ele>
                <time>2018-07-22T03:29:27Z</time>
            </trkpt>
            <trkpt lon="101.036326" lat="13.024112">
                <ele>125.200000</ele>
                <time>2018-07-22T03:29:28Z</time>
            </trkpt>
            <trkpt lon="101.036284" lat="13.024102">
                <ele>125.200000</ele>
                <time>2018-07-22T03:29:30Z</time>
            </trkpt>
            <trkpt lon="101.036249" lat="13.024090">
                <ele>125.200000</ele>
                <time>2018-07-22T03:29:31Z</time>
            </trkpt>
            <trkpt lon="101.036219" lat="13.024083">
                <ele>125.700000</ele>
                <time>2018-07-22T03:29:32Z</time>
            </trkpt>
            <trkpt lon="101.036191" lat="13.024056">
                <ele>125.600000</ele>
                <time>2018-07-22T03:29:34Z</time>
            </trkpt>
            <trkpt lon="101.036157" lat="13.024028">
                <ele>126.000000</ele>
                <time>2018-07-22T03:29:35Z</time>
            </trkpt>
            <trkpt lon="101.036144" lat="13.024055">
                <ele>125.400000</ele>
                <time>2018-07-22T03:29:40Z</time>
            </trkpt>
            <trkpt lon="101.036139" lat="13.024083">
                <ele>125.400000</ele>
                <time>2018-07-22T03:29:41Z</time>
            </trkpt>
            <trkpt lon="101.036142" lat="13.024117">
                <ele>124.900000</ele>
                <time>2018-07-22T03:29:42Z</time>
            </trkpt>
            <trkpt lon="101.036146" lat="13.024151">
                <ele>124.400000</ele>
                <time>2018-07-22T03:29:43Z</time>
            </trkpt>
            <trkpt lon="101.036152" lat="13.024188">
                <ele>123.900000</ele>
                <time>2018-07-22T03:29:44Z</time>
            </trkpt>
            <trkpt lon="101.036151" lat="13.024227">
                <ele>123.400000</ele>
                <time>2018-07-22T03:29:46Z</time>
            </trkpt>
            <trkpt lon="101.036120" lat="13.024279">
                <ele>122.900000</ele>
                <time>2018-07-22T03:29:48Z</time>
            </trkpt>
            <trkpt lon="101.036108" lat="13.024310">
                <ele>122.100000</ele>
                <time>2018-07-22T03:29:49Z</time>
            </trkpt>
            <trkpt lon="101.036088" lat="13.024359">
                <ele>121.600000</ele>
                <time>2018-07-22T03:29:51Z</time>
            </trkpt>
            <trkpt lon="101.036087" lat="13.024396">
                <ele>121.200000</ele>
                <time>2018-07-22T03:29:52Z</time>
            </trkpt>
            <trkpt lon="101.036090" lat="13.024425">
                <ele>120.800000</ele>
                <time>2018-07-22T03:29:53Z</time>
            </trkpt>
            <trkpt lon="101.036053" lat="13.024463">
                <ele>120.400000</ele>
                <time>2018-07-22T03:29:55Z</time>
            </trkpt>
            <trkpt lon="101.036018" lat="13.024508">
                <ele>120.000000</ele>
                <time>2018-07-22T03:29:57Z</time>
            </trkpt>
            <trkpt lon="101.036001" lat="13.024532">
                <ele>120.000000</ele>
                <time>2018-07-22T03:29:58Z</time>
            </trkpt>
            <trkpt lon="101.035974" lat="13.024543">
                <ele>119.800000</ele>
                <time>2018-07-22T03:29:59Z</time>
            </trkpt>
            <trkpt lon="101.035938" lat="13.024570">
                <ele>119.100000</ele>
                <time>2018-07-22T03:30:00Z</time>
            </trkpt>
            <trkpt lon="101.035912" lat="13.024595">
                <ele>118.700000</ele>
                <time>2018-07-22T03:30:01Z</time>
            </trkpt>
            <trkpt lon="101.035897" lat="13.024618">
                <ele>118.700000</ele>
                <time>2018-07-22T03:30:02Z</time>
            </trkpt>
            <trkpt lon="101.035864" lat="13.024680">
                <ele>117.500000</ele>
                <time>2018-07-22T03:30:04Z</time>
            </trkpt>
            <trkpt lon="101.035824" lat="13.024719">
                <ele>116.800000</ele>
                <time>2018-07-22T03:30:05Z</time>
            </trkpt>
            <trkpt lon="101.035774" lat="13.024753">
                <ele>116.700000</ele>
                <time>2018-07-22T03:30:06Z</time>
            </trkpt>
            <trkpt lon="101.035745" lat="13.024787">
                <ele>116.300000</ele>
                <time>2018-07-22T03:30:07Z</time>
            </trkpt>
            <trkpt lon="101.035704" lat="13.024816">
                <ele>115.700000</ele>
                <time>2018-07-22T03:30:09Z</time>
            </trkpt>
            <trkpt lon="101.035677" lat="13.024837">
                <ele>115.900000</ele>
                <time>2018-07-22T03:30:10Z</time>
            </trkpt>
            <trkpt lon="101.035649" lat="13.024857">
                <ele>115.400000</ele>
                <time>2018-07-22T03:30:11Z</time>
            </trkpt>
            <trkpt lon="101.035623" lat="13.024879">
                <ele>115.300000</ele>
                <time>2018-07-22T03:30:12Z</time>
            </trkpt>
            <trkpt lon="101.035595" lat="13.024908">
                <ele>115.200000</ele>
                <time>2018-07-22T03:30:13Z</time>
            </trkpt>
            <trkpt lon="101.035570" lat="13.024930">
                <ele>115.000000</ele>
                <time>2018-07-22T03:30:14Z</time>
            </trkpt>
            <trkpt lon="101.035544" lat="13.024981">
                <ele>114.700000</ele>
                <time>2018-07-22T03:30:16Z</time>
            </trkpt>
            <trkpt lon="101.035523" lat="13.025007">
                <ele>114.000000</ele>
                <time>2018-07-22T03:30:17Z</time>
            </trkpt>
            <trkpt lon="101.035493" lat="13.025036">
                <ele>114.900000</ele>
                <time>2018-07-22T03:30:18Z</time>
            </trkpt>
            <trkpt lon="101.035469" lat="13.025070">
                <ele>114.100000</ele>
                <time>2018-07-22T03:30:19Z</time>
            </trkpt>
            <trkpt lon="101.035455" lat="13.025101">
                <ele>114.700000</ele>
                <time>2018-07-22T03:30:20Z</time>
            </trkpt>
            <trkpt lon="101.035439" lat="13.025141">
                <ele>114.100000</ele>
                <time>2018-07-22T03:30:21Z</time>
            </trkpt>
            <trkpt lon="101.035418" lat="13.025184">
                <ele>114.600000</ele>
                <time>2018-07-22T03:30:22Z</time>
            </trkpt>
            <trkpt lon="101.035393" lat="13.025227">
                <ele>113.900000</ele>
                <time>2018-07-22T03:30:23Z</time>
            </trkpt>
            <trkpt lon="101.035371" lat="13.025276">
                <ele>114.100000</ele>
                <time>2018-07-22T03:30:24Z</time>
            </trkpt>
            <trkpt lon="101.035351" lat="13.025336">
                <ele>113.300000</ele>
                <time>2018-07-22T03:30:25Z</time>
            </trkpt>
            <trkpt lon="101.035336" lat="13.025384">
                <ele>112.700000</ele>
                <time>2018-07-22T03:30:26Z</time>
            </trkpt>
            <trkpt lon="101.035321" lat="13.025425">
                <ele>112.200000</ele>
                <time>2018-07-22T03:30:27Z</time>
            </trkpt>
            <trkpt lon="101.035298" lat="13.025457">
                <ele>112.200000</ele>
                <time>2018-07-22T03:30:28Z</time>
            </trkpt>
            <trkpt lon="101.035278" lat="13.025485">
                <ele>112.400000</ele>
                <time>2018-07-22T03:30:29Z</time>
            </trkpt>
            <trkpt lon="101.035253" lat="13.025522">
                <ele>111.900000</ele>
                <time>2018-07-22T03:30:30Z</time>
            </trkpt>
            <trkpt lon="101.035224" lat="13.025560">
                <ele>112.200000</ele>
                <time>2018-07-22T03:30:31Z</time>
            </trkpt>
            <trkpt lon="101.035198" lat="13.025585">
                <ele>112.900000</ele>
                <time>2018-07-22T03:30:32Z</time>
            </trkpt>
            <trkpt lon="101.035159" lat="13.025617">
                <ele>113.500000</ele>
                <time>2018-07-22T03:30:34Z</time>
            </trkpt>
            <trkpt lon="101.035111" lat="13.025646">
                <ele>114.000000</ele>
                <time>2018-07-22T03:30:36Z</time>
            </trkpt>
            <trkpt lon="101.035089" lat="13.025675">
                <ele>113.700000</ele>
                <time>2018-07-22T03:30:37Z</time>
            </trkpt>
            <trkpt lon="101.035072" lat="13.025702">
                <ele>114.500000</ele>
                <time>2018-07-22T03:30:38Z</time>
            </trkpt>
            <trkpt lon="101.035058" lat="13.025752">
                <ele>114.100000</ele>
                <time>2018-07-22T03:30:40Z</time>
            </trkpt>
            <trkpt lon="101.035032" lat="13.025805">
                <ele>114.300000</ele>
                <time>2018-07-22T03:30:42Z</time>
            </trkpt>
            <trkpt lon="101.035010" lat="13.025836">
                <ele>114.300000</ele>
                <time>2018-07-22T03:30:43Z</time>
            </trkpt>
            <trkpt lon="101.034968" lat="13.025880">
                <ele>114.800000</ele>
                <time>2018-07-22T03:30:45Z</time>
            </trkpt>
            <trkpt lon="101.034941" lat="13.025907">
                <ele>115.200000</ele>
                <time>2018-07-22T03:30:47Z</time>
            </trkpt>
            <trkpt lon="101.034912" lat="13.025929">
                <ele>114.800000</ele>
                <time>2018-07-22T03:30:49Z</time>
            </trkpt>
            <trkpt lon="101.034884" lat="13.025943">
                <ele>115.600000</ele>
                <time>2018-07-22T03:30:51Z</time>
            </trkpt>
            <trkpt lon="101.034864" lat="13.025963">
                <ele>116.400000</ele>
                <time>2018-07-22T03:30:52Z</time>
            </trkpt>
            <trkpt lon="101.034834" lat="13.026004">
                <ele>115.900000</ele>
                <time>2018-07-22T03:30:54Z</time>
            </trkpt>
            <trkpt lon="101.034819" lat="13.026034">
                <ele>116.600000</ele>
                <time>2018-07-22T03:30:55Z</time>
            </trkpt>
            <trkpt lon="101.034799" lat="13.026068">
                <ele>116.100000</ele>
                <time>2018-07-22T03:30:56Z</time>
            </trkpt>
            <trkpt lon="101.034773" lat="13.026101">
                <ele>116.600000</ele>
                <time>2018-07-22T03:30:57Z</time>
            </trkpt>
            <trkpt lon="101.034735" lat="13.026161">
                <ele>117.100000</ele>
                <time>2018-07-22T03:30:58Z</time>
            </trkpt>
            <trkpt lon="101.034693" lat="13.026229">
                <ele>116.500000</ele>
                <time>2018-07-22T03:30:59Z</time>
            </trkpt>
            <trkpt lon="101.034658" lat="13.026299">
                <ele>115.300000</ele>
                <time>2018-07-22T03:31:00Z</time>
            </trkpt>
            <trkpt lon="101.034628" lat="13.026353">
                <ele>113.700000</ele>
                <time>2018-07-22T03:31:01Z</time>
            </trkpt>
            <trkpt lon="101.034600" lat="13.026410">
                <ele>113.100000</ele>
                <time>2018-07-22T03:31:02Z</time>
            </trkpt>
            <trkpt lon="101.034561" lat="13.026469">
                <ele>110.400000</ele>
                <time>2018-07-22T03:31:03Z</time>
            </trkpt>
            <trkpt lon="101.034513" lat="13.026504">
                <ele>111.100000</ele>
                <time>2018-07-22T03:31:04Z</time>
            </trkpt>
            <trkpt lon="101.034449" lat="13.026545">
                <ele>109.700000</ele>
                <time>2018-07-22T03:31:05Z</time>
            </trkpt>
            <trkpt lon="101.034399" lat="13.026575">
                <ele>108.800000</ele>
                <time>2018-07-22T03:31:06Z</time>
            </trkpt>
            <trkpt lon="101.034362" lat="13.026609">
                <ele>107.800000</ele>
                <time>2018-07-22T03:31:07Z</time>
            </trkpt>
            <trkpt lon="101.034323" lat="13.026656">
                <ele>106.700000</ele>
                <time>2018-07-22T03:31:08Z</time>
            </trkpt>
            <trkpt lon="101.034295" lat="13.026689">
                <ele>105.700000</ele>
                <time>2018-07-22T03:31:09Z</time>
            </trkpt>
            <trkpt lon="101.034272" lat="13.026718">
                <ele>105.600000</ele>
                <time>2018-07-22T03:31:10Z</time>
            </trkpt>
            <trkpt lon="101.034236" lat="13.026761">
                <ele>104.200000</ele>
                <time>2018-07-22T03:31:11Z</time>
            </trkpt>
            <trkpt lon="101.034219" lat="13.026791">
                <ele>104.900000</ele>
                <time>2018-07-22T03:31:12Z</time>
            </trkpt>
            <trkpt lon="101.034193" lat="13.026836">
                <ele>103.600000</ele>
                <time>2018-07-22T03:31:13Z</time>
            </trkpt>
            <trkpt lon="101.034172" lat="13.026861">
                <ele>102.800000</ele>
                <time>2018-07-22T03:31:14Z</time>
            </trkpt>
            <trkpt lon="101.034152" lat="13.026909">
                <ele>102.200000</ele>
                <time>2018-07-22T03:31:15Z</time>
            </trkpt>
            <trkpt lon="101.034134" lat="13.026944">
                <ele>102.700000</ele>
                <time>2018-07-22T03:31:16Z</time>
            </trkpt>
            <trkpt lon="101.034104" lat="13.026979">
                <ele>102.400000</ele>
                <time>2018-07-22T03:31:17Z</time>
            </trkpt>
            <trkpt lon="101.034101" lat="13.027017">
                <ele>102.100000</ele>
                <time>2018-07-22T03:31:19Z</time>
            </trkpt>
            <trkpt lon="101.034083" lat="13.027049">
                <ele>102.900000</ele>
                <time>2018-07-22T03:31:22Z</time>
            </trkpt>
            <trkpt lon="101.034027" lat="13.027070">
                <ele>103.200000</ele>
                <time>2018-07-22T03:31:25Z</time>
            </trkpt>
            <trkpt lon="101.033997" lat="13.027074">
                <ele>104.000000</ele>
                <time>2018-07-22T03:31:26Z</time>
            </trkpt>
            <trkpt lon="101.033978" lat="13.027101">
                <ele>103.700000</ele>
                <time>2018-07-22T03:31:27Z</time>
            </trkpt>
            <trkpt lon="101.033929" lat="13.027130">
                <ele>104.500000</ele>
                <time>2018-07-22T03:31:28Z</time>
            </trkpt>
            <trkpt lon="101.033879" lat="13.027167">
                <ele>104.800000</ele>
                <time>2018-07-22T03:31:29Z</time>
            </trkpt>
            <trkpt lon="101.033834" lat="13.027211">
                <ele>105.500000</ele>
                <time>2018-07-22T03:31:30Z</time>
            </trkpt>
            <trkpt lon="101.033788" lat="13.027243">
                <ele>105.700000</ele>
                <time>2018-07-22T03:31:31Z</time>
            </trkpt>
            <trkpt lon="101.033752" lat="13.027267">
                <ele>105.400000</ele>
                <time>2018-07-22T03:31:32Z</time>
            </trkpt>
            <trkpt lon="101.033687" lat="13.027308">
                <ele>106.800000</ele>
                <time>2018-07-22T03:31:33Z</time>
            </trkpt>
            <trkpt lon="101.033614" lat="13.027330">
                <ele>108.400000</ele>
                <time>2018-07-22T03:31:34Z</time>
            </trkpt>
            <trkpt lon="101.033543" lat="13.027340">
                <ele>108.900000</ele>
                <time>2018-07-22T03:31:35Z</time>
            </trkpt>
            <trkpt lon="101.033490" lat="13.027348">
                <ele>109.300000</ele>
                <time>2018-07-22T03:31:36Z</time>
            </trkpt>
            <trkpt lon="101.033451" lat="13.027347">
                <ele>109.300000</ele>
                <time>2018-07-22T03:31:37Z</time>
            </trkpt>
            <trkpt lon="101.033400" lat="13.027359">
                <ele>110.000000</ele>
                <time>2018-07-22T03:31:38Z</time>
            </trkpt>
            <trkpt lon="101.033347" lat="13.027359">
                <ele>110.200000</ele>
                <time>2018-07-22T03:31:39Z</time>
            </trkpt>
            <trkpt lon="101.033279" lat="13.027367">
                <ele>110.500000</ele>
                <time>2018-07-22T03:31:40Z</time>
            </trkpt>
            <trkpt lon="101.033177" lat="13.027387">
                <ele>110.600000</ele>
                <time>2018-07-22T03:31:41Z</time>
            </trkpt>
            <trkpt lon="101.033095" lat="13.027408">
                <ele>109.700000</ele>
                <time>2018-07-22T03:31:42Z</time>
            </trkpt>
            <trkpt lon="101.033002" lat="13.027424">
                <ele>109.200000</ele>
                <time>2018-07-22T03:31:43Z</time>
            </trkpt>
            <trkpt lon="101.032939" lat="13.027431">
                <ele>108.200000</ele>
                <time>2018-07-22T03:31:44Z</time>
            </trkpt>
            <trkpt lon="101.032871" lat="13.027442">
                <ele>107.300000</ele>
                <time>2018-07-22T03:31:45Z</time>
            </trkpt>
            <trkpt lon="101.032802" lat="13.027440">
                <ele>106.200000</ele>
                <time>2018-07-22T03:31:46Z</time>
            </trkpt>
            <trkpt lon="101.032736" lat="13.027433">
                <ele>105.700000</ele>
                <time>2018-07-22T03:31:47Z</time>
            </trkpt>
            <trkpt lon="101.032683" lat="13.027424">
                <ele>105.900000</ele>
                <time>2018-07-22T03:31:48Z</time>
            </trkpt>
            <trkpt lon="101.032643" lat="13.027414">
                <ele>105.400000</ele>
                <time>2018-07-22T03:31:49Z</time>
            </trkpt>
            <trkpt lon="101.032598" lat="13.027404">
                <ele>104.800000</ele>
                <time>2018-07-22T03:31:50Z</time>
            </trkpt>
            <trkpt lon="101.032544" lat="13.027386">
                <ele>104.100000</ele>
                <time>2018-07-22T03:31:51Z</time>
            </trkpt>
            <trkpt lon="101.032502" lat="13.027367">
                <ele>103.100000</ele>
                <time>2018-07-22T03:31:52Z</time>
            </trkpt>
            <trkpt lon="101.032455" lat="13.027330">
                <ele>103.100000</ele>
                <time>2018-07-22T03:31:53Z</time>
            </trkpt>
            <trkpt lon="101.032421" lat="13.027298">
                <ele>104.100000</ele>
                <time>2018-07-22T03:31:54Z</time>
            </trkpt>
            <trkpt lon="101.032404" lat="13.027257">
                <ele>104.000000</ele>
                <time>2018-07-22T03:31:55Z</time>
            </trkpt>
            <trkpt lon="101.032388" lat="13.027217">
                <ele>104.800000</ele>
                <time>2018-07-22T03:31:56Z</time>
            </trkpt>
            <trkpt lon="101.032360" lat="13.027188">
                <ele>103.500000</ele>
                <time>2018-07-22T03:31:57Z</time>
            </trkpt>
            <trkpt lon="101.032337" lat="13.027142">
                <ele>104.100000</ele>
                <time>2018-07-22T03:31:59Z</time>
            </trkpt>
            <trkpt lon="101.032324" lat="13.027104">
                <ele>103.600000</ele>
                <time>2018-07-22T03:32:00Z</time>
            </trkpt>
            <trkpt lon="101.032312" lat="13.027067">
                <ele>104.200000</ele>
                <time>2018-07-22T03:32:01Z</time>
            </trkpt>
            <trkpt lon="101.032297" lat="13.027023">
                <ele>104.800000</ele>
                <time>2018-07-22T03:32:02Z</time>
            </trkpt>
            <trkpt lon="101.032284" lat="13.026974">
                <ele>104.000000</ele>
                <time>2018-07-22T03:32:03Z</time>
            </trkpt>
            <trkpt lon="101.032274" lat="13.026930">
                <ele>104.300000</ele>
                <time>2018-07-22T03:32:04Z</time>
            </trkpt>
            <trkpt lon="101.032266" lat="13.026877">
                <ele>104.700000</ele>
                <time>2018-07-22T03:32:05Z</time>
            </trkpt>
            <trkpt lon="101.032267" lat="13.026827">
                <ele>104.700000</ele>
                <time>2018-07-22T03:32:06Z</time>
            </trkpt>
            <trkpt lon="101.032275" lat="13.026791">
                <ele>104.800000</ele>
                <time>2018-07-22T03:32:07Z</time>
            </trkpt>
            <trkpt lon="101.032291" lat="13.026756">
                <ele>106.000000</ele>
                <time>2018-07-22T03:32:08Z</time>
            </trkpt>
            <trkpt lon="101.032309" lat="13.026728">
                <ele>106.000000</ele>
                <time>2018-07-22T03:32:09Z</time>
            </trkpt>
            <trkpt lon="101.032308" lat="13.026692">
                <ele>106.200000</ele>
                <time>2018-07-22T03:32:10Z</time>
            </trkpt>
            <trkpt lon="101.032303" lat="13.026664">
                <ele>106.400000</ele>
                <time>2018-07-22T03:32:11Z</time>
            </trkpt>
            <trkpt lon="101.032307" lat="13.026633">
                <ele>106.700000</ele>
                <time>2018-07-22T03:32:12Z</time>
            </trkpt>
            <trkpt lon="101.032314" lat="13.026597">
                <ele>106.700000</ele>
                <time>2018-07-22T03:32:13Z</time>
            </trkpt>
            <trkpt lon="101.032321" lat="13.026565">
                <ele>106.900000</ele>
                <time>2018-07-22T03:32:14Z</time>
            </trkpt>
            <trkpt lon="101.032321" lat="13.026536">
                <ele>107.100000</ele>
                <time>2018-07-22T03:32:15Z</time>
            </trkpt>
            <trkpt lon="101.032326" lat="13.026508">
                <ele>107.200000</ele>
                <time>2018-07-22T03:32:16Z</time>
            </trkpt>
            <trkpt lon="101.032327" lat="13.026481">
                <ele>107.200000</ele>
                <time>2018-07-22T03:32:17Z</time>
            </trkpt>
            <trkpt lon="101.032325" lat="13.026433">
                <ele>107.300000</ele>
                <time>2018-07-22T03:32:18Z</time>
            </trkpt>
            <trkpt lon="101.032322" lat="13.026400">
                <ele>107.500000</ele>
                <time>2018-07-22T03:32:20Z</time>
            </trkpt>
            <trkpt lon="101.032301" lat="13.026381">
                <ele>107.500000</ele>
                <time>2018-07-22T03:32:22Z</time>
            </trkpt>
            <trkpt lon="101.032304" lat="13.026349">
                <ele>107.500000</ele>
                <time>2018-07-22T03:32:26Z</time>
            </trkpt>
            <trkpt lon="101.032294" lat="13.026323">
                <ele>107.500000</ele>
                <time>2018-07-22T03:32:27Z</time>
            </trkpt>
            <trkpt lon="101.032291" lat="13.026295">
                <ele>107.500000</ele>
                <time>2018-07-22T03:32:28Z</time>
            </trkpt>
            <trkpt lon="101.032286" lat="13.026264">
                <ele>106.000000</ele>
                <time>2018-07-22T03:32:29Z</time>
            </trkpt>
            <trkpt lon="101.032284" lat="13.026231">
                <ele>106.000000</ele>
                <time>2018-07-22T03:32:30Z</time>
            </trkpt>
            <trkpt lon="101.032271" lat="13.026200">
                <ele>106.000000</ele>
                <time>2018-07-22T03:32:32Z</time>
            </trkpt>
            <trkpt lon="101.032267" lat="13.026140">
                <ele>105.800000</ele>
                <time>2018-07-22T03:32:34Z</time>
            </trkpt>
            <trkpt lon="101.032262" lat="13.026110">
                <ele>105.700000</ele>
                <time>2018-07-22T03:32:35Z</time>
            </trkpt>
            <trkpt lon="101.032249" lat="13.026064">
                <ele>105.500000</ele>
                <time>2018-07-22T03:32:37Z</time>
            </trkpt>
            <trkpt lon="101.032243" lat="13.026019">
                <ele>103.800000</ele>
                <time>2018-07-22T03:32:39Z</time>
            </trkpt>
            <trkpt lon="101.032222" lat="13.025969">
                <ele>104.100000</ele>
                <time>2018-07-22T03:32:41Z</time>
            </trkpt>
            <trkpt lon="101.032213" lat="13.025923">
                <ele>104.700000</ele>
                <time>2018-07-22T03:32:43Z</time>
            </trkpt>
            <trkpt lon="101.032206" lat="13.025888">
                <ele>104.700000</ele>
                <time>2018-07-22T03:32:44Z</time>
            </trkpt>
            <trkpt lon="101.032200" lat="13.025857">
                <ele>104.600000</ele>
                <time>2018-07-22T03:32:45Z</time>
            </trkpt>
            <trkpt lon="101.032190" lat="13.025830">
                <ele>105.200000</ele>
                <time>2018-07-22T03:32:46Z</time>
            </trkpt>
            <trkpt lon="101.032184" lat="13.025801">
                <ele>105.200000</ele>
                <time>2018-07-22T03:32:48Z</time>
            </trkpt>
            <trkpt lon="101.032179" lat="13.025754">
                <ele>106.600000</ele>
                <time>2018-07-22T03:32:50Z</time>
            </trkpt>
            <trkpt lon="101.032171" lat="13.025698">
                <ele>107.600000</ele>
                <time>2018-07-22T03:32:52Z</time>
            </trkpt>
            <trkpt lon="101.032171" lat="13.025670">
                <ele>108.800000</ele>
                <time>2018-07-22T03:32:53Z</time>
            </trkpt>
            <trkpt lon="101.032168" lat="13.025642">
                <ele>108.800000</ele>
                <time>2018-07-22T03:32:54Z</time>
            </trkpt>
            <trkpt lon="101.032141" lat="13.025594">
                <ele>108.800000</ele>
                <time>2018-07-22T03:32:57Z</time>
            </trkpt>
            <trkpt lon="101.032135" lat="13.025566">
                <ele>109.900000</ele>
                <time>2018-07-22T03:32:58Z</time>
            </trkpt>
            <trkpt lon="101.032127" lat="13.025525">
                <ele>110.900000</ele>
                <time>2018-07-22T03:33:01Z</time>
            </trkpt>
            <trkpt lon="101.032118" lat="13.025498">
                <ele>110.600000</ele>
                <time>2018-07-22T03:33:03Z</time>
            </trkpt>
            <trkpt lon="101.032107" lat="13.025469">
                <ele>110.600000</ele>
                <time>2018-07-22T03:33:05Z</time>
            </trkpt>
            <trkpt lon="101.032094" lat="13.025432">
                <ele>111.600000</ele>
                <time>2018-07-22T03:33:07Z</time>
            </trkpt>
            <trkpt lon="101.032076" lat="13.025396">
                <ele>112.600000</ele>
                <time>2018-07-22T03:33:09Z</time>
            </trkpt>
            <trkpt lon="101.032056" lat="13.025367">
                <ele>112.300000</ele>
                <time>2018-07-22T03:33:11Z</time>
            </trkpt>
            <trkpt lon="101.032027" lat="13.025339">
                <ele>111.300000</ele>
                <time>2018-07-22T03:33:13Z</time>
            </trkpt>
            <trkpt lon="101.031996" lat="13.025324">
                <ele>112.200000</ele>
                <time>2018-07-22T03:33:16Z</time>
            </trkpt>
            <trkpt lon="101.032002" lat="13.025296">
                <ele>113.000000</ele>
                <time>2018-07-22T03:33:21Z</time>
            </trkpt>
            <trkpt lon="101.031989" lat="13.025271">
                <ele>112.200000</ele>
                <time>2018-07-22T03:33:23Z</time>
            </trkpt>
            <trkpt lon="101.031939" lat="13.025272">
                <ele>111.300000</ele>
                <time>2018-07-22T03:33:25Z</time>
            </trkpt>
            <trkpt lon="101.031891" lat="13.025265">
                <ele>110.600000</ele>
                <time>2018-07-22T03:33:26Z</time>
            </trkpt>
            <trkpt lon="101.031863" lat="13.025261">
                <ele>110.600000</ele>
                <time>2018-07-22T03:33:27Z</time>
            </trkpt>
            <trkpt lon="101.031830" lat="13.025250">
                <ele>110.800000</ele>
                <time>2018-07-22T03:33:29Z</time>
            </trkpt>
            <trkpt lon="101.031788" lat="13.025236">
                <ele>110.100000</ele>
                <time>2018-07-22T03:33:31Z</time>
            </trkpt>
            <trkpt lon="101.031764" lat="13.025219">
                <ele>109.300000</ele>
                <time>2018-07-22T03:33:32Z</time>
            </trkpt>
            <trkpt lon="101.031721" lat="13.025197">
                <ele>109.300000</ele>
                <time>2018-07-22T03:33:34Z</time>
            </trkpt>
            <trkpt lon="101.031690" lat="13.025181">
                <ele>109.300000</ele>
                <time>2018-07-22T03:33:35Z</time>
            </trkpt>
            <trkpt lon="101.031661" lat="13.025153">
                <ele>109.200000</ele>
                <time>2018-07-22T03:33:36Z</time>
            </trkpt>
            <trkpt lon="101.031633" lat="13.025131">
                <ele>108.400000</ele>
                <time>2018-07-22T03:33:37Z</time>
            </trkpt>
            <trkpt lon="101.031605" lat="13.025108">
                <ele>109.000000</ele>
                <time>2018-07-22T03:33:38Z</time>
            </trkpt>
            <trkpt lon="101.031577" lat="13.025085">
                <ele>108.600000</ele>
                <time>2018-07-22T03:33:39Z</time>
            </trkpt>
            <trkpt lon="101.031549" lat="13.025066">
                <ele>107.700000</ele>
                <time>2018-07-22T03:33:40Z</time>
            </trkpt>
            <trkpt lon="101.031527" lat="13.025048">
                <ele>107.700000</ele>
                <time>2018-07-22T03:33:41Z</time>
            </trkpt>
            <trkpt lon="101.031503" lat="13.025029">
                <ele>107.400000</ele>
                <time>2018-07-22T03:33:42Z</time>
            </trkpt>
            <trkpt lon="101.031478" lat="13.025013">
                <ele>107.400000</ele>
                <time>2018-07-22T03:33:43Z</time>
            </trkpt>
            <trkpt lon="101.031440" lat="13.025004">
                <ele>107.200000</ele>
                <time>2018-07-22T03:33:44Z</time>
            </trkpt>
            <trkpt lon="101.031386" lat="13.024999">
                <ele>105.700000</ele>
                <time>2018-07-22T03:33:45Z</time>
            </trkpt>
            <trkpt lon="101.031335" lat="13.025006">
                <ele>104.700000</ele>
                <time>2018-07-22T03:33:46Z</time>
            </trkpt>
            <trkpt lon="101.031287" lat="13.025008">
                <ele>104.200000</ele>
                <time>2018-07-22T03:33:47Z</time>
            </trkpt>
            <trkpt lon="101.031237" lat="13.025014">
                <ele>103.700000</ele>
                <time>2018-07-22T03:33:48Z</time>
            </trkpt>
            <trkpt lon="101.031195" lat="13.025039">
                <ele>103.400000</ele>
                <time>2018-07-22T03:33:49Z</time>
            </trkpt>
            <trkpt lon="101.031143" lat="13.025059">
                <ele>102.900000</ele>
                <time>2018-07-22T03:33:51Z</time>
            </trkpt>
            <trkpt lon="101.031115" lat="13.025089">
                <ele>102.700000</ele>
                <time>2018-07-22T03:33:53Z</time>
            </trkpt>
            <trkpt lon="101.031056" lat="13.025096">
                <ele>102.700000</ele>
                <time>2018-07-22T03:33:55Z</time>
            </trkpt>
            <trkpt lon="101.031017" lat="13.025095">
                <ele>102.700000</ele>
                <time>2018-07-22T03:33:56Z</time>
            </trkpt>
            <trkpt lon="101.030986" lat="13.025091">
                <ele>102.600000</ele>
                <time>2018-07-22T03:33:57Z</time>
            </trkpt>
            <trkpt lon="101.030926" lat="13.025102">
                <ele>102.500000</ele>
                <time>2018-07-22T03:33:59Z</time>
            </trkpt>
            <trkpt lon="101.030861" lat="13.025110">
                <ele>102.400000</ele>
                <time>2018-07-22T03:34:00Z</time>
            </trkpt>
            <trkpt lon="101.030802" lat="13.025109">
                <ele>102.400000</ele>
                <time>2018-07-22T03:34:01Z</time>
            </trkpt>
            <trkpt lon="101.030740" lat="13.025111">
                <ele>102.400000</ele>
                <time>2018-07-22T03:34:02Z</time>
            </trkpt>
            <trkpt lon="101.030685" lat="13.025116">
                <ele>102.300000</ele>
                <time>2018-07-22T03:34:03Z</time>
            </trkpt>
            <trkpt lon="101.030641" lat="13.025109">
                <ele>101.900000</ele>
                <time>2018-07-22T03:34:04Z</time>
            </trkpt>
            <trkpt lon="101.030606" lat="13.025100">
                <ele>101.400000</ele>
                <time>2018-07-22T03:34:05Z</time>
            </trkpt>
            <trkpt lon="101.030577" lat="13.025090">
                <ele>101.400000</ele>
                <time>2018-07-22T03:34:06Z</time>
            </trkpt>
            <trkpt lon="101.030533" lat="13.025070">
                <ele>101.300000</ele>
                <time>2018-07-22T03:34:08Z</time>
            </trkpt>
            <trkpt lon="101.030488" lat="13.025056">
                <ele>100.900000</ele>
                <time>2018-07-22T03:34:10Z</time>
            </trkpt>
            <trkpt lon="101.030457" lat="13.025041">
                <ele>101.600000</ele>
                <time>2018-07-22T03:34:11Z</time>
            </trkpt>
            <trkpt lon="101.030439" lat="13.025008">
                <ele>101.500000</ele>
                <time>2018-07-22T03:34:13Z</time>
            </trkpt>
            <trkpt lon="101.030402" lat="13.025019">
                <ele>101.400000</ele>
                <time>2018-07-22T03:34:17Z</time>
            </trkpt>
            <trkpt lon="101.030379" lat="13.025055">
                <ele>100.900000</ele>
                <time>2018-07-22T03:34:19Z</time>
            </trkpt>
            <trkpt lon="101.030349" lat="13.025095">
                <ele>100.700000</ele>
                <time>2018-07-22T03:34:21Z</time>
            </trkpt>
            <trkpt lon="101.030315" lat="13.025131">
                <ele>100.300000</ele>
                <time>2018-07-22T03:34:22Z</time>
            </trkpt>
            <trkpt lon="101.030269" lat="13.025163">
                <ele>100.100000</ele>
                <time>2018-07-22T03:34:23Z</time>
            </trkpt>
            <trkpt lon="101.030223" lat="13.025182">
                <ele>100.000000</ele>
                <time>2018-07-22T03:34:24Z</time>
            </trkpt>
            <trkpt lon="101.030175" lat="13.025216">
                <ele>100.200000</ele>
                <time>2018-07-22T03:34:25Z</time>
            </trkpt>
            <trkpt lon="101.030129" lat="13.025262">
                <ele>100.400000</ele>
                <time>2018-07-22T03:34:26Z</time>
            </trkpt>
            <trkpt lon="101.030090" lat="13.025300">
                <ele>100.700000</ele>
                <time>2018-07-22T03:34:27Z</time>
            </trkpt>
            <trkpt lon="101.030064" lat="13.025333">
                <ele>100.700000</ele>
                <time>2018-07-22T03:34:28Z</time>
            </trkpt>
            <trkpt lon="101.030036" lat="13.025367">
                <ele>100.900000</ele>
                <time>2018-07-22T03:34:29Z</time>
            </trkpt>
            <trkpt lon="101.030000" lat="13.025410">
                <ele>101.300000</ele>
                <time>2018-07-22T03:34:30Z</time>
            </trkpt>
            <trkpt lon="101.029969" lat="13.025452">
                <ele>101.800000</ele>
                <time>2018-07-22T03:34:31Z</time>
            </trkpt>
            <trkpt lon="101.029940" lat="13.025496">
                <ele>102.000000</ele>
                <time>2018-07-22T03:34:32Z</time>
            </trkpt>
            <trkpt lon="101.029922" lat="13.025533">
                <ele>102.500000</ele>
                <time>2018-07-22T03:34:33Z</time>
            </trkpt>
            <trkpt lon="101.029897" lat="13.025571">
                <ele>102.700000</ele>
                <time>2018-07-22T03:34:34Z</time>
            </trkpt>
            <trkpt lon="101.029854" lat="13.025608">
                <ele>102.900000</ele>
                <time>2018-07-22T03:34:35Z</time>
            </trkpt>
            <trkpt lon="101.029842" lat="13.025636">
                <ele>103.100000</ele>
                <time>2018-07-22T03:34:36Z</time>
            </trkpt>
            <trkpt lon="101.029821" lat="13.025658">
                <ele>103.100000</ele>
                <time>2018-07-22T03:34:37Z</time>
            </trkpt>
            <trkpt lon="101.029782" lat="13.025684">
                <ele>103.400000</ele>
                <time>2018-07-22T03:34:39Z</time>
            </trkpt>
            <trkpt lon="101.029739" lat="13.025689">
                <ele>103.600000</ele>
                <time>2018-07-22T03:34:40Z</time>
            </trkpt>
            <trkpt lon="101.029699" lat="13.025699">
                <ele>103.800000</ele>
                <time>2018-07-22T03:34:41Z</time>
            </trkpt>
            <trkpt lon="101.029648" lat="13.025695">
                <ele>104.000000</ele>
                <time>2018-07-22T03:34:42Z</time>
            </trkpt>
            <trkpt lon="101.029617" lat="13.025689">
                <ele>104.200000</ele>
                <time>2018-07-22T03:34:43Z</time>
            </trkpt>
            <trkpt lon="101.029581" lat="13.025674">
                <ele>104.400000</ele>
                <time>2018-07-22T03:34:44Z</time>
            </trkpt>
            <trkpt lon="101.029556" lat="13.025655">
                <ele>103.900000</ele>
                <time>2018-07-22T03:34:45Z</time>
            </trkpt>
            <trkpt lon="101.029510" lat="13.025649">
                <ele>104.100000</ele>
                <time>2018-07-22T03:34:46Z</time>
            </trkpt>
            <trkpt lon="101.029479" lat="13.025631">
                <ele>103.700000</ele>
                <time>2018-07-22T03:34:48Z</time>
            </trkpt>
            <trkpt lon="101.029439" lat="13.025615">
                <ele>103.900000</ele>
                <time>2018-07-22T03:34:50Z</time>
            </trkpt>
            <trkpt lon="101.029398" lat="13.025623">
                <ele>104.000000</ele>
                <time>2018-07-22T03:34:52Z</time>
            </trkpt>
            <trkpt lon="101.029354" lat="13.025625">
                <ele>104.200000</ele>
                <time>2018-07-22T03:34:54Z</time>
            </trkpt>
            <trkpt lon="101.029319" lat="13.025622">
                <ele>104.500000</ele>
                <time>2018-07-22T03:34:56Z</time>
            </trkpt>
            <trkpt lon="101.029274" lat="13.025621">
                <ele>105.000000</ele>
                <time>2018-07-22T03:34:58Z</time>
            </trkpt>
            <trkpt lon="101.029230" lat="13.025629">
                <ele>105.400000</ele>
                <time>2018-07-22T03:35:00Z</time>
            </trkpt>
            <trkpt lon="101.029198" lat="13.025624">
                <ele>105.800000</ele>
                <time>2018-07-22T03:35:02Z</time>
            </trkpt>
            <trkpt lon="101.029157" lat="13.025598">
                <ele>106.300000</ele>
                <time>2018-07-22T03:35:04Z</time>
            </trkpt>
            <trkpt lon="101.029128" lat="13.025576">
                <ele>105.500000</ele>
                <time>2018-07-22T03:35:06Z</time>
            </trkpt>
            <trkpt lon="101.029091" lat="13.025577">
                <ele>106.000000</ele>
                <time>2018-07-22T03:35:08Z</time>
            </trkpt>
            <trkpt lon="101.029063" lat="13.025568">
                <ele>106.500000</ele>
                <time>2018-07-22T03:35:10Z</time>
            </trkpt>
            <trkpt lon="101.029027" lat="13.025571">
                <ele>107.000000</ele>
                <time>2018-07-22T03:35:12Z</time>
            </trkpt>
            <trkpt lon="101.028995" lat="13.025560">
                <ele>107.000000</ele>
                <time>2018-07-22T03:35:15Z</time>
            </trkpt>
            <trkpt lon="101.028965" lat="13.025570">
                <ele>107.500000</ele>
                <time>2018-07-22T03:35:17Z</time>
            </trkpt>
            <trkpt lon="101.028932" lat="13.025575">
                <ele>108.000000</ele>
                <time>2018-07-22T03:35:19Z</time>
            </trkpt>
            <trkpt lon="101.028903" lat="13.025582">
                <ele>108.000000</ele>
                <time>2018-07-22T03:35:20Z</time>
            </trkpt>
            <trkpt lon="101.028860" lat="13.025595">
                <ele>109.100000</ele>
                <time>2018-07-22T03:35:23Z</time>
            </trkpt>
            <trkpt lon="101.028821" lat="13.025603">
                <ele>109.500000</ele>
                <time>2018-07-22T03:35:26Z</time>
            </trkpt>
            <trkpt lon="101.028782" lat="13.025620">
                <ele>110.100000</ele>
                <time>2018-07-22T03:35:28Z</time>
            </trkpt>
            <trkpt lon="101.028751" lat="13.025628">
                <ele>110.700000</ele>
                <time>2018-07-22T03:35:30Z</time>
            </trkpt>
            <trkpt lon="101.028713" lat="13.025642">
                <ele>112.200000</ele>
                <time>2018-07-22T03:35:33Z</time>
            </trkpt>
            <trkpt lon="101.028678" lat="13.025657">
                <ele>113.000000</ele>
                <time>2018-07-22T03:35:35Z</time>
            </trkpt>
            <trkpt lon="101.028647" lat="13.025665">
                <ele>113.000000</ele>
                <time>2018-07-22T03:35:37Z</time>
            </trkpt>
            <trkpt lon="101.028616" lat="13.025680">
                <ele>114.600000</ele>
                <time>2018-07-22T03:35:39Z</time>
            </trkpt>
            <trkpt lon="101.028576" lat="13.025695">
                <ele>115.200000</ele>
                <time>2018-07-22T03:35:42Z</time>
            </trkpt>
            <trkpt lon="101.028546" lat="13.025711">
                <ele>115.700000</ele>
                <time>2018-07-22T03:35:44Z</time>
            </trkpt>
            <trkpt lon="101.028511" lat="13.025708">
                <ele>116.300000</ele>
                <time>2018-07-22T03:35:47Z</time>
            </trkpt>
            <trkpt lon="101.028480" lat="13.025721">
                <ele>117.000000</ele>
                <time>2018-07-22T03:35:49Z</time>
            </trkpt>
            <trkpt lon="101.028442" lat="13.025728">
                <ele>117.700000</ele>
                <time>2018-07-22T03:35:53Z</time>
            </trkpt>
            <trkpt lon="101.028412" lat="13.025727">
                <ele>118.400000</ele>
                <time>2018-07-22T03:35:55Z</time>
            </trkpt>
            <trkpt lon="101.028379" lat="13.025709">
                <ele>118.400000</ele>
                <time>2018-07-22T03:35:59Z</time>
            </trkpt>
            <trkpt lon="101.028349" lat="13.025723">
                <ele>119.100000</ele>
                <time>2018-07-22T03:36:02Z</time>
            </trkpt>
            <trkpt lon="101.028322" lat="13.025710">
                <ele>119.200000</ele>
                <time>2018-07-22T03:36:07Z</time>
            </trkpt>
            <trkpt lon="101.028290" lat="13.025720">
                <ele>120.500000</ele>
                <time>2018-07-22T03:36:10Z</time>
            </trkpt>
            <trkpt lon="101.028260" lat="13.025742">
                <ele>120.500000</ele>
                <time>2018-07-22T03:36:13Z</time>
            </trkpt>
            <trkpt lon="101.028236" lat="13.025758">
                <ele>121.400000</ele>
                <time>2018-07-22T03:36:15Z</time>
            </trkpt>
            <trkpt lon="101.028205" lat="13.025762">
                <ele>121.900000</ele>
                <time>2018-07-22T03:36:17Z</time>
            </trkpt>
            <trkpt lon="101.028163" lat="13.025770">
                <ele>122.400000</ele>
                <time>2018-07-22T03:36:21Z</time>
            </trkpt>
            <trkpt lon="101.028126" lat="13.025768">
                <ele>122.900000</ele>
                <time>2018-07-22T03:36:26Z</time>
            </trkpt>
            <trkpt lon="101.028100" lat="13.025756">
                <ele>122.400000</ele>
                <time>2018-07-22T03:36:28Z</time>
            </trkpt>
            <trkpt lon="101.028071" lat="13.025757">
                <ele>123.300000</ele>
                <time>2018-07-22T03:36:32Z</time>
            </trkpt>
            <trkpt lon="101.028044" lat="13.025760">
                <ele>123.300000</ele>
                <time>2018-07-22T03:36:34Z</time>
            </trkpt>
            <trkpt lon="101.028015" lat="13.025760">
                <ele>123.700000</ele>
                <time>2018-07-22T03:36:36Z</time>
            </trkpt>
            <trkpt lon="101.027981" lat="13.025761">
                <ele>124.200000</ele>
                <time>2018-07-22T03:36:39Z</time>
            </trkpt>
            <trkpt lon="101.027941" lat="13.025751">
                <ele>124.500000</ele>
                <time>2018-07-22T03:36:42Z</time>
            </trkpt>
            <trkpt lon="101.027908" lat="13.025736">
                <ele>125.300000</ele>
                <time>2018-07-22T03:36:46Z</time>
            </trkpt>
            <trkpt lon="101.027881" lat="13.025726">
                <ele>125.300000</ele>
                <time>2018-07-22T03:36:50Z</time>
            </trkpt>
            <trkpt lon="101.027854" lat="13.025743">
                <ele>126.000000</ele>
                <time>2018-07-22T03:36:56Z</time>
            </trkpt>
            <trkpt lon="101.027815" lat="13.025757">
                <ele>126.800000</ele>
                <time>2018-07-22T03:37:02Z</time>
            </trkpt>
            <trkpt lon="101.027786" lat="13.025774">
                <ele>126.800000</ele>
                <time>2018-07-22T03:37:04Z</time>
            </trkpt>
            <trkpt lon="101.027738" lat="13.025782">
                <ele>128.100000</ele>
                <time>2018-07-22T03:37:07Z</time>
            </trkpt>
            <trkpt lon="101.027702" lat="13.025769">
                <ele>128.100000</ele>
                <time>2018-07-22T03:37:09Z</time>
            </trkpt>
            <trkpt lon="101.027665" lat="13.025742">
                <ele>129.000000</ele>
                <time>2018-07-22T03:37:11Z</time>
            </trkpt>
            <trkpt lon="101.027627" lat="13.025728">
                <ele>129.700000</ele>
                <time>2018-07-22T03:37:13Z</time>
            </trkpt>
            <trkpt lon="101.027595" lat="13.025708">
                <ele>130.800000</ele>
                <time>2018-07-22T03:37:15Z</time>
            </trkpt>
            <trkpt lon="101.027559" lat="13.025682">
                <ele>131.800000</ele>
                <time>2018-07-22T03:37:17Z</time>
            </trkpt>
            <trkpt lon="101.027533" lat="13.025653">
                <ele>131.900000</ele>
                <time>2018-07-22T03:37:19Z</time>
            </trkpt>
            <trkpt lon="101.027506" lat="13.025631">
                <ele>132.900000</ele>
                <time>2018-07-22T03:37:21Z</time>
            </trkpt>
            <trkpt lon="101.027462" lat="13.025595">
                <ele>133.700000</ele>
                <time>2018-07-22T03:37:23Z</time>
            </trkpt>
            <trkpt lon="101.027424" lat="13.025563">
                <ele>134.600000</ele>
                <time>2018-07-22T03:37:25Z</time>
            </trkpt>
            <trkpt lon="101.027393" lat="13.025539">
                <ele>135.600000</ele>
                <time>2018-07-22T03:37:29Z</time>
            </trkpt>
            <trkpt lon="101.027376" lat="13.025511">
                <ele>135.600000</ele>
                <time>2018-07-22T03:37:32Z</time>
            </trkpt>
            <trkpt lon="101.027350" lat="13.025474">
                <ele>136.300000</ele>
                <time>2018-07-22T03:37:34Z</time>
            </trkpt>
            <trkpt lon="101.027327" lat="13.025442">
                <ele>136.200000</ele>
                <time>2018-07-22T03:37:35Z</time>
            </trkpt>
            <trkpt lon="101.027312" lat="13.025413">
                <ele>136.800000</ele>
                <time>2018-07-22T03:37:36Z</time>
            </trkpt>
            <trkpt lon="101.027295" lat="13.025373">
                <ele>136.200000</ele>
                <time>2018-07-22T03:37:37Z</time>
            </trkpt>
            <trkpt lon="101.027273" lat="13.025323">
                <ele>135.400000</ele>
                <time>2018-07-22T03:37:38Z</time>
            </trkpt>
            <trkpt lon="101.027242" lat="13.025267">
                <ele>135.400000</ele>
                <time>2018-07-22T03:37:39Z</time>
            </trkpt>
            <trkpt lon="101.027191" lat="13.025206">
                <ele>134.700000</ele>
                <time>2018-07-22T03:37:40Z</time>
            </trkpt>
            <trkpt lon="101.027134" lat="13.025137">
                <ele>135.400000</ele>
                <time>2018-07-22T03:37:41Z</time>
            </trkpt>
            <trkpt lon="101.027094" lat="13.025080">
                <ele>134.700000</ele>
                <time>2018-07-22T03:37:42Z</time>
            </trkpt>
            <trkpt lon="101.027041" lat="13.025014">
                <ele>134.500000</ele>
                <time>2018-07-22T03:37:43Z</time>
            </trkpt>
            <trkpt lon="101.026991" lat="13.024955">
                <ele>133.200000</ele>
                <time>2018-07-22T03:37:44Z</time>
            </trkpt>
            <trkpt lon="101.026936" lat="13.024903">
                <ele>133.000000</ele>
                <time>2018-07-22T03:37:45Z</time>
            </trkpt>
            <trkpt lon="101.026884" lat="13.024860">
                <ele>132.700000</ele>
                <time>2018-07-22T03:37:46Z</time>
            </trkpt>
            <trkpt lon="101.026839" lat="13.024817">
                <ele>132.900000</ele>
                <time>2018-07-22T03:37:47Z</time>
            </trkpt>
            <trkpt lon="101.026802" lat="13.024791">
                <ele>131.800000</ele>
                <time>2018-07-22T03:37:48Z</time>
            </trkpt>
            <trkpt lon="101.026775" lat="13.024770">
                <ele>132.400000</ele>
                <time>2018-07-22T03:37:49Z</time>
            </trkpt>
            <trkpt lon="101.026749" lat="13.024752">
                <ele>131.200000</ele>
                <time>2018-07-22T03:37:50Z</time>
            </trkpt>
            <trkpt lon="101.026715" lat="13.024738">
                <ele>131.200000</ele>
                <time>2018-07-22T03:37:51Z</time>
            </trkpt>
            <trkpt lon="101.026660" lat="13.024730">
                <ele>130.700000</ele>
                <time>2018-07-22T03:37:53Z</time>
            </trkpt>
            <trkpt lon="101.026630" lat="13.024725">
                <ele>130.700000</ele>
                <time>2018-07-22T03:37:54Z</time>
            </trkpt>
            <trkpt lon="101.026599" lat="13.024720">
                <ele>130.500000</ele>
                <time>2018-07-22T03:37:55Z</time>
            </trkpt>
            <trkpt lon="101.026554" lat="13.024721">
                <ele>130.100000</ele>
                <time>2018-07-22T03:37:56Z</time>
            </trkpt>
            <trkpt lon="101.026509" lat="13.024723">
                <ele>129.600000</ele>
                <time>2018-07-22T03:37:57Z</time>
            </trkpt>
            <trkpt lon="101.026464" lat="13.024719">
                <ele>129.100000</ele>
                <time>2018-07-22T03:37:58Z</time>
            </trkpt>
            <trkpt lon="101.026433" lat="13.024716">
                <ele>128.500000</ele>
                <time>2018-07-22T03:37:59Z</time>
            </trkpt>
            <trkpt lon="101.026394" lat="13.024712">
                <ele>127.900000</ele>
                <time>2018-07-22T03:38:02Z</time>
            </trkpt>
            <trkpt lon="101.026342" lat="13.024722">
                <ele>127.100000</ele>
                <time>2018-07-22T03:38:04Z</time>
            </trkpt>
            <trkpt lon="101.026309" lat="13.024742">
                <ele>126.400000</ele>
                <time>2018-07-22T03:38:06Z</time>
            </trkpt>
            <trkpt lon="101.026265" lat="13.024757">
                <ele>126.600000</ele>
                <time>2018-07-22T03:38:08Z</time>
            </trkpt>
            <trkpt lon="101.026227" lat="13.024769">
                <ele>125.700000</ele>
                <time>2018-07-22T03:38:10Z</time>
            </trkpt>
            <trkpt lon="101.026192" lat="13.024781">
                <ele>124.700000</ele>
                <time>2018-07-22T03:38:12Z</time>
            </trkpt>
            <trkpt lon="101.026159" lat="13.024790">
                <ele>124.700000</ele>
                <time>2018-07-22T03:38:14Z</time>
            </trkpt>
            <trkpt lon="101.026118" lat="13.024809">
                <ele>124.700000</ele>
                <time>2018-07-22T03:38:16Z</time>
            </trkpt>
            <trkpt lon="101.026088" lat="13.024830">
                <ele>123.700000</ele>
                <time>2018-07-22T03:38:18Z</time>
            </trkpt>
            <trkpt lon="101.026062" lat="13.024839">
                <ele>123.600000</ele>
                <time>2018-07-22T03:38:21Z</time>
            </trkpt>
            <trkpt lon="101.026037" lat="13.024864">
                <ele>123.600000</ele>
                <time>2018-07-22T03:38:23Z</time>
            </trkpt>
            <trkpt lon="101.026011" lat="13.024888">
                <ele>123.200000</ele>
                <time>2018-07-22T03:38:25Z</time>
            </trkpt>
            <trkpt lon="101.025997" lat="13.024911">
                <ele>123.200000</ele>
                <time>2018-07-22T03:38:27Z</time>
            </trkpt>
            <trkpt lon="101.025980" lat="13.024948">
                <ele>122.400000</ele>
                <time>2018-07-22T03:38:29Z</time>
            </trkpt>
            <trkpt lon="101.025967" lat="13.024978">
                <ele>122.900000</ele>
                <time>2018-07-22T03:38:30Z</time>
            </trkpt>
            <trkpt lon="101.025952" lat="13.025011">
                <ele>123.400000</ele>
                <time>2018-07-22T03:38:31Z</time>
            </trkpt>
            <trkpt lon="101.025942" lat="13.025058">
                <ele>123.700000</ele>
                <time>2018-07-22T03:38:33Z</time>
            </trkpt>
            <trkpt lon="101.025934" lat="13.025095">
                <ele>122.000000</ele>
                <time>2018-07-22T03:38:34Z</time>
            </trkpt>
            <trkpt lon="101.025924" lat="13.025137">
                <ele>121.600000</ele>
                <time>2018-07-22T03:38:35Z</time>
            </trkpt>
            <trkpt lon="101.025916" lat="13.025168">
                <ele>121.600000</ele>
                <time>2018-07-22T03:38:36Z</time>
            </trkpt>
            <trkpt lon="101.025909" lat="13.025205">
                <ele>121.200000</ele>
                <time>2018-07-22T03:38:37Z</time>
            </trkpt>
            <trkpt lon="101.025915" lat="13.025237">
                <ele>120.800000</ele>
                <time>2018-07-22T03:38:38Z</time>
            </trkpt>
            <trkpt lon="101.025928" lat="13.025280">
                <ele>120.600000</ele>
                <time>2018-07-22T03:38:39Z</time>
            </trkpt>
            <trkpt lon="101.025926" lat="13.025309">
                <ele>120.300000</ele>
                <time>2018-07-22T03:38:40Z</time>
            </trkpt>
            <trkpt lon="101.025915" lat="13.025352">
                <ele>120.100000</ele>
                <time>2018-07-22T03:38:41Z</time>
            </trkpt>
            <trkpt lon="101.025915" lat="13.025400">
                <ele>119.800000</ele>
                <time>2018-07-22T03:38:43Z</time>
            </trkpt>
            <trkpt lon="101.025908" lat="13.025458">
                <ele>119.200000</ele>
                <time>2018-07-22T03:38:45Z</time>
            </trkpt>
            <trkpt lon="101.025917" lat="13.025501">
                <ele>118.700000</ele>
                <time>2018-07-22T03:38:46Z</time>
            </trkpt>
            <trkpt lon="101.025931" lat="13.025550">
                <ele>117.600000</ele>
                <time>2018-07-22T03:38:47Z</time>
            </trkpt>
            <trkpt lon="101.025963" lat="13.025601">
                <ele>118.800000</ele>
                <time>2018-07-22T03:38:48Z</time>
            </trkpt>
            <trkpt lon="101.025988" lat="13.025654">
                <ele>119.800000</ele>
                <time>2018-07-22T03:38:49Z</time>
            </trkpt>
            <trkpt lon="101.026013" lat="13.025708">
                <ele>119.200000</ele>
                <time>2018-07-22T03:38:50Z</time>
            </trkpt>
            <trkpt lon="101.026040" lat="13.025766">
                <ele>118.900000</ele>
                <time>2018-07-22T03:38:51Z</time>
            </trkpt>
            <trkpt lon="101.026055" lat="13.025814">
                <ele>117.900000</ele>
                <time>2018-07-22T03:38:52Z</time>
            </trkpt>
            <trkpt lon="101.026075" lat="13.025849">
                <ele>118.600000</ele>
                <time>2018-07-22T03:38:53Z</time>
            </trkpt>
            <trkpt lon="101.026099" lat="13.025872">
                <ele>118.600000</ele>
                <time>2018-07-22T03:38:54Z</time>
            </trkpt>
            <trkpt lon="101.026129" lat="13.025911">
                <ele>119.200000</ele>
                <time>2018-07-22T03:38:55Z</time>
            </trkpt>
            <trkpt lon="101.026153" lat="13.025953">
                <ele>117.900000</ele>
                <time>2018-07-22T03:38:56Z</time>
            </trkpt>
            <trkpt lon="101.026177" lat="13.025984">
                <ele>117.300000</ele>
                <time>2018-07-22T03:38:57Z</time>
            </trkpt>
            <trkpt lon="101.026206" lat="13.026019">
                <ele>117.400000</ele>
                <time>2018-07-22T03:38:58Z</time>
            </trkpt>
            <trkpt lon="101.026226" lat="13.026044">
                <ele>117.400000</ele>
                <time>2018-07-22T03:38:59Z</time>
            </trkpt>
            <trkpt lon="101.026248" lat="13.026061">
                <ele>117.200000</ele>
                <time>2018-07-22T03:39:00Z</time>
            </trkpt>
            <trkpt lon="101.026290" lat="13.026076">
                <ele>118.700000</ele>
                <time>2018-07-22T03:39:01Z</time>
            </trkpt>
            <trkpt lon="101.026332" lat="13.026095">
                <ele>118.200000</ele>
                <time>2018-07-22T03:39:02Z</time>
            </trkpt>
            <trkpt lon="101.026370" lat="13.026114">
                <ele>119.600000</ele>
                <time>2018-07-22T03:39:03Z</time>
            </trkpt>
            <trkpt lon="101.026416" lat="13.026146">
                <ele>118.700000</ele>
                <time>2018-07-22T03:39:05Z</time>
            </trkpt>
            <trkpt lon="101.026450" lat="13.026168">
                <ele>118.700000</ele>
                <time>2018-07-22T03:39:06Z</time>
            </trkpt>
            <trkpt lon="101.026473" lat="13.026194">
                <ele>117.200000</ele>
                <time>2018-07-22T03:39:08Z</time>
            </trkpt>
            <trkpt lon="101.026507" lat="13.026213">
                <ele>117.700000</ele>
                <time>2018-07-22T03:39:10Z</time>
            </trkpt>
            <trkpt lon="101.026535" lat="13.026224">
                <ele>115.600000</ele>
                <time>2018-07-22T03:39:11Z</time>
            </trkpt>
            <trkpt lon="101.026561" lat="13.026237">
                <ele>116.000000</ele>
                <time>2018-07-22T03:39:12Z</time>
            </trkpt>
            <trkpt lon="101.026612" lat="13.026254">
                <ele>116.400000</ele>
                <time>2018-07-22T03:39:14Z</time>
            </trkpt>
            <trkpt lon="101.026647" lat="13.026264">
                <ele>114.500000</ele>
                <time>2018-07-22T03:39:16Z</time>
            </trkpt>
            <trkpt lon="101.026688" lat="13.026266">
                <ele>114.900000</ele>
                <time>2018-07-22T03:39:18Z</time>
            </trkpt>
            <trkpt lon="101.026742" lat="13.026257">
                <ele>117.800000</ele>
                <time>2018-07-22T03:39:20Z</time>
            </trkpt>
            <trkpt lon="101.026784" lat="13.026254">
                <ele>118.200000</ele>
                <time>2018-07-22T03:39:22Z</time>
            </trkpt>
            <trkpt lon="101.026812" lat="13.026247">
                <ele>118.700000</ele>
                <time>2018-07-22T03:39:25Z</time>
            </trkpt>
            <trkpt lon="101.026850" lat="13.026243">
                <ele>119.200000</ele>
                <time>2018-07-22T03:39:29Z</time>
            </trkpt>
            <trkpt lon="101.026877" lat="13.026232">
                <ele>119.200000</ele>
                <time>2018-07-22T03:39:31Z</time>
            </trkpt>
            <trkpt lon="101.026907" lat="13.026229">
                <ele>119.700000</ele>
                <time>2018-07-22T03:39:34Z</time>
            </trkpt>
            <trkpt lon="101.026963" lat="13.026234">
                <ele>120.100000</ele>
                <time>2018-07-22T03:39:36Z</time>
            </trkpt>
            <trkpt lon="101.027005" lat="13.026231">
                <ele>120.100000</ele>
                <time>2018-07-22T03:39:40Z</time>
            </trkpt>
            <trkpt lon="101.027047" lat="13.026221">
                <ele>120.200000</ele>
                <time>2018-07-22T03:39:42Z</time>
            </trkpt>
            <trkpt lon="101.027074" lat="13.026211">
                <ele>122.500000</ele>
                <time>2018-07-22T03:39:44Z</time>
            </trkpt>
            <trkpt lon="101.027107" lat="13.026182">
                <ele>122.500000</ele>
                <time>2018-07-22T03:39:46Z</time>
            </trkpt>
            <trkpt lon="101.027141" lat="13.026159">
                <ele>124.500000</ele>
                <time>2018-07-22T03:39:48Z</time>
            </trkpt>
            <trkpt lon="101.027172" lat="13.026151">
                <ele>124.500000</ele>
                <time>2018-07-22T03:39:50Z</time>
            </trkpt>
            <trkpt lon="101.027202" lat="13.026139">
                <ele>124.400000</ele>
                <time>2018-07-22T03:39:53Z</time>
            </trkpt>
            <trkpt lon="101.027237" lat="13.026118">
                <ele>126.000000</ele>
                <time>2018-07-22T03:39:57Z</time>
            </trkpt>
            <trkpt lon="101.027259" lat="13.026100">
                <ele>126.000000</ele>
                <time>2018-07-22T03:39:59Z</time>
            </trkpt>
            <trkpt lon="101.027284" lat="13.026083">
                <ele>127.400000</ele>
                <time>2018-07-22T03:40:02Z</time>
            </trkpt>
            <trkpt lon="101.027317" lat="13.026081">
                <ele>126.700000</ele>
                <time>2018-07-22T03:40:06Z</time>
            </trkpt>
            <trkpt lon="101.027341" lat="13.026066">
                <ele>126.700000</ele>
                <time>2018-07-22T03:40:12Z</time>
            </trkpt>
            <trkpt lon="101.027366" lat="13.026048">
                <ele>127.500000</ele>
                <time>2018-07-22T03:40:19Z</time>
            </trkpt>
            <trkpt lon="101.027394" lat="13.026034">
                <ele>127.500000</ele>
                <time>2018-07-22T03:40:27Z</time>
            </trkpt>
            <trkpt lon="101.027420" lat="13.026025">
                <ele>126.700000</ele>
                <time>2018-07-22T03:40:32Z</time>
            </trkpt>
            <trkpt lon="101.027449" lat="13.026010">
                <ele>126.200000</ele>
                <time>2018-07-22T03:40:35Z</time>
            </trkpt>
            <trkpt lon="101.027465" lat="13.025981">
                <ele>127.400000</ele>
                <time>2018-07-22T03:40:38Z</time>
            </trkpt>
            <trkpt lon="101.027477" lat="13.025948">
                <ele>129.300000</ele>
                <time>2018-07-22T03:40:42Z</time>
            </trkpt>
            <trkpt lon="101.027494" lat="13.025926">
                <ele>128.900000</ele>
                <time>2018-07-22T03:40:52Z</time>
            </trkpt>
            <trkpt lon="101.027516" lat="13.025908">
                <ele>130.100000</ele>
                <time>2018-07-22T03:41:01Z</time>
            </trkpt>
            <trkpt lon="101.027546" lat="13.025905">
                <ele>129.600000</ele>
                <time>2018-07-22T03:41:06Z</time>
            </trkpt>
            <trkpt lon="101.027576" lat="13.025903">
                <ele>129.100000</ele>
                <time>2018-07-22T03:41:14Z</time>
            </trkpt>
            <trkpt lon="101.027609" lat="13.025909">
                <ele>129.100000</ele>
                <time>2018-07-22T03:41:18Z</time>
            </trkpt>
            <trkpt lon="101.027640" lat="13.025919">
                <ele>128.600000</ele>
                <time>2018-07-22T03:41:23Z</time>
            </trkpt>
            <trkpt lon="101.027671" lat="13.025931">
                <ele>127.400000</ele>
                <time>2018-07-22T03:41:27Z</time>
            </trkpt>
            <trkpt lon="101.027702" lat="13.025959">
                <ele>127.200000</ele>
                <time>2018-07-22T03:41:32Z</time>
            </trkpt>
            <trkpt lon="101.027732" lat="13.025980">
                <ele>126.300000</ele>
                <time>2018-07-22T03:41:36Z</time>
            </trkpt>
            <trkpt lon="101.027755" lat="13.025995">
                <ele>126.300000</ele>
                <time>2018-07-22T03:41:38Z</time>
            </trkpt>
            <trkpt lon="101.027777" lat="13.026013">
                <ele>125.900000</ele>
                <time>2018-07-22T03:41:42Z</time>
            </trkpt>
            <trkpt lon="101.027790" lat="13.026041">
                <ele>126.000000</ele>
                <time>2018-07-22T03:41:45Z</time>
            </trkpt>
            <trkpt lon="101.027801" lat="13.026069">
                <ele>125.800000</ele>
                <time>2018-07-22T03:41:49Z</time>
            </trkpt>
            <trkpt lon="101.027815" lat="13.026093">
                <ele>125.600000</ele>
                <time>2018-07-22T03:41:54Z</time>
            </trkpt>
            <trkpt lon="101.027814" lat="13.026063">
                <ele>125.800000</ele>
                <time>2018-07-22T03:42:07Z</time>
            </trkpt>
            <trkpt lon="101.027793" lat="13.026038">
                <ele>126.000000</ele>
                <time>2018-07-22T03:42:23Z</time>
            </trkpt>
            <trkpt lon="101.027766" lat="13.026008">
                <ele>125.900000</ele>
                <time>2018-07-22T03:42:26Z</time>
            </trkpt>
            <trkpt lon="101.027741" lat="13.025989">
                <ele>126.300000</ele>
                <time>2018-07-22T03:42:27Z</time>
            </trkpt>
            <trkpt lon="101.027704" lat="13.025975">
                <ele>126.300000</ele>
                <time>2018-07-22T03:42:28Z</time>
            </trkpt>
            <trkpt lon="101.027666" lat="13.025963">
                <ele>127.400000</ele>
                <time>2018-07-22T03:42:29Z</time>
            </trkpt>
            <trkpt lon="101.027613" lat="13.025960">
                <ele>127.700000</ele>
                <time>2018-07-22T03:42:31Z</time>
            </trkpt>
            <trkpt lon="101.027579" lat="13.025952">
                <ele>128.100000</ele>
                <time>2018-07-22T03:42:34Z</time>
            </trkpt>
            <trkpt lon="101.027538" lat="13.025949">
                <ele>128.500000</ele>
                <time>2018-07-22T03:42:37Z</time>
            </trkpt>
            <trkpt lon="101.027522" lat="13.025972">
                <ele>127.100000</ele>
                <time>2018-07-22T03:42:43Z</time>
            </trkpt>
            <trkpt lon="101.027522" lat="13.026003">
                <ele>127.100000</ele>
                <time>2018-07-22T03:42:46Z</time>
            </trkpt>
            <trkpt lon="101.027540" lat="13.026039">
                <ele>125.600000</ele>
                <time>2018-07-22T03:42:49Z</time>
            </trkpt>
            <trkpt lon="101.027546" lat="13.026078">
                <ele>124.800000</ele>
                <time>2018-07-22T03:42:51Z</time>
            </trkpt>
            <trkpt lon="101.027542" lat="13.026109">
                <ele>124.000000</ele>
                <time>2018-07-22T03:42:53Z</time>
            </trkpt>
            <trkpt lon="101.027539" lat="13.026140">
                <ele>123.200000</ele>
                <time>2018-07-22T03:42:55Z</time>
            </trkpt>
            <trkpt lon="101.027538" lat="13.026187">
                <ele>122.300000</ele>
                <time>2018-07-22T03:42:57Z</time>
            </trkpt>
            <trkpt lon="101.027528" lat="13.026217">
                <ele>121.300000</ele>
                <time>2018-07-22T03:42:59Z</time>
            </trkpt>
            <trkpt lon="101.027524" lat="13.026244">
                <ele>120.800000</ele>
                <time>2018-07-22T03:43:00Z</time>
            </trkpt>
            <trkpt lon="101.027521" lat="13.026271">
                <ele>119.600000</ele>
                <time>2018-07-22T03:43:01Z</time>
            </trkpt>
            <trkpt lon="101.027536" lat="13.026320">
                <ele>119.100000</ele>
                <time>2018-07-22T03:43:03Z</time>
            </trkpt>
            <trkpt lon="101.027539" lat="13.026348">
                <ele>118.000000</ele>
                <time>2018-07-22T03:43:04Z</time>
            </trkpt>
            <trkpt lon="101.027541" lat="13.026392">
                <ele>116.900000</ele>
                <time>2018-07-22T03:43:06Z</time>
            </trkpt>
            <trkpt lon="101.027547" lat="13.026421">
                <ele>116.900000</ele>
                <time>2018-07-22T03:43:07Z</time>
            </trkpt>
            <trkpt lon="101.027551" lat="13.026451">
                <ele>115.800000</ele>
                <time>2018-07-22T03:43:08Z</time>
            </trkpt>
            <trkpt lon="101.027561" lat="13.026495">
                <ele>114.700000</ele>
                <time>2018-07-22T03:43:10Z</time>
            </trkpt>
            <trkpt lon="101.027581" lat="13.026545">
                <ele>114.600000</ele>
                <time>2018-07-22T03:43:12Z</time>
            </trkpt>
            <trkpt lon="101.027591" lat="13.026574">
                <ele>113.400000</ele>
                <time>2018-07-22T03:43:14Z</time>
            </trkpt>
            <trkpt lon="101.027605" lat="13.026605">
                <ele>112.100000</ele>
                <time>2018-07-22T03:43:16Z</time>
            </trkpt>
            <trkpt lon="101.027625" lat="13.026638">
                <ele>112.000000</ele>
                <time>2018-07-22T03:43:18Z</time>
            </trkpt>
            <trkpt lon="101.027644" lat="13.026675">
                <ele>112.000000</ele>
                <time>2018-07-22T03:43:20Z</time>
            </trkpt>
            <trkpt lon="101.027642" lat="13.026709">
                <ele>110.700000</ele>
                <time>2018-07-22T03:43:23Z</time>
            </trkpt>
            <trkpt lon="101.027647" lat="13.026738">
                <ele>109.500000</ele>
                <time>2018-07-22T03:43:25Z</time>
            </trkpt>
            <trkpt lon="101.027656" lat="13.026770">
                <ele>109.500000</ele>
                <time>2018-07-22T03:43:27Z</time>
            </trkpt>
            <trkpt lon="101.027658" lat="13.026798">
                <ele>109.500000</ele>
                <time>2018-07-22T03:43:29Z</time>
            </trkpt>
            <trkpt lon="101.027650" lat="13.026824">
                <ele>107.000000</ele>
                <time>2018-07-22T03:43:37Z</time>
            </trkpt>
            <trkpt lon="101.027616" lat="13.026846">
                <ele>105.700000</ele>
                <time>2018-07-22T03:44:26Z</time>
            </trkpt>
            <trkpt lon="101.027650" lat="13.026861">
                <ele>105.700000</ele>
                <time>2018-07-22T03:45:32Z</time>
            </trkpt>
            <trkpt lon="101.027670" lat="13.026887">
                <ele>105.700000</ele>
                <time>2018-07-22T03:45:34Z</time>
            </trkpt>
            <trkpt lon="101.027695" lat="13.026923">
                <ele>105.700000</ele>
                <time>2018-07-22T03:45:36Z</time>
            </trkpt>
            <trkpt lon="101.027722" lat="13.026963">
                <ele>105.700000</ele>
                <time>2018-07-22T03:45:38Z</time>
            </trkpt>
            <trkpt lon="101.027753" lat="13.027011">
                <ele>105.700000</ele>
                <time>2018-07-22T03:45:40Z</time>
            </trkpt>
            <trkpt lon="101.027772" lat="13.027046">
                <ele>104.500000</ele>
                <time>2018-07-22T03:45:41Z</time>
            </trkpt>
            <trkpt lon="101.027793" lat="13.027082">
                <ele>104.200000</ele>
                <time>2018-07-22T03:45:42Z</time>
            </trkpt>
            <trkpt lon="101.027814" lat="13.027112">
                <ele>102.700000</ele>
                <time>2018-07-22T03:45:43Z</time>
            </trkpt>
            <trkpt lon="101.027831" lat="13.027139">
                <ele>102.200000</ele>
                <time>2018-07-22T03:45:44Z</time>
            </trkpt>
            <trkpt lon="101.027845" lat="13.027173">
                <ele>102.200000</ele>
                <time>2018-07-22T03:45:45Z</time>
            </trkpt>
            <trkpt lon="101.027867" lat="13.027221">
                <ele>99.300000</ele>
                <time>2018-07-22T03:45:46Z</time>
            </trkpt>
            <trkpt lon="101.027891" lat="13.027251">
                <ele>100.200000</ele>
                <time>2018-07-22T03:45:47Z</time>
            </trkpt>
            <trkpt lon="101.027919" lat="13.027288">
                <ele>99.500000</ele>
                <time>2018-07-22T03:45:48Z</time>
            </trkpt>
            <trkpt lon="101.027946" lat="13.027321">
                <ele>97.800000</ele>
                <time>2018-07-22T03:45:49Z</time>
            </trkpt>
            <trkpt lon="101.027979" lat="13.027363">
                <ele>96.600000</ele>
                <time>2018-07-22T03:45:50Z</time>
            </trkpt>
            <trkpt lon="101.028023" lat="13.027411">
                <ele>95.800000</ele>
                <time>2018-07-22T03:45:51Z</time>
            </trkpt>
            <trkpt lon="101.028063" lat="13.027446">
                <ele>95.000000</ele>
                <time>2018-07-22T03:45:52Z</time>
            </trkpt>
            <trkpt lon="101.028109" lat="13.027474">
                <ele>94.300000</ele>
                <time>2018-07-22T03:45:53Z</time>
            </trkpt>
            <trkpt lon="101.028156" lat="13.027513">
                <ele>93.600000</ele>
                <time>2018-07-22T03:45:54Z</time>
            </trkpt>
            <trkpt lon="101.028181" lat="13.027552">
                <ele>94.300000</ele>
                <time>2018-07-22T03:45:55Z</time>
            </trkpt>
            <trkpt lon="101.028204" lat="13.027599">
                <ele>92.600000</ele>
                <time>2018-07-22T03:45:56Z</time>
            </trkpt>
            <trkpt lon="101.028227" lat="13.027636">
                <ele>93.200000</ele>
                <time>2018-07-22T03:45:57Z</time>
            </trkpt>
            <trkpt lon="101.028267" lat="13.027687">
                <ele>91.900000</ele>
                <time>2018-07-22T03:45:58Z</time>
            </trkpt>
            <trkpt lon="101.028306" lat="13.027737">
                <ele>91.900000</ele>
                <time>2018-07-22T03:45:59Z</time>
            </trkpt>
            <trkpt lon="101.028330" lat="13.027783">
                <ele>91.400000</ele>
                <time>2018-07-22T03:46:00Z</time>
            </trkpt>
            <trkpt lon="101.028367" lat="13.027838">
                <ele>91.600000</ele>
                <time>2018-07-22T03:46:01Z</time>
            </trkpt>
            <trkpt lon="101.028399" lat="13.027887">
                <ele>91.900000</ele>
                <time>2018-07-22T03:46:02Z</time>
            </trkpt>
            <trkpt lon="101.028417" lat="13.027916">
                <ele>91.600000</ele>
                <time>2018-07-22T03:46:03Z</time>
            </trkpt>
            <trkpt lon="101.028448" lat="13.027945">
                <ele>92.100000</ele>
                <time>2018-07-22T03:46:05Z</time>
            </trkpt>
            <trkpt lon="101.028468" lat="13.027968">
                <ele>92.100000</ele>
                <time>2018-07-22T03:46:07Z</time>
            </trkpt>
            <trkpt lon="101.028480" lat="13.028016">
                <ele>92.200000</ele>
                <time>2018-07-22T03:46:09Z</time>
            </trkpt>
            <trkpt lon="101.028496" lat="13.028045">
                <ele>92.200000</ele>
                <time>2018-07-22T03:46:11Z</time>
            </trkpt>
            <trkpt lon="101.028512" lat="13.028076">
                <ele>92.100000</ele>
                <time>2018-07-22T03:46:15Z</time>
            </trkpt>
            <trkpt lon="101.028514" lat="13.028112">
                <ele>92.200000</ele>
                <time>2018-07-22T03:46:17Z</time>
            </trkpt>
            <trkpt lon="101.028503" lat="13.028158">
                <ele>92.000000</ele>
                <time>2018-07-22T03:46:20Z</time>
            </trkpt>
            <trkpt lon="101.028474" lat="13.028185">
                <ele>92.000000</ele>
                <time>2018-07-22T03:46:22Z</time>
            </trkpt>
            <trkpt lon="101.028458" lat="13.028207">
                <ele>91.600000</ele>
                <time>2018-07-22T03:46:23Z</time>
            </trkpt>
            <trkpt lon="101.028423" lat="13.028251">
                <ele>91.100000</ele>
                <time>2018-07-22T03:46:25Z</time>
            </trkpt>
            <trkpt lon="101.028405" lat="13.028279">
                <ele>91.100000</ele>
                <time>2018-07-22T03:46:26Z</time>
            </trkpt>
            <trkpt lon="101.028389" lat="13.028304">
                <ele>91.100000</ele>
                <time>2018-07-22T03:46:27Z</time>
            </trkpt>
            <trkpt lon="101.028344" lat="13.028348">
                <ele>90.900000</ele>
                <time>2018-07-22T03:46:29Z</time>
            </trkpt>
            <trkpt lon="101.028316" lat="13.028371">
                <ele>90.900000</ele>
                <time>2018-07-22T03:46:30Z</time>
            </trkpt>
            <trkpt lon="101.028290" lat="13.028400">
                <ele>90.500000</ele>
                <time>2018-07-22T03:46:31Z</time>
            </trkpt>
            <trkpt lon="101.028272" lat="13.028427">
                <ele>90.500000</ele>
                <time>2018-07-22T03:46:32Z</time>
            </trkpt>
            <trkpt lon="101.028253" lat="13.028449">
                <ele>90.100000</ele>
                <time>2018-07-22T03:46:33Z</time>
            </trkpt>
            <trkpt lon="101.028228" lat="13.028468">
                <ele>90.100000</ele>
                <time>2018-07-22T03:46:34Z</time>
            </trkpt>
            <trkpt lon="101.028201" lat="13.028493">
                <ele>89.900000</ele>
                <time>2018-07-22T03:46:35Z</time>
            </trkpt>
            <trkpt lon="101.028163" lat="13.028522">
                <ele>89.900000</ele>
                <time>2018-07-22T03:46:37Z</time>
            </trkpt>
            <trkpt lon="101.028132" lat="13.028540">
                <ele>89.900000</ele>
                <time>2018-07-22T03:46:38Z</time>
            </trkpt>
            <trkpt lon="101.028104" lat="13.028558">
                <ele>89.900000</ele>
                <time>2018-07-22T03:46:39Z</time>
            </trkpt>
            <trkpt lon="101.028078" lat="13.028583">
                <ele>90.000000</ele>
                <time>2018-07-22T03:46:40Z</time>
            </trkpt>
            <trkpt lon="101.028039" lat="13.028626">
                <ele>90.000000</ele>
                <time>2018-07-22T03:46:41Z</time>
            </trkpt>
            <trkpt lon="101.028021" lat="13.028654">
                <ele>90.000000</ele>
                <time>2018-07-22T03:46:42Z</time>
            </trkpt>
            <trkpt lon="101.027988" lat="13.028689">
                <ele>90.000000</ele>
                <time>2018-07-22T03:46:44Z</time>
            </trkpt>
            <trkpt lon="101.027966" lat="13.028714">
                <ele>90.000000</ele>
                <time>2018-07-22T03:46:45Z</time>
            </trkpt>
            <trkpt lon="101.027940" lat="13.028730">
                <ele>90.200000</ele>
                <time>2018-07-22T03:46:50Z</time>
            </trkpt>
            <trkpt lon="101.027900" lat="13.028748">
                <ele>90.400000</ele>
                <time>2018-07-22T03:46:54Z</time>
            </trkpt>
            <trkpt lon="101.027855" lat="13.028751">
                <ele>90.700000</ele>
                <time>2018-07-22T03:46:56Z</time>
            </trkpt>
            <trkpt lon="101.027822" lat="13.028755">
                <ele>90.900000</ele>
                <time>2018-07-22T03:46:57Z</time>
            </trkpt>
            <trkpt lon="101.027791" lat="13.028760">
                <ele>90.900000</ele>
                <time>2018-07-22T03:46:58Z</time>
            </trkpt>
            <trkpt lon="101.027757" lat="13.028763">
                <ele>91.100000</ele>
                <time>2018-07-22T03:46:59Z</time>
            </trkpt>
            <trkpt lon="101.027727" lat="13.028763">
                <ele>91.100000</ele>
                <time>2018-07-22T03:47:00Z</time>
            </trkpt>
            <trkpt lon="101.027688" lat="13.028768">
                <ele>91.500000</ele>
                <time>2018-07-22T03:47:01Z</time>
            </trkpt>
            <trkpt lon="101.027625" lat="13.028766">
                <ele>91.300000</ele>
                <time>2018-07-22T03:47:03Z</time>
            </trkpt>
            <trkpt lon="101.027588" lat="13.028758">
                <ele>91.600000</ele>
                <time>2018-07-22T03:47:05Z</time>
            </trkpt>
            <trkpt lon="101.027555" lat="13.028750">
                <ele>92.100000</ele>
                <time>2018-07-22T03:47:06Z</time>
            </trkpt>
            <trkpt lon="101.027501" lat="13.028740">
                <ele>92.500000</ele>
                <time>2018-07-22T03:47:08Z</time>
            </trkpt>
            <trkpt lon="101.027474" lat="13.028725">
                <ele>92.700000</ele>
                <time>2018-07-22T03:47:09Z</time>
            </trkpt>
            <trkpt lon="101.027446" lat="13.028705">
                <ele>92.700000</ele>
                <time>2018-07-22T03:47:10Z</time>
            </trkpt>
            <trkpt lon="101.027418" lat="13.028692">
                <ele>93.300000</ele>
                <time>2018-07-22T03:47:11Z</time>
            </trkpt>
            <trkpt lon="101.027369" lat="13.028672">
                <ele>93.600000</ele>
                <time>2018-07-22T03:47:13Z</time>
            </trkpt>
            <trkpt lon="101.027322" lat="13.028656">
                <ele>94.300000</ele>
                <time>2018-07-22T03:47:15Z</time>
            </trkpt>
            <trkpt lon="101.027284" lat="13.028646">
                <ele>95.100000</ele>
                <time>2018-07-22T03:47:17Z</time>
            </trkpt>
            <trkpt lon="101.027222" lat="13.028611">
                <ele>96.100000</ele>
                <time>2018-07-22T03:47:19Z</time>
            </trkpt>
            <trkpt lon="101.027187" lat="13.028600">
                <ele>95.600000</ele>
                <time>2018-07-22T03:47:20Z</time>
            </trkpt>
            <trkpt lon="101.027147" lat="13.028583">
                <ele>96.300000</ele>
                <time>2018-07-22T03:47:22Z</time>
            </trkpt>
            <trkpt lon="101.027120" lat="13.028559">
                <ele>97.000000</ele>
                <time>2018-07-22T03:47:24Z</time>
            </trkpt>
            <trkpt lon="101.027096" lat="13.028535">
                <ele>96.900000</ele>
                <time>2018-07-22T03:47:27Z</time>
            </trkpt>
            <trkpt lon="101.027070" lat="13.028519">
                <ele>96.900000</ele>
                <time>2018-07-22T03:47:29Z</time>
            </trkpt>
            <trkpt lon="101.027043" lat="13.028504">
                <ele>96.400000</ele>
                <time>2018-07-22T03:47:31Z</time>
            </trkpt>
            <trkpt lon="101.027020" lat="13.028482">
                <ele>96.400000</ele>
                <time>2018-07-22T03:47:35Z</time>
            </trkpt>
            <trkpt lon="101.026988" lat="13.028469">
                <ele>96.200000</ele>
                <time>2018-07-22T03:47:37Z</time>
            </trkpt>
            <trkpt lon="101.026964" lat="13.028442">
                <ele>96.900000</ele>
                <time>2018-07-22T03:47:39Z</time>
            </trkpt>
            <trkpt lon="101.026933" lat="13.028421">
                <ele>96.100000</ele>
                <time>2018-07-22T03:47:41Z</time>
            </trkpt>
            <trkpt lon="101.026898" lat="13.028410">
                <ele>97.400000</ele>
                <time>2018-07-22T03:47:43Z</time>
            </trkpt>
            <trkpt lon="101.026869" lat="13.028403">
                <ele>98.800000</ele>
                <time>2018-07-22T03:47:45Z</time>
            </trkpt>
            <trkpt lon="101.026831" lat="13.028364">
                <ele>99.600000</ele>
                <time>2018-07-22T03:47:47Z</time>
            </trkpt>
            <trkpt lon="101.026806" lat="13.028325">
                <ele>98.500000</ele>
                <time>2018-07-22T03:47:49Z</time>
            </trkpt>
            <trkpt lon="101.026790" lat="13.028301">
                <ele>99.000000</ele>
                <time>2018-07-22T03:47:51Z</time>
            </trkpt>
            <trkpt lon="101.026768" lat="13.028276">
                <ele>99.000000</ele>
                <time>2018-07-22T03:47:53Z</time>
            </trkpt>
            <trkpt lon="101.026735" lat="13.028251">
                <ele>99.600000</ele>
                <time>2018-07-22T03:47:55Z</time>
            </trkpt>
            <trkpt lon="101.026717" lat="13.028224">
                <ele>99.600000</ele>
                <time>2018-07-22T03:47:57Z</time>
            </trkpt>
            <trkpt lon="101.026706" lat="13.028195">
                <ele>100.000000</ele>
                <time>2018-07-22T03:47:59Z</time>
            </trkpt>
            <trkpt lon="101.026672" lat="13.028182">
                <ele>100.000000</ele>
                <time>2018-07-22T03:48:02Z</time>
            </trkpt>
            <trkpt lon="101.026635" lat="13.028159">
                <ele>100.300000</ele>
                <time>2018-07-22T03:48:04Z</time>
            </trkpt>
            <trkpt lon="101.026611" lat="13.028138">
                <ele>100.500000</ele>
                <time>2018-07-22T03:48:05Z</time>
            </trkpt>
            <trkpt lon="101.026585" lat="13.028111">
                <ele>100.500000</ele>
                <time>2018-07-22T03:48:06Z</time>
            </trkpt>
            <trkpt lon="101.026561" lat="13.028091">
                <ele>100.700000</ele>
                <time>2018-07-22T03:48:07Z</time>
            </trkpt>
            <trkpt lon="101.026537" lat="13.028071">
                <ele>102.200000</ele>
                <time>2018-07-22T03:48:08Z</time>
            </trkpt>
            <trkpt lon="101.026504" lat="13.028050">
                <ele>101.100000</ele>
                <time>2018-07-22T03:48:10Z</time>
            </trkpt>
            <trkpt lon="101.026486" lat="13.028024">
                <ele>102.600000</ele>
                <time>2018-07-22T03:48:12Z</time>
            </trkpt>
            <trkpt lon="101.026464" lat="13.028005">
                <ele>101.800000</ele>
                <time>2018-07-22T03:48:14Z</time>
            </trkpt>
            <trkpt lon="101.026440" lat="13.027979">
                <ele>103.400000</ele>
                <time>2018-07-22T03:48:17Z</time>
            </trkpt>
            <trkpt lon="101.026407" lat="13.027952">
                <ele>103.800000</ele>
                <time>2018-07-22T03:48:19Z</time>
            </trkpt>
            <trkpt lon="101.026381" lat="13.027940">
                <ele>103.800000</ele>
                <time>2018-07-22T03:48:21Z</time>
            </trkpt>
            <trkpt lon="101.026347" lat="13.027903">
                <ele>103.800000</ele>
                <time>2018-07-22T03:48:23Z</time>
            </trkpt>
            <trkpt lon="101.026307" lat="13.027891">
                <ele>104.700000</ele>
                <time>2018-07-22T03:48:25Z</time>
            </trkpt>
            <trkpt lon="101.026285" lat="13.027871">
                <ele>103.700000</ele>
                <time>2018-07-22T03:48:29Z</time>
            </trkpt>
            <trkpt lon="101.026253" lat="13.027852">
                <ele>104.500000</ele>
                <time>2018-07-22T03:48:33Z</time>
            </trkpt>
            <trkpt lon="101.026221" lat="13.027857">
                <ele>105.100000</ele>
                <time>2018-07-22T03:48:35Z</time>
            </trkpt>
            <trkpt lon="101.026181" lat="13.027826">
                <ele>104.800000</ele>
                <time>2018-07-22T03:48:37Z</time>
            </trkpt>
            <trkpt lon="101.026142" lat="13.027804">
                <ele>104.600000</ele>
                <time>2018-07-22T03:48:39Z</time>
            </trkpt>
            <trkpt lon="101.026114" lat="13.027794">
                <ele>104.600000</ele>
                <time>2018-07-22T03:48:40Z</time>
            </trkpt>
            <trkpt lon="101.026086" lat="13.027790">
                <ele>105.100000</ele>
                <time>2018-07-22T03:48:41Z</time>
            </trkpt>
            <trkpt lon="101.026049" lat="13.027776">
                <ele>105.900000</ele>
                <time>2018-07-22T03:48:44Z</time>
            </trkpt>
            <trkpt lon="101.026021" lat="13.027765">
                <ele>107.000000</ele>
                <time>2018-07-22T03:48:47Z</time>
            </trkpt>
            <trkpt lon="101.025976" lat="13.027758">
                <ele>107.200000</ele>
                <time>2018-07-22T03:48:51Z</time>
            </trkpt>
            <trkpt lon="101.025947" lat="13.027752">
                <ele>107.200000</ele>
                <time>2018-07-22T03:48:52Z</time>
            </trkpt>
            <trkpt lon="101.025917" lat="13.027748">
                <ele>108.200000</ele>
                <time>2018-07-22T03:48:53Z</time>
            </trkpt>
            <trkpt lon="101.025887" lat="13.027746">
                <ele>109.300000</ele>
                <time>2018-07-22T03:48:54Z</time>
            </trkpt>
            <trkpt lon="101.025842" lat="13.027743">
                <ele>110.300000</ele>
                <time>2018-07-22T03:48:55Z</time>
            </trkpt>
            <trkpt lon="101.025812" lat="13.027735">
                <ele>110.300000</ele>
                <time>2018-07-22T03:48:56Z</time>
            </trkpt>
            <trkpt lon="101.025776" lat="13.027713">
                <ele>110.200000</ele>
                <time>2018-07-22T03:48:57Z</time>
            </trkpt>
            <trkpt lon="101.025739" lat="13.027686">
                <ele>111.200000</ele>
                <time>2018-07-22T03:48:58Z</time>
            </trkpt>
            <trkpt lon="101.025674" lat="13.027672">
                <ele>111.200000</ele>
                <time>2018-07-22T03:49:00Z</time>
            </trkpt>
            <trkpt lon="101.025647" lat="13.027662">
                <ele>111.200000</ele>
                <time>2018-07-22T03:49:01Z</time>
            </trkpt>
            <trkpt lon="101.025594" lat="13.027644">
                <ele>112.200000</ele>
                <time>2018-07-22T03:49:03Z</time>
            </trkpt>
            <trkpt lon="101.025551" lat="13.027611">
                <ele>111.400000</ele>
                <time>2018-07-22T03:49:04Z</time>
            </trkpt>
            <trkpt lon="101.025525" lat="13.027600">
                <ele>111.400000</ele>
                <time>2018-07-22T03:49:05Z</time>
            </trkpt>
            <trkpt lon="101.025490" lat="13.027575">
                <ele>110.900000</ele>
                <time>2018-07-22T03:49:07Z</time>
            </trkpt>
            <trkpt lon="101.025459" lat="13.027538">
                <ele>110.700000</ele>
                <time>2018-07-22T03:49:09Z</time>
            </trkpt>
            <trkpt lon="101.025418" lat="13.027499">
                <ele>111.000000</ele>
                <time>2018-07-22T03:49:11Z</time>
            </trkpt>
            <trkpt lon="101.025391" lat="13.027488">
                <ele>111.000000</ele>
                <time>2018-07-22T03:49:12Z</time>
            </trkpt>
            <trkpt lon="101.025351" lat="13.027439">
                <ele>111.200000</ele>
                <time>2018-07-22T03:49:14Z</time>
            </trkpt>
            <trkpt lon="101.025320" lat="13.027408">
                <ele>111.400000</ele>
                <time>2018-07-22T03:49:15Z</time>
            </trkpt>
            <trkpt lon="101.025296" lat="13.027383">
                <ele>111.000000</ele>
                <time>2018-07-22T03:49:16Z</time>
            </trkpt>
            <trkpt lon="101.025254" lat="13.027338">
                <ele>111.300000</ele>
                <time>2018-07-22T03:49:17Z</time>
            </trkpt>
            <trkpt lon="101.025240" lat="13.027312">
                <ele>112.300000</ele>
                <time>2018-07-22T03:49:18Z</time>
            </trkpt>
            <trkpt lon="101.025217" lat="13.027279">
                <ele>111.900000</ele>
                <time>2018-07-22T03:49:19Z</time>
            </trkpt>
            <trkpt lon="101.025189" lat="13.027230">
                <ele>112.700000</ele>
                <time>2018-07-22T03:49:20Z</time>
            </trkpt>
            <trkpt lon="101.025169" lat="13.027204">
                <ele>112.300000</ele>
                <time>2018-07-22T03:49:21Z</time>
            </trkpt>
            <trkpt lon="101.025143" lat="13.027176">
                <ele>112.600000</ele>
                <time>2018-07-22T03:49:22Z</time>
            </trkpt>
            <trkpt lon="101.025119" lat="13.027153">
                <ele>113.600000</ele>
                <time>2018-07-22T03:49:23Z</time>
            </trkpt>
            <trkpt lon="101.025088" lat="13.027134">
                <ele>112.800000</ele>
                <time>2018-07-22T03:49:24Z</time>
            </trkpt>
            <trkpt lon="101.025044" lat="13.027107">
                <ele>113.800000</ele>
                <time>2018-07-22T03:49:26Z</time>
            </trkpt>
            <trkpt lon="101.025014" lat="13.027085">
                <ele>113.700000</ele>
                <time>2018-07-22T03:49:27Z</time>
            </trkpt>
            <trkpt lon="101.024980" lat="13.027070">
                <ele>113.900000</ele>
                <time>2018-07-22T03:49:28Z</time>
            </trkpt>
            <trkpt lon="101.024953" lat="13.027057">
                <ele>113.900000</ele>
                <time>2018-07-22T03:49:29Z</time>
            </trkpt>
            <trkpt lon="101.024921" lat="13.027048">
                <ele>113.400000</ele>
                <time>2018-07-22T03:49:30Z</time>
            </trkpt>
            <trkpt lon="101.024891" lat="13.027045">
                <ele>113.700000</ele>
                <time>2018-07-22T03:49:31Z</time>
            </trkpt>
            <trkpt lon="101.024858" lat="13.027034">
                <ele>113.800000</ele>
                <time>2018-07-22T03:49:32Z</time>
            </trkpt>
            <trkpt lon="101.024793" lat="13.027017">
                <ele>113.800000</ele>
                <time>2018-07-22T03:49:34Z</time>
            </trkpt>
            <trkpt lon="101.024752" lat="13.027006">
                <ele>113.100000</ele>
                <time>2018-07-22T03:49:35Z</time>
            </trkpt>
            <trkpt lon="101.024693" lat="13.026958">
                <ele>112.400000</ele>
                <time>2018-07-22T03:49:37Z</time>
            </trkpt>
            <trkpt lon="101.024647" lat="13.026929">
                <ele>112.500000</ele>
                <time>2018-07-22T03:49:38Z</time>
            </trkpt>
            <trkpt lon="101.024620" lat="13.026909">
                <ele>111.900000</ele>
                <time>2018-07-22T03:49:39Z</time>
            </trkpt>
            <trkpt lon="101.024581" lat="13.026867">
                <ele>111.600000</ele>
                <time>2018-07-22T03:49:40Z</time>
            </trkpt>
            <trkpt lon="101.024548" lat="13.026825">
                <ele>111.600000</ele>
                <time>2018-07-22T03:49:41Z</time>
            </trkpt>
            <trkpt lon="101.024500" lat="13.026775">
                <ele>111.400000</ele>
                <time>2018-07-22T03:49:42Z</time>
            </trkpt>
            <trkpt lon="101.024472" lat="13.026748">
                <ele>111.200000</ele>
                <time>2018-07-22T03:49:43Z</time>
            </trkpt>
            <trkpt lon="101.024429" lat="13.026721">
                <ele>111.200000</ele>
                <time>2018-07-22T03:49:44Z</time>
            </trkpt>
            <trkpt lon="101.024382" lat="13.026689">
                <ele>111.000000</ele>
                <time>2018-07-22T03:49:45Z</time>
            </trkpt>
            <trkpt lon="101.024347" lat="13.026665">
                <ele>111.100000</ele>
                <time>2018-07-22T03:49:46Z</time>
            </trkpt>
            <trkpt lon="101.024309" lat="13.026638">
                <ele>111.100000</ele>
                <time>2018-07-22T03:49:47Z</time>
            </trkpt>
            <trkpt lon="101.024275" lat="13.026607">
                <ele>111.400000</ele>
                <time>2018-07-22T03:49:48Z</time>
            </trkpt>
            <trkpt lon="101.024255" lat="13.026583">
                <ele>111.600000</ele>
                <time>2018-07-22T03:49:49Z</time>
            </trkpt>
            <trkpt lon="101.024245" lat="13.026545">
                <ele>111.500000</ele>
                <time>2018-07-22T03:49:50Z</time>
            </trkpt>
            <trkpt lon="101.024230" lat="13.026503">
                <ele>111.200000</ele>
                <time>2018-07-22T03:49:51Z</time>
            </trkpt>
            <trkpt lon="101.024217" lat="13.026458">
                <ele>111.200000</ele>
                <time>2018-07-22T03:49:52Z</time>
            </trkpt>
            <trkpt lon="101.024196" lat="13.026412">
                <ele>111.000000</ele>
                <time>2018-07-22T03:49:53Z</time>
            </trkpt>
            <trkpt lon="101.024181" lat="13.026371">
                <ele>110.600000</ele>
                <time>2018-07-22T03:49:54Z</time>
            </trkpt>
            <trkpt lon="101.024172" lat="13.026333">
                <ele>110.400000</ele>
                <time>2018-07-22T03:49:55Z</time>
            </trkpt>
            <trkpt lon="101.024164" lat="13.026301">
                <ele>110.400000</ele>
                <time>2018-07-22T03:49:56Z</time>
            </trkpt>
            <trkpt lon="101.024136" lat="13.026251">
                <ele>109.900000</ele>
                <time>2018-07-22T03:49:58Z</time>
            </trkpt>
            <trkpt lon="101.024113" lat="13.026214">
                <ele>109.400000</ele>
                <time>2018-07-22T03:49:59Z</time>
            </trkpt>
            <trkpt lon="101.024094" lat="13.026173">
                <ele>108.900000</ele>
                <time>2018-07-22T03:50:00Z</time>
            </trkpt>
            <trkpt lon="101.024097" lat="13.026121">
                <ele>108.400000</ele>
                <time>2018-07-22T03:50:01Z</time>
            </trkpt>
            <trkpt lon="101.024084" lat="13.026071">
                <ele>108.900000</ele>
                <time>2018-07-22T03:50:03Z</time>
            </trkpt>
            <trkpt lon="101.024053" lat="13.026014">
                <ele>108.300000</ele>
                <time>2018-07-22T03:50:05Z</time>
            </trkpt>
            <trkpt lon="101.024034" lat="13.025977">
                <ele>108.600000</ele>
                <time>2018-07-22T03:50:07Z</time>
            </trkpt>
            <trkpt lon="101.023999" lat="13.025953">
                <ele>108.300000</ele>
                <time>2018-07-22T03:50:09Z</time>
            </trkpt>
            <trkpt lon="101.023973" lat="13.025933">
                <ele>108.300000</ele>
                <time>2018-07-22T03:50:10Z</time>
            </trkpt>
            <trkpt lon="101.023949" lat="13.025921">
                <ele>108.600000</ele>
                <time>2018-07-22T03:50:11Z</time>
            </trkpt>
            <trkpt lon="101.023922" lat="13.025903">
                <ele>108.600000</ele>
                <time>2018-07-22T03:50:12Z</time>
            </trkpt>
            <trkpt lon="101.023883" lat="13.025885">
                <ele>109.600000</ele>
                <time>2018-07-22T03:50:14Z</time>
            </trkpt>
            <trkpt lon="101.023863" lat="13.025863">
                <ele>109.900000</ele>
                <time>2018-07-22T03:50:20Z</time>
            </trkpt>
            <trkpt lon="101.023825" lat="13.025867">
                <ele>110.600000</ele>
                <time>2018-07-22T03:50:22Z</time>
            </trkpt>
            <trkpt lon="101.023787" lat="13.025862">
                <ele>111.100000</ele>
                <time>2018-07-22T03:50:25Z</time>
            </trkpt>
            <trkpt lon="101.023755" lat="13.025861">
                <ele>111.100000</ele>
                <time>2018-07-22T03:50:27Z</time>
            </trkpt>
            <trkpt lon="101.023722" lat="13.025865">
                <ele>111.600000</ele>
                <time>2018-07-22T03:50:31Z</time>
            </trkpt>
            <trkpt lon="101.023693" lat="13.025876">
                <ele>112.100000</ele>
                <time>2018-07-22T03:50:35Z</time>
            </trkpt>
            <trkpt lon="101.023672" lat="13.025899">
                <ele>112.800000</ele>
                <time>2018-07-22T03:50:38Z</time>
            </trkpt>
            <trkpt lon="101.023660" lat="13.025930">
                <ele>113.500000</ele>
                <time>2018-07-22T03:50:42Z</time>
            </trkpt>
            <trkpt lon="101.023651" lat="13.025971">
                <ele>114.300000</ele>
                <time>2018-07-22T03:50:46Z</time>
            </trkpt>
            <trkpt lon="101.023649" lat="13.026004">
                <ele>114.300000</ele>
                <time>2018-07-22T03:50:50Z</time>
            </trkpt>
            <trkpt lon="101.023649" lat="13.026031">
                <ele>114.800000</ele>
                <time>2018-07-22T03:50:55Z</time>
            </trkpt>
            <trkpt lon="101.023641" lat="13.026062">
                <ele>115.100000</ele>
                <time>2018-07-22T03:50:59Z</time>
            </trkpt>
            <trkpt lon="101.023630" lat="13.026088">
                <ele>115.100000</ele>
                <time>2018-07-22T03:51:02Z</time>
            </trkpt>
            <trkpt lon="101.023628" lat="13.026121">
                <ele>115.300000</ele>
                <time>2018-07-22T03:51:06Z</time>
            </trkpt>
            <trkpt lon="101.023615" lat="13.026153">
                <ele>115.300000</ele>
                <time>2018-07-22T03:51:10Z</time>
            </trkpt>
            <trkpt lon="101.023599" lat="13.026183">
                <ele>115.600000</ele>
                <time>2018-07-22T03:51:16Z</time>
            </trkpt>
            <trkpt lon="101.023538" lat="13.026186">
                <ele>115.300000</ele>
                <time>2018-07-22T03:51:37Z</time>
            </trkpt>
            <trkpt lon="101.023554" lat="13.026215">
                <ele>115.300000</ele>
                <time>2018-07-22T03:51:43Z</time>
            </trkpt>
            <trkpt lon="101.023601" lat="13.026232">
                <ele>115.600000</ele>
                <time>2018-07-22T03:54:56Z</time>
            </trkpt>
            <trkpt lon="101.023597" lat="13.026183">
                <ele>115.600000</ele>
                <time>2018-07-22T03:54:59Z</time>
            </trkpt>
            <trkpt lon="101.023602" lat="13.026154">
                <ele>115.300000</ele>
                <time>2018-07-22T03:55:00Z</time>
            </trkpt>
            <trkpt lon="101.023606" lat="13.026127">
                <ele>115.100000</ele>
                <time>2018-07-22T03:55:01Z</time>
            </trkpt>
            <trkpt lon="101.023607" lat="13.026094">
                <ele>115.100000</ele>
                <time>2018-07-22T03:55:02Z</time>
            </trkpt>
            <trkpt lon="101.023602" lat="13.026057">
                <ele>114.800000</ele>
                <time>2018-07-22T03:55:03Z</time>
            </trkpt>
            <trkpt lon="101.023595" lat="13.026023">
                <ele>114.500000</ele>
                <time>2018-07-22T03:55:04Z</time>
            </trkpt>
            <trkpt lon="101.023582" lat="13.025981">
                <ele>114.000000</ele>
                <time>2018-07-22T03:55:06Z</time>
            </trkpt>
            <trkpt lon="101.023582" lat="13.025940">
                <ele>113.200000</ele>
                <time>2018-07-22T03:55:08Z</time>
            </trkpt>
            <trkpt lon="101.023579" lat="13.025912">
                <ele>112.700000</ele>
                <time>2018-07-22T03:55:12Z</time>
            </trkpt>
            <trkpt lon="101.023642" lat="13.025910">
                <ele>113.000000</ele>
                <time>2018-07-22T03:58:32Z</time>
            </trkpt>
            <trkpt lon="101.023632" lat="13.025938">
                <ele>113.500000</ele>
                <time>2018-07-22T03:58:35Z</time>
            </trkpt>
            <trkpt lon="101.023618" lat="13.025965">
                <ele>113.200000</ele>
                <time>2018-07-22T03:58:39Z</time>
            </trkpt>
            <trkpt lon="101.023619" lat="13.025996">
                <ele>114.000000</ele>
                <time>2018-07-22T03:58:46Z</time>
            </trkpt>
            <trkpt lon="101.023627" lat="13.026025">
                <ele>114.800000</ele>
                <time>2018-07-22T03:58:49Z</time>
            </trkpt>
            <trkpt lon="101.023626" lat="13.026059">
                <ele>115.100000</ele>
                <time>2018-07-22T03:58:55Z</time>
            </trkpt>
            <trkpt lon="101.023619" lat="13.026095">
                <ele>115.100000</ele>
                <time>2018-07-22T03:58:59Z</time>
            </trkpt>
            <trkpt lon="101.023621" lat="13.026132">
                <ele>115.100000</ele>
                <time>2018-07-22T03:59:02Z</time>
            </trkpt>
            <trkpt lon="101.023622" lat="13.026161">
                <ele>115.600000</ele>
                <time>2018-07-22T03:59:07Z</time>
            </trkpt>
            <trkpt lon="101.023610" lat="13.026194">
                <ele>115.600000</ele>
                <time>2018-07-22T03:59:11Z</time>
            </trkpt>
            <trkpt lon="101.023598" lat="13.026222">
                <ele>115.600000</ele>
                <time>2018-07-22T03:59:13Z</time>
            </trkpt>
            <trkpt lon="101.023582" lat="13.026266">
                <ele>115.600000</ele>
                <time>2018-07-22T03:59:15Z</time>
            </trkpt>
            <trkpt lon="101.023563" lat="13.026318">
                <ele>115.400000</ele>
                <time>2018-07-22T03:59:17Z</time>
            </trkpt>
            <trkpt lon="101.023551" lat="13.026366">
                <ele>115.400000</ele>
                <time>2018-07-22T03:59:19Z</time>
            </trkpt>
            <trkpt lon="101.023541" lat="13.026415">
                <ele>115.200000</ele>
                <time>2018-07-22T03:59:21Z</time>
            </trkpt>
            <trkpt lon="101.023536" lat="13.026443">
                <ele>114.900000</ele>
                <time>2018-07-22T03:59:22Z</time>
            </trkpt>
            <trkpt lon="101.023531" lat="13.026475">
                <ele>114.400000</ele>
                <time>2018-07-22T03:59:23Z</time>
            </trkpt>
            <trkpt lon="101.023530" lat="13.026512">
                <ele>114.200000</ele>
                <time>2018-07-22T03:59:24Z</time>
            </trkpt>
            <trkpt lon="101.023533" lat="13.026540">
                <ele>114.200000</ele>
                <time>2018-07-22T03:59:25Z</time>
            </trkpt>
            <trkpt lon="101.023535" lat="13.026585">
                <ele>113.800000</ele>
                <time>2018-07-22T03:59:27Z</time>
            </trkpt>
            <trkpt lon="101.023537" lat="13.026626">
                <ele>113.700000</ele>
                <time>2018-07-22T03:59:30Z</time>
            </trkpt>
            <trkpt lon="101.023545" lat="13.026678">
                <ele>112.900000</ele>
                <time>2018-07-22T03:59:32Z</time>
            </trkpt>
            <trkpt lon="101.023555" lat="13.026709">
                <ele>112.900000</ele>
                <time>2018-07-22T03:59:33Z</time>
            </trkpt>
            <trkpt lon="101.023572" lat="13.026753">
                <ele>112.400000</ele>
                <time>2018-07-22T03:59:34Z</time>
            </trkpt>
            <trkpt lon="101.023594" lat="13.026814">
                <ele>111.900000</ele>
                <time>2018-07-22T03:59:35Z</time>
            </trkpt>
            <trkpt lon="101.023616" lat="13.026886">
                <ele>111.100000</ele>
                <time>2018-07-22T03:59:36Z</time>
            </trkpt>
            <trkpt lon="101.023633" lat="13.026958">
                <ele>111.300000</ele>
                <time>2018-07-22T03:59:37Z</time>
            </trkpt>
            <trkpt lon="101.023658" lat="13.027013">
                <ele>110.800000</ele>
                <time>2018-07-22T03:59:38Z</time>
            </trkpt>
            <trkpt lon="101.023691" lat="13.027054">
                <ele>111.600000</ele>
                <time>2018-07-22T03:59:39Z</time>
            </trkpt>
            <trkpt lon="101.023728" lat="13.027093">
                <ele>112.200000</ele>
                <time>2018-07-22T03:59:40Z</time>
            </trkpt>
            <trkpt lon="101.023757" lat="13.027122">
                <ele>112.800000</ele>
                <time>2018-07-22T03:59:41Z</time>
            </trkpt>
            <trkpt lon="101.023797" lat="13.027143">
                <ele>113.100000</ele>
                <time>2018-07-22T03:59:43Z</time>
            </trkpt>
            <trkpt lon="101.023824" lat="13.027159">
                <ele>113.100000</ele>
                <time>2018-07-22T03:59:45Z</time>
            </trkpt>
            <trkpt lon="101.023857" lat="13.027181">
                <ele>113.300000</ele>
                <time>2018-07-22T03:59:49Z</time>
            </trkpt>
            <trkpt lon="101.023887" lat="13.027212">
                <ele>113.800000</ele>
                <time>2018-07-22T03:59:52Z</time>
            </trkpt>
            <trkpt lon="101.023924" lat="13.027218">
                <ele>114.300000</ele>
                <time>2018-07-22T03:59:54Z</time>
            </trkpt>
            <trkpt lon="101.023948" lat="13.027237">
                <ele>114.400000</ele>
                <time>2018-07-22T03:59:57Z</time>
            </trkpt>
            <trkpt lon="101.023947" lat="13.027270">
                <ele>114.500000</ele>
                <time>2018-07-22T04:00:08Z</time>
            </trkpt>
            <trkpt lon="101.023916" lat="13.027274">
                <ele>113.900000</ele>
                <time>2018-07-22T04:00:12Z</time>
            </trkpt>
            <trkpt lon="101.023868" lat="13.027273">
                <ele>113.300000</ele>
                <time>2018-07-22T04:00:14Z</time>
            </trkpt>
            <trkpt lon="101.023840" lat="13.027270">
                <ele>113.300000</ele>
                <time>2018-07-22T04:00:15Z</time>
            </trkpt>
            <trkpt lon="101.023788" lat="13.027266">
                <ele>112.500000</ele>
                <time>2018-07-22T04:00:17Z</time>
            </trkpt>
            <trkpt lon="101.023740" lat="13.027263">
                <ele>112.100000</ele>
                <time>2018-07-22T04:00:19Z</time>
            </trkpt>
            <trkpt lon="101.023702" lat="13.027271">
                <ele>111.800000</ele>
                <time>2018-07-22T04:00:22Z</time>
            </trkpt>
            <trkpt lon="101.023647" lat="13.027279">
                <ele>111.400000</ele>
                <time>2018-07-22T04:00:24Z</time>
            </trkpt>
            <trkpt lon="101.023602" lat="13.027274">
                <ele>111.000000</ele>
                <time>2018-07-22T04:00:26Z</time>
            </trkpt>
            <trkpt lon="101.023560" lat="13.027273">
                <ele>110.600000</ele>
                <time>2018-07-22T04:00:28Z</time>
            </trkpt>
            <trkpt lon="101.023510" lat="13.027263">
                <ele>110.200000</ele>
                <time>2018-07-22T04:00:30Z</time>
            </trkpt>
            <trkpt lon="101.023480" lat="13.027266">
                <ele>109.800000</ele>
                <time>2018-07-22T04:00:33Z</time>
            </trkpt>
            <trkpt lon="101.023436" lat="13.027264">
                <ele>109.400000</ele>
                <time>2018-07-22T04:00:37Z</time>
            </trkpt>
            <trkpt lon="101.023387" lat="13.027226">
                <ele>108.900000</ele>
                <time>2018-07-22T04:00:39Z</time>
            </trkpt>
            <trkpt lon="101.023352" lat="13.027208">
                <ele>108.200000</ele>
                <time>2018-07-22T04:00:40Z</time>
            </trkpt>
            <trkpt lon="101.023321" lat="13.027196">
                <ele>107.700000</ele>
                <time>2018-07-22T04:00:41Z</time>
            </trkpt>
            <trkpt lon="101.023295" lat="13.027183">
                <ele>107.700000</ele>
                <time>2018-07-22T04:00:42Z</time>
            </trkpt>
            <trkpt lon="101.023269" lat="13.027169">
                <ele>107.100000</ele>
                <time>2018-07-22T04:00:44Z</time>
            </trkpt>
            <trkpt lon="101.023251" lat="13.027146">
                <ele>107.100000</ele>
                <time>2018-07-22T04:00:49Z</time>
            </trkpt>
            <trkpt lon="101.023229" lat="13.027170">
                <ele>106.700000</ele>
                <time>2018-07-22T04:01:03Z</time>
            </trkpt>
            <trkpt lon="101.023200" lat="13.027163">
                <ele>106.700000</ele>
                <time>2018-07-22T04:01:04Z</time>
            </trkpt>
            <trkpt lon="101.023159" lat="13.027145">
                <ele>106.200000</ele>
                <time>2018-07-22T04:01:06Z</time>
            </trkpt>
            <trkpt lon="101.023132" lat="13.027134">
                <ele>105.700000</ele>
                <time>2018-07-22T04:01:09Z</time>
            </trkpt>
            <trkpt lon="101.023091" lat="13.027110">
                <ele>104.900000</ele>
                <time>2018-07-22T04:01:12Z</time>
            </trkpt>
            <trkpt lon="101.023060" lat="13.027107">
                <ele>104.200000</ele>
                <time>2018-07-22T04:01:14Z</time>
            </trkpt>
            <trkpt lon="101.023007" lat="13.027107">
                <ele>103.400000</ele>
                <time>2018-07-22T04:01:16Z</time>
            </trkpt>
            <trkpt lon="101.022968" lat="13.027104">
                <ele>102.600000</ele>
                <time>2018-07-22T04:01:18Z</time>
            </trkpt>
            <trkpt lon="101.022932" lat="13.027111">
                <ele>101.600000</ele>
                <time>2018-07-22T04:01:19Z</time>
            </trkpt>
            <trkpt lon="101.022897" lat="13.027109">
                <ele>101.600000</ele>
                <time>2018-07-22T04:01:21Z</time>
            </trkpt>
            <trkpt lon="101.022840" lat="13.027112">
                <ele>99.600000</ele>
                <time>2018-07-22T04:01:23Z</time>
            </trkpt>
            <trkpt lon="101.022792" lat="13.027113">
                <ele>98.600000</ele>
                <time>2018-07-22T04:01:25Z</time>
            </trkpt>
            <trkpt lon="101.022753" lat="13.027113">
                <ele>97.400000</ele>
                <time>2018-07-22T04:01:26Z</time>
            </trkpt>
            <trkpt lon="101.022717" lat="13.027110">
                <ele>96.300000</ele>
                <time>2018-07-22T04:01:27Z</time>
            </trkpt>
            <trkpt lon="101.022689" lat="13.027105">
                <ele>96.300000</ele>
                <time>2018-07-22T04:01:28Z</time>
            </trkpt>
            <trkpt lon="101.022653" lat="13.027099">
                <ele>95.100000</ele>
                <time>2018-07-22T04:01:30Z</time>
            </trkpt>
            <trkpt lon="101.022625" lat="13.027077">
                <ele>93.800000</ele>
                <time>2018-07-22T04:01:32Z</time>
            </trkpt>
            <trkpt lon="101.022596" lat="13.027065">
                <ele>93.800000</ele>
                <time>2018-07-22T04:01:36Z</time>
            </trkpt>
            <trkpt lon="101.022580" lat="13.027034">
                <ele>92.600000</ele>
                <time>2018-07-22T04:01:41Z</time>
            </trkpt>
            <trkpt lon="101.022577" lat="13.027061">
                <ele>92.800000</ele>
                <time>2018-07-22T04:01:48Z</time>
            </trkpt>
            <trkpt lon="101.022587" lat="13.027096">
                <ele>93.100000</ele>
                <time>2018-07-22T04:01:51Z</time>
            </trkpt>
            <trkpt lon="101.022575" lat="13.027127">
                <ele>93.100000</ele>
                <time>2018-07-22T04:01:53Z</time>
            </trkpt>
            <trkpt lon="101.022570" lat="13.027165">
                <ele>93.300000</ele>
                <time>2018-07-22T04:01:55Z</time>
            </trkpt>
            <trkpt lon="101.022583" lat="13.027209">
                <ele>93.600000</ele>
                <time>2018-07-22T04:01:57Z</time>
            </trkpt>
            <trkpt lon="101.022591" lat="13.027243">
                <ele>93.600000</ele>
                <time>2018-07-22T04:02:00Z</time>
            </trkpt>
            <trkpt lon="101.022611" lat="13.027283">
                <ele>94.600000</ele>
                <time>2018-07-22T04:02:02Z</time>
            </trkpt>
            <trkpt lon="101.022624" lat="13.027312">
                <ele>94.600000</ele>
                <time>2018-07-22T04:02:04Z</time>
            </trkpt>
            <trkpt lon="101.022633" lat="13.027353">
                <ele>94.600000</ele>
                <time>2018-07-22T04:02:06Z</time>
            </trkpt>
            <trkpt lon="101.022641" lat="13.027396">
                <ele>95.600000</ele>
                <time>2018-07-22T04:02:08Z</time>
            </trkpt>
            <trkpt lon="101.022640" lat="13.027449">
                <ele>95.700000</ele>
                <time>2018-07-22T04:02:10Z</time>
            </trkpt>
            <trkpt lon="101.022645" lat="13.027485">
                <ele>95.700000</ele>
                <time>2018-07-22T04:02:13Z</time>
            </trkpt>
            <trkpt lon="101.022657" lat="13.027512">
                <ele>95.700000</ele>
                <time>2018-07-22T04:02:15Z</time>
            </trkpt>
            <trkpt lon="101.022671" lat="13.027536">
                <ele>95.800000</ele>
                <time>2018-07-22T04:02:17Z</time>
            </trkpt>
            <trkpt lon="101.022687" lat="13.027561">
                <ele>97.100000</ele>
                <time>2018-07-22T04:02:19Z</time>
            </trkpt>
            <trkpt lon="101.022714" lat="13.027592">
                <ele>97.100000</ele>
                <time>2018-07-22T04:02:22Z</time>
            </trkpt>
            <trkpt lon="101.022738" lat="13.027616">
                <ele>98.400000</ele>
                <time>2018-07-22T04:02:25Z</time>
            </trkpt>
            <trkpt lon="101.022767" lat="13.027646">
                <ele>99.600000</ele>
                <time>2018-07-22T04:02:28Z</time>
            </trkpt>
            <trkpt lon="101.022782" lat="13.027670">
                <ele>99.600000</ele>
                <time>2018-07-22T04:02:31Z</time>
            </trkpt>
            <trkpt lon="101.022806" lat="13.027701">
                <ele>99.600000</ele>
                <time>2018-07-22T04:02:34Z</time>
            </trkpt>
            <trkpt lon="101.022827" lat="13.027736">
                <ele>100.100000</ele>
                <time>2018-07-22T04:02:38Z</time>
            </trkpt>
            <trkpt lon="101.022839" lat="13.027768">
                <ele>99.700000</ele>
                <time>2018-07-22T04:02:40Z</time>
            </trkpt>
            <trkpt lon="101.022852" lat="13.027795">
                <ele>100.500000</ele>
                <time>2018-07-22T04:02:42Z</time>
            </trkpt>
            <trkpt lon="101.022877" lat="13.027820">
                <ele>100.100000</ele>
                <time>2018-07-22T04:02:44Z</time>
            </trkpt>
            <trkpt lon="101.022910" lat="13.027837">
                <ele>101.000000</ele>
                <time>2018-07-22T04:02:46Z</time>
            </trkpt>
            <trkpt lon="101.022961" lat="13.027868">
                <ele>101.700000</ele>
                <time>2018-07-22T04:02:48Z</time>
            </trkpt>
            <trkpt lon="101.023005" lat="13.027897">
                <ele>101.600000</ele>
                <time>2018-07-22T04:02:50Z</time>
            </trkpt>
            <trkpt lon="101.023036" lat="13.027916">
                <ele>101.900000</ele>
                <time>2018-07-22T04:02:52Z</time>
            </trkpt>
            <trkpt lon="101.023069" lat="13.027940">
                <ele>101.400000</ele>
                <time>2018-07-22T04:02:55Z</time>
            </trkpt>
            <trkpt lon="101.023107" lat="13.027967">
                <ele>101.600000</ele>
                <time>2018-07-22T04:02:57Z</time>
            </trkpt>
            <trkpt lon="101.023146" lat="13.027991">
                <ele>100.900000</ele>
                <time>2018-07-22T04:02:59Z</time>
            </trkpt>
            <trkpt lon="101.023169" lat="13.028010">
                <ele>101.200000</ele>
                <time>2018-07-22T04:03:01Z</time>
            </trkpt>
            <trkpt lon="101.023193" lat="13.028029">
                <ele>100.700000</ele>
                <time>2018-07-22T04:03:02Z</time>
            </trkpt>
            <trkpt lon="101.023219" lat="13.028047">
                <ele>100.700000</ele>
                <time>2018-07-22T04:03:03Z</time>
            </trkpt>
            <trkpt lon="101.023251" lat="13.028082">
                <ele>100.000000</ele>
                <time>2018-07-22T04:03:05Z</time>
            </trkpt>
            <trkpt lon="101.023251" lat="13.028112">
                <ele>99.100000</ele>
                <time>2018-07-22T04:03:08Z</time>
            </trkpt>
            <trkpt lon="101.023246" lat="13.028076">
                <ele>100.000000</ele>
                <time>2018-07-22T04:03:21Z</time>
            </trkpt>
            <trkpt lon="101.023221" lat="13.028056">
                <ele>100.700000</ele>
                <time>2018-07-22T04:03:23Z</time>
            </trkpt>
            <trkpt lon="101.023183" lat="13.028032">
                <ele>100.400000</ele>
                <time>2018-07-22T04:03:25Z</time>
            </trkpt>
            <trkpt lon="101.023152" lat="13.028015">
                <ele>100.400000</ele>
                <time>2018-07-22T04:03:26Z</time>
            </trkpt>
            <trkpt lon="101.023116" lat="13.028003">
                <ele>100.900000</ele>
                <time>2018-07-22T04:03:27Z</time>
            </trkpt>
            <trkpt lon="101.023080" lat="13.027987">
                <ele>100.600000</ele>
                <time>2018-07-22T04:03:28Z</time>
            </trkpt>
            <trkpt lon="101.023045" lat="13.027962">
                <ele>101.100000</ele>
                <time>2018-07-22T04:03:29Z</time>
            </trkpt>
            <trkpt lon="101.023015" lat="13.027943">
                <ele>100.900000</ele>
                <time>2018-07-22T04:03:30Z</time>
            </trkpt>
            <trkpt lon="101.022985" lat="13.027921">
                <ele>101.600000</ele>
                <time>2018-07-22T04:03:32Z</time>
            </trkpt>
            <trkpt lon="101.022959" lat="13.027900">
                <ele>101.100000</ele>
                <time>2018-07-22T04:03:34Z</time>
            </trkpt>
            <trkpt lon="101.022923" lat="13.027855">
                <ele>100.700000</ele>
                <time>2018-07-22T04:03:36Z</time>
            </trkpt>
            <trkpt lon="101.022886" lat="13.027819">
                <ele>100.100000</ele>
                <time>2018-07-22T04:03:37Z</time>
            </trkpt>
            <trkpt lon="101.022853" lat="13.027776">
                <ele>100.500000</ele>
                <time>2018-07-22T04:03:38Z</time>
            </trkpt>
            <trkpt lon="101.022812" lat="13.027732">
                <ele>100.100000</ele>
                <time>2018-07-22T04:03:39Z</time>
            </trkpt>
            <trkpt lon="101.022777" lat="13.027702">
                <ele>99.600000</ele>
                <time>2018-07-22T04:03:40Z</time>
            </trkpt>
            <trkpt lon="101.022752" lat="13.027672">
                <ele>98.500000</ele>
                <time>2018-07-22T04:03:41Z</time>
            </trkpt>
            <trkpt lon="101.022731" lat="13.027641">
                <ele>98.500000</ele>
                <time>2018-07-22T04:03:42Z</time>
            </trkpt>
            <trkpt lon="101.022709" lat="13.027598">
                <ele>97.300000</ele>
                <time>2018-07-22T04:03:43Z</time>
            </trkpt>
            <trkpt lon="101.022684" lat="13.027548">
                <ele>97.000000</ele>
                <time>2018-07-22T04:03:44Z</time>
            </trkpt>
            <trkpt lon="101.022659" lat="13.027492">
                <ele>95.700000</ele>
                <time>2018-07-22T04:03:45Z</time>
            </trkpt>
            <trkpt lon="101.022637" lat="13.027430">
                <ele>95.700000</ele>
                <time>2018-07-22T04:03:46Z</time>
            </trkpt>
            <trkpt lon="101.022622" lat="13.027379">
                <ele>94.600000</ele>
                <time>2018-07-22T04:03:47Z</time>
            </trkpt>
            <trkpt lon="101.022602" lat="13.027334">
                <ele>94.600000</ele>
                <time>2018-07-22T04:03:48Z</time>
            </trkpt>
            <trkpt lon="101.022576" lat="13.027286">
                <ele>93.600000</ele>
                <time>2018-07-22T04:03:49Z</time>
            </trkpt>
            <trkpt lon="101.022548" lat="13.027239">
                <ele>92.600000</ele>
                <time>2018-07-22T04:03:50Z</time>
            </trkpt>
            <trkpt lon="101.022529" lat="13.027202">
                <ele>92.600000</ele>
                <time>2018-07-22T04:03:51Z</time>
            </trkpt>
            <trkpt lon="101.022519" lat="13.027169">
                <ele>92.300000</ele>
                <time>2018-07-22T04:03:52Z</time>
            </trkpt>
            <trkpt lon="101.022510" lat="13.027143">
                <ele>92.300000</ele>
                <time>2018-07-22T04:03:59Z</time>
            </trkpt>
            <trkpt lon="101.022503" lat="13.027111">
                <ele>91.100000</ele>
                <time>2018-07-22T04:04:03Z</time>
            </trkpt>
            <trkpt lon="101.022499" lat="13.027066">
                <ele>90.800000</ele>
                <time>2018-07-22T04:04:05Z</time>
            </trkpt>
            <trkpt lon="101.022519" lat="13.027022">
                <ele>91.600000</ele>
                <time>2018-07-22T04:04:07Z</time>
            </trkpt>
            <trkpt lon="101.022548" lat="13.026996">
                <ele>91.300000</ele>
                <time>2018-07-22T04:04:09Z</time>
            </trkpt>
            <trkpt lon="101.022587" lat="13.026972">
                <ele>92.300000</ele>
                <time>2018-07-22T04:04:11Z</time>
            </trkpt>
            <trkpt lon="101.022615" lat="13.026955">
                <ele>93.100000</ele>
                <time>2018-07-22T04:04:13Z</time>
            </trkpt>
            <trkpt lon="101.022658" lat="13.026933">
                <ele>94.200000</ele>
                <time>2018-07-22T04:04:15Z</time>
            </trkpt>
            <trkpt lon="101.022688" lat="13.026916">
                <ele>95.200000</ele>
                <time>2018-07-22T04:04:17Z</time>
            </trkpt>
            <trkpt lon="101.022716" lat="13.026896">
                <ele>95.200000</ele>
                <time>2018-07-22T04:04:20Z</time>
            </trkpt>
            <trkpt lon="101.022740" lat="13.026879">
                <ele>96.200000</ele>
                <time>2018-07-22T04:04:25Z</time>
            </trkpt>
            <trkpt lon="101.022754" lat="13.026851">
                <ele>96.200000</ele>
                <time>2018-07-22T04:04:31Z</time>
            </trkpt>
            <trkpt lon="101.022762" lat="13.026819">
                <ele>95.800000</ele>
                <time>2018-07-22T04:04:33Z</time>
            </trkpt>
            <trkpt lon="101.022757" lat="13.026760">
                <ele>94.900000</ele>
                <time>2018-07-22T04:04:35Z</time>
            </trkpt>
            <trkpt lon="101.022756" lat="13.026717">
                <ele>94.500000</ele>
                <time>2018-07-22T04:04:37Z</time>
            </trkpt>
            <trkpt lon="101.022747" lat="13.026685">
                <ele>94.500000</ele>
                <time>2018-07-22T04:04:39Z</time>
            </trkpt>
            <trkpt lon="101.022741" lat="13.026642">
                <ele>94.200000</ele>
                <time>2018-07-22T04:04:41Z</time>
            </trkpt>
            <trkpt lon="101.022753" lat="13.026603">
                <ele>93.900000</ele>
                <time>2018-07-22T04:04:43Z</time>
            </trkpt>
            <trkpt lon="101.022756" lat="13.026573">
                <ele>93.500000</ele>
                <time>2018-07-22T04:04:46Z</time>
            </trkpt>
            <trkpt lon="101.022768" lat="13.026541">
                <ele>94.600000</ele>
                <time>2018-07-22T04:04:48Z</time>
            </trkpt>
            <trkpt lon="101.022777" lat="13.026514">
                <ele>94.600000</ele>
                <time>2018-07-22T04:04:51Z</time>
            </trkpt>
            <trkpt lon="101.022788" lat="13.026480">
                <ele>94.800000</ele>
                <time>2018-07-22T04:04:54Z</time>
            </trkpt>
            <trkpt lon="101.022796" lat="13.026448">
                <ele>95.100000</ele>
                <time>2018-07-22T04:04:56Z</time>
            </trkpt>
            <trkpt lon="101.022802" lat="13.026422">
                <ele>95.300000</ele>
                <time>2018-07-22T04:04:58Z</time>
            </trkpt>
            <trkpt lon="101.022802" lat="13.026390">
                <ele>95.300000</ele>
                <time>2018-07-22T04:05:01Z</time>
            </trkpt>
            <trkpt lon="101.022802" lat="13.026419">
                <ele>95.300000</ele>
                <time>2018-07-22T04:05:07Z</time>
            </trkpt>
            <trkpt lon="101.022784" lat="13.026392">
                <ele>95.300000</ele>
                <time>2018-07-22T04:05:15Z</time>
            </trkpt>
            <trkpt lon="101.022781" lat="13.026361">
                <ele>95.600000</ele>
                <time>2018-07-22T04:05:18Z</time>
            </trkpt>
            <trkpt lon="101.022769" lat="13.026334">
                <ele>96.100000</ele>
                <time>2018-07-22T04:05:26Z</time>
            </trkpt>
            <trkpt lon="101.022754" lat="13.026305">
                <ele>94.900000</ele>
                <time>2018-07-22T04:05:30Z</time>
            </trkpt>
            <trkpt lon="101.022739" lat="13.026282">
                <ele>95.400000</ele>
                <time>2018-07-22T04:05:33Z</time>
            </trkpt>
            <trkpt lon="101.022712" lat="13.026247">
                <ele>94.600000</ele>
                <time>2018-07-22T04:05:35Z</time>
            </trkpt>
            <trkpt lon="101.022686" lat="13.026213">
                <ele>95.100000</ele>
                <time>2018-07-22T04:05:37Z</time>
            </trkpt>
            <trkpt lon="101.022673" lat="13.026189">
                <ele>93.900000</ele>
                <time>2018-07-22T04:05:39Z</time>
            </trkpt>
            <trkpt lon="101.022649" lat="13.026154">
                <ele>94.300000</ele>
                <time>2018-07-22T04:05:41Z</time>
            </trkpt>
            <trkpt lon="101.022632" lat="13.026116">
                <ele>93.800000</ele>
                <time>2018-07-22T04:05:43Z</time>
            </trkpt>
            <trkpt lon="101.022623" lat="13.026082">
                <ele>94.300000</ele>
                <time>2018-07-22T04:05:45Z</time>
            </trkpt>
            <trkpt lon="101.022613" lat="13.026047">
                <ele>94.700000</ele>
                <time>2018-07-22T04:05:47Z</time>
            </trkpt>
            <trkpt lon="101.022601" lat="13.026019">
                <ele>94.700000</ele>
                <time>2018-07-22T04:05:49Z</time>
            </trkpt>
            <trkpt lon="101.022591" lat="13.025993">
                <ele>94.200000</ele>
                <time>2018-07-22T04:05:52Z</time>
            </trkpt>
            <trkpt lon="101.022577" lat="13.025966">
                <ele>94.200000</ele>
                <time>2018-07-22T04:05:56Z</time>
            </trkpt>
            <trkpt lon="101.022605" lat="13.025960">
                <ele>94.800000</ele>
                <time>2018-07-22T04:05:59Z</time>
            </trkpt>
            <trkpt lon="101.022626" lat="13.025996">
                <ele>94.800000</ele>
                <time>2018-07-22T04:06:07Z</time>
            </trkpt>
            <trkpt lon="101.022632" lat="13.026023">
                <ele>94.700000</ele>
                <time>2018-07-22T04:06:09Z</time>
            </trkpt>
            <trkpt lon="101.022646" lat="13.026065">
                <ele>95.300000</ele>
                <time>2018-07-22T04:06:11Z</time>
            </trkpt>
            <trkpt lon="101.022651" lat="13.026099">
                <ele>94.800000</ele>
                <time>2018-07-22T04:06:13Z</time>
            </trkpt>
            <trkpt lon="101.022656" lat="13.026133">
                <ele>94.800000</ele>
                <time>2018-07-22T04:06:16Z</time>
            </trkpt>
            <trkpt lon="101.022658" lat="13.026160">
                <ele>94.300000</ele>
                <time>2018-07-22T04:06:17Z</time>
            </trkpt>
            <trkpt lon="101.022676" lat="13.026190">
                <ele>93.900000</ele>
                <time>2018-07-22T04:06:19Z</time>
            </trkpt>
            <trkpt lon="101.022702" lat="13.026225">
                <ele>94.600000</ele>
                <time>2018-07-22T04:06:22Z</time>
            </trkpt>
            <trkpt lon="101.022736" lat="13.026250">
                <ele>95.900000</ele>
                <time>2018-07-22T04:06:26Z</time>
            </trkpt>
            <trkpt lon="101.022764" lat="13.026260">
                <ele>96.600000</ele>
                <time>2018-07-22T04:06:29Z</time>
            </trkpt>
            <trkpt lon="101.022787" lat="13.026299">
                <ele>96.600000</ele>
                <time>2018-07-22T04:06:33Z</time>
            </trkpt>
            <trkpt lon="101.022809" lat="13.026325">
                <ele>97.500000</ele>
                <time>2018-07-22T04:06:36Z</time>
            </trkpt>
            <trkpt lon="101.022824" lat="13.026356">
                <ele>97.000000</ele>
                <time>2018-07-22T04:06:40Z</time>
            </trkpt>
            <trkpt lon="101.022851" lat="13.026386">
                <ele>98.100000</ele>
                <time>2018-07-22T04:06:42Z</time>
            </trkpt>
            <trkpt lon="101.022843" lat="13.026415">
                <ele>96.700000</ele>
                <time>2018-07-22T04:06:45Z</time>
            </trkpt>
            <trkpt lon="101.022827" lat="13.026384">
                <ele>97.000000</ele>
                <time>2018-07-22T04:06:58Z</time>
            </trkpt>
            <trkpt lon="101.022799" lat="13.026339">
                <ele>96.100000</ele>
                <time>2018-07-22T04:07:00Z</time>
            </trkpt>
            <trkpt lon="101.022786" lat="13.026306">
                <ele>96.100000</ele>
                <time>2018-07-22T04:07:01Z</time>
            </trkpt>
            <trkpt lon="101.022775" lat="13.026273">
                <ele>96.600000</ele>
                <time>2018-07-22T04:07:02Z</time>
            </trkpt>
            <trkpt lon="101.022755" lat="13.026223">
                <ele>95.900000</ele>
                <time>2018-07-22T04:07:04Z</time>
            </trkpt>
            <trkpt lon="101.022738" lat="13.026193">
                <ele>96.300000</ele>
                <time>2018-07-22T04:07:05Z</time>
            </trkpt>
            <trkpt lon="101.022724" lat="13.026162">
                <ele>96.700000</ele>
                <time>2018-07-22T04:07:06Z</time>
            </trkpt>
            <trkpt lon="101.022722" lat="13.026126">
                <ele>97.000000</ele>
                <time>2018-07-22T04:07:07Z</time>
            </trkpt>
            <trkpt lon="101.022725" lat="13.026093">
                <ele>97.000000</ele>
                <time>2018-07-22T04:07:08Z</time>
            </trkpt>
            <trkpt lon="101.022723" lat="13.026055">
                <ele>97.300000</ele>
                <time>2018-07-22T04:07:11Z</time>
            </trkpt>
            <trkpt lon="101.022717" lat="13.026026">
                <ele>96.600000</ele>
                <time>2018-07-22T04:07:15Z</time>
            </trkpt>
            <trkpt lon="101.022727" lat="13.025990">
                <ele>97.400000</ele>
                <time>2018-07-22T04:07:17Z</time>
            </trkpt>
            <trkpt lon="101.022732" lat="13.025947">
                <ele>97.200000</ele>
                <time>2018-07-22T04:07:20Z</time>
            </trkpt>
            <trkpt lon="101.022738" lat="13.025918">
                <ele>97.000000</ele>
                <time>2018-07-22T04:07:23Z</time>
            </trkpt>
            <trkpt lon="101.022740" lat="13.025880">
                <ele>97.200000</ele>
                <time>2018-07-22T04:07:27Z</time>
            </trkpt>
            <trkpt lon="101.022753" lat="13.025848">
                <ele>97.200000</ele>
                <time>2018-07-22T04:07:29Z</time>
            </trkpt>
            <trkpt lon="101.022776" lat="13.025821">
                <ele>98.200000</ele>
                <time>2018-07-22T04:07:31Z</time>
            </trkpt>
            <trkpt lon="101.022804" lat="13.025777">
                <ele>98.400000</ele>
                <time>2018-07-22T04:07:33Z</time>
            </trkpt>
            <trkpt lon="101.022813" lat="13.025740">
                <ele>99.400000</ele>
                <time>2018-07-22T04:07:34Z</time>
            </trkpt>
            <trkpt lon="101.022820" lat="13.025702">
                <ele>99.500000</ele>
                <time>2018-07-22T04:07:35Z</time>
            </trkpt>
            <trkpt lon="101.022813" lat="13.025668">
                <ele>99.500000</ele>
                <time>2018-07-22T04:07:36Z</time>
            </trkpt>
            <trkpt lon="101.022805" lat="13.025629">
                <ele>98.800000</ele>
                <time>2018-07-22T04:07:37Z</time>
            </trkpt>
            <trkpt lon="101.022811" lat="13.025582">
                <ele>99.500000</ele>
                <time>2018-07-22T04:07:38Z</time>
            </trkpt>
            <trkpt lon="101.022829" lat="13.025550">
                <ele>99.500000</ele>
                <time>2018-07-22T04:07:39Z</time>
            </trkpt>
            <trkpt lon="101.022839" lat="13.025520">
                <ele>99.100000</ele>
                <time>2018-07-22T04:07:40Z</time>
            </trkpt>
            <trkpt lon="101.022861" lat="13.025485">
                <ele>99.300000</ele>
                <time>2018-07-22T04:07:41Z</time>
            </trkpt>
            <trkpt lon="101.022884" lat="13.025444">
                <ele>98.800000</ele>
                <time>2018-07-22T04:07:42Z</time>
            </trkpt>
            <trkpt lon="101.022900" lat="13.025417">
                <ele>99.100000</ele>
                <time>2018-07-22T04:07:43Z</time>
            </trkpt>
            <trkpt lon="101.022926" lat="13.025388">
                <ele>99.100000</ele>
                <time>2018-07-22T04:07:44Z</time>
            </trkpt>
            <trkpt lon="101.022958" lat="13.025358">
                <ele>99.000000</ele>
                <time>2018-07-22T04:07:45Z</time>
            </trkpt>
            <trkpt lon="101.022986" lat="13.025332">
                <ele>98.200000</ele>
                <time>2018-07-22T04:07:46Z</time>
            </trkpt>
            <trkpt lon="101.023017" lat="13.025312">
                <ele>98.200000</ele>
                <time>2018-07-22T04:07:47Z</time>
            </trkpt>
            <trkpt lon="101.023048" lat="13.025294">
                <ele>97.200000</ele>
                <time>2018-07-22T04:07:49Z</time>
            </trkpt>
            <trkpt lon="101.023097" lat="13.025288">
                <ele>97.200000</ele>
                <time>2018-07-22T04:07:51Z</time>
            </trkpt>
            <trkpt lon="101.023132" lat="13.025301">
                <ele>98.200000</ele>
                <time>2018-07-22T04:07:53Z</time>
            </trkpt>
            <trkpt lon="101.023166" lat="13.025297">
                <ele>98.200000</ele>
                <time>2018-07-22T04:07:56Z</time>
            </trkpt>
            <trkpt lon="101.023199" lat="13.025289">
                <ele>97.100000</ele>
                <time>2018-07-22T04:07:58Z</time>
            </trkpt>
            <trkpt lon="101.023242" lat="13.025278">
                <ele>97.000000</ele>
                <time>2018-07-22T04:08:00Z</time>
            </trkpt>
            <trkpt lon="101.023285" lat="13.025272">
                <ele>97.000000</ele>
                <time>2018-07-22T04:08:02Z</time>
            </trkpt>
            <trkpt lon="101.023322" lat="13.025263">
                <ele>97.000000</ele>
                <time>2018-07-22T04:08:03Z</time>
            </trkpt>
            <trkpt lon="101.023356" lat="13.025256">
                <ele>97.000000</ele>
                <time>2018-07-22T04:08:04Z</time>
            </trkpt>
            <trkpt lon="101.023401" lat="13.025246">
                <ele>96.200000</ele>
                <time>2018-07-22T04:08:06Z</time>
            </trkpt>
            <trkpt lon="101.023432" lat="13.025234">
                <ele>96.200000</ele>
                <time>2018-07-22T04:08:08Z</time>
            </trkpt>
            <trkpt lon="101.023471" lat="13.025222">
                <ele>96.200000</ele>
                <time>2018-07-22T04:08:10Z</time>
            </trkpt>
            <trkpt lon="101.023501" lat="13.025211">
                <ele>95.800000</ele>
                <time>2018-07-22T04:08:12Z</time>
            </trkpt>
            <trkpt lon="101.023536" lat="13.025207">
                <ele>96.000000</ele>
                <time>2018-07-22T04:08:15Z</time>
            </trkpt>
            <trkpt lon="101.023565" lat="13.025205">
                <ele>96.000000</ele>
                <time>2018-07-22T04:08:18Z</time>
            </trkpt>
            <trkpt lon="101.023586" lat="13.025187">
                <ele>96.300000</ele>
                <time>2018-07-22T04:08:20Z</time>
            </trkpt>
            <trkpt lon="101.023617" lat="13.025157">
                <ele>95.800000</ele>
                <time>2018-07-22T04:08:23Z</time>
            </trkpt>
            <trkpt lon="101.023644" lat="13.025135">
                <ele>96.000000</ele>
                <time>2018-07-22T04:08:25Z</time>
            </trkpt>
            <trkpt lon="101.023664" lat="13.025109">
                <ele>95.500000</ele>
                <time>2018-07-22T04:08:26Z</time>
            </trkpt>
            <trkpt lon="101.023701" lat="13.025069">
                <ele>95.400000</ele>
                <time>2018-07-22T04:08:28Z</time>
            </trkpt>
            <trkpt lon="101.023739" lat="13.025031">
                <ele>95.900000</ele>
                <time>2018-07-22T04:08:30Z</time>
            </trkpt>
            <trkpt lon="101.023763" lat="13.025011">
                <ele>96.300000</ele>
                <time>2018-07-22T04:08:31Z</time>
            </trkpt>
            <trkpt lon="101.023791" lat="13.024988">
                <ele>96.400000</ele>
                <time>2018-07-22T04:08:32Z</time>
            </trkpt>
            <trkpt lon="101.023819" lat="13.024967">
                <ele>96.800000</ele>
                <time>2018-07-22T04:08:33Z</time>
            </trkpt>
            <trkpt lon="101.023844" lat="13.024952">
                <ele>96.900000</ele>
                <time>2018-07-22T04:08:34Z</time>
            </trkpt>
            <trkpt lon="101.023862" lat="13.024928">
                <ele>96.900000</ele>
                <time>2018-07-22T04:08:35Z</time>
            </trkpt>
            <trkpt lon="101.023888" lat="13.024904">
                <ele>96.600000</ele>
                <time>2018-07-22T04:08:36Z</time>
            </trkpt>
            <trkpt lon="101.023916" lat="13.024883">
                <ele>96.600000</ele>
                <time>2018-07-22T04:08:37Z</time>
            </trkpt>
            <trkpt lon="101.023949" lat="13.024865">
                <ele>96.400000</ele>
                <time>2018-07-22T04:08:38Z</time>
            </trkpt>
            <trkpt lon="101.023975" lat="13.024848">
                <ele>96.100000</ele>
                <time>2018-07-22T04:08:39Z</time>
            </trkpt>
            <trkpt lon="101.023999" lat="13.024831">
                <ele>96.100000</ele>
                <time>2018-07-22T04:08:40Z</time>
            </trkpt>
            <trkpt lon="101.024021" lat="13.024813">
                <ele>96.100000</ele>
                <time>2018-07-22T04:08:41Z</time>
            </trkpt>
            <trkpt lon="101.024061" lat="13.024785">
                <ele>96.400000</ele>
                <time>2018-07-22T04:08:43Z</time>
            </trkpt>
            <trkpt lon="101.024097" lat="13.024760">
                <ele>96.600000</ele>
                <time>2018-07-22T04:08:45Z</time>
            </trkpt>
            <trkpt lon="101.024123" lat="13.024740">
                <ele>96.600000</ele>
                <time>2018-07-22T04:08:47Z</time>
            </trkpt>
            <trkpt lon="101.024156" lat="13.024719">
                <ele>96.900000</ele>
                <time>2018-07-22T04:08:49Z</time>
            </trkpt>
            <trkpt lon="101.024187" lat="13.024701">
                <ele>98.100000</ele>
                <time>2018-07-22T04:08:51Z</time>
            </trkpt>
            <trkpt lon="101.024215" lat="13.024691">
                <ele>98.100000</ele>
                <time>2018-07-22T04:08:54Z</time>
            </trkpt>
            <trkpt lon="101.024242" lat="13.024661">
                <ele>100.000000</ele>
                <time>2018-07-22T04:08:57Z</time>
            </trkpt>
            <trkpt lon="101.024261" lat="13.024626">
                <ele>100.400000</ele>
                <time>2018-07-22T04:08:59Z</time>
            </trkpt>
            <trkpt lon="101.024273" lat="13.024601">
                <ele>101.700000</ele>
                <time>2018-07-22T04:09:01Z</time>
            </trkpt>
            <trkpt lon="101.024277" lat="13.024640">
                <ele>101.400000</ele>
                <time>2018-07-22T04:09:07Z</time>
            </trkpt>
            <trkpt lon="101.024302" lat="13.024678">
                <ele>101.000000</ele>
                <time>2018-07-22T04:09:09Z</time>
            </trkpt>
            <trkpt lon="101.024326" lat="13.024713">
                <ele>102.200000</ele>
                <time>2018-07-22T04:09:11Z</time>
            </trkpt>
            <trkpt lon="101.024342" lat="13.024739">
                <ele>102.200000</ele>
                <time>2018-07-22T04:09:12Z</time>
            </trkpt>
            <trkpt lon="101.024356" lat="13.024775">
                <ele>103.300000</ele>
                <time>2018-07-22T04:09:13Z</time>
            </trkpt>
            <trkpt lon="101.024365" lat="13.024806">
                <ele>103.100000</ele>
                <time>2018-07-22T04:09:14Z</time>
            </trkpt>
            <trkpt lon="101.024378" lat="13.024844">
                <ele>102.800000</ele>
                <time>2018-07-22T04:09:15Z</time>
            </trkpt>
            <trkpt lon="101.024391" lat="13.024877">
                <ele>102.800000</ele>
                <time>2018-07-22T04:09:16Z</time>
            </trkpt>
            <trkpt lon="101.024404" lat="13.024916">
                <ele>103.800000</ele>
                <time>2018-07-22T04:09:17Z</time>
            </trkpt>
            <trkpt lon="101.024421" lat="13.024952">
                <ele>103.500000</ele>
                <time>2018-07-22T04:09:18Z</time>
            </trkpt>
            <trkpt lon="101.024446" lat="13.024988">
                <ele>104.200000</ele>
                <time>2018-07-22T04:09:19Z</time>
            </trkpt>
            <trkpt lon="101.024474" lat="13.025034">
                <ele>103.800000</ele>
                <time>2018-07-22T04:09:20Z</time>
            </trkpt>
            <trkpt lon="101.024505" lat="13.025077">
                <ele>104.500000</ele>
                <time>2018-07-22T04:09:21Z</time>
            </trkpt>
            <trkpt lon="101.024532" lat="13.025113">
                <ele>105.200000</ele>
                <time>2018-07-22T04:09:22Z</time>
            </trkpt>
            <trkpt lon="101.024561" lat="13.025157">
                <ele>105.200000</ele>
                <time>2018-07-22T04:09:23Z</time>
            </trkpt>
            <trkpt lon="101.024599" lat="13.025201">
                <ele>105.400000</ele>
                <time>2018-07-22T04:09:24Z</time>
            </trkpt>
            <trkpt lon="101.024628" lat="13.025241">
                <ele>105.500000</ele>
                <time>2018-07-22T04:09:25Z</time>
            </trkpt>
            <trkpt lon="101.024661" lat="13.025285">
                <ele>105.300000</ele>
                <time>2018-07-22T04:09:26Z</time>
            </trkpt>
            <trkpt lon="101.024696" lat="13.025327">
                <ele>104.800000</ele>
                <time>2018-07-22T04:09:27Z</time>
            </trkpt>
            <trkpt lon="101.024724" lat="13.025364">
                <ele>104.400000</ele>
                <time>2018-07-22T04:09:28Z</time>
            </trkpt>
            <trkpt lon="101.024759" lat="13.025404">
                <ele>103.900000</ele>
                <time>2018-07-22T04:09:29Z</time>
            </trkpt>
            <trkpt lon="101.024796" lat="13.025446">
                <ele>103.400000</ele>
                <time>2018-07-22T04:09:30Z</time>
            </trkpt>
            <trkpt lon="101.024838" lat="13.025483">
                <ele>102.900000</ele>
                <time>2018-07-22T04:09:31Z</time>
            </trkpt>
            <trkpt lon="101.024877" lat="13.025515">
                <ele>102.300000</ele>
                <time>2018-07-22T04:09:32Z</time>
            </trkpt>
            <trkpt lon="101.024913" lat="13.025543">
                <ele>102.000000</ele>
                <time>2018-07-22T04:09:33Z</time>
            </trkpt>
            <trkpt lon="101.024953" lat="13.025574">
                <ele>101.300000</ele>
                <time>2018-07-22T04:09:34Z</time>
            </trkpt>
            <trkpt lon="101.024986" lat="13.025601">
                <ele>100.800000</ele>
                <time>2018-07-22T04:09:35Z</time>
            </trkpt>
            <trkpt lon="101.025014" lat="13.025631">
                <ele>100.500000</ele>
                <time>2018-07-22T04:09:36Z</time>
            </trkpt>
            <trkpt lon="101.025050" lat="13.025677">
                <ele>99.400000</ele>
                <time>2018-07-22T04:09:38Z</time>
            </trkpt>
            <trkpt lon="101.025066" lat="13.025700">
                <ele>99.400000</ele>
                <time>2018-07-22T04:09:39Z</time>
            </trkpt>
            <trkpt lon="101.025081" lat="13.025725">
                <ele>99.000000</ele>
                <time>2018-07-22T04:09:40Z</time>
            </trkpt>
            <trkpt lon="101.025100" lat="13.025750">
                <ele>99.000000</ele>
                <time>2018-07-22T04:09:41Z</time>
            </trkpt>
            <trkpt lon="101.025127" lat="13.025793">
                <ele>99.000000</ele>
                <time>2018-07-22T04:09:43Z</time>
            </trkpt>
            <trkpt lon="101.025134" lat="13.025822">
                <ele>99.000000</ele>
                <time>2018-07-22T04:09:44Z</time>
            </trkpt>
            <trkpt lon="101.025146" lat="13.025858">
                <ele>99.000000</ele>
                <time>2018-07-22T04:09:46Z</time>
            </trkpt>
            <trkpt lon="101.025177" lat="13.025865">
                <ele>99.000000</ele>
                <time>2018-07-22T04:09:49Z</time>
            </trkpt>
            <trkpt lon="101.025156" lat="13.025833">
                <ele>99.000000</ele>
                <time>2018-07-22T04:09:52Z</time>
            </trkpt>
            <trkpt lon="101.025129" lat="13.025811">
                <ele>99.000000</ele>
                <time>2018-07-22T04:09:54Z</time>
            </trkpt>
            <trkpt lon="101.025101" lat="13.025772">
                <ele>99.000000</ele>
                <time>2018-07-22T04:09:56Z</time>
            </trkpt>
            <trkpt lon="101.025079" lat="13.025743">
                <ele>99.000000</ele>
                <time>2018-07-22T04:09:58Z</time>
            </trkpt>
            <trkpt lon="101.025050" lat="13.025708">
                <ele>99.400000</ele>
                <time>2018-07-22T04:10:00Z</time>
            </trkpt>
            <trkpt lon="101.025013" lat="13.025670">
                <ele>100.000000</ele>
                <time>2018-07-22T04:10:02Z</time>
            </trkpt>
            <trkpt lon="101.024998" lat="13.025633">
                <ele>100.000000</ele>
                <time>2018-07-22T04:10:04Z</time>
            </trkpt>
            <trkpt lon="101.025028" lat="13.025600">
                <ele>100.500000</ele>
                <time>2018-07-22T04:10:06Z</time>
            </trkpt>
            <trkpt lon="101.025058" lat="13.025572">
                <ele>100.800000</ele>
                <time>2018-07-22T04:10:07Z</time>
            </trkpt>
            <trkpt lon="101.025080" lat="13.025535">
                <ele>101.200000</ele>
                <time>2018-07-22T04:10:08Z</time>
            </trkpt>
            <trkpt lon="101.025094" lat="13.025495">
                <ele>101.400000</ele>
                <time>2018-07-22T04:10:09Z</time>
            </trkpt>
            <trkpt lon="101.025109" lat="13.025468">
                <ele>101.400000</ele>
                <time>2018-07-22T04:10:10Z</time>
            </trkpt>
            <trkpt lon="101.025127" lat="13.025448">
                <ele>101.300000</ele>
                <time>2018-07-22T04:10:11Z</time>
            </trkpt>
            <trkpt lon="101.025139" lat="13.025411">
                <ele>101.700000</ele>
                <time>2018-07-22T04:10:13Z</time>
            </trkpt>
            <trkpt lon="101.025153" lat="13.025381">
                <ele>101.700000</ele>
                <time>2018-07-22T04:10:15Z</time>
            </trkpt>
            <trkpt lon="101.025181" lat="13.025353">
                <ele>101.600000</ele>
                <time>2018-07-22T04:10:17Z</time>
            </trkpt>
            <trkpt lon="101.025187" lat="13.025313">
                <ele>102.100000</ele>
                <time>2018-07-22T04:10:19Z</time>
            </trkpt>
            <trkpt lon="101.025187" lat="13.025282">
                <ele>102.600000</ele>
                <time>2018-07-22T04:10:21Z</time>
            </trkpt>
            <trkpt lon="101.025200" lat="13.025253">
                <ele>103.000000</ele>
                <time>2018-07-22T04:10:24Z</time>
            </trkpt>
            <trkpt lon="101.025214" lat="13.025223">
                <ele>102.900000</ele>
                <time>2018-07-22T04:10:27Z</time>
            </trkpt>
            <trkpt lon="101.025221" lat="13.025192">
                <ele>103.200000</ele>
                <time>2018-07-22T04:10:30Z</time>
            </trkpt>
            <trkpt lon="101.025194" lat="13.025200">
                <ele>103.300000</ele>
                <time>2018-07-22T04:10:34Z</time>
            </trkpt>
            <trkpt lon="101.025169" lat="13.025253">
                <ele>103.000000</ele>
                <time>2018-07-22T04:10:36Z</time>
            </trkpt>
            <trkpt lon="101.025146" lat="13.025296">
                <ele>102.900000</ele>
                <time>2018-07-22T04:10:37Z</time>
            </trkpt>
            <trkpt lon="101.025118" lat="13.025340">
                <ele>102.500000</ele>
                <time>2018-07-22T04:10:38Z</time>
            </trkpt>
            <trkpt lon="101.025089" lat="13.025380">
                <ele>102.500000</ele>
                <time>2018-07-22T04:10:39Z</time>
            </trkpt>
            <trkpt lon="101.025056" lat="13.025422">
                <ele>102.600000</ele>
                <time>2018-07-22T04:10:40Z</time>
            </trkpt>
            <trkpt lon="101.025039" lat="13.025459">
                <ele>102.200000</ele>
                <time>2018-07-22T04:10:41Z</time>
            </trkpt>
            <trkpt lon="101.025030" lat="13.025497">
                <ele>102.000000</ele>
                <time>2018-07-22T04:10:42Z</time>
            </trkpt>
            <trkpt lon="101.025039" lat="13.025544">
                <ele>101.200000</ele>
                <time>2018-07-22T04:10:43Z</time>
            </trkpt>
            <trkpt lon="101.025055" lat="13.025580">
                <ele>100.800000</ele>
                <time>2018-07-22T04:10:44Z</time>
            </trkpt>
            <trkpt lon="101.025078" lat="13.025619">
                <ele>100.300000</ele>
                <time>2018-07-22T04:10:45Z</time>
            </trkpt>
            <trkpt lon="101.025090" lat="13.025666">
                <ele>99.700000</ele>
                <time>2018-07-22T04:10:46Z</time>
            </trkpt>
            <trkpt lon="101.025107" lat="13.025716">
                <ele>99.000000</ele>
                <time>2018-07-22T04:10:47Z</time>
            </trkpt>
            <trkpt lon="101.025123" lat="13.025757">
                <ele>99.000000</ele>
                <time>2018-07-22T04:10:48Z</time>
            </trkpt>
            <trkpt lon="101.025137" lat="13.025801">
                <ele>99.000000</ele>
                <time>2018-07-22T04:10:49Z</time>
            </trkpt>
            <trkpt lon="101.025148" lat="13.025843">
                <ele>99.000000</ele>
                <time>2018-07-22T04:10:50Z</time>
            </trkpt>
            <trkpt lon="101.025157" lat="13.025888">
                <ele>99.100000</ele>
                <time>2018-07-22T04:10:51Z</time>
            </trkpt>
            <trkpt lon="101.025172" lat="13.025930">
                <ele>99.300000</ele>
                <time>2018-07-22T04:10:52Z</time>
            </trkpt>
            <trkpt lon="101.025186" lat="13.025969">
                <ele>99.700000</ele>
                <time>2018-07-22T04:10:53Z</time>
            </trkpt>
            <trkpt lon="101.025203" lat="13.025994">
                <ele>99.700000</ele>
                <time>2018-07-22T04:10:54Z</time>
            </trkpt>
            <trkpt lon="101.025225" lat="13.026014">
                <ele>99.800000</ele>
                <time>2018-07-22T04:10:55Z</time>
            </trkpt>
            <trkpt lon="101.025266" lat="13.026040">
                <ele>99.600000</ele>
                <time>2018-07-22T04:10:57Z</time>
            </trkpt>
            <trkpt lon="101.025279" lat="13.026067">
                <ele>99.800000</ele>
                <time>2018-07-22T04:11:01Z</time>
            </trkpt>
            <trkpt lon="101.025283" lat="13.026109">
                <ele>100.100000</ele>
                <time>2018-07-22T04:11:03Z</time>
            </trkpt>
            <trkpt lon="101.025263" lat="13.026158">
                <ele>100.300000</ele>
                <time>2018-07-22T04:11:05Z</time>
            </trkpt>
            <trkpt lon="101.025245" lat="13.026184">
                <ele>100.800000</ele>
                <time>2018-07-22T04:11:06Z</time>
            </trkpt>
            <trkpt lon="101.025219" lat="13.026209">
                <ele>100.800000</ele>
                <time>2018-07-22T04:11:07Z</time>
            </trkpt>
            <trkpt lon="101.025195" lat="13.026235">
                <ele>101.500000</ele>
                <time>2018-07-22T04:11:08Z</time>
            </trkpt>
            <trkpt lon="101.025180" lat="13.026262">
                <ele>102.000000</ele>
                <time>2018-07-22T04:11:09Z</time>
            </trkpt>
            <trkpt lon="101.025163" lat="13.026306">
                <ele>102.800000</ele>
                <time>2018-07-22T04:11:11Z</time>
            </trkpt>
            <trkpt lon="101.025146" lat="13.026333">
                <ele>102.800000</ele>
                <time>2018-07-22T04:11:12Z</time>
            </trkpt>
            <trkpt lon="101.025132" lat="13.026356">
                <ele>103.300000</ele>
                <time>2018-07-22T04:11:13Z</time>
            </trkpt>
            <trkpt lon="101.025106" lat="13.026390">
                <ele>103.800000</ele>
                <time>2018-07-22T04:11:15Z</time>
            </trkpt>
            <trkpt lon="101.025088" lat="13.026431">
                <ele>104.100000</ele>
                <time>2018-07-22T04:11:17Z</time>
            </trkpt>
            <trkpt lon="101.025086" lat="13.026459">
                <ele>104.100000</ele>
                <time>2018-07-22T04:11:19Z</time>
            </trkpt>
            <trkpt lon="101.025065" lat="13.026492">
                <ele>104.600000</ele>
                <time>2018-07-22T04:11:22Z</time>
            </trkpt>
            <trkpt lon="101.025042" lat="13.026518">
                <ele>104.800000</ele>
                <time>2018-07-22T04:11:25Z</time>
            </trkpt>
            <trkpt lon="101.025017" lat="13.026543">
                <ele>105.200000</ele>
                <time>2018-07-22T04:11:29Z</time>
            </trkpt>
            <trkpt lon="101.024986" lat="13.026537">
                <ele>105.700000</ele>
                <time>2018-07-22T04:11:37Z</time>
            </trkpt>
            <trkpt lon="101.024958" lat="13.026542">
                <ele>105.700000</ele>
                <time>2018-07-22T04:11:45Z</time>
            </trkpt>
            <trkpt lon="101.024934" lat="13.026564">
                <ele>106.600000</ele>
                <time>2018-07-22T04:11:55Z</time>
            </trkpt>
            <trkpt lon="101.024938" lat="13.026595">
                <ele>107.100000</ele>
                <time>2018-07-22T04:11:57Z</time>
            </trkpt>
            <trkpt lon="101.024952" lat="13.026620">
                <ele>106.600000</ele>
                <time>2018-07-22T04:12:00Z</time>
            </trkpt>
            <trkpt lon="101.024973" lat="13.026638">
                <ele>107.100000</ele>
                <time>2018-07-22T04:12:06Z</time>
            </trkpt>
            <trkpt lon="101.024984" lat="13.026681">
                <ele>107.600000</ele>
                <time>2018-07-22T04:12:12Z</time>
            </trkpt>
            <trkpt lon="101.024983" lat="13.026712">
                <ele>107.600000</ele>
                <time>2018-07-22T04:12:14Z</time>
            </trkpt>
            <trkpt lon="101.024990" lat="13.026740">
                <ele>108.300000</ele>
                <time>2018-07-22T04:12:17Z</time>
            </trkpt>
            <trkpt lon="101.024987" lat="13.026776">
                <ele>108.900000</ele>
                <time>2018-07-22T04:12:21Z</time>
            </trkpt>
            <trkpt lon="101.024985" lat="13.026809">
                <ele>109.600000</ele>
                <time>2018-07-22T04:12:27Z</time>
            </trkpt>
            <trkpt lon="101.025014" lat="13.026805">
                <ele>109.200000</ele>
                <time>2018-07-22T04:12:33Z</time>
            </trkpt>
            <trkpt lon="101.025003" lat="13.026776">
                <ele>108.500000</ele>
                <time>2018-07-22T04:12:42Z</time>
            </trkpt>
            <trkpt lon="101.024997" lat="13.026743">
                <ele>107.800000</ele>
                <time>2018-07-22T04:12:43Z</time>
            </trkpt>
            <trkpt lon="101.024999" lat="13.026693">
                <ele>107.100000</ele>
                <time>2018-07-22T04:12:45Z</time>
            </trkpt>
            <trkpt lon="101.025009" lat="13.026655">
                <ele>106.600000</ele>
                <time>2018-07-22T04:12:46Z</time>
            </trkpt>
            <trkpt lon="101.025016" lat="13.026601">
                <ele>106.100000</ele>
                <time>2018-07-22T04:12:48Z</time>
            </trkpt>
            <trkpt lon="101.025021" lat="13.026568">
                <ele>105.600000</ele>
                <time>2018-07-22T04:12:49Z</time>
            </trkpt>
            <trkpt lon="101.025042" lat="13.026536">
                <ele>104.800000</ele>
                <time>2018-07-22T04:12:50Z</time>
            </trkpt>
            <trkpt lon="101.025065" lat="13.026500">
                <ele>104.600000</ele>
                <time>2018-07-22T04:12:51Z</time>
            </trkpt>
            <trkpt lon="101.025085" lat="13.026450">
                <ele>104.100000</ele>
                <time>2018-07-22T04:12:52Z</time>
            </trkpt>
            <trkpt lon="101.025118" lat="13.026403">
                <ele>103.800000</ele>
                <time>2018-07-22T04:12:53Z</time>
            </trkpt>
            <trkpt lon="101.025148" lat="13.026368">
                <ele>103.300000</ele>
                <time>2018-07-22T04:12:54Z</time>
            </trkpt>
            <trkpt lon="101.025180" lat="13.026333">
                <ele>102.500000</ele>
                <time>2018-07-22T04:12:55Z</time>
            </trkpt>
            <trkpt lon="101.025219" lat="13.026295">
                <ele>101.700000</ele>
                <time>2018-07-22T04:12:56Z</time>
            </trkpt>
            <trkpt lon="101.025246" lat="13.026257">
                <ele>101.300000</ele>
                <time>2018-07-22T04:12:57Z</time>
            </trkpt>
            <trkpt lon="101.025265" lat="13.026216">
                <ele>100.600000</ele>
                <time>2018-07-22T04:12:58Z</time>
            </trkpt>
            <trkpt lon="101.025278" lat="13.026169">
                <ele>100.300000</ele>
                <time>2018-07-22T04:12:59Z</time>
            </trkpt>
            <trkpt lon="101.025273" lat="13.026126">
                <ele>100.100000</ele>
                <time>2018-07-22T04:13:00Z</time>
            </trkpt>
            <trkpt lon="101.025255" lat="13.026086">
                <ele>99.800000</ele>
                <time>2018-07-22T04:13:01Z</time>
            </trkpt>
            <trkpt lon="101.025239" lat="13.026057">
                <ele>100.100000</ele>
                <time>2018-07-22T04:13:02Z</time>
            </trkpt>
            <trkpt lon="101.025216" lat="13.026029">
                <ele>99.800000</ele>
                <time>2018-07-22T04:13:03Z</time>
            </trkpt>
            <trkpt lon="101.025198" lat="13.025992">
                <ele>99.700000</ele>
                <time>2018-07-22T04:13:04Z</time>
            </trkpt>
            <trkpt lon="101.025179" lat="13.025956">
                <ele>99.300000</ele>
                <time>2018-07-22T04:13:05Z</time>
            </trkpt>
            <trkpt lon="101.025167" lat="13.025929">
                <ele>99.300000</ele>
                <time>2018-07-22T04:13:06Z</time>
            </trkpt>
            <trkpt lon="101.025152" lat="13.025905">
                <ele>99.100000</ele>
                <time>2018-07-22T04:13:07Z</time>
            </trkpt>
            <trkpt lon="101.025135" lat="13.025883">
                <ele>99.100000</ele>
                <time>2018-07-22T04:13:08Z</time>
            </trkpt>
            <trkpt lon="101.025120" lat="13.025845">
                <ele>99.000000</ele>
                <time>2018-07-22T04:13:10Z</time>
            </trkpt>
            <trkpt lon="101.025108" lat="13.025812">
                <ele>99.000000</ele>
                <time>2018-07-22T04:13:11Z</time>
            </trkpt>
            <trkpt lon="101.025091" lat="13.025779">
                <ele>99.000000</ele>
                <time>2018-07-22T04:13:13Z</time>
            </trkpt>
            <trkpt lon="101.025069" lat="13.025750">
                <ele>99.000000</ele>
                <time>2018-07-22T04:13:15Z</time>
            </trkpt>
            <trkpt lon="101.025047" lat="13.025723">
                <ele>99.000000</ele>
                <time>2018-07-22T04:13:17Z</time>
            </trkpt>
            <trkpt lon="101.025019" lat="13.025685">
                <ele>99.500000</ele>
                <time>2018-07-22T04:13:19Z</time>
            </trkpt>
            <trkpt lon="101.025016" lat="13.025649">
                <ele>100.000000</ele>
                <time>2018-07-22T04:13:21Z</time>
            </trkpt>
            <trkpt lon="101.025054" lat="13.025597">
                <ele>100.300000</ele>
                <time>2018-07-22T04:13:23Z</time>
            </trkpt>
            <trkpt lon="101.025074" lat="13.025552">
                <ele>100.800000</ele>
                <time>2018-07-22T04:13:24Z</time>
            </trkpt>
            <trkpt lon="101.025087" lat="13.025506">
                <ele>101.400000</ele>
                <time>2018-07-22T04:13:25Z</time>
            </trkpt>
            <trkpt lon="101.025093" lat="13.025468">
                <ele>101.400000</ele>
                <time>2018-07-22T04:13:26Z</time>
            </trkpt>
            <trkpt lon="101.025103" lat="13.025437">
                <ele>101.800000</ele>
                <time>2018-07-22T04:13:27Z</time>
            </trkpt>
            <trkpt lon="101.025116" lat="13.025402">
                <ele>102.200000</ele>
                <time>2018-07-22T04:13:28Z</time>
            </trkpt>
            <trkpt lon="101.025127" lat="13.025370">
                <ele>102.100000</ele>
                <time>2018-07-22T04:13:29Z</time>
            </trkpt>
            <trkpt lon="101.025137" lat="13.025339">
                <ele>102.100000</ele>
                <time>2018-07-22T04:13:30Z</time>
            </trkpt>
            <trkpt lon="101.025149" lat="13.025306">
                <ele>102.500000</ele>
                <time>2018-07-22T04:13:31Z</time>
            </trkpt>
            <trkpt lon="101.025158" lat="13.025271">
                <ele>102.900000</ele>
                <time>2018-07-22T04:13:32Z</time>
            </trkpt>
            <trkpt lon="101.025171" lat="13.025223">
                <ele>103.000000</ele>
                <time>2018-07-22T04:13:34Z</time>
            </trkpt>
            <trkpt lon="101.025188" lat="13.025192">
                <ele>103.300000</ele>
                <time>2018-07-22T04:13:35Z</time>
            </trkpt>
            <trkpt lon="101.025201" lat="13.025161">
                <ele>103.600000</ele>
                <time>2018-07-22T04:13:36Z</time>
            </trkpt>
            <trkpt lon="101.025223" lat="13.025129">
                <ele>103.800000</ele>
                <time>2018-07-22T04:13:37Z</time>
            </trkpt>
            <trkpt lon="101.025250" lat="13.025097">
                <ele>103.800000</ele>
                <time>2018-07-22T04:13:38Z</time>
            </trkpt>
            <trkpt lon="101.025279" lat="13.025056">
                <ele>104.300000</ele>
                <time>2018-07-22T04:13:39Z</time>
            </trkpt>
            <trkpt lon="101.025304" lat="13.025025">
                <ele>105.000000</ele>
                <time>2018-07-22T04:13:40Z</time>
            </trkpt>
            <trkpt lon="101.025325" lat="13.024989">
                <ele>105.500000</ele>
                <time>2018-07-22T04:13:41Z</time>
            </trkpt>
            <trkpt lon="101.025345" lat="13.024960">
                <ele>106.200000</ele>
                <time>2018-07-22T04:13:42Z</time>
            </trkpt>
            <trkpt lon="101.025365" lat="13.024925">
                <ele>106.200000</ele>
                <time>2018-07-22T04:13:43Z</time>
            </trkpt>
            <trkpt lon="101.025383" lat="13.024889">
                <ele>107.100000</ele>
                <time>2018-07-22T04:13:44Z</time>
            </trkpt>
            <trkpt lon="101.025407" lat="13.024850">
                <ele>107.400000</ele>
                <time>2018-07-22T04:13:45Z</time>
            </trkpt>
            <trkpt lon="101.025430" lat="13.024825">
                <ele>108.200000</ele>
                <time>2018-07-22T04:13:46Z</time>
            </trkpt>
            <trkpt lon="101.025458" lat="13.024793">
                <ele>108.400000</ele>
                <time>2018-07-22T04:13:47Z</time>
            </trkpt>
            <trkpt lon="101.025472" lat="13.024753">
                <ele>109.200000</ele>
                <time>2018-07-22T04:13:48Z</time>
            </trkpt>
            <trkpt lon="101.025480" lat="13.024721">
                <ele>109.200000</ele>
                <time>2018-07-22T04:13:49Z</time>
            </trkpt>
            <trkpt lon="101.025498" lat="13.024684">
                <ele>109.600000</ele>
                <time>2018-07-22T04:13:51Z</time>
            </trkpt>
            <trkpt lon="101.025518" lat="13.024649">
                <ele>110.300000</ele>
                <time>2018-07-22T04:13:53Z</time>
            </trkpt>
            <trkpt lon="101.025536" lat="13.024619">
                <ele>110.600000</ele>
                <time>2018-07-22T04:13:54Z</time>
            </trkpt>
            <trkpt lon="101.025546" lat="13.024585">
                <ele>110.900000</ele>
                <time>2018-07-22T04:13:55Z</time>
            </trkpt>
            <trkpt lon="101.025549" lat="13.024539">
                <ele>111.000000</ele>
                <time>2018-07-22T04:13:57Z</time>
            </trkpt>
            <trkpt lon="101.025555" lat="13.024508">
                <ele>111.000000</ele>
                <time>2018-07-22T04:13:58Z</time>
            </trkpt>
            <trkpt lon="101.025566" lat="13.024479">
                <ele>110.900000</ele>
                <time>2018-07-22T04:13:59Z</time>
            </trkpt>
            <trkpt lon="101.025591" lat="13.024435">
                <ele>110.900000</ele>
                <time>2018-07-22T04:14:01Z</time>
            </trkpt>
            <trkpt lon="101.025644" lat="13.024431">
                <ele>110.600000</ele>
                <time>2018-07-22T04:14:03Z</time>
            </trkpt>
            <trkpt lon="101.025671" lat="13.024426">
                <ele>110.600000</ele>
                <time>2018-07-22T04:14:04Z</time>
            </trkpt>
            <trkpt lon="101.025714" lat="13.024420">
                <ele>110.400000</ele>
                <time>2018-07-22T04:14:05Z</time>
            </trkpt>
            <trkpt lon="101.025742" lat="13.024411">
                <ele>110.200000</ele>
                <time>2018-07-22T04:14:06Z</time>
            </trkpt>
            <trkpt lon="101.025783" lat="13.024399">
                <ele>110.500000</ele>
                <time>2018-07-22T04:14:08Z</time>
            </trkpt>
            <trkpt lon="101.025819" lat="13.024390">
                <ele>110.700000</ele>
                <time>2018-07-22T04:14:09Z</time>
            </trkpt>
            <trkpt lon="101.025848" lat="13.024379">
                <ele>110.700000</ele>
                <time>2018-07-22T04:14:10Z</time>
            </trkpt>
            <trkpt lon="101.025890" lat="13.024364">
                <ele>110.900000</ele>
                <time>2018-07-22T04:14:13Z</time>
            </trkpt>
            <trkpt lon="101.025920" lat="13.024351">
                <ele>111.400000</ele>
                <time>2018-07-22T04:14:15Z</time>
            </trkpt>
            <trkpt lon="101.025969" lat="13.024333">
                <ele>112.300000</ele>
                <time>2018-07-22T04:14:17Z</time>
            </trkpt>
            <trkpt lon="101.026001" lat="13.024299">
                <ele>113.200000</ele>
                <time>2018-07-22T04:14:19Z</time>
            </trkpt>
            <trkpt lon="101.026039" lat="13.024281">
                <ele>113.900000</ele>
                <time>2018-07-22T04:14:21Z</time>
            </trkpt>
            <trkpt lon="101.026072" lat="13.024273">
                <ele>114.500000</ele>
                <time>2018-07-22T04:14:24Z</time>
            </trkpt>
            <trkpt lon="101.026099" lat="13.024266">
                <ele>114.500000</ele>
                <time>2018-07-22T04:14:26Z</time>
            </trkpt>
            <trkpt lon="101.026131" lat="13.024256">
                <ele>115.000000</ele>
                <time>2018-07-22T04:14:28Z</time>
            </trkpt>
            <trkpt lon="101.026164" lat="13.024245">
                <ele>115.300000</ele>
                <time>2018-07-22T04:14:31Z</time>
            </trkpt>
            <trkpt lon="101.026204" lat="13.024233">
                <ele>115.800000</ele>
                <time>2018-07-22T04:14:33Z</time>
            </trkpt>
            <trkpt lon="101.026232" lat="13.024223">
                <ele>115.800000</ele>
                <time>2018-07-22T04:14:35Z</time>
            </trkpt>
            <trkpt lon="101.026264" lat="13.024212">
                <ele>116.300000</ele>
                <time>2018-07-22T04:14:38Z</time>
            </trkpt>
            <trkpt lon="101.026286" lat="13.024190">
                <ele>116.600000</ele>
                <time>2018-07-22T04:14:40Z</time>
            </trkpt>
            <trkpt lon="101.026314" lat="13.024181">
                <ele>116.600000</ele>
                <time>2018-07-22T04:14:42Z</time>
            </trkpt>
            <trkpt lon="101.026343" lat="13.024167">
                <ele>117.000000</ele>
                <time>2018-07-22T04:14:45Z</time>
            </trkpt>
            <trkpt lon="101.026373" lat="13.024149">
                <ele>117.600000</ele>
                <time>2018-07-22T04:14:49Z</time>
            </trkpt>
            <trkpt lon="101.026399" lat="13.024131">
                <ele>117.600000</ele>
                <time>2018-07-22T04:14:52Z</time>
            </trkpt>
            <trkpt lon="101.026419" lat="13.024102">
                <ele>118.200000</ele>
                <time>2018-07-22T04:14:54Z</time>
            </trkpt>
            <trkpt lon="101.026438" lat="13.024082">
                <ele>118.200000</ele>
                <time>2018-07-22T04:14:56Z</time>
            </trkpt>
            <trkpt lon="101.026470" lat="13.024070">
                <ele>118.700000</ele>
                <time>2018-07-22T04:14:58Z</time>
            </trkpt>
            <trkpt lon="101.026503" lat="13.024052">
                <ele>119.300000</ele>
                <time>2018-07-22T04:15:00Z</time>
            </trkpt>
            <trkpt lon="101.026524" lat="13.024027">
                <ele>118.900000</ele>
                <time>2018-07-22T04:15:02Z</time>
            </trkpt>
            <trkpt lon="101.026545" lat="13.024008">
                <ele>119.400000</ele>
                <time>2018-07-22T04:15:04Z</time>
            </trkpt>
            <trkpt lon="101.026574" lat="13.023998">
                <ele>118.900000</ele>
                <time>2018-07-22T04:15:06Z</time>
            </trkpt>
            <trkpt lon="101.026602" lat="13.023990">
                <ele>119.300000</ele>
                <time>2018-07-22T04:15:08Z</time>
            </trkpt>
            <trkpt lon="101.026628" lat="13.023974">
                <ele>119.700000</ele>
                <time>2018-07-22T04:15:10Z</time>
            </trkpt>
            <trkpt lon="101.026660" lat="13.023956">
                <ele>119.200000</ele>
                <time>2018-07-22T04:15:14Z</time>
            </trkpt>
            <trkpt lon="101.026692" lat="13.023940">
                <ele>119.700000</ele>
                <time>2018-07-22T04:15:17Z</time>
            </trkpt>
            <trkpt lon="101.026722" lat="13.023929">
                <ele>120.100000</ele>
                <time>2018-07-22T04:15:19Z</time>
            </trkpt>
            <trkpt lon="101.026758" lat="13.023921">
                <ele>120.400000</ele>
                <time>2018-07-22T04:15:21Z</time>
            </trkpt>
            <trkpt lon="101.026788" lat="13.023913">
                <ele>120.200000</ele>
                <time>2018-07-22T04:15:23Z</time>
            </trkpt>
            <trkpt lon="101.026812" lat="13.023894">
                <ele>120.400000</ele>
                <time>2018-07-22T04:15:25Z</time>
            </trkpt>
            <trkpt lon="101.026851" lat="13.023880">
                <ele>120.700000</ele>
                <time>2018-07-22T04:15:27Z</time>
            </trkpt>
            <trkpt lon="101.026882" lat="13.023863">
                <ele>120.400000</ele>
                <time>2018-07-22T04:15:29Z</time>
            </trkpt>
            <trkpt lon="101.026917" lat="13.023850">
                <ele>120.600000</ele>
                <time>2018-07-22T04:15:31Z</time>
            </trkpt>
            <trkpt lon="101.026975" lat="13.023834">
                <ele>120.800000</ele>
                <time>2018-07-22T04:15:33Z</time>
            </trkpt>
            <trkpt lon="101.027018" lat="13.023833">
                <ele>120.600000</ele>
                <time>2018-07-22T04:15:34Z</time>
            </trkpt>
            <trkpt lon="101.027065" lat="13.023830">
                <ele>120.600000</ele>
                <time>2018-07-22T04:15:35Z</time>
            </trkpt>
            <trkpt lon="101.027120" lat="13.023838">
                <ele>120.700000</ele>
                <time>2018-07-22T04:15:36Z</time>
            </trkpt>
            <trkpt lon="101.027181" lat="13.023847">
                <ele>120.500000</ele>
                <time>2018-07-22T04:15:37Z</time>
            </trkpt>
            <trkpt lon="101.027238" lat="13.023857">
                <ele>120.000000</ele>
                <time>2018-07-22T04:15:38Z</time>
            </trkpt>
            <trkpt lon="101.027293" lat="13.023876">
                <ele>119.900000</ele>
                <time>2018-07-22T04:15:39Z</time>
            </trkpt>
            <trkpt lon="101.027336" lat="13.023895">
                <ele>119.400000</ele>
                <time>2018-07-22T04:15:40Z</time>
            </trkpt>
            <trkpt lon="101.027367" lat="13.023909">
                <ele>118.900000</ele>
                <time>2018-07-22T04:15:41Z</time>
            </trkpt>
            <trkpt lon="101.027423" lat="13.023921">
                <ele>118.700000</ele>
                <time>2018-07-22T04:15:43Z</time>
            </trkpt>
            <trkpt lon="101.027456" lat="13.023925">
                <ele>118.200000</ele>
                <time>2018-07-22T04:15:48Z</time>
            </trkpt>
            <trkpt lon="101.027491" lat="13.023932">
                <ele>117.700000</ele>
                <time>2018-07-22T04:15:51Z</time>
            </trkpt>
            <trkpt lon="101.027453" lat="13.023946">
                <ele>118.200000</ele>
                <time>2018-07-22T04:16:05Z</time>
            </trkpt>
            <trkpt lon="101.027475" lat="13.023928">
                <ele>118.200000</ele>
                <time>2018-07-22T04:16:06Z</time>
            </trkpt>
            <trkpt lon="101.027484" lat="13.023895">
                <ele>117.400000</ele>
                <time>2018-07-22T04:16:08Z</time>
            </trkpt>
            <trkpt lon="101.027500" lat="13.023847">
                <ele>117.200000</ele>
                <time>2018-07-22T04:16:10Z</time>
            </trkpt>
            <trkpt lon="101.027509" lat="13.023896">
                <ele>117.400000</ele>
                <time>2018-07-22T04:16:14Z</time>
            </trkpt>
            <trkpt lon="101.027506" lat="13.023857">
                <ele>117.200000</ele>
                <time>2018-07-22T04:16:16Z</time>
            </trkpt>
            <trkpt lon="101.027554" lat="13.023874">
                <ele>116.800000</ele>
                <time>2018-07-22T04:16:24Z</time>
            </trkpt>
            <trkpt lon="101.027557" lat="13.023947">
                <ele>117.200000</ele>
                <time>2018-07-22T04:16:27Z</time>
            </trkpt>
            <trkpt lon="101.027536" lat="13.023924">
                <ele>117.200000</ele>
                <time>2018-07-22T04:16:28Z</time>
            </trkpt>
            <trkpt lon="101.027509" lat="13.023895">
                <ele>117.400000</ele>
                <time>2018-07-22T04:16:30Z</time>
            </trkpt>
            <trkpt lon="101.027512" lat="13.023867">
                <ele>117.200000</ele>
                <time>2018-07-22T04:16:32Z</time>
            </trkpt>
            <trkpt lon="101.027530" lat="13.023893">
                <ele>116.900000</ele>
                <time>2018-07-22T04:16:39Z</time>
            </trkpt>
            <trkpt lon="101.027550" lat="13.023914">
                <ele>116.900000</ele>
                <time>2018-07-22T04:16:41Z</time>
            </trkpt>
            <trkpt lon="101.027529" lat="13.023934">
                <ele>117.200000</ele>
                <time>2018-07-22T04:16:47Z</time>
            </trkpt>
            <trkpt lon="101.027568" lat="13.023936">
                <ele>117.200000</ele>
                <time>2018-07-22T04:16:51Z</time>
            </trkpt>
            <trkpt lon="101.027574" lat="13.023908">
                <ele>116.400000</ele>
                <time>2018-07-22T04:16:59Z</time>
            </trkpt>
            <trkpt lon="101.027604" lat="13.023896">
                <ele>116.400000</ele>
                <time>2018-07-22T04:17:04Z</time>
            </trkpt>
            <trkpt lon="101.027577" lat="13.023913">
                <ele>116.400000</ele>
                <time>2018-07-22T04:17:10Z</time>
            </trkpt>
            <trkpt lon="101.027590" lat="13.023938">
                <ele>116.700000</ele>
                <time>2018-07-22T04:17:12Z</time>
            </trkpt>
            <trkpt lon="101.027616" lat="13.023956">
                <ele>116.200000</ele>
                <time>2018-07-22T04:17:21Z</time>
            </trkpt>
            <trkpt lon="101.027604" lat="13.023930">
                <ele>116.700000</ele>
                <time>2018-07-22T04:17:25Z</time>
            </trkpt>
            <trkpt lon="101.027630" lat="13.023945">
                <ele>116.200000</ele>
                <time>2018-07-22T04:17:34Z</time>
            </trkpt>
            <trkpt lon="101.027614" lat="13.023988">
                <ele>116.500000</ele>
                <time>2018-07-22T04:17:39Z</time>
            </trkpt>
            <trkpt lon="101.027596" lat="13.024010">
                <ele>117.200000</ele>
                <time>2018-07-22T04:17:45Z</time>
            </trkpt>
            <trkpt lon="101.027589" lat="13.023969">
                <ele>116.900000</ele>
                <time>2018-07-22T04:17:48Z</time>
            </trkpt>
            <trkpt lon="101.027595" lat="13.023935">
                <ele>116.700000</ele>
                <time>2018-07-22T04:17:50Z</time>
            </trkpt>
            <trkpt lon="101.027615" lat="13.023905">
                <ele>116.000000</ele>
                <time>2018-07-22T04:18:00Z</time>
            </trkpt>
            <trkpt lon="101.027639" lat="13.023856">
                <ele>115.900000</ele>
                <time>2018-07-22T04:18:04Z</time>
            </trkpt>
            <trkpt lon="101.027594" lat="13.023849">
                <ele>116.300000</ele>
                <time>2018-07-22T04:18:06Z</time>
            </trkpt>
            <trkpt lon="101.027552" lat="13.023834">
                <ele>116.800000</ele>
                <time>2018-07-22T04:18:07Z</time>
            </trkpt>
            <trkpt lon="101.027524" lat="13.023837">
                <ele>117.200000</ele>
                <time>2018-07-22T04:18:08Z</time>
            </trkpt>
            <trkpt lon="101.027556" lat="13.023872">
                <ele>116.800000</ele>
                <time>2018-07-22T04:18:16Z</time>
            </trkpt>
            <trkpt lon="101.027581" lat="13.023890">
                <ele>116.400000</ele>
                <time>2018-07-22T04:18:18Z</time>
            </trkpt>
            <trkpt lon="101.027589" lat="13.023916">
                <ele>116.400000</ele>
                <time>2018-07-22T04:18:20Z</time>
            </trkpt>
            <trkpt lon="101.027600" lat="13.023881">
                <ele>116.400000</ele>
                <time>2018-07-22T04:18:43Z</time>
            </trkpt>
            <trkpt lon="101.027578" lat="13.023859">
                <ele>116.300000</ele>
                <time>2018-07-22T04:18:44Z</time>
            </trkpt>
            <trkpt lon="101.027573" lat="13.023823">
                <ele>116.300000</ele>
                <time>2018-07-22T04:18:46Z</time>
            </trkpt>
            <trkpt lon="101.027587" lat="13.023781">
                <ele>116.200000</ele>
                <time>2018-07-22T04:18:49Z</time>
            </trkpt>
            <trkpt lon="101.027607" lat="13.023814">
                <ele>116.300000</ele>
                <time>2018-07-22T04:18:55Z</time>
            </trkpt>
            <trkpt lon="101.027612" lat="13.023788">
                <ele>116.200000</ele>
                <time>2018-07-22T04:18:59Z</time>
            </trkpt>
            <trkpt lon="101.027601" lat="13.023763">
                <ele>116.200000</ele>
                <time>2018-07-22T04:19:00Z</time>
            </trkpt>
            <trkpt lon="101.027586" lat="13.023739">
                <ele>116.200000</ele>
                <time>2018-07-22T04:19:02Z</time>
            </trkpt>
            <trkpt lon="101.027563" lat="13.023759">
                <ele>116.600000</ele>
                <time>2018-07-22T04:19:04Z</time>
            </trkpt>
            <trkpt lon="101.027592" lat="13.023775">
                <ele>116.200000</ele>
                <time>2018-07-22T04:19:14Z</time>
            </trkpt>
            <trkpt lon="101.027555" lat="13.023798">
                <ele>116.700000</ele>
                <time>2018-07-22T04:19:18Z</time>
            </trkpt>
            <trkpt lon="101.027515" lat="13.023838">
                <ele>117.200000</ele>
                <time>2018-07-22T04:19:22Z</time>
            </trkpt>
            <trkpt lon="101.027544" lat="13.023823">
                <ele>116.700000</ele>
                <time>2018-07-22T04:19:31Z</time>
            </trkpt>
            <trkpt lon="101.027522" lat="13.023845">
                <ele>117.200000</ele>
                <time>2018-07-22T04:19:36Z</time>
            </trkpt>
            <trkpt lon="101.027531" lat="13.023818">
                <ele>116.700000</ele>
                <time>2018-07-22T04:19:41Z</time>
            </trkpt>
            <trkpt lon="101.027507" lat="13.023834">
                <ele>117.200000</ele>
                <time>2018-07-22T04:19:43Z</time>
            </trkpt>
            <trkpt lon="101.027488" lat="13.023863">
                <ele>117.200000</ele>
                <time>2018-07-22T04:19:52Z</time>
            </trkpt>
            <trkpt lon="101.027514" lat="13.023878">
                <ele>117.400000</ele>
                <time>2018-07-22T04:20:00Z</time>
            </trkpt>
            <trkpt lon="101.027484" lat="13.023854">
                <ele>117.200000</ele>
                <time>2018-07-22T04:20:10Z</time>
            </trkpt>
            <trkpt lon="101.027521" lat="13.023887">
                <ele>117.400000</ele>
                <time>2018-07-22T04:20:12Z</time>
            </trkpt>
            <trkpt lon="101.027514" lat="13.023914">
                <ele>117.400000</ele>
                <time>2018-07-22T04:20:14Z</time>
            </trkpt>
            <trkpt lon="101.027535" lat="13.023882">
                <ele>116.900000</ele>
                <time>2018-07-22T04:20:17Z</time>
            </trkpt>
            <trkpt lon="101.027573" lat="13.023864">
                <ele>116.300000</ele>
                <time>2018-07-22T04:20:40Z</time>
            </trkpt>
            <trkpt lon="101.027543" lat="13.023880">
                <ele>116.900000</ele>
                <time>2018-07-22T04:21:02Z</time>
            </trkpt>
            <trkpt lon="101.027571" lat="13.023892">
                <ele>116.400000</ele>
                <time>2018-07-22T04:21:09Z</time>
            </trkpt>
            <trkpt lon="101.027603" lat="13.023887">
                <ele>116.400000</ele>
                <time>2018-07-22T04:21:14Z</time>
            </trkpt>
            <trkpt lon="101.027623" lat="13.023858">
                <ele>115.900000</ele>
                <time>2018-07-22T04:21:41Z</time>
            </trkpt>
            <trkpt lon="101.027610" lat="13.023885">
                <ele>116.400000</ele>
                <time>2018-07-22T04:22:01Z</time>
            </trkpt>
            <trkpt lon="101.027583" lat="13.023896">
                <ele>116.400000</ele>
                <time>2018-07-22T04:22:05Z</time>
            </trkpt>
            <trkpt lon="101.027613" lat="13.023919">
                <ele>116.200000</ele>
                <time>2018-07-22T04:22:11Z</time>
            </trkpt>
            <trkpt lon="101.027586" lat="13.023940">
                <ele>116.700000</ele>
                <time>2018-07-22T04:22:14Z</time>
            </trkpt>
            <trkpt lon="101.027617" lat="13.023935">
                <ele>116.200000</ele>
                <time>2018-07-22T04:22:30Z</time>
            </trkpt>
            <trkpt lon="101.027642" lat="13.023947">
                <ele>116.200000</ele>
                <time>2018-07-22T04:22:32Z</time>
            </trkpt>
            <trkpt lon="101.027608" lat="13.023945">
                <ele>116.700000</ele>
                <time>2018-07-22T04:22:45Z</time>
            </trkpt>
            <trkpt lon="101.027636" lat="13.023934">
                <ele>116.200000</ele>
                <time>2018-07-22T04:22:56Z</time>
            </trkpt>
            <trkpt lon="101.027670" lat="13.023928">
                <ele>116.000000</ele>
                <time>2018-07-22T04:23:04Z</time>
            </trkpt>
            <trkpt lon="101.027637" lat="13.023938">
                <ele>116.200000</ele>
                <time>2018-07-22T04:23:07Z</time>
            </trkpt>
            <trkpt lon="101.027607" lat="13.023950">
                <ele>116.700000</ele>
                <time>2018-07-22T04:23:10Z</time>
            </trkpt>
            <trkpt lon="101.027623" lat="13.023911">
                <ele>116.000000</ele>
                <time>2018-07-22T04:23:14Z</time>
            </trkpt>
            <trkpt lon="101.027647" lat="13.023882">
                <ele>116.000000</ele>
                <time>2018-07-22T04:23:21Z</time>
            </trkpt>
            <trkpt lon="101.027636" lat="13.023917">
                <ele>116.000000</ele>
                <time>2018-07-22T04:23:31Z</time>
            </trkpt>
            <trkpt lon="101.027557" lat="13.023967">
                <ele>117.400000</ele>
                <time>2018-07-22T04:23:45Z</time>
            </trkpt>
            <trkpt lon="101.027530" lat="13.023957">
                <ele>117.200000</ele>
                <time>2018-07-22T04:23:46Z</time>
            </trkpt>
            <trkpt lon="101.027498" lat="13.023943">
                <ele>117.700000</ele>
                <time>2018-07-22T04:23:47Z</time>
            </trkpt>
            <trkpt lon="101.027535" lat="13.023967">
                <ele>117.400000</ele>
                <time>2018-07-22T04:23:53Z</time>
            </trkpt>
            <trkpt lon="101.027564" lat="13.023976">
                <ele>117.400000</ele>
                <time>2018-07-22T04:23:56Z</time>
            </trkpt>
            <trkpt lon="101.027593" lat="13.023979">
                <ele>116.900000</ele>
                <time>2018-07-22T04:24:05Z</time>
            </trkpt>
            <trkpt lon="101.027586" lat="13.023952">
                <ele>116.700000</ele>
                <time>2018-07-22T04:24:24Z</time>
            </trkpt>
            <trkpt lon="101.027581" lat="13.023924">
                <ele>116.700000</ele>
                <time>2018-07-22T04:24:27Z</time>
            </trkpt>
            <trkpt lon="101.027615" lat="13.023911">
                <ele>116.000000</ele>
                <time>2018-07-22T04:24:55Z</time>
            </trkpt>
            <trkpt lon="101.027694" lat="13.023915">
                <ele>115.700000</ele>
                <time>2018-07-22T04:24:58Z</time>
            </trkpt>
            <trkpt lon="101.027650" lat="13.023924">
                <ele>116.200000</ele>
                <time>2018-07-22T04:25:03Z</time>
            </trkpt>
            <trkpt lon="101.027620" lat="13.023922">
                <ele>116.200000</ele>
                <time>2018-07-22T04:25:07Z</time>
            </trkpt>
            <trkpt lon="101.027649" lat="13.023926">
                <ele>116.200000</ele>
                <time>2018-07-22T04:25:09Z</time>
            </trkpt>
            <trkpt lon="101.027676" lat="13.023919">
                <ele>116.000000</ele>
                <time>2018-07-22T04:25:11Z</time>
            </trkpt>
            <trkpt lon="101.027702" lat="13.023952">
                <ele>115.700000</ele>
                <time>2018-07-22T04:25:19Z</time>
            </trkpt>
            <trkpt lon="101.027670" lat="13.024016">
                <ele>116.500000</ele>
                <time>2018-07-22T04:25:28Z</time>
            </trkpt>
            <trkpt lon="101.027730" lat="13.023998">
                <ele>116.000000</ele>
                <time>2018-07-22T04:25:40Z</time>
            </trkpt>
            <trkpt lon="101.027692" lat="13.024075">
                <ele>116.800000</ele>
                <time>2018-07-22T04:25:46Z</time>
            </trkpt>
            <trkpt lon="101.027643" lat="13.024083">
                <ele>117.100000</ele>
                <time>2018-07-22T04:25:51Z</time>
            </trkpt>
            <trkpt lon="101.027628" lat="13.024050">
                <ele>117.100000</ele>
                <time>2018-07-22T04:25:53Z</time>
            </trkpt>
            <trkpt lon="101.027605" lat="13.024023">
                <ele>117.200000</ele>
                <time>2018-07-22T04:25:58Z</time>
            </trkpt>
            <trkpt lon="101.027628" lat="13.023998">
                <ele>116.500000</ele>
                <time>2018-07-22T04:26:03Z</time>
            </trkpt>
            <trkpt lon="101.027662" lat="13.023998">
                <ele>116.200000</ele>
                <time>2018-07-22T04:26:04Z</time>
            </trkpt>
            <trkpt lon="101.027689" lat="13.024006">
                <ele>116.500000</ele>
                <time>2018-07-22T04:26:05Z</time>
            </trkpt>
            <trkpt lon="101.027743" lat="13.024015">
                <ele>116.000000</ele>
                <time>2018-07-22T04:26:07Z</time>
            </trkpt>
            <trkpt lon="101.027822" lat="13.024031">
                <ele>115.700000</ele>
                <time>2018-07-22T04:26:09Z</time>
            </trkpt>
            <trkpt lon="101.027865" lat="13.024041">
                <ele>115.500000</ele>
                <time>2018-07-22T04:26:10Z</time>
            </trkpt>
            <trkpt lon="101.027903" lat="13.024053">
                <ele>115.400000</ele>
                <time>2018-07-22T04:26:11Z</time>
            </trkpt>
            <trkpt lon="101.027943" lat="13.024055">
                <ele>115.200000</ele>
                <time>2018-07-22T04:26:12Z</time>
            </trkpt>
            <trkpt lon="101.027985" lat="13.024059">
                <ele>114.800000</ele>
                <time>2018-07-22T04:26:13Z</time>
            </trkpt>
            <trkpt lon="101.028036" lat="13.024068">
                <ele>114.300000</ele>
                <time>2018-07-22T04:26:14Z</time>
            </trkpt>
            <trkpt lon="101.028093" lat="13.024075">
                <ele>113.300000</ele>
                <time>2018-07-22T04:26:15Z</time>
            </trkpt>
            <trkpt lon="101.028147" lat="13.024075">
                <ele>112.900000</ele>
                <time>2018-07-22T04:26:16Z</time>
            </trkpt>
            <trkpt lon="101.028215" lat="13.024075">
                <ele>112.400000</ele>
                <time>2018-07-22T04:26:17Z</time>
            </trkpt>
            <trkpt lon="101.028274" lat="13.024086">
                <ele>112.200000</ele>
                <time>2018-07-22T04:26:18Z</time>
            </trkpt>
            <trkpt lon="101.028325" lat="13.024095">
                <ele>111.900000</ele>
                <time>2018-07-22T04:26:19Z</time>
            </trkpt>
            <trkpt lon="101.028379" lat="13.024103">
                <ele>111.700000</ele>
                <time>2018-07-22T04:26:20Z</time>
            </trkpt>
            <trkpt lon="101.028443" lat="13.024110">
                <ele>111.200000</ele>
                <time>2018-07-22T04:26:21Z</time>
            </trkpt>
            <trkpt lon="101.028495" lat="13.024117">
                <ele>110.900000</ele>
                <time>2018-07-22T04:26:22Z</time>
            </trkpt>
            <trkpt lon="101.028562" lat="13.024134">
                <ele>110.400000</ele>
                <time>2018-07-22T04:26:24Z</time>
            </trkpt>
            <trkpt lon="101.028623" lat="13.024138">
                <ele>110.200000</ele>
                <time>2018-07-22T04:26:25Z</time>
            </trkpt>
            <trkpt lon="101.028664" lat="13.024145">
                <ele>110.100000</ele>
                <time>2018-07-22T04:26:26Z</time>
            </trkpt>
            <trkpt lon="101.028721" lat="13.024152">
                <ele>110.300000</ele>
                <time>2018-07-22T04:26:27Z</time>
            </trkpt>
            <trkpt lon="101.028796" lat="13.024160">
                <ele>110.800000</ele>
                <time>2018-07-22T04:26:28Z</time>
            </trkpt>
            <trkpt lon="101.028869" lat="13.024172">
                <ele>111.100000</ele>
                <time>2018-07-22T04:26:29Z</time>
            </trkpt>
            <trkpt lon="101.028950" lat="13.024171">
                <ele>111.100000</ele>
                <time>2018-07-22T04:26:30Z</time>
            </trkpt>
            <trkpt lon="101.029003" lat="13.024170">
                <ele>111.100000</ele>
                <time>2018-07-22T04:26:31Z</time>
            </trkpt>
            <trkpt lon="101.029086" lat="13.024168">
                <ele>110.900000</ele>
                <time>2018-07-22T04:26:32Z</time>
            </trkpt>
            <trkpt lon="101.029157" lat="13.024165">
                <ele>110.600000</ele>
                <time>2018-07-22T04:26:33Z</time>
            </trkpt>
            <trkpt lon="101.029246" lat="13.024142">
                <ele>109.500000</ele>
                <time>2018-07-22T04:26:34Z</time>
            </trkpt>
            <trkpt lon="101.029296" lat="13.024137">
                <ele>109.100000</ele>
                <time>2018-07-22T04:26:35Z</time>
            </trkpt>
            <trkpt lon="101.029360" lat="13.024129">
                <ele>108.800000</ele>
                <time>2018-07-22T04:26:36Z</time>
            </trkpt>
            <trkpt lon="101.029412" lat="13.024120">
                <ele>109.000000</ele>
                <time>2018-07-22T04:26:37Z</time>
            </trkpt>
            <trkpt lon="101.029476" lat="13.024118">
                <ele>108.500000</ele>
                <time>2018-07-22T04:26:38Z</time>
            </trkpt>
            <trkpt lon="101.029532" lat="13.024113">
                <ele>108.300000</ele>
                <time>2018-07-22T04:26:39Z</time>
            </trkpt>
            <trkpt lon="101.029591" lat="13.024108">
                <ele>107.800000</ele>
                <time>2018-07-22T04:26:40Z</time>
            </trkpt>
            <trkpt lon="101.029643" lat="13.024093">
                <ele>107.500000</ele>
                <time>2018-07-22T04:26:41Z</time>
            </trkpt>
            <trkpt lon="101.029707" lat="13.024090">
                <ele>107.300000</ele>
                <time>2018-07-22T04:26:42Z</time>
            </trkpt>
            <trkpt lon="101.029762" lat="13.024082">
                <ele>107.800000</ele>
                <time>2018-07-22T04:26:43Z</time>
            </trkpt>
            <trkpt lon="101.029809" lat="13.024077">
                <ele>107.800000</ele>
                <time>2018-07-22T04:26:44Z</time>
            </trkpt>
            <trkpt lon="101.029854" lat="13.024065">
                <ele>107.800000</ele>
                <time>2018-07-22T04:26:45Z</time>
            </trkpt>
            <trkpt lon="101.029895" lat="13.024053">
                <ele>108.100000</ele>
                <time>2018-07-22T04:26:46Z</time>
            </trkpt>
            <trkpt lon="101.029963" lat="13.024040">
                <ele>109.000000</ele>
                <time>2018-07-22T04:26:48Z</time>
            </trkpt>
            <trkpt lon="101.030006" lat="13.024028">
                <ele>109.200000</ele>
                <time>2018-07-22T04:26:50Z</time>
            </trkpt>
            <trkpt lon="101.030044" lat="13.024015">
                <ele>109.400000</ele>
                <time>2018-07-22T04:26:51Z</time>
            </trkpt>
            <trkpt lon="101.030076" lat="13.024007">
                <ele>109.900000</ele>
                <time>2018-07-22T04:26:52Z</time>
            </trkpt>
            <trkpt lon="101.030109" lat="13.023991">
                <ele>110.700000</ele>
                <time>2018-07-22T04:26:53Z</time>
            </trkpt>
            <trkpt lon="101.030139" lat="13.023975">
                <ele>110.700000</ele>
                <time>2018-07-22T04:26:54Z</time>
            </trkpt>
            <trkpt lon="101.030183" lat="13.023962">
                <ele>111.100000</ele>
                <time>2018-07-22T04:26:56Z</time>
            </trkpt>
            <trkpt lon="101.030210" lat="13.023945">
                <ele>111.700000</ele>
                <time>2018-07-22T04:26:58Z</time>
            </trkpt>
            <trkpt lon="101.030249" lat="13.023927">
                <ele>111.800000</ele>
                <time>2018-07-22T04:27:00Z</time>
            </trkpt>
            <trkpt lon="101.030286" lat="13.023917">
                <ele>112.000000</ele>
                <time>2018-07-22T04:27:02Z</time>
            </trkpt>
            <trkpt lon="101.030322" lat="13.023906">
                <ele>112.000000</ele>
                <time>2018-07-22T04:27:04Z</time>
            </trkpt>
            <trkpt lon="101.030368" lat="13.023892">
                <ele>112.400000</ele>
                <time>2018-07-22T04:27:06Z</time>
            </trkpt>
            <trkpt lon="101.030412" lat="13.023871">
                <ele>112.800000</ele>
                <time>2018-07-22T04:27:08Z</time>
            </trkpt>
            <trkpt lon="101.030439" lat="13.023860">
                <ele>112.800000</ele>
                <time>2018-07-22T04:27:09Z</time>
            </trkpt>
            <trkpt lon="101.030468" lat="13.023847">
                <ele>113.300000</ele>
                <time>2018-07-22T04:27:11Z</time>
            </trkpt>
            <trkpt lon="101.030497" lat="13.023839">
                <ele>113.700000</ele>
                <time>2018-07-22T04:27:13Z</time>
            </trkpt>
            <trkpt lon="101.030527" lat="13.023826">
                <ele>113.500000</ele>
                <time>2018-07-22T04:27:15Z</time>
            </trkpt>
            <trkpt lon="101.030563" lat="13.023802">
                <ele>113.900000</ele>
                <time>2018-07-22T04:27:19Z</time>
            </trkpt>
            <trkpt lon="101.030590" lat="13.023777">
                <ele>113.900000</ele>
                <time>2018-07-22T04:27:23Z</time>
            </trkpt>
            <trkpt lon="101.030615" lat="13.023760">
                <ele>113.900000</ele>
                <time>2018-07-22T04:27:25Z</time>
            </trkpt>
            <trkpt lon="101.030643" lat="13.023724">
                <ele>113.800000</ele>
                <time>2018-07-22T04:27:28Z</time>
            </trkpt>
            <trkpt lon="101.030667" lat="13.023709">
                <ele>114.100000</ele>
                <time>2018-07-22T04:27:29Z</time>
            </trkpt>
            <trkpt lon="101.030705" lat="13.023686">
                <ele>114.400000</ele>
                <time>2018-07-22T04:27:31Z</time>
            </trkpt>
            <trkpt lon="101.030735" lat="13.023678">
                <ele>114.400000</ele>
                <time>2018-07-22T04:27:34Z</time>
            </trkpt>
            <trkpt lon="101.030741" lat="13.023647">
                <ele>114.300000</ele>
                <time>2018-07-22T04:27:36Z</time>
            </trkpt>
            <trkpt lon="101.030748" lat="13.023609">
                <ele>114.600000</ele>
                <time>2018-07-22T04:27:38Z</time>
            </trkpt>
            <trkpt lon="101.030753" lat="13.023580">
                <ele>114.500000</ele>
                <time>2018-07-22T04:27:39Z</time>
            </trkpt>
            <trkpt lon="101.030772" lat="13.023530">
                <ele>114.400000</ele>
                <time>2018-07-22T04:27:41Z</time>
            </trkpt>
            <trkpt lon="101.030788" lat="13.023493">
                <ele>114.400000</ele>
                <time>2018-07-22T04:27:43Z</time>
            </trkpt>
            <trkpt lon="101.030794" lat="13.023463">
                <ele>114.900000</ele>
                <time>2018-07-22T04:27:44Z</time>
            </trkpt>
            <trkpt lon="101.030802" lat="13.023434">
                <ele>114.900000</ele>
                <time>2018-07-22T04:27:45Z</time>
            </trkpt>
            <trkpt lon="101.030808" lat="13.023406">
                <ele>115.000000</ele>
                <time>2018-07-22T04:27:46Z</time>
            </trkpt>
            <trkpt lon="101.030814" lat="13.023368">
                <ele>114.900000</ele>
                <time>2018-07-22T04:27:49Z</time>
            </trkpt>
            <trkpt lon="101.030805" lat="13.023333">
                <ele>114.900000</ele>
                <time>2018-07-22T04:27:51Z</time>
            </trkpt>
            <trkpt lon="101.030818" lat="13.023277">
                <ele>114.400000</ele>
                <time>2018-07-22T04:27:53Z</time>
            </trkpt>
            <trkpt lon="101.030822" lat="13.023241">
                <ele>114.200000</ele>
                <time>2018-07-22T04:27:56Z</time>
            </trkpt>
            <trkpt lon="101.030832" lat="13.023201">
                <ele>115.000000</ele>
                <time>2018-07-22T04:27:58Z</time>
            </trkpt>
            <trkpt lon="101.030864" lat="13.023167">
                <ele>115.000000</ele>
                <time>2018-07-22T04:28:00Z</time>
            </trkpt>
            <trkpt lon="101.030887" lat="13.023140">
                <ele>116.200000</ele>
                <time>2018-07-22T04:28:02Z</time>
            </trkpt>
            <trkpt lon="101.030921" lat="13.023120">
                <ele>117.400000</ele>
                <time>2018-07-22T04:28:04Z</time>
            </trkpt>
            <trkpt lon="101.030956" lat="13.023104">
                <ele>117.400000</ele>
                <time>2018-07-22T04:28:07Z</time>
            </trkpt>
            <trkpt lon="101.030984" lat="13.023101">
                <ele>118.400000</ele>
                <time>2018-07-22T04:28:09Z</time>
            </trkpt>
            <trkpt lon="101.031013" lat="13.023103">
                <ele>119.400000</ele>
                <time>2018-07-22T04:28:11Z</time>
            </trkpt>
            <trkpt lon="101.031040" lat="13.023120">
                <ele>119.400000</ele>
                <time>2018-07-22T04:28:16Z</time>
            </trkpt>
            <trkpt lon="101.031087" lat="13.023125">
                <ele>120.400000</ele>
                <time>2018-07-22T04:28:18Z</time>
            </trkpt>
            <trkpt lon="101.031127" lat="13.023135">
                <ele>121.600000</ele>
                <time>2018-07-22T04:28:21Z</time>
            </trkpt>
            <trkpt lon="101.031163" lat="13.023136">
                <ele>122.900000</ele>
                <time>2018-07-22T04:28:24Z</time>
            </trkpt>
            <trkpt lon="101.031210" lat="13.023125">
                <ele>124.100000</ele>
                <time>2018-07-22T04:28:27Z</time>
            </trkpt>
            <trkpt lon="101.031244" lat="13.023126">
                <ele>125.200000</ele>
                <time>2018-07-22T04:28:29Z</time>
            </trkpt>
            <trkpt lon="101.031278" lat="13.023117">
                <ele>126.400000</ele>
                <time>2018-07-22T04:28:31Z</time>
            </trkpt>
            <trkpt lon="101.031311" lat="13.023110">
                <ele>127.400000</ele>
                <time>2018-07-22T04:28:34Z</time>
            </trkpt>
            <trkpt lon="101.031351" lat="13.023106">
                <ele>128.400000</ele>
                <time>2018-07-22T04:28:37Z</time>
            </trkpt>
            <trkpt lon="101.031385" lat="13.023101">
                <ele>128.400000</ele>
                <time>2018-07-22T04:28:39Z</time>
            </trkpt>
            <trkpt lon="101.031422" lat="13.023100">
                <ele>129.400000</ele>
                <time>2018-07-22T04:28:42Z</time>
            </trkpt>
            <trkpt lon="101.031457" lat="13.023084">
                <ele>130.400000</ele>
                <time>2018-07-22T04:28:45Z</time>
            </trkpt>
            <trkpt lon="101.031506" lat="13.023088">
                <ele>131.400000</ele>
                <time>2018-07-22T04:28:48Z</time>
            </trkpt>
            <trkpt lon="101.031552" lat="13.023081">
                <ele>132.400000</ele>
                <time>2018-07-22T04:28:50Z</time>
            </trkpt>
            <trkpt lon="101.031594" lat="13.023083">
                <ele>133.200000</ele>
                <time>2018-07-22T04:28:53Z</time>
            </trkpt>
            <trkpt lon="101.031633" lat="13.023067">
                <ele>134.200000</ele>
                <time>2018-07-22T04:28:55Z</time>
            </trkpt>
            <trkpt lon="101.031673" lat="13.023048">
                <ele>135.000000</ele>
                <time>2018-07-22T04:28:57Z</time>
            </trkpt>
            <trkpt lon="101.031709" lat="13.023035">
                <ele>135.900000</ele>
                <time>2018-07-22T04:29:00Z</time>
            </trkpt>
            <trkpt lon="101.031737" lat="13.023016">
                <ele>136.500000</ele>
                <time>2018-07-22T04:29:02Z</time>
            </trkpt>
            <trkpt lon="101.031773" lat="13.023014">
                <ele>136.500000</ele>
                <time>2018-07-22T04:29:04Z</time>
            </trkpt>
            <trkpt lon="101.031804" lat="13.022994">
                <ele>137.100000</ele>
                <time>2018-07-22T04:29:07Z</time>
            </trkpt>
            <trkpt lon="101.031826" lat="13.022969">
                <ele>137.500000</ele>
                <time>2018-07-22T04:29:10Z</time>
            </trkpt>
            <trkpt lon="101.031850" lat="13.022948">
                <ele>137.600000</ele>
                <time>2018-07-22T04:29:12Z</time>
            </trkpt>
            <trkpt lon="101.031884" lat="13.022932">
                <ele>137.900000</ele>
                <time>2018-07-22T04:29:14Z</time>
            </trkpt>
            <trkpt lon="101.031912" lat="13.022915">
                <ele>138.100000</ele>
                <time>2018-07-22T04:29:16Z</time>
            </trkpt>
            <trkpt lon="101.031939" lat="13.022904">
                <ele>138.000000</ele>
                <time>2018-07-22T04:29:19Z</time>
            </trkpt>
            <trkpt lon="101.031980" lat="13.022905">
                <ele>138.000000</ele>
                <time>2018-07-22T04:29:21Z</time>
            </trkpt>
            <trkpt lon="101.032008" lat="13.022905">
                <ele>138.100000</ele>
                <time>2018-07-22T04:29:24Z</time>
            </trkpt>
            <trkpt lon="101.032051" lat="13.022922">
                <ele>138.300000</ele>
                <time>2018-07-22T04:29:27Z</time>
            </trkpt>
            <trkpt lon="101.032081" lat="13.022929">
                <ele>138.300000</ele>
                <time>2018-07-22T04:29:29Z</time>
            </trkpt>
            <trkpt lon="101.032128" lat="13.022930">
                <ele>138.300000</ele>
                <time>2018-07-22T04:29:33Z</time>
            </trkpt>
            <trkpt lon="101.032161" lat="13.022928">
                <ele>138.300000</ele>
                <time>2018-07-22T04:29:34Z</time>
            </trkpt>
            <trkpt lon="101.032191" lat="13.022932">
                <ele>138.300000</ele>
                <time>2018-07-22T04:29:35Z</time>
            </trkpt>
            <trkpt lon="101.032238" lat="13.022939">
                <ele>138.300000</ele>
                <time>2018-07-22T04:29:37Z</time>
            </trkpt>
            <trkpt lon="101.032301" lat="13.022951">
                <ele>138.100000</ele>
                <time>2018-07-22T04:29:39Z</time>
            </trkpt>
            <trkpt lon="101.032340" lat="13.022964">
                <ele>138.300000</ele>
                <time>2018-07-22T04:29:41Z</time>
            </trkpt>
            <trkpt lon="101.032395" lat="13.022972">
                <ele>138.200000</ele>
                <time>2018-07-22T04:29:43Z</time>
            </trkpt>
            <trkpt lon="101.032435" lat="13.022981">
                <ele>138.100000</ele>
                <time>2018-07-22T04:29:44Z</time>
            </trkpt>
            <trkpt lon="101.032488" lat="13.022993">
                <ele>138.000000</ele>
                <time>2018-07-22T04:29:46Z</time>
            </trkpt>
            <trkpt lon="101.032518" lat="13.023001">
                <ele>138.600000</ele>
                <time>2018-07-22T04:29:47Z</time>
            </trkpt>
            <trkpt lon="101.032554" lat="13.023016">
                <ele>138.500000</ele>
                <time>2018-07-22T04:29:48Z</time>
            </trkpt>
            <trkpt lon="101.032596" lat="13.023032">
                <ele>138.200000</ele>
                <time>2018-07-22T04:29:49Z</time>
            </trkpt>
            <trkpt lon="101.032636" lat="13.023043">
                <ele>138.300000</ele>
                <time>2018-07-22T04:29:50Z</time>
            </trkpt>
            <trkpt lon="101.032671" lat="13.023057">
                <ele>138.300000</ele>
                <time>2018-07-22T04:29:51Z</time>
            </trkpt>
            <trkpt lon="101.032708" lat="13.023073">
                <ele>137.800000</ele>
                <time>2018-07-22T04:29:52Z</time>
            </trkpt>
            <trkpt lon="101.032752" lat="13.023095">
                <ele>137.800000</ele>
                <time>2018-07-22T04:29:53Z</time>
            </trkpt>
            <trkpt lon="101.032786" lat="13.023114">
                <ele>137.200000</ele>
                <time>2018-07-22T04:29:54Z</time>
            </trkpt>
            <trkpt lon="101.032824" lat="13.023142">
                <ele>137.200000</ele>
                <time>2018-07-22T04:29:55Z</time>
            </trkpt>
            <trkpt lon="101.032869" lat="13.023166">
                <ele>137.200000</ele>
                <time>2018-07-22T04:29:56Z</time>
            </trkpt>
            <trkpt lon="101.032897" lat="13.023190">
                <ele>136.700000</ele>
                <time>2018-07-22T04:29:57Z</time>
            </trkpt>
            <trkpt lon="101.032931" lat="13.023227">
                <ele>137.300000</ele>
                <time>2018-07-22T04:29:58Z</time>
            </trkpt>
            <trkpt lon="101.032965" lat="13.023254">
                <ele>137.400000</ele>
                <time>2018-07-22T04:29:59Z</time>
            </trkpt>
            <trkpt lon="101.033011" lat="13.023281">
                <ele>137.000000</ele>
                <time>2018-07-22T04:30:00Z</time>
            </trkpt>
            <trkpt lon="101.033072" lat="13.023296">
                <ele>136.900000</ele>
                <time>2018-07-22T04:30:01Z</time>
            </trkpt>
            <trkpt lon="101.033128" lat="13.023301">
                <ele>136.700000</ele>
                <time>2018-07-22T04:30:02Z</time>
            </trkpt>
            <trkpt lon="101.033178" lat="13.023308">
                <ele>136.500000</ele>
                <time>2018-07-22T04:30:03Z</time>
            </trkpt>
            <trkpt lon="101.033221" lat="13.023312">
                <ele>136.400000</ele>
                <time>2018-07-22T04:30:04Z</time>
            </trkpt>
            <trkpt lon="101.033263" lat="13.023316">
                <ele>136.200000</ele>
                <time>2018-07-22T04:30:05Z</time>
            </trkpt>
            <trkpt lon="101.033308" lat="13.023313">
                <ele>136.400000</ele>
                <time>2018-07-22T04:30:06Z</time>
            </trkpt>
            <trkpt lon="101.033354" lat="13.023317">
                <ele>136.800000</ele>
                <time>2018-07-22T04:30:07Z</time>
            </trkpt>
            <trkpt lon="101.033406" lat="13.023326">
                <ele>137.200000</ele>
                <time>2018-07-22T04:30:08Z</time>
            </trkpt>
            <trkpt lon="101.033448" lat="13.023337">
                <ele>138.300000</ele>
                <time>2018-07-22T04:30:09Z</time>
            </trkpt>
            <trkpt lon="101.033486" lat="13.023350">
                <ele>138.800000</ele>
                <time>2018-07-22T04:30:10Z</time>
            </trkpt>
            <trkpt lon="101.033533" lat="13.023356">
                <ele>139.300000</ele>
                <time>2018-07-22T04:30:11Z</time>
            </trkpt>
            <trkpt lon="101.033588" lat="13.023357">
                <ele>140.300000</ele>
                <time>2018-07-22T04:30:12Z</time>
            </trkpt>
            <trkpt lon="101.033643" lat="13.023354">
                <ele>140.500000</ele>
                <time>2018-07-22T04:30:13Z</time>
            </trkpt>
            <trkpt lon="101.033694" lat="13.023352">
                <ele>140.600000</ele>
                <time>2018-07-22T04:30:14Z</time>
            </trkpt>
            <trkpt lon="101.033744" lat="13.023353">
                <ele>140.600000</ele>
                <time>2018-07-22T04:30:15Z</time>
            </trkpt>
            <trkpt lon="101.033803" lat="13.023345">
                <ele>140.500000</ele>
                <time>2018-07-22T04:30:16Z</time>
            </trkpt>
            <trkpt lon="101.033858" lat="13.023348">
                <ele>140.300000</ele>
                <time>2018-07-22T04:30:17Z</time>
            </trkpt>
            <trkpt lon="101.033923" lat="13.023348">
                <ele>139.800000</ele>
                <time>2018-07-22T04:30:18Z</time>
            </trkpt>
            <trkpt lon="101.033978" lat="13.023347">
                <ele>139.400000</ele>
                <time>2018-07-22T04:30:19Z</time>
            </trkpt>
            <trkpt lon="101.034038" lat="13.023348">
                <ele>138.900000</ele>
                <time>2018-07-22T04:30:20Z</time>
            </trkpt>
            <trkpt lon="101.034101" lat="13.023351">
                <ele>138.000000</ele>
                <time>2018-07-22T04:30:21Z</time>
            </trkpt>
            <trkpt lon="101.034156" lat="13.023349">
                <ele>137.700000</ele>
                <time>2018-07-22T04:30:22Z</time>
            </trkpt>
            <trkpt lon="101.034215" lat="13.023355">
                <ele>137.500000</ele>
                <time>2018-07-22T04:30:23Z</time>
            </trkpt>
            <trkpt lon="101.034271" lat="13.023360">
                <ele>137.100000</ele>
                <time>2018-07-22T04:30:24Z</time>
            </trkpt>
            <trkpt lon="101.034325" lat="13.023367">
                <ele>137.000000</ele>
                <time>2018-07-22T04:30:25Z</time>
            </trkpt>
            <trkpt lon="101.034368" lat="13.023370">
                <ele>137.000000</ele>
                <time>2018-07-22T04:30:26Z</time>
            </trkpt>
            <trkpt lon="101.034403" lat="13.023358">
                <ele>137.000000</ele>
                <time>2018-07-22T04:30:27Z</time>
            </trkpt>
            <trkpt lon="101.034428" lat="13.023305">
                <ele>137.000000</ele>
                <time>2018-07-22T04:30:29Z</time>
            </trkpt>
            <trkpt lon="101.034436" lat="13.023266">
                <ele>137.000000</ele>
                <time>2018-07-22T04:30:30Z</time>
            </trkpt>
            <trkpt lon="101.034461" lat="13.023235">
                <ele>137.000000</ele>
                <time>2018-07-22T04:30:31Z</time>
            </trkpt>
            <trkpt lon="101.034479" lat="13.023198">
                <ele>136.800000</ele>
                <time>2018-07-22T04:30:32Z</time>
            </trkpt>
            <trkpt lon="101.034499" lat="13.023153">
                <ele>136.300000</ele>
                <time>2018-07-22T04:30:33Z</time>
            </trkpt>
            <trkpt lon="101.034505" lat="13.023123">
                <ele>136.300000</ele>
                <time>2018-07-22T04:30:34Z</time>
            </trkpt>
            <trkpt lon="101.034506" lat="13.023082">
                <ele>136.100000</ele>
                <time>2018-07-22T04:30:35Z</time>
            </trkpt>
            <trkpt lon="101.034516" lat="13.023032">
                <ele>135.400000</ele>
                <time>2018-07-22T04:30:36Z</time>
            </trkpt>
            <trkpt lon="101.034519" lat="13.022985">
                <ele>135.000000</ele>
                <time>2018-07-22T04:30:37Z</time>
            </trkpt>
            <trkpt lon="101.034530" lat="13.022920">
                <ele>134.200000</ele>
                <time>2018-07-22T04:30:38Z</time>
            </trkpt>
            <trkpt lon="101.034557" lat="13.022851">
                <ele>133.400000</ele>
                <time>2018-07-22T04:30:39Z</time>
            </trkpt>
            <trkpt lon="101.034580" lat="13.022785">
                <ele>132.500000</ele>
                <time>2018-07-22T04:30:40Z</time>
            </trkpt>
            <trkpt lon="101.034608" lat="13.022709">
                <ele>132.100000</ele>
                <time>2018-07-22T04:30:41Z</time>
            </trkpt>
            <trkpt lon="101.034627" lat="13.022640">
                <ele>131.200000</ele>
                <time>2018-07-22T04:30:42Z</time>
            </trkpt>
            <trkpt lon="101.034666" lat="13.022560">
                <ele>130.300000</ele>
                <time>2018-07-22T04:30:43Z</time>
            </trkpt>
            <trkpt lon="101.034709" lat="13.022492">
                <ele>129.700000</ele>
                <time>2018-07-22T04:30:44Z</time>
            </trkpt>
            <trkpt lon="101.034766" lat="13.022445">
                <ele>129.800000</ele>
                <time>2018-07-22T04:30:45Z</time>
            </trkpt>
            <trkpt lon="101.034828" lat="13.022405">
                <ele>130.400000</ele>
                <time>2018-07-22T04:30:46Z</time>
            </trkpt>
            <trkpt lon="101.034889" lat="13.022373">
                <ele>130.900000</ele>
                <time>2018-07-22T04:30:47Z</time>
            </trkpt>
            <trkpt lon="101.034939" lat="13.022324">
                <ele>130.700000</ele>
                <time>2018-07-22T04:30:48Z</time>
            </trkpt>
            <trkpt lon="101.034985" lat="13.022270">
                <ele>131.100000</ele>
                <time>2018-07-22T04:30:49Z</time>
            </trkpt>
            <trkpt lon="101.035037" lat="13.022229">
                <ele>131.400000</ele>
                <time>2018-07-22T04:30:50Z</time>
            </trkpt>
            <trkpt lon="101.035087" lat="13.022180">
                <ele>132.000000</ele>
                <time>2018-07-22T04:30:51Z</time>
            </trkpt>
            <trkpt lon="101.035128" lat="13.022126">
                <ele>132.000000</ele>
                <time>2018-07-22T04:30:52Z</time>
            </trkpt>
            <trkpt lon="101.035157" lat="13.022072">
                <ele>131.100000</ele>
                <time>2018-07-22T04:30:53Z</time>
            </trkpt>
            <trkpt lon="101.035186" lat="13.022029">
                <ele>130.700000</ele>
                <time>2018-07-22T04:30:54Z</time>
            </trkpt>
            <trkpt lon="101.035229" lat="13.021983">
                <ele>130.200000</ele>
                <time>2018-07-22T04:30:55Z</time>
            </trkpt>
            <trkpt lon="101.035268" lat="13.021937">
                <ele>129.700000</ele>
                <time>2018-07-22T04:30:56Z</time>
            </trkpt>
            <trkpt lon="101.035308" lat="13.021893">
                <ele>129.200000</ele>
                <time>2018-07-22T04:30:57Z</time>
            </trkpt>
            <trkpt lon="101.035358" lat="13.021854">
                <ele>128.400000</ele>
                <time>2018-07-22T04:30:58Z</time>
            </trkpt>
            <trkpt lon="101.035427" lat="13.021828">
                <ele>127.900000</ele>
                <time>2018-07-22T04:30:59Z</time>
            </trkpt>
            <trkpt lon="101.035484" lat="13.021800">
                <ele>126.900000</ele>
                <time>2018-07-22T04:31:00Z</time>
            </trkpt>
            <trkpt lon="101.035523" lat="13.021747">
                <ele>126.000000</ele>
                <time>2018-07-22T04:31:01Z</time>
            </trkpt>
            <trkpt lon="101.035562" lat="13.021676">
                <ele>124.900000</ele>
                <time>2018-07-22T04:31:02Z</time>
            </trkpt>
            <trkpt lon="101.035600" lat="13.021615">
                <ele>124.400000</ele>
                <time>2018-07-22T04:31:03Z</time>
            </trkpt>
            <trkpt lon="101.035620" lat="13.021568">
                <ele>124.100000</ele>
                <time>2018-07-22T04:31:04Z</time>
            </trkpt>
            <trkpt lon="101.035618" lat="13.021518">
                <ele>124.000000</ele>
                <time>2018-07-22T04:31:05Z</time>
            </trkpt>
            <trkpt lon="101.035610" lat="13.021470">
                <ele>124.000000</ele>
                <time>2018-07-22T04:31:06Z</time>
            </trkpt>
            <trkpt lon="101.035588" lat="13.021435">
                <ele>124.000000</ele>
                <time>2018-07-22T04:31:07Z</time>
            </trkpt>
            <trkpt lon="101.035573" lat="13.021396">
                <ele>124.000000</ele>
                <time>2018-07-22T04:31:08Z</time>
            </trkpt>
            <trkpt lon="101.035565" lat="13.021364">
                <ele>123.700000</ele>
                <time>2018-07-22T04:31:09Z</time>
            </trkpt>
            <trkpt lon="101.035532" lat="13.021333">
                <ele>123.700000</ele>
                <time>2018-07-22T04:31:11Z</time>
            </trkpt>
            <trkpt lon="101.035492" lat="13.021338">
                <ele>123.500000</ele>
                <time>2018-07-22T04:31:12Z</time>
            </trkpt>
            <trkpt lon="101.035441" lat="13.021340">
                <ele>123.000000</ele>
                <time>2018-07-22T04:31:13Z</time>
            </trkpt>
            <trkpt lon="101.035402" lat="13.021339">
                <ele>122.600000</ele>
                <time>2018-07-22T04:31:14Z</time>
            </trkpt>
            <trkpt lon="101.035348" lat="13.021314">
                <ele>121.800000</ele>
                <time>2018-07-22T04:31:15Z</time>
            </trkpt>
            <trkpt lon="101.035290" lat="13.021282">
                <ele>121.100000</ele>
                <time>2018-07-22T04:31:16Z</time>
            </trkpt>
            <trkpt lon="101.035236" lat="13.021217">
                <ele>120.600000</ele>
                <time>2018-07-22T04:31:17Z</time>
            </trkpt>
            <trkpt lon="101.035185" lat="13.021143">
                <ele>119.400000</ele>
                <time>2018-07-22T04:31:18Z</time>
            </trkpt>
            <trkpt lon="101.035147" lat="13.021065">
                <ele>118.000000</ele>
                <time>2018-07-22T04:31:19Z</time>
            </trkpt>
            <trkpt lon="101.035108" lat="13.020999">
                <ele>117.100000</ele>
                <time>2018-07-22T04:31:20Z</time>
            </trkpt>
            <trkpt lon="101.035070" lat="13.020945">
                <ele>116.100000</ele>
                <time>2018-07-22T04:31:21Z</time>
            </trkpt>
            <trkpt lon="101.035048" lat="13.020914">
                <ele>116.100000</ele>
                <time>2018-07-22T04:31:22Z</time>
            </trkpt>
            <trkpt lon="101.035041" lat="13.020879">
                <ele>115.900000</ele>
                <time>2018-07-22T04:31:23Z</time>
            </trkpt>
            <trkpt lon="101.035047" lat="13.020849">
                <ele>115.500000</ele>
                <time>2018-07-22T04:31:24Z</time>
            </trkpt>
            <trkpt lon="101.035094" lat="13.020815">
                <ele>115.400000</ele>
                <time>2018-07-22T04:31:26Z</time>
            </trkpt>
            <trkpt lon="101.035129" lat="13.020788">
                <ele>115.700000</ele>
                <time>2018-07-22T04:31:27Z</time>
            </trkpt>
            <trkpt lon="101.035174" lat="13.020758">
                <ele>115.300000</ele>
                <time>2018-07-22T04:31:28Z</time>
            </trkpt>
            <trkpt lon="101.035222" lat="13.020727">
                <ele>114.800000</ele>
                <time>2018-07-22T04:31:29Z</time>
            </trkpt>
            <trkpt lon="101.035275" lat="13.020700">
                <ele>115.000000</ele>
                <time>2018-07-22T04:31:30Z</time>
            </trkpt>
            <trkpt lon="101.035327" lat="13.020672">
                <ele>114.600000</ele>
                <time>2018-07-22T04:31:31Z</time>
            </trkpt>
            <trkpt lon="101.035373" lat="13.020638">
                <ele>114.400000</ele>
                <time>2018-07-22T04:31:32Z</time>
            </trkpt>
            <trkpt lon="101.035413" lat="13.020606">
                <ele>114.100000</ele>
                <time>2018-07-22T04:31:33Z</time>
            </trkpt>
            <trkpt lon="101.035456" lat="13.020572">
                <ele>113.900000</ele>
                <time>2018-07-22T04:31:34Z</time>
            </trkpt>
            <trkpt lon="101.035507" lat="13.020534">
                <ele>114.100000</ele>
                <time>2018-07-22T04:31:35Z</time>
            </trkpt>
            <trkpt lon="101.035561" lat="13.020487">
                <ele>113.000000</ele>
                <time>2018-07-22T04:31:36Z</time>
            </trkpt>
            <trkpt lon="101.035614" lat="13.020442">
                <ele>112.500000</ele>
                <time>2018-07-22T04:31:37Z</time>
            </trkpt>
            <trkpt lon="101.035668" lat="13.020403">
                <ele>112.100000</ele>
                <time>2018-07-22T04:31:38Z</time>
            </trkpt>
            <trkpt lon="101.035726" lat="13.020361">
                <ele>111.600000</ele>
                <time>2018-07-22T04:31:39Z</time>
            </trkpt>
            <trkpt lon="101.035779" lat="13.020313">
                <ele>111.200000</ele>
                <time>2018-07-22T04:31:40Z</time>
            </trkpt>
            <trkpt lon="101.035822" lat="13.020276">
                <ele>111.000000</ele>
                <time>2018-07-22T04:31:41Z</time>
            </trkpt>
            <trkpt lon="101.035858" lat="13.020242">
                <ele>110.900000</ele>
                <time>2018-07-22T04:31:42Z</time>
            </trkpt>
            <trkpt lon="101.035884" lat="13.020210">
                <ele>110.900000</ele>
                <time>2018-07-22T04:31:43Z</time>
            </trkpt>
            <trkpt lon="101.035915" lat="13.020177">
                <ele>110.500000</ele>
                <time>2018-07-22T04:31:44Z</time>
            </trkpt>
            <trkpt lon="101.035935" lat="13.020141">
                <ele>110.300000</ele>
                <time>2018-07-22T04:31:45Z</time>
            </trkpt>
            <trkpt lon="101.035944" lat="13.020110">
                <ele>109.800000</ele>
                <time>2018-07-22T04:31:46Z</time>
            </trkpt>
            <trkpt lon="101.035935" lat="13.020070">
                <ele>109.800000</ele>
                <time>2018-07-22T04:31:47Z</time>
            </trkpt>
            <trkpt lon="101.035929" lat="13.020029">
                <ele>109.800000</ele>
                <time>2018-07-22T04:31:48Z</time>
            </trkpt>
            <trkpt lon="101.035939" lat="13.019985">
                <ele>109.400000</ele>
                <time>2018-07-22T04:31:49Z</time>
            </trkpt>
            <trkpt lon="101.035959" lat="13.019939">
                <ele>109.400000</ele>
                <time>2018-07-22T04:31:50Z</time>
            </trkpt>
            <trkpt lon="101.035977" lat="13.019893">
                <ele>109.400000</ele>
                <time>2018-07-22T04:31:51Z</time>
            </trkpt>
            <trkpt lon="101.035989" lat="13.019849">
                <ele>109.200000</ele>
                <time>2018-07-22T04:31:52Z</time>
            </trkpt>
            <trkpt lon="101.035994" lat="13.019814">
                <ele>109.500000</ele>
                <time>2018-07-22T04:31:53Z</time>
            </trkpt>
            <trkpt lon="101.035999" lat="13.019783">
                <ele>109.500000</ele>
                <time>2018-07-22T04:31:54Z</time>
            </trkpt>
            <trkpt lon="101.036007" lat="13.019745">
                <ele>109.700000</ele>
                <time>2018-07-22T04:31:55Z</time>
            </trkpt>
            <trkpt lon="101.036019" lat="13.019701">
                <ele>110.000000</ele>
                <time>2018-07-22T04:31:56Z</time>
            </trkpt>
            <trkpt lon="101.036039" lat="13.019659">
                <ele>110.000000</ele>
                <time>2018-07-22T04:31:57Z</time>
            </trkpt>
            <trkpt lon="101.036059" lat="13.019626">
                <ele>110.200000</ele>
                <time>2018-07-22T04:31:58Z</time>
            </trkpt>
            <trkpt lon="101.036073" lat="13.019601">
                <ele>110.200000</ele>
                <time>2018-07-22T04:31:59Z</time>
            </trkpt>
            <trkpt lon="101.036097" lat="13.019560">
                <ele>110.500000</ele>
                <time>2018-07-22T04:32:01Z</time>
            </trkpt>
            <trkpt lon="101.036123" lat="13.019517">
                <ele>110.500000</ele>
                <time>2018-07-22T04:32:03Z</time>
            </trkpt>
            <trkpt lon="101.036150" lat="13.019470">
                <ele>110.900000</ele>
                <time>2018-07-22T04:32:05Z</time>
            </trkpt>
            <trkpt lon="101.036166" lat="13.019442">
                <ele>110.800000</ele>
                <time>2018-07-22T04:32:06Z</time>
            </trkpt>
            <trkpt lon="101.036178" lat="13.019417">
                <ele>110.800000</ele>
                <time>2018-07-22T04:32:07Z</time>
            </trkpt>
            <trkpt lon="101.036195" lat="13.019375">
                <ele>111.100000</ele>
                <time>2018-07-22T04:32:09Z</time>
            </trkpt>
            <trkpt lon="101.036202" lat="13.019333">
                <ele>110.900000</ele>
                <time>2018-07-22T04:32:11Z</time>
            </trkpt>
            <trkpt lon="101.036201" lat="13.019305">
                <ele>111.100000</ele>
                <time>2018-07-22T04:32:12Z</time>
            </trkpt>
            <trkpt lon="101.036213" lat="13.019268">
                <ele>111.400000</ele>
                <time>2018-07-22T04:32:13Z</time>
            </trkpt>
            <trkpt lon="101.036207" lat="13.019224">
                <ele>111.600000</ele>
                <time>2018-07-22T04:32:14Z</time>
            </trkpt>
            <trkpt lon="101.036198" lat="13.019183">
                <ele>111.800000</ele>
                <time>2018-07-22T04:32:15Z</time>
            </trkpt>
            <trkpt lon="101.036210" lat="13.019150">
                <ele>111.800000</ele>
                <time>2018-07-22T04:32:17Z</time>
            </trkpt>
            <trkpt lon="101.036201" lat="13.019121">
                <ele>111.800000</ele>
                <time>2018-07-22T04:32:19Z</time>
            </trkpt>
            <trkpt lon="101.036200" lat="13.019086">
                <ele>111.800000</ele>
                <time>2018-07-22T04:32:21Z</time>
            </trkpt>
            <trkpt lon="101.036194" lat="13.019052">
                <ele>112.300000</ele>
                <time>2018-07-22T04:32:25Z</time>
            </trkpt>
            <trkpt lon="101.036176" lat="13.019024">
                <ele>112.400000</ele>
                <time>2018-07-22T04:32:27Z</time>
            </trkpt>
            <trkpt lon="101.036166" lat="13.018994">
                <ele>112.400000</ele>
                <time>2018-07-22T04:32:29Z</time>
            </trkpt>
            <trkpt lon="101.036152" lat="13.018967">
                <ele>113.000000</ele>
                <time>2018-07-22T04:32:31Z</time>
            </trkpt>
            <trkpt lon="101.036127" lat="13.018938">
                <ele>113.100000</ele>
                <time>2018-07-22T04:32:33Z</time>
            </trkpt>
            <trkpt lon="101.036101" lat="13.018908">
                <ele>113.500000</ele>
                <time>2018-07-22T04:32:35Z</time>
            </trkpt>
            <trkpt lon="101.036078" lat="13.018878">
                <ele>113.600000</ele>
                <time>2018-07-22T04:32:38Z</time>
            </trkpt>
            <trkpt lon="101.036056" lat="13.018845">
                <ele>114.000000</ele>
                <time>2018-07-22T04:32:40Z</time>
            </trkpt>
            <trkpt lon="101.036040" lat="13.018822">
                <ele>114.000000</ele>
                <time>2018-07-22T04:32:42Z</time>
            </trkpt>
            <trkpt lon="101.036016" lat="13.018790">
                <ele>114.700000</ele>
                <time>2018-07-22T04:32:44Z</time>
            </trkpt>
            <trkpt lon="101.035989" lat="13.018762">
                <ele>114.900000</ele>
                <time>2018-07-22T04:32:47Z</time>
            </trkpt>
            <trkpt lon="101.035966" lat="13.018726">
                <ele>115.700000</ele>
                <time>2018-07-22T04:32:50Z</time>
            </trkpt>
            <trkpt lon="101.035920" lat="13.018683">
                <ele>116.200000</ele>
                <time>2018-07-22T04:32:52Z</time>
            </trkpt>
            <trkpt lon="101.035902" lat="13.018662">
                <ele>116.200000</ele>
                <time>2018-07-22T04:32:53Z</time>
            </trkpt>
            <trkpt lon="101.035873" lat="13.018640">
                <ele>116.400000</ele>
                <time>2018-07-22T04:32:55Z</time>
            </trkpt>
            <trkpt lon="101.035842" lat="13.018615">
                <ele>117.200000</ele>
                <time>2018-07-22T04:32:57Z</time>
            </trkpt>
            <trkpt lon="101.035814" lat="13.018597">
                <ele>116.900000</ele>
                <time>2018-07-22T04:33:00Z</time>
            </trkpt>
            <trkpt lon="101.035794" lat="13.018570">
                <ele>117.900000</ele>
                <time>2018-07-22T04:33:02Z</time>
            </trkpt>
            <trkpt lon="101.035772" lat="13.018546">
                <ele>117.700000</ele>
                <time>2018-07-22T04:33:04Z</time>
            </trkpt>
            <trkpt lon="101.035741" lat="13.018514">
                <ele>118.400000</ele>
                <time>2018-07-22T04:33:06Z</time>
            </trkpt>
            <trkpt lon="101.035713" lat="13.018485">
                <ele>119.300000</ele>
                <time>2018-07-22T04:33:08Z</time>
            </trkpt>
            <trkpt lon="101.035683" lat="13.018477">
                <ele>118.900000</ele>
                <time>2018-07-22T04:33:09Z</time>
            </trkpt>
            <trkpt lon="101.035658" lat="13.018461">
                <ele>119.800000</ele>
                <time>2018-07-22T04:33:10Z</time>
            </trkpt>
            <trkpt lon="101.035623" lat="13.018437">
                <ele>120.300000</ele>
                <time>2018-07-22T04:33:12Z</time>
            </trkpt>
            <trkpt lon="101.035593" lat="13.018416">
                <ele>121.300000</ele>
                <time>2018-07-22T04:33:13Z</time>
            </trkpt>
            <trkpt lon="101.035570" lat="13.018399">
                <ele>121.300000</ele>
                <time>2018-07-22T04:33:14Z</time>
            </trkpt>
            <trkpt lon="101.035545" lat="13.018384">
                <ele>121.800000</ele>
                <time>2018-07-22T04:33:16Z</time>
            </trkpt>
            <trkpt lon="101.035530" lat="13.018357">
                <ele>121.800000</ele>
                <time>2018-07-22T04:33:18Z</time>
            </trkpt>
            <trkpt lon="101.035496" lat="13.018322">
                <ele>122.700000</ele>
                <time>2018-07-22T04:33:20Z</time>
            </trkpt>
            <trkpt lon="101.035464" lat="13.018293">
                <ele>124.100000</ele>
                <time>2018-07-22T04:33:21Z</time>
            </trkpt>
            <trkpt lon="101.035436" lat="13.018258">
                <ele>124.200000</ele>
                <time>2018-07-22T04:33:22Z</time>
            </trkpt>
            <trkpt lon="101.035412" lat="13.018217">
                <ele>125.400000</ele>
                <time>2018-07-22T04:33:23Z</time>
            </trkpt>
            <trkpt lon="101.035389" lat="13.018188">
                <ele>125.600000</ele>
                <time>2018-07-22T04:33:24Z</time>
            </trkpt>
            <trkpt lon="101.035379" lat="13.018150">
                <ele>126.600000</ele>
                <time>2018-07-22T04:33:25Z</time>
            </trkpt>
            <trkpt lon="101.035363" lat="13.018101">
                <ele>127.100000</ele>
                <time>2018-07-22T04:33:26Z</time>
            </trkpt>
            <trkpt lon="101.035347" lat="13.018064">
                <ele>127.100000</ele>
                <time>2018-07-22T04:33:27Z</time>
            </trkpt>
            <trkpt lon="101.035331" lat="13.018036">
                <ele>128.200000</ele>
                <time>2018-07-22T04:33:28Z</time>
            </trkpt>
            <trkpt lon="101.035321" lat="13.018010">
                <ele>128.400000</ele>
                <time>2018-07-22T04:33:29Z</time>
            </trkpt>
            <trkpt lon="101.035307" lat="13.017986">
                <ele>128.400000</ele>
                <time>2018-07-22T04:33:30Z</time>
            </trkpt>
            <trkpt lon="101.035277" lat="13.017936">
                <ele>129.100000</ele>
                <time>2018-07-22T04:33:32Z</time>
            </trkpt>
            <trkpt lon="101.035257" lat="13.017910">
                <ele>129.100000</ele>
                <time>2018-07-22T04:33:33Z</time>
            </trkpt>
            <trkpt lon="101.035243" lat="13.017882">
                <ele>129.900000</ele>
                <time>2018-07-22T04:33:34Z</time>
            </trkpt>
            <trkpt lon="101.035227" lat="13.017856">
                <ele>129.900000</ele>
                <time>2018-07-22T04:33:35Z</time>
            </trkpt>
            <trkpt lon="101.035209" lat="13.017816">
                <ele>129.700000</ele>
                <time>2018-07-22T04:33:36Z</time>
            </trkpt>
            <trkpt lon="101.035189" lat="13.017777">
                <ele>130.000000</ele>
                <time>2018-07-22T04:33:37Z</time>
            </trkpt>
            <trkpt lon="101.035182" lat="13.017737">
                <ele>129.600000</ele>
                <time>2018-07-22T04:33:38Z</time>
            </trkpt>
            <trkpt lon="101.035171" lat="13.017697">
                <ele>129.200000</ele>
                <time>2018-07-22T04:33:39Z</time>
            </trkpt>
            <trkpt lon="101.035155" lat="13.017673">
                <ele>128.900000</ele>
                <time>2018-07-22T04:33:43Z</time>
            </trkpt>
            <trkpt lon="101.035166" lat="13.017637">
                <ele>128.200000</ele>
                <time>2018-07-22T04:33:47Z</time>
            </trkpt>
            <trkpt lon="101.035146" lat="13.017590">
                <ele>127.900000</ele>
                <time>2018-07-22T04:33:49Z</time>
            </trkpt>
            <trkpt lon="101.035157" lat="13.017563">
                <ele>127.900000</ele>
                <time>2018-07-22T04:33:52Z</time>
            </trkpt>
            <trkpt lon="101.035152" lat="13.017530">
                <ele>127.400000</ele>
                <time>2018-07-22T04:34:00Z</time>
            </trkpt>
            <trkpt lon="101.035176" lat="13.017544">
                <ele>127.200000</ele>
                <time>2018-07-22T04:34:11Z</time>
            </trkpt>
            <trkpt lon="101.035200" lat="13.017560">
                <ele>127.200000</ele>
                <time>2018-07-22T04:34:16Z</time>
            </trkpt>
            <trkpt lon="101.035215" lat="13.017536">
                <ele>127.000000</ele>
                <time>2018-07-22T04:34:21Z</time>
            </trkpt>
            <trkpt lon="101.035192" lat="13.017553">
                <ele>127.200000</ele>
                <time>2018-07-22T04:34:26Z</time>
            </trkpt>
            <trkpt lon="101.035182" lat="13.017586">
                <ele>127.700000</ele>
                <time>2018-07-22T04:34:39Z</time>
            </trkpt>
            <trkpt lon="101.035167" lat="13.017614">
                <ele>128.200000</ele>
                <time>2018-07-22T04:34:42Z</time>
            </trkpt>
            <trkpt lon="101.035182" lat="13.017590">
                <ele>127.700000</ele>
                <time>2018-07-22T04:34:51Z</time>
            </trkpt>
            <trkpt lon="101.035199" lat="13.017564">
                <ele>127.700000</ele>
                <time>2018-07-22T04:34:59Z</time>
            </trkpt>
            <trkpt lon="101.035226" lat="13.017528">
                <ele>127.000000</ele>
                <time>2018-07-22T04:35:02Z</time>
            </trkpt>
            <trkpt lon="101.035253" lat="13.017486">
                <ele>126.200000</ele>
                <time>2018-07-22T04:35:04Z</time>
            </trkpt>
            <trkpt lon="101.035278" lat="13.017458">
                <ele>125.800000</ele>
                <time>2018-07-22T04:35:06Z</time>
            </trkpt>
            <trkpt lon="101.035294" lat="13.017424">
                <ele>125.400000</ele>
                <time>2018-07-22T04:35:09Z</time>
            </trkpt>
            <trkpt lon="101.035322" lat="13.017397">
                <ele>125.400000</ele>
                <time>2018-07-22T04:35:13Z</time>
            </trkpt>
            <trkpt lon="101.035346" lat="13.017377">
                <ele>125.200000</ele>
                <time>2018-07-22T04:35:17Z</time>
            </trkpt>
            <trkpt lon="101.035368" lat="13.017351">
                <ele>124.900000</ele>
                <time>2018-07-22T04:35:20Z</time>
            </trkpt>
            <trkpt lon="101.035385" lat="13.017329">
                <ele>124.900000</ele>
                <time>2018-07-22T04:35:24Z</time>
            </trkpt>
            <trkpt lon="101.035374" lat="13.017303">
                <ele>124.400000</ele>
                <time>2018-07-22T04:35:26Z</time>
            </trkpt>
            <trkpt lon="101.035389" lat="13.017268">
                <ele>124.100000</ele>
                <time>2018-07-22T04:35:29Z</time>
            </trkpt>
            <trkpt lon="101.035397" lat="13.017238">
                <ele>124.100000</ele>
                <time>2018-07-22T04:35:31Z</time>
            </trkpt>
            <trkpt lon="101.035413" lat="13.017215">
                <ele>123.700000</ele>
                <time>2018-07-22T04:35:36Z</time>
            </trkpt>
            <trkpt lon="101.035444" lat="13.017231">
                <ele>124.200000</ele>
                <time>2018-07-22T04:35:41Z</time>
            </trkpt>
            <trkpt lon="101.035472" lat="13.017243">
                <ele>124.400000</ele>
                <time>2018-07-22T04:35:43Z</time>
            </trkpt>
            <trkpt lon="101.035503" lat="13.017253">
                <ele>124.400000</ele>
                <time>2018-07-22T04:35:46Z</time>
            </trkpt>
            <trkpt lon="101.035533" lat="13.017273">
                <ele>124.800000</ele>
                <time>2018-07-22T04:35:48Z</time>
            </trkpt>
            <trkpt lon="101.035561" lat="13.017291">
                <ele>125.200000</ele>
                <time>2018-07-22T04:35:50Z</time>
            </trkpt>
            <trkpt lon="101.035590" lat="13.017312">
                <ele>125.300000</ele>
                <time>2018-07-22T04:35:52Z</time>
            </trkpt>
            <trkpt lon="101.035611" lat="13.017337">
                <ele>125.600000</ele>
                <time>2018-07-22T04:35:53Z</time>
            </trkpt>
            <trkpt lon="101.035641" lat="13.017361">
                <ele>125.900000</ele>
                <time>2018-07-22T04:35:54Z</time>
            </trkpt>
            <trkpt lon="101.035679" lat="13.017384">
                <ele>125.900000</ele>
                <time>2018-07-22T04:35:55Z</time>
            </trkpt>
            <trkpt lon="101.035714" lat="13.017400">
                <ele>125.900000</ele>
                <time>2018-07-22T04:35:56Z</time>
            </trkpt>
            <trkpt lon="101.035753" lat="13.017419">
                <ele>125.800000</ele>
                <time>2018-07-22T04:35:57Z</time>
            </trkpt>
            <trkpt lon="101.035786" lat="13.017442">
                <ele>125.600000</ele>
                <time>2018-07-22T04:35:58Z</time>
            </trkpt>
            <trkpt lon="101.035810" lat="13.017473">
                <ele>125.400000</ele>
                <time>2018-07-22T04:35:59Z</time>
            </trkpt>
            <trkpt lon="101.035838" lat="13.017509">
                <ele>125.200000</ele>
                <time>2018-07-22T04:36:00Z</time>
            </trkpt>
            <trkpt lon="101.035874" lat="13.017536">
                <ele>124.400000</ele>
                <time>2018-07-22T04:36:01Z</time>
            </trkpt>
            <trkpt lon="101.035912" lat="13.017552">
                <ele>123.900000</ele>
                <time>2018-07-22T04:36:02Z</time>
            </trkpt>
            <trkpt lon="101.035944" lat="13.017575">
                <ele>122.700000</ele>
                <time>2018-07-22T04:36:03Z</time>
            </trkpt>
            <trkpt lon="101.035972" lat="13.017592">
                <ele>122.700000</ele>
                <time>2018-07-22T04:36:04Z</time>
            </trkpt>
            <trkpt lon="101.036005" lat="13.017613">
                <ele>121.300000</ele>
                <time>2018-07-22T04:36:05Z</time>
            </trkpt>
            <trkpt lon="101.036044" lat="13.017626">
                <ele>120.600000</ele>
                <time>2018-07-22T04:36:06Z</time>
            </trkpt>
            <trkpt lon="101.036069" lat="13.017638">
                <ele>119.600000</ele>
                <time>2018-07-22T04:36:07Z</time>
            </trkpt>
            <trkpt lon="101.036092" lat="13.017657">
                <ele>118.800000</ele>
                <time>2018-07-22T04:36:09Z</time>
            </trkpt>
            <trkpt lon="101.036118" lat="13.017669">
                <ele>117.800000</ele>
                <time>2018-07-22T04:36:11Z</time>
            </trkpt>
            <trkpt lon="101.036158" lat="13.017684">
                <ele>116.800000</ele>
                <time>2018-07-22T04:36:13Z</time>
            </trkpt>
            <trkpt lon="101.036214" lat="13.017697">
                <ele>115.500000</ele>
                <time>2018-07-22T04:36:15Z</time>
            </trkpt>
            <trkpt lon="101.036247" lat="13.017706">
                <ele>114.700000</ele>
                <time>2018-07-22T04:36:16Z</time>
            </trkpt>
            <trkpt lon="101.036285" lat="13.017718">
                <ele>114.000000</ele>
                <time>2018-07-22T04:36:17Z</time>
            </trkpt>
            <trkpt lon="101.036325" lat="13.017728">
                <ele>113.200000</ele>
                <time>2018-07-22T04:36:18Z</time>
            </trkpt>
            <trkpt lon="101.036364" lat="13.017734">
                <ele>113.000000</ele>
                <time>2018-07-22T04:36:19Z</time>
            </trkpt>
            <trkpt lon="101.036398" lat="13.017740">
                <ele>112.600000</ele>
                <time>2018-07-22T04:36:20Z</time>
            </trkpt>
            <trkpt lon="101.036434" lat="13.017735">
                <ele>112.600000</ele>
                <time>2018-07-22T04:36:21Z</time>
            </trkpt>
            <trkpt lon="101.036478" lat="13.017732">
                <ele>112.600000</ele>
                <time>2018-07-22T04:36:22Z</time>
            </trkpt>
            <trkpt lon="101.036523" lat="13.017726">
                <ele>112.800000</ele>
                <time>2018-07-22T04:36:23Z</time>
            </trkpt>
            <trkpt lon="101.036565" lat="13.017721">
                <ele>112.900000</ele>
                <time>2018-07-22T04:36:24Z</time>
            </trkpt>
            <trkpt lon="101.036609" lat="13.017720">
                <ele>113.100000</ele>
                <time>2018-07-22T04:36:25Z</time>
            </trkpt>
            <trkpt lon="101.036654" lat="13.017717">
                <ele>113.300000</ele>
                <time>2018-07-22T04:36:26Z</time>
            </trkpt>
            <trkpt lon="101.036701" lat="13.017712">
                <ele>113.600000</ele>
                <time>2018-07-22T04:36:27Z</time>
            </trkpt>
            <trkpt lon="101.036743" lat="13.017706">
                <ele>113.400000</ele>
                <time>2018-07-22T04:36:28Z</time>
            </trkpt>
            <trkpt lon="101.036786" lat="13.017700">
                <ele>112.700000</ele>
                <time>2018-07-22T04:36:29Z</time>
            </trkpt>
            <trkpt lon="101.036837" lat="13.017691">
                <ele>112.000000</ele>
                <time>2018-07-22T04:36:30Z</time>
            </trkpt>
            <trkpt lon="101.036876" lat="13.017686">
                <ele>111.500000</ele>
                <time>2018-07-22T04:36:31Z</time>
            </trkpt>
            <trkpt lon="101.036906" lat="13.017680">
                <ele>110.900000</ele>
                <time>2018-07-22T04:36:32Z</time>
            </trkpt>
            <trkpt lon="101.036947" lat="13.017682">
                <ele>110.300000</ele>
                <time>2018-07-22T04:36:34Z</time>
            </trkpt>
            <trkpt lon="101.036984" lat="13.017693">
                <ele>109.800000</ele>
                <time>2018-07-22T04:36:37Z</time>
            </trkpt>
            <trkpt lon="101.037005" lat="13.017725">
                <ele>109.800000</ele>
                <time>2018-07-22T04:36:39Z</time>
            </trkpt>
            <trkpt lon="101.037028" lat="13.017742">
                <ele>109.300000</ele>
                <time>2018-07-22T04:36:44Z</time>
            </trkpt>
            <trkpt lon="101.037060" lat="13.017735">
                <ele>108.800000</ele>
                <time>2018-07-22T04:36:46Z</time>
            </trkpt>
            <trkpt lon="101.037107" lat="13.017728">
                <ele>108.300000</ele>
                <time>2018-07-22T04:36:48Z</time>
            </trkpt>
            <trkpt lon="101.037137" lat="13.017721">
                <ele>108.300000</ele>
                <time>2018-07-22T04:36:49Z</time>
            </trkpt>
            <trkpt lon="101.037174" lat="13.017721">
                <ele>107.800000</ele>
                <time>2018-07-22T04:36:50Z</time>
            </trkpt>
            <trkpt lon="101.037219" lat="13.017721">
                <ele>107.300000</ele>
                <time>2018-07-22T04:36:51Z</time>
            </trkpt>
            <trkpt lon="101.037271" lat="13.017717">
                <ele>106.300000</ele>
                <time>2018-07-22T04:36:52Z</time>
            </trkpt>
            <trkpt lon="101.037322" lat="13.017702">
                <ele>105.800000</ele>
                <time>2018-07-22T04:36:53Z</time>
            </trkpt>
            <trkpt lon="101.037368" lat="13.017687">
                <ele>105.300000</ele>
                <time>2018-07-22T04:36:54Z</time>
            </trkpt>
            <trkpt lon="101.037417" lat="13.017676">
                <ele>105.000000</ele>
                <time>2018-07-22T04:36:55Z</time>
            </trkpt>
            <trkpt lon="101.037463" lat="13.017674">
                <ele>105.000000</ele>
                <time>2018-07-22T04:36:56Z</time>
            </trkpt>
            <trkpt lon="101.037508" lat="13.017667">
                <ele>104.900000</ele>
                <time>2018-07-22T04:36:57Z</time>
            </trkpt>
            <trkpt lon="101.037561" lat="13.017657">
                <ele>104.900000</ele>
                <time>2018-07-22T04:36:58Z</time>
            </trkpt>
            <trkpt lon="101.037612" lat="13.017649">
                <ele>104.900000</ele>
                <time>2018-07-22T04:36:59Z</time>
            </trkpt>
            <trkpt lon="101.037656" lat="13.017643">
                <ele>104.700000</ele>
                <time>2018-07-22T04:37:00Z</time>
            </trkpt>
            <trkpt lon="101.037699" lat="13.017636">
                <ele>104.700000</ele>
                <time>2018-07-22T04:37:01Z</time>
            </trkpt>
            <trkpt lon="101.037740" lat="13.017630">
                <ele>104.700000</ele>
                <time>2018-07-22T04:37:02Z</time>
            </trkpt>
            <trkpt lon="101.037774" lat="13.017625">
                <ele>104.700000</ele>
                <time>2018-07-22T04:37:03Z</time>
            </trkpt>
            <trkpt lon="101.037813" lat="13.017619">
                <ele>104.800000</ele>
                <time>2018-07-22T04:37:04Z</time>
            </trkpt>
            <trkpt lon="101.037855" lat="13.017609">
                <ele>104.900000</ele>
                <time>2018-07-22T04:37:05Z</time>
            </trkpt>
            <trkpt lon="101.037899" lat="13.017600">
                <ele>104.900000</ele>
                <time>2018-07-22T04:37:06Z</time>
            </trkpt>
            <trkpt lon="101.037940" lat="13.017597">
                <ele>105.200000</ele>
                <time>2018-07-22T04:37:07Z</time>
            </trkpt>
            <trkpt lon="101.037975" lat="13.017594">
                <ele>105.500000</ele>
                <time>2018-07-22T04:37:08Z</time>
            </trkpt>
            <trkpt lon="101.038008" lat="13.017590">
                <ele>105.900000</ele>
                <time>2018-07-22T04:37:09Z</time>
            </trkpt>
            <trkpt lon="101.038034" lat="13.017572">
                <ele>105.900000</ele>
                <time>2018-07-22T04:37:10Z</time>
            </trkpt>
            <trkpt lon="101.038055" lat="13.017532">
                <ele>106.500000</ele>
                <time>2018-07-22T04:37:12Z</time>
            </trkpt>
            <trkpt lon="101.038066" lat="13.017504">
                <ele>106.800000</ele>
                <time>2018-07-22T04:37:13Z</time>
            </trkpt>
            <trkpt lon="101.038074" lat="13.017474">
                <ele>107.000000</ele>
                <time>2018-07-22T04:37:14Z</time>
            </trkpt>
            <trkpt lon="101.038074" lat="13.017441">
                <ele>107.000000</ele>
                <time>2018-07-22T04:37:15Z</time>
            </trkpt>
            <trkpt lon="101.038078" lat="13.017404">
                <ele>107.300000</ele>
                <time>2018-07-22T04:37:16Z</time>
            </trkpt>
            <trkpt lon="101.038083" lat="13.017364">
                <ele>107.500000</ele>
                <time>2018-07-22T04:37:17Z</time>
            </trkpt>
            <trkpt lon="101.038085" lat="13.017330">
                <ele>108.300000</ele>
                <time>2018-07-22T04:37:18Z</time>
            </trkpt>
            <trkpt lon="101.038087" lat="13.017297">
                <ele>108.800000</ele>
                <time>2018-07-22T04:37:19Z</time>
            </trkpt>
            <trkpt lon="101.038085" lat="13.017267">
                <ele>109.200000</ele>
                <time>2018-07-22T04:37:20Z</time>
            </trkpt>
            <trkpt lon="101.038080" lat="13.017228">
                <ele>108.800000</ele>
                <time>2018-07-22T04:37:22Z</time>
            </trkpt>
            <trkpt lon="101.038072" lat="13.017186">
                <ele>109.300000</ele>
                <time>2018-07-22T04:37:24Z</time>
            </trkpt>
            <trkpt lon="101.038078" lat="13.017157">
                <ele>109.700000</ele>
                <time>2018-07-22T04:37:25Z</time>
            </trkpt>
            <trkpt lon="101.038093" lat="13.017133">
                <ele>110.000000</ele>
                <time>2018-07-22T04:37:26Z</time>
            </trkpt>
            <trkpt lon="101.038138" lat="13.017151">
                <ele>110.000000</ele>
                <time>2018-07-22T04:37:29Z</time>
            </trkpt>
            <trkpt lon="101.038166" lat="13.017172">
                <ele>110.000000</ele>
                <time>2018-07-22T04:37:30Z</time>
            </trkpt>
            <trkpt lon="101.038208" lat="13.017195">
                <ele>109.900000</ele>
                <time>2018-07-22T04:37:32Z</time>
            </trkpt>
            <trkpt lon="101.038223" lat="13.017239">
                <ele>109.900000</ele>
                <time>2018-07-22T04:37:34Z</time>
            </trkpt>
            <trkpt lon="101.038236" lat="13.017272">
                <ele>109.800000</ele>
                <time>2018-07-22T04:37:36Z</time>
            </trkpt>
            <trkpt lon="101.038263" lat="13.017306">
                <ele>110.000000</ele>
                <time>2018-07-22T04:37:38Z</time>
            </trkpt>
            <trkpt lon="101.038277" lat="13.017334">
                <ele>110.000000</ele>
                <time>2018-07-22T04:37:40Z</time>
            </trkpt>
            <trkpt lon="101.038299" lat="13.017358">
                <ele>109.800000</ele>
                <time>2018-07-22T04:37:42Z</time>
            </trkpt>
            <trkpt lon="101.038323" lat="13.017401">
                <ele>109.600000</ele>
                <time>2018-07-22T04:37:44Z</time>
            </trkpt>
            <trkpt lon="101.038343" lat="13.017422">
                <ele>109.600000</ele>
                <time>2018-07-22T04:37:45Z</time>
            </trkpt>
            <trkpt lon="101.038365" lat="13.017442">
                <ele>109.300000</ele>
                <time>2018-07-22T04:37:46Z</time>
            </trkpt>
            <trkpt lon="101.038397" lat="13.017477">
                <ele>109.300000</ele>
                <time>2018-07-22T04:37:48Z</time>
            </trkpt>
            <trkpt lon="101.038429" lat="13.017518">
                <ele>109.100000</ele>
                <time>2018-07-22T04:37:50Z</time>
            </trkpt>
            <trkpt lon="101.038449" lat="13.017543">
                <ele>109.000000</ele>
                <time>2018-07-22T04:37:51Z</time>
            </trkpt>
            <trkpt lon="101.038471" lat="13.017560">
                <ele>109.000000</ele>
                <time>2018-07-22T04:37:52Z</time>
            </trkpt>
            <trkpt lon="101.038495" lat="13.017578">
                <ele>109.000000</ele>
                <time>2018-07-22T04:37:53Z</time>
            </trkpt>
            <trkpt lon="101.038518" lat="13.017597">
                <ele>109.000000</ele>
                <time>2018-07-22T04:37:54Z</time>
            </trkpt>
            <trkpt lon="101.038544" lat="13.017614">
                <ele>109.000000</ele>
                <time>2018-07-22T04:37:55Z</time>
            </trkpt>
            <trkpt lon="101.038581" lat="13.017637">
                <ele>109.000000</ele>
                <time>2018-07-22T04:37:57Z</time>
            </trkpt>
            <trkpt lon="101.038605" lat="13.017656">
                <ele>109.000000</ele>
                <time>2018-07-22T04:37:58Z</time>
            </trkpt>
            <trkpt lon="101.038630" lat="13.017678">
                <ele>109.000000</ele>
                <time>2018-07-22T04:37:59Z</time>
            </trkpt>
            <trkpt lon="101.038656" lat="13.017700">
                <ele>109.100000</ele>
                <time>2018-07-22T04:38:00Z</time>
            </trkpt>
            <trkpt lon="101.038680" lat="13.017719">
                <ele>109.100000</ele>
                <time>2018-07-22T04:38:01Z</time>
            </trkpt>
            <trkpt lon="101.038707" lat="13.017741">
                <ele>109.200000</ele>
                <time>2018-07-22T04:38:02Z</time>
            </trkpt>
            <trkpt lon="101.038733" lat="13.017762">
                <ele>109.300000</ele>
                <time>2018-07-22T04:38:03Z</time>
            </trkpt>
            <trkpt lon="101.038765" lat="13.017792">
                <ele>109.600000</ele>
                <time>2018-07-22T04:38:05Z</time>
            </trkpt>
            <trkpt lon="101.038787" lat="13.017815">
                <ele>109.900000</ele>
                <time>2018-07-22T04:38:06Z</time>
            </trkpt>
            <trkpt lon="101.038818" lat="13.017847">
                <ele>109.900000</ele>
                <time>2018-07-22T04:38:08Z</time>
            </trkpt>
            <trkpt lon="101.038846" lat="13.017876">
                <ele>110.300000</ele>
                <time>2018-07-22T04:38:10Z</time>
            </trkpt>
            <trkpt lon="101.038867" lat="13.017895">
                <ele>110.300000</ele>
                <time>2018-07-22T04:38:11Z</time>
            </trkpt>
            <trkpt lon="101.038903" lat="13.017934">
                <ele>110.800000</ele>
                <time>2018-07-22T04:38:13Z</time>
            </trkpt>
            <trkpt lon="101.038923" lat="13.017957">
                <ele>111.300000</ele>
                <time>2018-07-22T04:38:14Z</time>
            </trkpt>
            <trkpt lon="101.038948" lat="13.017989">
                <ele>111.800000</ele>
                <time>2018-07-22T04:38:16Z</time>
            </trkpt>
            <trkpt lon="101.038969" lat="13.018015">
                <ele>111.800000</ele>
                <time>2018-07-22T04:38:18Z</time>
            </trkpt>
            <trkpt lon="101.038992" lat="13.018047">
                <ele>112.200000</ele>
                <time>2018-07-22T04:38:20Z</time>
            </trkpt>
            <trkpt lon="101.039015" lat="13.018065">
                <ele>112.400000</ele>
                <time>2018-07-22T04:38:21Z</time>
            </trkpt>
            <trkpt lon="101.039040" lat="13.018085">
                <ele>112.400000</ele>
                <time>2018-07-22T04:38:22Z</time>
            </trkpt>
            <trkpt lon="101.039063" lat="13.018100">
                <ele>112.400000</ele>
                <time>2018-07-22T04:38:23Z</time>
            </trkpt>
            <trkpt lon="101.039087" lat="13.018115">
                <ele>112.700000</ele>
                <time>2018-07-22T04:38:24Z</time>
            </trkpt>
            <trkpt lon="101.039122" lat="13.018130">
                <ele>112.700000</ele>
                <time>2018-07-22T04:38:26Z</time>
            </trkpt>
            <trkpt lon="101.039157" lat="13.018142">
                <ele>112.900000</ele>
                <time>2018-07-22T04:38:28Z</time>
            </trkpt>
            <trkpt lon="101.039187" lat="13.018158">
                <ele>113.200000</ele>
                <time>2018-07-22T04:38:29Z</time>
            </trkpt>
            <trkpt lon="101.039234" lat="13.018180">
                <ele>113.400000</ele>
                <time>2018-07-22T04:38:31Z</time>
            </trkpt>
            <trkpt lon="101.039273" lat="13.018195">
                <ele>114.000000</ele>
                <time>2018-07-22T04:38:33Z</time>
            </trkpt>
            <trkpt lon="101.039329" lat="13.018201">
                <ele>114.500000</ele>
                <time>2018-07-22T04:38:35Z</time>
            </trkpt>
            <trkpt lon="101.039358" lat="13.018204">
                <ele>114.500000</ele>
                <time>2018-07-22T04:38:36Z</time>
            </trkpt>
            <trkpt lon="101.039401" lat="13.018204">
                <ele>114.700000</ele>
                <time>2018-07-22T04:38:38Z</time>
            </trkpt>
            <trkpt lon="101.039428" lat="13.018211">
                <ele>115.000000</ele>
                <time>2018-07-22T04:38:39Z</time>
            </trkpt>
            <trkpt lon="101.039454" lat="13.018222">
                <ele>115.000000</ele>
                <time>2018-07-22T04:38:40Z</time>
            </trkpt>
            <trkpt lon="101.039492" lat="13.018234">
                <ele>115.500000</ele>
                <time>2018-07-22T04:38:42Z</time>
            </trkpt>
            <trkpt lon="101.039544" lat="13.018246">
                <ele>116.000000</ele>
                <time>2018-07-22T04:38:44Z</time>
            </trkpt>
            <trkpt lon="101.039587" lat="13.018255">
                <ele>116.200000</ele>
                <time>2018-07-22T04:38:46Z</time>
            </trkpt>
            <trkpt lon="101.039632" lat="13.018266">
                <ele>116.500000</ele>
                <time>2018-07-22T04:38:48Z</time>
            </trkpt>
            <trkpt lon="101.039662" lat="13.018272">
                <ele>116.500000</ele>
                <time>2018-07-22T04:38:51Z</time>
            </trkpt>
            <trkpt lon="101.039704" lat="13.018269">
                <ele>116.700000</ele>
                <time>2018-07-22T04:38:54Z</time>
            </trkpt>
            <trkpt lon="101.039755" lat="13.018270">
                <ele>117.000000</ele>
                <time>2018-07-22T04:38:56Z</time>
            </trkpt>
            <trkpt lon="101.039799" lat="13.018272">
                <ele>117.200000</ele>
                <time>2018-07-22T04:38:58Z</time>
            </trkpt>
            <trkpt lon="101.039837" lat="13.018281">
                <ele>117.700000</ele>
                <time>2018-07-22T04:39:00Z</time>
            </trkpt>
            <trkpt lon="101.039887" lat="13.018290">
                <ele>118.200000</ele>
                <time>2018-07-22T04:39:02Z</time>
            </trkpt>
            <trkpt lon="101.039924" lat="13.018301">
                <ele>118.200000</ele>
                <time>2018-07-22T04:39:04Z</time>
            </trkpt>
            <trkpt lon="101.039966" lat="13.018326">
                <ele>118.700000</ele>
                <time>2018-07-22T04:39:06Z</time>
            </trkpt>
            <trkpt lon="101.040003" lat="13.018348">
                <ele>118.900000</ele>
                <time>2018-07-22T04:39:08Z</time>
            </trkpt>
            <trkpt lon="101.040028" lat="13.018361">
                <ele>119.100000</ele>
                <time>2018-07-22T04:39:10Z</time>
            </trkpt>
            <trkpt lon="101.040068" lat="13.018375">
                <ele>119.100000</ele>
                <time>2018-07-22T04:39:13Z</time>
            </trkpt>
            <trkpt lon="101.040102" lat="13.018386">
                <ele>119.100000</ele>
                <time>2018-07-22T04:39:15Z</time>
            </trkpt>
            <trkpt lon="101.040133" lat="13.018409">
                <ele>119.300000</ele>
                <time>2018-07-22T04:39:17Z</time>
            </trkpt>
            <trkpt lon="101.040158" lat="13.018426">
                <ele>119.400000</ele>
                <time>2018-07-22T04:39:18Z</time>
            </trkpt>
            <trkpt lon="101.040190" lat="13.018450">
                <ele>119.400000</ele>
                <time>2018-07-22T04:39:21Z</time>
            </trkpt>
            <trkpt lon="101.040213" lat="13.018468">
                <ele>119.400000</ele>
                <time>2018-07-22T04:39:24Z</time>
            </trkpt>
            <trkpt lon="101.040248" lat="13.018489">
                <ele>119.400000</ele>
                <time>2018-07-22T04:39:27Z</time>
            </trkpt>
            <trkpt lon="101.040284" lat="13.018515">
                <ele>119.200000</ele>
                <time>2018-07-22T04:39:29Z</time>
            </trkpt>
            <trkpt lon="101.040330" lat="13.018552">
                <ele>118.900000</ele>
                <time>2018-07-22T04:39:31Z</time>
            </trkpt>
            <trkpt lon="101.040352" lat="13.018571">
                <ele>118.900000</ele>
                <time>2018-07-22T04:39:32Z</time>
            </trkpt>
            <trkpt lon="101.040378" lat="13.018598">
                <ele>118.700000</ele>
                <time>2018-07-22T04:39:34Z</time>
            </trkpt>
            <trkpt lon="101.040395" lat="13.018621">
                <ele>118.700000</ele>
                <time>2018-07-22T04:39:35Z</time>
            </trkpt>
            <trkpt lon="101.040418" lat="13.018658">
                <ele>118.400000</ele>
                <time>2018-07-22T04:39:36Z</time>
            </trkpt>
            <trkpt lon="101.040450" lat="13.018689">
                <ele>118.200000</ele>
                <time>2018-07-22T04:39:38Z</time>
            </trkpt>
            <trkpt lon="101.040507" lat="13.018697">
                <ele>118.200000</ele>
                <time>2018-07-22T04:39:40Z</time>
            </trkpt>
            <trkpt lon="101.040548" lat="13.018698">
                <ele>118.200000</ele>
                <time>2018-07-22T04:39:42Z</time>
            </trkpt>
            <trkpt lon="101.040600" lat="13.018678">
                <ele>118.000000</ele>
                <time>2018-07-22T04:39:44Z</time>
            </trkpt>
            <trkpt lon="101.040633" lat="13.018688">
                <ele>118.000000</ele>
                <time>2018-07-22T04:39:46Z</time>
            </trkpt>
            <trkpt lon="101.040667" lat="13.018710">
                <ele>118.100000</ele>
                <time>2018-07-22T04:39:48Z</time>
            </trkpt>
            <trkpt lon="101.040713" lat="13.018703">
                <ele>118.100000</ele>
                <time>2018-07-22T04:39:50Z</time>
            </trkpt>
            <trkpt lon="101.040765" lat="13.018716">
                <ele>118.100000</ele>
                <time>2018-07-22T04:39:52Z</time>
            </trkpt>
            <trkpt lon="101.040820" lat="13.018720">
                <ele>118.000000</ele>
                <time>2018-07-22T04:39:54Z</time>
            </trkpt>
            <trkpt lon="101.040852" lat="13.018742">
                <ele>118.000000</ele>
                <time>2018-07-22T04:39:55Z</time>
            </trkpt>
            <trkpt lon="101.040877" lat="13.018758">
                <ele>118.000000</ele>
                <time>2018-07-22T04:39:56Z</time>
            </trkpt>
            <trkpt lon="101.040900" lat="13.018781">
                <ele>118.000000</ele>
                <time>2018-07-22T04:39:57Z</time>
            </trkpt>
            <trkpt lon="101.040927" lat="13.018816">
                <ele>118.000000</ele>
                <time>2018-07-22T04:39:59Z</time>
            </trkpt>
            <trkpt lon="101.040960" lat="13.018861">
                <ele>117.900000</ele>
                <time>2018-07-22T04:40:01Z</time>
            </trkpt>
            <trkpt lon="101.040998" lat="13.018903">
                <ele>117.700000</ele>
                <time>2018-07-22T04:40:03Z</time>
            </trkpt>
            <trkpt lon="101.041016" lat="13.018942">
                <ele>117.400000</ele>
                <time>2018-07-22T04:40:05Z</time>
            </trkpt>
            <trkpt lon="101.041050" lat="13.018980">
                <ele>117.400000</ele>
                <time>2018-07-22T04:40:07Z</time>
            </trkpt>
            <trkpt lon="101.041079" lat="13.019012">
                <ele>117.100000</ele>
                <time>2018-07-22T04:40:09Z</time>
            </trkpt>
            <trkpt lon="101.041091" lat="13.019046">
                <ele>116.700000</ele>
                <time>2018-07-22T04:40:11Z</time>
            </trkpt>
            <trkpt lon="101.041107" lat="13.019094">
                <ele>116.200000</ele>
                <time>2018-07-22T04:40:13Z</time>
            </trkpt>
            <trkpt lon="101.041144" lat="13.019126">
                <ele>115.700000</ele>
                <time>2018-07-22T04:40:15Z</time>
            </trkpt>
            <trkpt lon="101.041145" lat="13.019162">
                <ele>115.200000</ele>
                <time>2018-07-22T04:40:18Z</time>
            </trkpt>
            <trkpt lon="101.041135" lat="13.019209">
                <ele>114.700000</ele>
                <time>2018-07-22T04:40:20Z</time>
            </trkpt>
            <trkpt lon="101.041125" lat="13.019255">
                <ele>114.200000</ele>
                <time>2018-07-22T04:40:22Z</time>
            </trkpt>
            <trkpt lon="101.041114" lat="13.019305">
                <ele>113.700000</ele>
                <time>2018-07-22T04:40:24Z</time>
            </trkpt>
            <trkpt lon="101.041098" lat="13.019334">
                <ele>113.200000</ele>
                <time>2018-07-22T04:40:25Z</time>
            </trkpt>
            <trkpt lon="101.041069" lat="13.019382">
                <ele>112.800000</ele>
                <time>2018-07-22T04:40:27Z</time>
            </trkpt>
            <trkpt lon="101.041054" lat="13.019413">
                <ele>112.500000</ele>
                <time>2018-07-22T04:40:28Z</time>
            </trkpt>
            <trkpt lon="101.041028" lat="13.019450">
                <ele>112.300000</ele>
                <time>2018-07-22T04:40:29Z</time>
            </trkpt>
            <trkpt lon="101.041010" lat="13.019475">
                <ele>112.300000</ele>
                <time>2018-07-22T04:40:30Z</time>
            </trkpt>
            <trkpt lon="101.040994" lat="13.019501">
                <ele>112.500000</ele>
                <time>2018-07-22T04:40:31Z</time>
            </trkpt>
            <trkpt lon="101.040977" lat="13.019531">
                <ele>112.400000</ele>
                <time>2018-07-22T04:40:32Z</time>
            </trkpt>
            <trkpt lon="101.040963" lat="13.019556">
                <ele>112.400000</ele>
                <time>2018-07-22T04:40:33Z</time>
            </trkpt>
            <trkpt lon="101.040945" lat="13.019583">
                <ele>112.900000</ele>
                <time>2018-07-22T04:40:34Z</time>
            </trkpt>
            <trkpt lon="101.040922" lat="13.019608">
                <ele>112.900000</ele>
                <time>2018-07-22T04:40:35Z</time>
            </trkpt>
            <trkpt lon="101.040886" lat="13.019650">
                <ele>113.400000</ele>
                <time>2018-07-22T04:40:37Z</time>
            </trkpt>
            <trkpt lon="101.040856" lat="13.019691">
                <ele>113.900000</ele>
                <time>2018-07-22T04:40:39Z</time>
            </trkpt>
            <trkpt lon="101.040811" lat="13.019727">
                <ele>114.400000</ele>
                <time>2018-07-22T04:40:41Z</time>
            </trkpt>
            <trkpt lon="101.040781" lat="13.019755">
                <ele>114.700000</ele>
                <time>2018-07-22T04:40:42Z</time>
            </trkpt>
            <trkpt lon="101.040760" lat="13.019776">
                <ele>114.700000</ele>
                <time>2018-07-22T04:40:43Z</time>
            </trkpt>
            <trkpt lon="101.040733" lat="13.019827">
                <ele>114.800000</ele>
                <time>2018-07-22T04:40:45Z</time>
            </trkpt>
            <trkpt lon="101.040702" lat="13.019861">
                <ele>114.800000</ele>
                <time>2018-07-22T04:40:47Z</time>
            </trkpt>
            <trkpt lon="101.040682" lat="13.019881">
                <ele>114.900000</ele>
                <time>2018-07-22T04:40:48Z</time>
            </trkpt>
            <trkpt lon="101.040657" lat="13.019920">
                <ele>115.100000</ele>
                <time>2018-07-22T04:40:50Z</time>
            </trkpt>
            <trkpt lon="101.040640" lat="13.019947">
                <ele>115.100000</ele>
                <time>2018-07-22T04:40:51Z</time>
            </trkpt>
            <trkpt lon="101.040624" lat="13.019971">
                <ele>115.100000</ele>
                <time>2018-07-22T04:40:52Z</time>
            </trkpt>
            <trkpt lon="101.040609" lat="13.019995">
                <ele>115.100000</ele>
                <time>2018-07-22T04:40:53Z</time>
            </trkpt>
            <trkpt lon="101.040588" lat="13.020038">
                <ele>114.900000</ele>
                <time>2018-07-22T04:40:55Z</time>
            </trkpt>
            <trkpt lon="101.040571" lat="13.020082">
                <ele>114.700000</ele>
                <time>2018-07-22T04:40:57Z</time>
            </trkpt>
            <trkpt lon="101.040563" lat="13.020136">
                <ele>114.600000</ele>
                <time>2018-07-22T04:41:00Z</time>
            </trkpt>
            <trkpt lon="101.040566" lat="13.020186">
                <ele>114.400000</ele>
                <time>2018-07-22T04:41:02Z</time>
            </trkpt>
            <trkpt lon="101.040573" lat="13.020218">
                <ele>114.500000</ele>
                <time>2018-07-22T04:41:04Z</time>
            </trkpt>
            <trkpt lon="101.040586" lat="13.020246">
                <ele>115.100000</ele>
                <time>2018-07-22T04:41:06Z</time>
            </trkpt>
            <trkpt lon="101.040594" lat="13.020293">
                <ele>115.500000</ele>
                <time>2018-07-22T04:41:08Z</time>
            </trkpt>
            <trkpt lon="101.040600" lat="13.020331">
                <ele>115.800000</ele>
                <time>2018-07-22T04:41:09Z</time>
            </trkpt>
            <trkpt lon="101.040607" lat="13.020365">
                <ele>116.200000</ele>
                <time>2018-07-22T04:41:10Z</time>
            </trkpt>
            <trkpt lon="101.040611" lat="13.020409">
                <ele>116.500000</ele>
                <time>2018-07-22T04:41:12Z</time>
            </trkpt>
            <trkpt lon="101.040611" lat="13.020436">
                <ele>116.500000</ele>
                <time>2018-07-22T04:41:13Z</time>
            </trkpt>
            <trkpt lon="101.040615" lat="13.020469">
                <ele>116.900000</ele>
                <time>2018-07-22T04:41:14Z</time>
            </trkpt>
            <trkpt lon="101.040615" lat="13.020510">
                <ele>117.300000</ele>
                <time>2018-07-22T04:41:15Z</time>
            </trkpt>
            <trkpt lon="101.040619" lat="13.020552">
                <ele>117.400000</ele>
                <time>2018-07-22T04:41:16Z</time>
            </trkpt>
            <trkpt lon="101.040628" lat="13.020590">
                <ele>117.900000</ele>
                <time>2018-07-22T04:41:17Z</time>
            </trkpt>
            <trkpt lon="101.040637" lat="13.020628">
                <ele>118.400000</ele>
                <time>2018-07-22T04:41:18Z</time>
            </trkpt>
            <trkpt lon="101.040637" lat="13.020672">
                <ele>118.900000</ele>
                <time>2018-07-22T04:41:19Z</time>
            </trkpt>
            <trkpt lon="101.040638" lat="13.020711">
                <ele>119.400000</ele>
                <time>2018-07-22T04:41:20Z</time>
            </trkpt>
            <trkpt lon="101.040637" lat="13.020743">
                <ele>119.900000</ele>
                <time>2018-07-22T04:41:21Z</time>
            </trkpt>
            <trkpt lon="101.040633" lat="13.020781">
                <ele>119.900000</ele>
                <time>2018-07-22T04:41:22Z</time>
            </trkpt>
            <trkpt lon="101.040632" lat="13.020817">
                <ele>120.400000</ele>
                <time>2018-07-22T04:41:23Z</time>
            </trkpt>
            <trkpt lon="101.040633" lat="13.020852">
                <ele>120.900000</ele>
                <time>2018-07-22T04:41:24Z</time>
            </trkpt>
            <trkpt lon="101.040636" lat="13.020892">
                <ele>121.300000</ele>
                <time>2018-07-22T04:41:25Z</time>
            </trkpt>
            <trkpt lon="101.040635" lat="13.020928">
                <ele>121.600000</ele>
                <time>2018-07-22T04:41:26Z</time>
            </trkpt>
            <trkpt lon="101.040634" lat="13.020959">
                <ele>121.800000</ele>
                <time>2018-07-22T04:41:27Z</time>
            </trkpt>
            <trkpt lon="101.040636" lat="13.021002">
                <ele>122.100000</ele>
                <time>2018-07-22T04:41:28Z</time>
            </trkpt>
            <trkpt lon="101.040629" lat="13.021059">
                <ele>122.200000</ele>
                <time>2018-07-22T04:41:29Z</time>
            </trkpt>
            <trkpt lon="101.040631" lat="13.021101">
                <ele>122.200000</ele>
                <time>2018-07-22T04:41:30Z</time>
            </trkpt>
            <trkpt lon="101.040640" lat="13.021141">
                <ele>122.200000</ele>
                <time>2018-07-22T04:41:31Z</time>
            </trkpt>
            <trkpt lon="101.040646" lat="13.021181">
                <ele>122.200000</ele>
                <time>2018-07-22T04:41:32Z</time>
            </trkpt>
            <trkpt lon="101.040641" lat="13.021228">
                <ele>122.100000</ele>
                <time>2018-07-22T04:41:33Z</time>
            </trkpt>
            <trkpt lon="101.040643" lat="13.021274">
                <ele>121.800000</ele>
                <time>2018-07-22T04:41:34Z</time>
            </trkpt>
            <trkpt lon="101.040647" lat="13.021322">
                <ele>121.600000</ele>
                <time>2018-07-22T04:41:35Z</time>
            </trkpt>
            <trkpt lon="101.040652" lat="13.021363">
                <ele>121.300000</ele>
                <time>2018-07-22T04:41:36Z</time>
            </trkpt>
            <trkpt lon="101.040655" lat="13.021409">
                <ele>121.200000</ele>
                <time>2018-07-22T04:41:37Z</time>
            </trkpt>
            <trkpt lon="101.040667" lat="13.021461">
                <ele>120.800000</ele>
                <time>2018-07-22T04:41:38Z</time>
            </trkpt>
            <trkpt lon="101.040680" lat="13.021505">
                <ele>120.800000</ele>
                <time>2018-07-22T04:41:39Z</time>
            </trkpt>
            <trkpt lon="101.040696" lat="13.021548">
                <ele>120.800000</ele>
                <time>2018-07-22T04:41:40Z</time>
            </trkpt>
            <trkpt lon="101.040704" lat="13.021604">
                <ele>120.100000</ele>
                <time>2018-07-22T04:41:41Z</time>
            </trkpt>
            <trkpt lon="101.040713" lat="13.021654">
                <ele>120.100000</ele>
                <time>2018-07-22T04:41:42Z</time>
            </trkpt>
            <trkpt lon="101.040724" lat="13.021714">
                <ele>120.000000</ele>
                <time>2018-07-22T04:41:43Z</time>
            </trkpt>
            <trkpt lon="101.040739" lat="13.021774">
                <ele>119.800000</ele>
                <time>2018-07-22T04:41:44Z</time>
            </trkpt>
            <trkpt lon="101.040749" lat="13.021823">
                <ele>119.100000</ele>
                <time>2018-07-22T04:41:45Z</time>
            </trkpt>
            <trkpt lon="101.040753" lat="13.021858">
                <ele>118.900000</ele>
                <time>2018-07-22T04:41:46Z</time>
            </trkpt>
            <trkpt lon="101.040815" lat="13.021877">
                <ele>118.400000</ele>
                <time>2018-07-22T04:41:48Z</time>
            </trkpt>
            <trkpt lon="101.040855" lat="13.021884">
                <ele>117.900000</ele>
                <time>2018-07-22T04:41:49Z</time>
            </trkpt>
            <trkpt lon="101.040891" lat="13.021889">
                <ele>117.400000</ele>
                <time>2018-07-22T04:41:50Z</time>
            </trkpt>
            <trkpt lon="101.040935" lat="13.021881">
                <ele>116.900000</ele>
                <time>2018-07-22T04:41:51Z</time>
            </trkpt>
            <trkpt lon="101.040982" lat="13.021871">
                <ele>116.500000</ele>
                <time>2018-07-22T04:41:52Z</time>
            </trkpt>
            <trkpt lon="101.041037" lat="13.021858">
                <ele>115.800000</ele>
                <time>2018-07-22T04:41:53Z</time>
            </trkpt>
            <trkpt lon="101.041090" lat="13.021850">
                <ele>115.300000</ele>
                <time>2018-07-22T04:41:54Z</time>
            </trkpt>
            <trkpt lon="101.041147" lat="13.021858">
                <ele>115.100000</ele>
                <time>2018-07-22T04:41:55Z</time>
            </trkpt>
            <trkpt lon="101.041201" lat="13.021878">
                <ele>115.100000</ele>
                <time>2018-07-22T04:41:56Z</time>
            </trkpt>
            <trkpt lon="101.041233" lat="13.021899">
                <ele>114.800000</ele>
                <time>2018-07-22T04:41:57Z</time>
            </trkpt>
            <trkpt lon="101.041269" lat="13.021926">
                <ele>114.400000</ele>
                <time>2018-07-22T04:41:58Z</time>
            </trkpt>
            <trkpt lon="101.041309" lat="13.021963">
                <ele>114.100000</ele>
                <time>2018-07-22T04:41:59Z</time>
            </trkpt>
            <trkpt lon="101.041337" lat="13.022002">
                <ele>114.100000</ele>
                <time>2018-07-22T04:42:00Z</time>
            </trkpt>
            <trkpt lon="101.041372" lat="13.022046">
                <ele>114.000000</ele>
                <time>2018-07-22T04:42:01Z</time>
            </trkpt>
            <trkpt lon="101.041416" lat="13.022090">
                <ele>114.000000</ele>
                <time>2018-07-22T04:42:02Z</time>
            </trkpt>
            <trkpt lon="101.041453" lat="13.022126">
                <ele>114.000000</ele>
                <time>2018-07-22T04:42:03Z</time>
            </trkpt>
            <trkpt lon="101.041499" lat="13.022171">
                <ele>114.000000</ele>
                <time>2018-07-22T04:42:04Z</time>
            </trkpt>
            <trkpt lon="101.041543" lat="13.022214">
                <ele>114.100000</ele>
                <time>2018-07-22T04:42:05Z</time>
            </trkpt>
            <trkpt lon="101.041578" lat="13.022260">
                <ele>114.200000</ele>
                <time>2018-07-22T04:42:06Z</time>
            </trkpt>
            <trkpt lon="101.041618" lat="13.022300">
                <ele>114.200000</ele>
                <time>2018-07-22T04:42:07Z</time>
            </trkpt>
            <trkpt lon="101.041669" lat="13.022343">
                <ele>114.000000</ele>
                <time>2018-07-22T04:42:08Z</time>
            </trkpt>
            <trkpt lon="101.041713" lat="13.022384">
                <ele>113.900000</ele>
                <time>2018-07-22T04:42:09Z</time>
            </trkpt>
            <trkpt lon="101.041760" lat="13.022434">
                <ele>113.900000</ele>
                <time>2018-07-22T04:42:10Z</time>
            </trkpt>
            <trkpt lon="101.041776" lat="13.022458">
                <ele>113.900000</ele>
                <time>2018-07-22T04:42:11Z</time>
            </trkpt>
            <trkpt lon="101.041825" lat="13.022499">
                <ele>113.900000</ele>
                <time>2018-07-22T04:42:12Z</time>
            </trkpt>
            <trkpt lon="101.041867" lat="13.022550">
                <ele>114.000000</ele>
                <time>2018-07-22T04:42:13Z</time>
            </trkpt>
            <trkpt lon="101.041888" lat="13.022593">
                <ele>114.600000</ele>
                <time>2018-07-22T04:42:14Z</time>
            </trkpt>
            <trkpt lon="101.041918" lat="13.022628">
                <ele>115.000000</ele>
                <time>2018-07-22T04:42:15Z</time>
            </trkpt>
            <trkpt lon="101.041935" lat="13.022650">
                <ele>115.000000</ele>
                <time>2018-07-22T04:42:16Z</time>
            </trkpt>
            <trkpt lon="101.041957" lat="13.022673">
                <ele>115.600000</ele>
                <time>2018-07-22T04:42:17Z</time>
            </trkpt>
            <trkpt lon="101.041979" lat="13.022701">
                <ele>115.600000</ele>
                <time>2018-07-22T04:42:18Z</time>
            </trkpt>
            <trkpt lon="101.042005" lat="13.022733">
                <ele>116.100000</ele>
                <time>2018-07-22T04:42:19Z</time>
            </trkpt>
            <trkpt lon="101.042023" lat="13.022759">
                <ele>116.400000</ele>
                <time>2018-07-22T04:42:20Z</time>
            </trkpt>
            <trkpt lon="101.042040" lat="13.022789">
                <ele>116.400000</ele>
                <time>2018-07-22T04:42:21Z</time>
            </trkpt>
            <trkpt lon="101.042080" lat="13.022842">
                <ele>116.400000</ele>
                <time>2018-07-22T04:42:23Z</time>
            </trkpt>
            <trkpt lon="101.042099" lat="13.022868">
                <ele>116.400000</ele>
                <time>2018-07-22T04:42:24Z</time>
            </trkpt>
            <trkpt lon="101.042124" lat="13.022897">
                <ele>116.400000</ele>
                <time>2018-07-22T04:42:25Z</time>
            </trkpt>
            <trkpt lon="101.042148" lat="13.022933">
                <ele>116.700000</ele>
                <time>2018-07-22T04:42:26Z</time>
            </trkpt>
            <trkpt lon="101.042164" lat="13.022958">
                <ele>116.700000</ele>
                <time>2018-07-22T04:42:27Z</time>
            </trkpt>
            <trkpt lon="101.042201" lat="13.022999">
                <ele>116.900000</ele>
                <time>2018-07-22T04:42:29Z</time>
            </trkpt>
            <trkpt lon="101.042223" lat="13.023027">
                <ele>116.700000</ele>
                <time>2018-07-22T04:42:31Z</time>
            </trkpt>
            <trkpt lon="101.042241" lat="13.023060">
                <ele>116.900000</ele>
                <time>2018-07-22T04:42:33Z</time>
            </trkpt>
            <trkpt lon="101.042264" lat="13.023089">
                <ele>116.900000</ele>
                <time>2018-07-22T04:42:36Z</time>
            </trkpt>
            <trkpt lon="101.042299" lat="13.023123">
                <ele>116.900000</ele>
                <time>2018-07-22T04:42:39Z</time>
            </trkpt>
            <trkpt lon="101.042329" lat="13.023163">
                <ele>116.900000</ele>
                <time>2018-07-22T04:42:41Z</time>
            </trkpt>
            <trkpt lon="101.042348" lat="13.023185">
                <ele>116.900000</ele>
                <time>2018-07-22T04:42:42Z</time>
            </trkpt>
            <trkpt lon="101.042378" lat="13.023222">
                <ele>117.100000</ele>
                <time>2018-07-22T04:42:44Z</time>
            </trkpt>
            <trkpt lon="101.042418" lat="13.023265">
                <ele>117.300000</ele>
                <time>2018-07-22T04:42:46Z</time>
            </trkpt>
            <trkpt lon="101.042439" lat="13.023286">
                <ele>117.300000</ele>
                <time>2018-07-22T04:42:47Z</time>
            </trkpt>
            <trkpt lon="101.042459" lat="13.023323">
                <ele>117.600000</ele>
                <time>2018-07-22T04:42:48Z</time>
            </trkpt>
            <trkpt lon="101.042478" lat="13.023348">
                <ele>117.800000</ele>
                <time>2018-07-22T04:42:49Z</time>
            </trkpt>
            <trkpt lon="101.042504" lat="13.023374">
                <ele>118.100000</ele>
                <time>2018-07-22T04:42:50Z</time>
            </trkpt>
            <trkpt lon="101.042530" lat="13.023399">
                <ele>118.100000</ele>
                <time>2018-07-22T04:42:51Z</time>
            </trkpt>
            <trkpt lon="101.042555" lat="13.023421">
                <ele>118.100000</ele>
                <time>2018-07-22T04:42:52Z</time>
            </trkpt>
            <trkpt lon="101.042584" lat="13.023453">
                <ele>118.100000</ele>
                <time>2018-07-22T04:42:53Z</time>
            </trkpt>
            <trkpt lon="101.042610" lat="13.023484">
                <ele>117.900000</ele>
                <time>2018-07-22T04:42:54Z</time>
            </trkpt>
            <trkpt lon="101.042640" lat="13.023516">
                <ele>117.600000</ele>
                <time>2018-07-22T04:42:55Z</time>
            </trkpt>
            <trkpt lon="101.042668" lat="13.023546">
                <ele>117.600000</ele>
                <time>2018-07-22T04:42:56Z</time>
            </trkpt>
            <trkpt lon="101.042697" lat="13.023567">
                <ele>117.100000</ele>
                <time>2018-07-22T04:42:57Z</time>
            </trkpt>
            <trkpt lon="101.042723" lat="13.023591">
                <ele>116.600000</ele>
                <time>2018-07-22T04:42:58Z</time>
            </trkpt>
            <trkpt lon="101.042739" lat="13.023618">
                <ele>116.600000</ele>
                <time>2018-07-22T04:42:59Z</time>
            </trkpt>
            <trkpt lon="101.042761" lat="13.023639">
                <ele>116.600000</ele>
                <time>2018-07-22T04:43:00Z</time>
            </trkpt>
            <trkpt lon="101.042799" lat="13.023683">
                <ele>116.100000</ele>
                <time>2018-07-22T04:43:02Z</time>
            </trkpt>
            <trkpt lon="101.042824" lat="13.023712">
                <ele>115.900000</ele>
                <time>2018-07-22T04:43:03Z</time>
            </trkpt>
            <trkpt lon="101.042847" lat="13.023738">
                <ele>115.900000</ele>
                <time>2018-07-22T04:43:04Z</time>
            </trkpt>
            <trkpt lon="101.042870" lat="13.023762">
                <ele>116.100000</ele>
                <time>2018-07-22T04:43:05Z</time>
            </trkpt>
            <trkpt lon="101.042899" lat="13.023785">
                <ele>115.600000</ele>
                <time>2018-07-22T04:43:06Z</time>
            </trkpt>
            <trkpt lon="101.042924" lat="13.023807">
                <ele>116.300000</ele>
                <time>2018-07-22T04:43:07Z</time>
            </trkpt>
            <trkpt lon="101.042951" lat="13.023836">
                <ele>116.300000</ele>
                <time>2018-07-22T04:43:08Z</time>
            </trkpt>
            <trkpt lon="101.042980" lat="13.023862">
                <ele>115.600000</ele>
                <time>2018-07-22T04:43:09Z</time>
            </trkpt>
            <trkpt lon="101.043002" lat="13.023886">
                <ele>116.200000</ele>
                <time>2018-07-22T04:43:10Z</time>
            </trkpt>
            <trkpt lon="101.043026" lat="13.023915">
                <ele>115.500000</ele>
                <time>2018-07-22T04:43:11Z</time>
            </trkpt>
            <trkpt lon="101.043059" lat="13.023945">
                <ele>116.200000</ele>
                <time>2018-07-22T04:43:12Z</time>
            </trkpt>
            <trkpt lon="101.043090" lat="13.023976">
                <ele>116.300000</ele>
                <time>2018-07-22T04:43:13Z</time>
            </trkpt>
            <trkpt lon="101.043118" lat="13.024009">
                <ele>116.600000</ele>
                <time>2018-07-22T04:43:14Z</time>
            </trkpt>
            <trkpt lon="101.043148" lat="13.024047">
                <ele>117.500000</ele>
                <time>2018-07-22T04:43:15Z</time>
            </trkpt>
            <trkpt lon="101.043182" lat="13.024078">
                <ele>117.000000</ele>
                <time>2018-07-22T04:43:16Z</time>
            </trkpt>
            <trkpt lon="101.043212" lat="13.024100">
                <ele>117.800000</ele>
                <time>2018-07-22T04:43:17Z</time>
            </trkpt>
            <trkpt lon="101.043254" lat="13.024125">
                <ele>117.200000</ele>
                <time>2018-07-22T04:43:19Z</time>
            </trkpt>
            <trkpt lon="101.043270" lat="13.024149">
                <ele>118.300000</ele>
                <time>2018-07-22T04:43:21Z</time>
            </trkpt>
            <trkpt lon="101.043300" lat="13.024178">
                <ele>118.600000</ele>
                <time>2018-07-22T04:43:23Z</time>
            </trkpt>
            <trkpt lon="101.043322" lat="13.024196">
                <ele>117.700000</ele>
                <time>2018-07-22T04:43:24Z</time>
            </trkpt>
            <trkpt lon="101.043348" lat="13.024217">
                <ele>118.500000</ele>
                <time>2018-07-22T04:43:25Z</time>
            </trkpt>
            <trkpt lon="101.043388" lat="13.024256">
                <ele>118.300000</ele>
                <time>2018-07-22T04:43:27Z</time>
            </trkpt>
            <trkpt lon="101.043419" lat="13.024292">
                <ele>117.000000</ele>
                <time>2018-07-22T04:43:29Z</time>
            </trkpt>
            <trkpt lon="101.043437" lat="13.024330">
                <ele>117.800000</ele>
                <time>2018-07-22T04:43:32Z</time>
            </trkpt>
            <trkpt lon="101.043473" lat="13.024360">
                <ele>117.300000</ele>
                <time>2018-07-22T04:43:34Z</time>
            </trkpt>
            <trkpt lon="101.043497" lat="13.024387">
                <ele>116.800000</ele>
                <time>2018-07-22T04:43:36Z</time>
            </trkpt>
            <trkpt lon="101.043526" lat="13.024415">
                <ele>116.800000</ele>
                <time>2018-07-22T04:43:38Z</time>
            </trkpt>
            <trkpt lon="101.043562" lat="13.024443">
                <ele>116.000000</ele>
                <time>2018-07-22T04:43:40Z</time>
            </trkpt>
            <trkpt lon="101.043594" lat="13.024470">
                <ele>115.400000</ele>
                <time>2018-07-22T04:43:42Z</time>
            </trkpt>
            <trkpt lon="101.043622" lat="13.024487">
                <ele>114.300000</ele>
                <time>2018-07-22T04:43:44Z</time>
            </trkpt>
            <trkpt lon="101.043655" lat="13.024499">
                <ele>114.300000</ele>
                <time>2018-07-22T04:43:46Z</time>
            </trkpt>
            <trkpt lon="101.043680" lat="13.024487">
                <ele>113.200000</ele>
                <time>2018-07-22T04:43:48Z</time>
            </trkpt>
            <trkpt lon="101.043728" lat="13.024483">
                <ele>112.100000</ele>
                <time>2018-07-22T04:43:52Z</time>
            </trkpt>
            <trkpt lon="101.043758" lat="13.024460">
                <ele>110.400000</ele>
                <time>2018-07-22T04:43:53Z</time>
            </trkpt>
            <trkpt lon="101.043789" lat="13.024441">
                <ele>110.400000</ele>
                <time>2018-07-22T04:43:54Z</time>
            </trkpt>
            <trkpt lon="101.043826" lat="13.024417">
                <ele>108.600000</ele>
                <time>2018-07-22T04:43:55Z</time>
            </trkpt>
            <trkpt lon="101.043870" lat="13.024396">
                <ele>107.600000</ele>
                <time>2018-07-22T04:43:56Z</time>
            </trkpt>
            <trkpt lon="101.043914" lat="13.024367">
                <ele>106.000000</ele>
                <time>2018-07-22T04:43:57Z</time>
            </trkpt>
            <trkpt lon="101.043958" lat="13.024340">
                <ele>105.500000</ele>
                <time>2018-07-22T04:43:58Z</time>
            </trkpt>
            <trkpt lon="101.044011" lat="13.024308">
                <ele>104.500000</ele>
                <time>2018-07-22T04:43:59Z</time>
            </trkpt>
            <trkpt lon="101.044071" lat="13.024269">
                <ele>103.700000</ele>
                <time>2018-07-22T04:44:00Z</time>
            </trkpt>
            <trkpt lon="101.044136" lat="13.024229">
                <ele>103.100000</ele>
                <time>2018-07-22T04:44:01Z</time>
            </trkpt>
            <trkpt lon="101.044207" lat="13.024185">
                <ele>103.100000</ele>
                <time>2018-07-22T04:44:02Z</time>
            </trkpt>
            <trkpt lon="101.044274" lat="13.024139">
                <ele>103.000000</ele>
                <time>2018-07-22T04:44:03Z</time>
            </trkpt>
            <trkpt lon="101.044343" lat="13.024089">
                <ele>103.000000</ele>
                <time>2018-07-22T04:44:04Z</time>
            </trkpt>
            <trkpt lon="101.044410" lat="13.024042">
                <ele>103.000000</ele>
                <time>2018-07-22T04:44:05Z</time>
            </trkpt>
            <trkpt lon="101.044484" lat="13.023994">
                <ele>102.800000</ele>
                <time>2018-07-22T04:44:06Z</time>
            </trkpt>
            <trkpt lon="101.044561" lat="13.023951">
                <ele>102.600000</ele>
                <time>2018-07-22T04:44:07Z</time>
            </trkpt>
            <trkpt lon="101.044635" lat="13.023910">
                <ele>102.100000</ele>
                <time>2018-07-22T04:44:08Z</time>
            </trkpt>
            <trkpt lon="101.044713" lat="13.023873">
                <ele>101.800000</ele>
                <time>2018-07-22T04:44:09Z</time>
            </trkpt>
            <trkpt lon="101.044791" lat="13.023840">
                <ele>101.400000</ele>
                <time>2018-07-22T04:44:10Z</time>
            </trkpt>
            <trkpt lon="101.044859" lat="13.023799">
                <ele>100.700000</ele>
                <time>2018-07-22T04:44:11Z</time>
            </trkpt>
            <trkpt lon="101.044914" lat="13.023754">
                <ele>100.100000</ele>
                <time>2018-07-22T04:44:12Z</time>
            </trkpt>
            <trkpt lon="101.044968" lat="13.023722">
                <ele>99.900000</ele>
                <time>2018-07-22T04:44:13Z</time>
            </trkpt>
            <trkpt lon="101.045016" lat="13.023695">
                <ele>99.500000</ele>
                <time>2018-07-22T04:44:14Z</time>
            </trkpt>
            <trkpt lon="101.045058" lat="13.023673">
                <ele>99.300000</ele>
                <time>2018-07-22T04:44:15Z</time>
            </trkpt>
            <trkpt lon="101.045107" lat="13.023674">
                <ele>99.100000</ele>
                <time>2018-07-22T04:44:16Z</time>
            </trkpt>
            <trkpt lon="101.045162" lat="13.023693">
                <ele>99.000000</ele>
                <time>2018-07-22T04:44:17Z</time>
            </trkpt>
            <trkpt lon="101.045212" lat="13.023714">
                <ele>99.000000</ele>
                <time>2018-07-22T04:44:18Z</time>
            </trkpt>
            <trkpt lon="101.045266" lat="13.023732">
                <ele>99.000000</ele>
                <time>2018-07-22T04:44:19Z</time>
            </trkpt>
            <trkpt lon="101.045324" lat="13.023746">
                <ele>99.100000</ele>
                <time>2018-07-22T04:44:20Z</time>
            </trkpt>
            <trkpt lon="101.045388" lat="13.023763">
                <ele>99.600000</ele>
                <time>2018-07-22T04:44:21Z</time>
            </trkpt>
            <trkpt lon="101.045451" lat="13.023785">
                <ele>99.900000</ele>
                <time>2018-07-22T04:44:22Z</time>
            </trkpt>
            <trkpt lon="101.045511" lat="13.023806">
                <ele>100.200000</ele>
                <time>2018-07-22T04:44:23Z</time>
            </trkpt>
            <trkpt lon="101.045571" lat="13.023823">
                <ele>100.300000</ele>
                <time>2018-07-22T04:44:24Z</time>
            </trkpt>
            <trkpt lon="101.045639" lat="13.023835">
                <ele>99.900000</ele>
                <time>2018-07-22T04:44:25Z</time>
            </trkpt>
            <trkpt lon="101.045710" lat="13.023845">
                <ele>99.400000</ele>
                <time>2018-07-22T04:44:26Z</time>
            </trkpt>
            <trkpt lon="101.045784" lat="13.023845">
                <ele>98.400000</ele>
                <time>2018-07-22T04:44:27Z</time>
            </trkpt>
            <trkpt lon="101.045841" lat="13.023820">
                <ele>98.100000</ele>
                <time>2018-07-22T04:44:28Z</time>
            </trkpt>
            <trkpt lon="101.045891" lat="13.023784">
                <ele>97.900000</ele>
                <time>2018-07-22T04:44:29Z</time>
            </trkpt>
            <trkpt lon="101.045932" lat="13.023741">
                <ele>97.600000</ele>
                <time>2018-07-22T04:44:30Z</time>
            </trkpt>
            <trkpt lon="101.045982" lat="13.023705">
                <ele>96.800000</ele>
                <time>2018-07-22T04:44:31Z</time>
            </trkpt>
            <trkpt lon="101.046035" lat="13.023677">
                <ele>96.300000</ele>
                <time>2018-07-22T04:44:32Z</time>
            </trkpt>
            <trkpt lon="101.046092" lat="13.023656">
                <ele>96.000000</ele>
                <time>2018-07-22T04:44:33Z</time>
            </trkpt>
            <trkpt lon="101.046155" lat="13.023639">
                <ele>95.400000</ele>
                <time>2018-07-22T04:44:34Z</time>
            </trkpt>
            <trkpt lon="101.046215" lat="13.023621">
                <ele>95.400000</ele>
                <time>2018-07-22T04:44:35Z</time>
            </trkpt>
            <trkpt lon="101.046277" lat="13.023604">
                <ele>95.200000</ele>
                <time>2018-07-22T04:44:36Z</time>
            </trkpt>
            <trkpt lon="101.046341" lat="13.023590">
                <ele>95.000000</ele>
                <time>2018-07-22T04:44:37Z</time>
            </trkpt>
            <trkpt lon="101.046403" lat="13.023574">
                <ele>95.000000</ele>
                <time>2018-07-22T04:44:38Z</time>
            </trkpt>
            <trkpt lon="101.046467" lat="13.023560">
                <ele>95.100000</ele>
                <time>2018-07-22T04:44:39Z</time>
            </trkpt>
            <trkpt lon="101.046529" lat="13.023542">
                <ele>95.200000</ele>
                <time>2018-07-22T04:44:40Z</time>
            </trkpt>
            <trkpt lon="101.046588" lat="13.023526">
                <ele>95.400000</ele>
                <time>2018-07-22T04:44:41Z</time>
            </trkpt>
            <trkpt lon="101.046647" lat="13.023508">
                <ele>95.600000</ele>
                <time>2018-07-22T04:44:42Z</time>
            </trkpt>
            <trkpt lon="101.046701" lat="13.023492">
                <ele>95.100000</ele>
                <time>2018-07-22T04:44:43Z</time>
            </trkpt>
            <trkpt lon="101.046751" lat="13.023477">
                <ele>95.100000</ele>
                <time>2018-07-22T04:44:44Z</time>
            </trkpt>
            <trkpt lon="101.046798" lat="13.023465">
                <ele>95.000000</ele>
                <time>2018-07-22T04:44:45Z</time>
            </trkpt>
            <trkpt lon="101.046845" lat="13.023453">
                <ele>95.000000</ele>
                <time>2018-07-22T04:44:46Z</time>
            </trkpt>
            <trkpt lon="101.046889" lat="13.023443">
                <ele>95.000000</ele>
                <time>2018-07-22T04:44:47Z</time>
            </trkpt>
            <trkpt lon="101.046931" lat="13.023434">
                <ele>95.000000</ele>
                <time>2018-07-22T04:44:48Z</time>
            </trkpt>
            <trkpt lon="101.046974" lat="13.023425">
                <ele>95.000000</ele>
                <time>2018-07-22T04:44:49Z</time>
            </trkpt>
            <trkpt lon="101.047015" lat="13.023420">
                <ele>95.200000</ele>
                <time>2018-07-22T04:44:50Z</time>
            </trkpt>
            <trkpt lon="101.047059" lat="13.023420">
                <ele>95.500000</ele>
                <time>2018-07-22T04:44:51Z</time>
            </trkpt>
            <trkpt lon="101.047103" lat="13.023421">
                <ele>95.800000</ele>
                <time>2018-07-22T04:44:52Z</time>
            </trkpt>
            <trkpt lon="101.047146" lat="13.023423">
                <ele>96.200000</ele>
                <time>2018-07-22T04:44:53Z</time>
            </trkpt>
            <trkpt lon="101.047187" lat="13.023434">
                <ele>96.400000</ele>
                <time>2018-07-22T04:44:54Z</time>
            </trkpt>
            <trkpt lon="101.047225" lat="13.023455">
                <ele>96.700000</ele>
                <time>2018-07-22T04:44:55Z</time>
            </trkpt>
            <trkpt lon="101.047260" lat="13.023477">
                <ele>96.200000</ele>
                <time>2018-07-22T04:44:56Z</time>
            </trkpt>
            <trkpt lon="101.047292" lat="13.023500">
                <ele>95.900000</ele>
                <time>2018-07-22T04:44:57Z</time>
            </trkpt>
            <trkpt lon="101.047319" lat="13.023523">
                <ele>96.200000</ele>
                <time>2018-07-22T04:44:58Z</time>
            </trkpt>
            <trkpt lon="101.047349" lat="13.023549">
                <ele>95.500000</ele>
                <time>2018-07-22T04:44:59Z</time>
            </trkpt>
            <trkpt lon="101.047378" lat="13.023574">
                <ele>95.800000</ele>
                <time>2018-07-22T04:45:00Z</time>
            </trkpt>
            <trkpt lon="101.047410" lat="13.023599">
                <ele>95.200000</ele>
                <time>2018-07-22T04:45:01Z</time>
            </trkpt>
            <trkpt lon="101.047443" lat="13.023629">
                <ele>94.600000</ele>
                <time>2018-07-22T04:45:02Z</time>
            </trkpt>
            <trkpt lon="101.047476" lat="13.023664">
                <ele>94.600000</ele>
                <time>2018-07-22T04:45:03Z</time>
            </trkpt>
            <trkpt lon="101.047502" lat="13.023701">
                <ele>94.300000</ele>
                <time>2018-07-22T04:45:04Z</time>
            </trkpt>
            <trkpt lon="101.047528" lat="13.023737">
                <ele>94.200000</ele>
                <time>2018-07-22T04:45:05Z</time>
            </trkpt>
            <trkpt lon="101.047554" lat="13.023773">
                <ele>93.700000</ele>
                <time>2018-07-22T04:45:06Z</time>
            </trkpt>
            <trkpt lon="101.047581" lat="13.023809">
                <ele>93.900000</ele>
                <time>2018-07-22T04:45:07Z</time>
            </trkpt>
            <trkpt lon="101.047607" lat="13.023846">
                <ele>93.400000</ele>
                <time>2018-07-22T04:45:08Z</time>
            </trkpt>
            <trkpt lon="101.047634" lat="13.023886">
                <ele>93.700000</ele>
                <time>2018-07-22T04:45:09Z</time>
            </trkpt>
            <trkpt lon="101.047661" lat="13.023928">
                <ele>94.200000</ele>
                <time>2018-07-22T04:45:10Z</time>
            </trkpt>
            <trkpt lon="101.047688" lat="13.023970">
                <ele>93.900000</ele>
                <time>2018-07-22T04:45:11Z</time>
            </trkpt>
            <trkpt lon="101.047714" lat="13.024013">
                <ele>94.700000</ele>
                <time>2018-07-22T04:45:12Z</time>
            </trkpt>
            <trkpt lon="101.047740" lat="13.024055">
                <ele>95.700000</ele>
                <time>2018-07-22T04:45:13Z</time>
            </trkpt>
            <trkpt lon="101.047768" lat="13.024101">
                <ele>95.500000</ele>
                <time>2018-07-22T04:45:14Z</time>
            </trkpt>
            <trkpt lon="101.047798" lat="13.024148">
                <ele>96.500000</ele>
                <time>2018-07-22T04:45:15Z</time>
            </trkpt>
            <trkpt lon="101.047829" lat="13.024196">
                <ele>97.500000</ele>
                <time>2018-07-22T04:45:16Z</time>
            </trkpt>
            <trkpt lon="101.047857" lat="13.024240">
                <ele>97.200000</ele>
                <time>2018-07-22T04:45:17Z</time>
            </trkpt>
            <trkpt lon="101.047887" lat="13.024288">
                <ele>97.900000</ele>
                <time>2018-07-22T04:45:18Z</time>
            </trkpt>
            <trkpt lon="101.047916" lat="13.024339">
                <ele>98.100000</ele>
                <time>2018-07-22T04:45:19Z</time>
            </trkpt>
            <trkpt lon="101.047944" lat="13.024388">
                <ele>97.700000</ele>
                <time>2018-07-22T04:45:20Z</time>
            </trkpt>
            <trkpt lon="101.047974" lat="13.024438">
                <ele>98.500000</ele>
                <time>2018-07-22T04:45:21Z</time>
            </trkpt>
            <trkpt lon="101.048003" lat="13.024492">
                <ele>99.200000</ele>
                <time>2018-07-22T04:45:22Z</time>
            </trkpt>
            <trkpt lon="101.048034" lat="13.024542">
                <ele>98.800000</ele>
                <time>2018-07-22T04:45:23Z</time>
            </trkpt>
            <trkpt lon="101.048052" lat="13.024590">
                <ele>98.300000</ele>
                <time>2018-07-22T04:45:24Z</time>
            </trkpt>
            <trkpt lon="101.048075" lat="13.024651">
                <ele>97.600000</ele>
                <time>2018-07-22T04:45:25Z</time>
            </trkpt>
            <trkpt lon="101.048094" lat="13.024708">
                <ele>97.300000</ele>
                <time>2018-07-22T04:45:26Z</time>
            </trkpt>
            <trkpt lon="101.048110" lat="13.024761">
                <ele>96.300000</ele>
                <time>2018-07-22T04:45:27Z</time>
            </trkpt>
            <trkpt lon="101.048136" lat="13.024816">
                <ele>96.300000</ele>
                <time>2018-07-22T04:45:28Z</time>
            </trkpt>
            <trkpt lon="101.048156" lat="13.024877">
                <ele>95.900000</ele>
                <time>2018-07-22T04:45:29Z</time>
            </trkpt>
            <trkpt lon="101.048184" lat="13.024931">
                <ele>95.600000</ele>
                <time>2018-07-22T04:45:30Z</time>
            </trkpt>
            <trkpt lon="101.048203" lat="13.024985">
                <ele>95.400000</ele>
                <time>2018-07-22T04:45:31Z</time>
            </trkpt>
            <trkpt lon="101.048224" lat="13.025044">
                <ele>95.200000</ele>
                <time>2018-07-22T04:45:32Z</time>
            </trkpt>
            <trkpt lon="101.048233" lat="13.025102">
                <ele>95.300000</ele>
                <time>2018-07-22T04:45:33Z</time>
            </trkpt>
            <trkpt lon="101.048243" lat="13.025161">
                <ele>95.500000</ele>
                <time>2018-07-22T04:45:34Z</time>
            </trkpt>
            <trkpt lon="101.048255" lat="13.025231">
                <ele>95.700000</ele>
                <time>2018-07-22T04:45:35Z</time>
            </trkpt>
            <trkpt lon="101.048262" lat="13.025297">
                <ele>96.200000</ele>
                <time>2018-07-22T04:45:36Z</time>
            </trkpt>
            <trkpt lon="101.048274" lat="13.025364">
                <ele>96.500000</ele>
                <time>2018-07-22T04:45:37Z</time>
            </trkpt>
            <trkpt lon="101.048290" lat="13.025431">
                <ele>96.600000</ele>
                <time>2018-07-22T04:45:38Z</time>
            </trkpt>
            <trkpt lon="101.048314" lat="13.025485">
                <ele>96.400000</ele>
                <time>2018-07-22T04:45:39Z</time>
            </trkpt>
            <trkpt lon="101.048346" lat="13.025520">
                <ele>96.100000</ele>
                <time>2018-07-22T04:45:40Z</time>
            </trkpt>
            <trkpt lon="101.048394" lat="13.025548">
                <ele>95.700000</ele>
                <time>2018-07-22T04:45:41Z</time>
            </trkpt>
            <trkpt lon="101.048450" lat="13.025571">
                <ele>95.200000</ele>
                <time>2018-07-22T04:45:42Z</time>
            </trkpt>
            <trkpt lon="101.048513" lat="13.025596">
                <ele>93.900000</ele>
                <time>2018-07-22T04:45:43Z</time>
            </trkpt>
            <trkpt lon="101.048577" lat="13.025619">
                <ele>93.600000</ele>
                <time>2018-07-22T04:45:44Z</time>
            </trkpt>
            <trkpt lon="101.048641" lat="13.025638">
                <ele>93.300000</ele>
                <time>2018-07-22T04:45:45Z</time>
            </trkpt>
            <trkpt lon="101.048706" lat="13.025657">
                <ele>93.100000</ele>
                <time>2018-07-22T04:45:46Z</time>
            </trkpt>
            <trkpt lon="101.048771" lat="13.025673">
                <ele>92.800000</ele>
                <time>2018-07-22T04:45:47Z</time>
            </trkpt>
            <trkpt lon="101.048840" lat="13.025690">
                <ele>92.900000</ele>
                <time>2018-07-22T04:45:48Z</time>
            </trkpt>
            <trkpt lon="101.048908" lat="13.025706">
                <ele>92.500000</ele>
                <time>2018-07-22T04:45:49Z</time>
            </trkpt>
            <trkpt lon="101.048972" lat="13.025721">
                <ele>92.000000</ele>
                <time>2018-07-22T04:45:50Z</time>
            </trkpt>
            <trkpt lon="101.049035" lat="13.025736">
                <ele>90.500000</ele>
                <time>2018-07-22T04:45:51Z</time>
            </trkpt>
            <trkpt lon="101.049098" lat="13.025750">
                <ele>90.000000</ele>
                <time>2018-07-22T04:45:52Z</time>
            </trkpt>
            <trkpt lon="101.049161" lat="13.025757">
                <ele>89.900000</ele>
                <time>2018-07-22T04:45:53Z</time>
            </trkpt>
            <trkpt lon="101.049224" lat="13.025760">
                <ele>89.700000</ele>
                <time>2018-07-22T04:45:54Z</time>
            </trkpt>
            <trkpt lon="101.049288" lat="13.025762">
                <ele>89.900000</ele>
                <time>2018-07-22T04:45:55Z</time>
            </trkpt>
            <trkpt lon="101.049355" lat="13.025764">
                <ele>90.200000</ele>
                <time>2018-07-22T04:45:56Z</time>
            </trkpt>
            <trkpt lon="101.049419" lat="13.025759">
                <ele>90.800000</ele>
                <time>2018-07-22T04:45:57Z</time>
            </trkpt>
            <trkpt lon="101.049483" lat="13.025751">
                <ele>90.800000</ele>
                <time>2018-07-22T04:45:58Z</time>
            </trkpt>
            <trkpt lon="101.049547" lat="13.025742">
                <ele>91.800000</ele>
                <time>2018-07-22T04:45:59Z</time>
            </trkpt>
            <trkpt lon="101.049608" lat="13.025732">
                <ele>92.200000</ele>
                <time>2018-07-22T04:46:00Z</time>
            </trkpt>
            <trkpt lon="101.049666" lat="13.025727">
                <ele>92.400000</ele>
                <time>2018-07-22T04:46:01Z</time>
            </trkpt>
            <trkpt lon="101.049724" lat="13.025720">
                <ele>92.900000</ele>
                <time>2018-07-22T04:46:02Z</time>
            </trkpt>
            <trkpt lon="101.049784" lat="13.025710">
                <ele>92.800000</ele>
                <time>2018-07-22T04:46:03Z</time>
            </trkpt>
            <trkpt lon="101.049838" lat="13.025706">
                <ele>92.800000</ele>
                <time>2018-07-22T04:46:04Z</time>
            </trkpt>
            <trkpt lon="101.049894" lat="13.025721">
                <ele>93.100000</ele>
                <time>2018-07-22T04:46:05Z</time>
            </trkpt>
            <trkpt lon="101.049941" lat="13.025756">
                <ele>93.000000</ele>
                <time>2018-07-22T04:46:06Z</time>
            </trkpt>
            <trkpt lon="101.049978" lat="13.025800">
                <ele>93.200000</ele>
                <time>2018-07-22T04:46:07Z</time>
            </trkpt>
            <trkpt lon="101.050011" lat="13.025859">
                <ele>93.500000</ele>
                <time>2018-07-22T04:46:08Z</time>
            </trkpt>
            <trkpt lon="101.050031" lat="13.025917">
                <ele>93.500000</ele>
                <time>2018-07-22T04:46:09Z</time>
            </trkpt>
            <trkpt lon="101.050043" lat="13.025978">
                <ele>94.100000</ele>
                <time>2018-07-22T04:46:10Z</time>
            </trkpt>
            <trkpt lon="101.050064" lat="13.026030">
                <ele>94.100000</ele>
                <time>2018-07-22T04:46:11Z</time>
            </trkpt>
            <trkpt lon="101.050085" lat="13.026075">
                <ele>94.200000</ele>
                <time>2018-07-22T04:46:12Z</time>
            </trkpt>
            <trkpt lon="101.050099" lat="13.026121">
                <ele>94.200000</ele>
                <time>2018-07-22T04:46:13Z</time>
            </trkpt>
            <trkpt lon="101.050112" lat="13.026177">
                <ele>93.800000</ele>
                <time>2018-07-22T04:46:14Z</time>
            </trkpt>
            <trkpt lon="101.050131" lat="13.026232">
                <ele>93.700000</ele>
                <time>2018-07-22T04:46:15Z</time>
            </trkpt>
            <trkpt lon="101.050151" lat="13.026283">
                <ele>93.000000</ele>
                <time>2018-07-22T04:46:16Z</time>
            </trkpt>
            <trkpt lon="101.050170" lat="13.026334">
                <ele>92.900000</ele>
                <time>2018-07-22T04:46:17Z</time>
            </trkpt>
            <trkpt lon="101.050184" lat="13.026378">
                <ele>92.700000</ele>
                <time>2018-07-22T04:46:18Z</time>
            </trkpt>
            <trkpt lon="101.050195" lat="13.026410">
                <ele>92.300000</ele>
                <time>2018-07-22T04:46:19Z</time>
            </trkpt>
            <trkpt lon="101.050206" lat="13.026454">
                <ele>92.200000</ele>
                <time>2018-07-22T04:46:21Z</time>
            </trkpt>
            <trkpt lon="101.050229" lat="13.026493">
                <ele>92.100000</ele>
                <time>2018-07-22T04:46:23Z</time>
            </trkpt>
            <trkpt lon="101.050251" lat="13.026531">
                <ele>92.000000</ele>
                <time>2018-07-22T04:46:25Z</time>
            </trkpt>
            <trkpt lon="101.050273" lat="13.026569">
                <ele>91.900000</ele>
                <time>2018-07-22T04:46:27Z</time>
            </trkpt>
            <trkpt lon="101.050306" lat="13.026589">
                <ele>91.900000</ele>
                <time>2018-07-22T04:46:28Z</time>
            </trkpt>
            <trkpt lon="101.050342" lat="13.026601">
                <ele>91.500000</ele>
                <time>2018-07-22T04:46:29Z</time>
            </trkpt>
            <trkpt lon="101.050380" lat="13.026604">
                <ele>91.100000</ele>
                <time>2018-07-22T04:46:30Z</time>
            </trkpt>
            <trkpt lon="101.050414" lat="13.026602">
                <ele>90.700000</ele>
                <time>2018-07-22T04:46:31Z</time>
            </trkpt>
            <trkpt lon="101.050448" lat="13.026594">
                <ele>90.300000</ele>
                <time>2018-07-22T04:46:32Z</time>
            </trkpt>
            <trkpt lon="101.050478" lat="13.026582">
                <ele>90.000000</ele>
                <time>2018-07-22T04:46:33Z</time>
            </trkpt>
            <trkpt lon="101.050503" lat="13.026566">
                <ele>89.500000</ele>
                <time>2018-07-22T04:46:34Z</time>
            </trkpt>
            <trkpt lon="101.050525" lat="13.026548">
                <ele>89.400000</ele>
                <time>2018-07-22T04:46:35Z</time>
            </trkpt>
            <trkpt lon="101.050552" lat="13.026529">
                <ele>88.900000</ele>
                <time>2018-07-22T04:46:36Z</time>
            </trkpt>
            <trkpt lon="101.050584" lat="13.026511">
                <ele>88.400000</ele>
                <time>2018-07-22T04:46:37Z</time>
            </trkpt>
            <trkpt lon="101.050620" lat="13.026494">
                <ele>88.300000</ele>
                <time>2018-07-22T04:46:38Z</time>
            </trkpt>
            <trkpt lon="101.050653" lat="13.026475">
                <ele>88.300000</ele>
                <time>2018-07-22T04:46:39Z</time>
            </trkpt>
            <trkpt lon="101.050687" lat="13.026453">
                <ele>88.400000</ele>
                <time>2018-07-22T04:46:40Z</time>
            </trkpt>
            <trkpt lon="101.050720" lat="13.026429">
                <ele>88.300000</ele>
                <time>2018-07-22T04:46:41Z</time>
            </trkpt>
            <trkpt lon="101.050756" lat="13.026403">
                <ele>88.600000</ele>
                <time>2018-07-22T04:46:42Z</time>
            </trkpt>
            <trkpt lon="101.050791" lat="13.026376">
                <ele>89.200000</ele>
                <time>2018-07-22T04:46:43Z</time>
            </trkpt>
            <trkpt lon="101.050826" lat="13.026346">
                <ele>89.200000</ele>
                <time>2018-07-22T04:46:44Z</time>
            </trkpt>
            <trkpt lon="101.050860" lat="13.026317">
                <ele>90.000000</ele>
                <time>2018-07-22T04:46:45Z</time>
            </trkpt>
            <trkpt lon="101.050893" lat="13.026286">
                <ele>91.000000</ele>
                <time>2018-07-22T04:46:46Z</time>
            </trkpt>
            <trkpt lon="101.050913" lat="13.026248">
                <ele>91.600000</ele>
                <time>2018-07-22T04:46:47Z</time>
            </trkpt>
            <trkpt lon="101.050928" lat="13.026212">
                <ele>92.800000</ele>
                <time>2018-07-22T04:46:48Z</time>
            </trkpt>
            <trkpt lon="101.050936" lat="13.026172">
                <ele>93.500000</ele>
                <time>2018-07-22T04:46:49Z</time>
            </trkpt>
            <trkpt lon="101.050948" lat="13.026125">
                <ele>94.200000</ele>
                <time>2018-07-22T04:46:50Z</time>
            </trkpt>
            <trkpt lon="101.050962" lat="13.026081">
                <ele>95.500000</ele>
                <time>2018-07-22T04:46:51Z</time>
            </trkpt>
            <trkpt lon="101.050970" lat="13.026043">
                <ele>96.200000</ele>
                <time>2018-07-22T04:46:52Z</time>
            </trkpt>
            <trkpt lon="101.050976" lat="13.026003">
                <ele>96.700000</ele>
                <time>2018-07-22T04:46:53Z</time>
            </trkpt>
            <trkpt lon="101.050989" lat="13.025963">
                <ele>97.500000</ele>
                <time>2018-07-22T04:46:54Z</time>
            </trkpt>
            <trkpt lon="101.051009" lat="13.025928">
                <ele>97.900000</ele>
                <time>2018-07-22T04:46:55Z</time>
            </trkpt>
            <trkpt lon="101.051033" lat="13.025898">
                <ele>98.500000</ele>
                <time>2018-07-22T04:46:56Z</time>
            </trkpt>
            <trkpt lon="101.051056" lat="13.025867">
                <ele>98.800000</ele>
                <time>2018-07-22T04:46:57Z</time>
            </trkpt>
            <trkpt lon="101.051078" lat="13.025834">
                <ele>98.500000</ele>
                <time>2018-07-22T04:46:58Z</time>
            </trkpt>
            <trkpt lon="101.051093" lat="13.025802">
                <ele>99.100000</ele>
                <time>2018-07-22T04:46:59Z</time>
            </trkpt>
            <trkpt lon="101.051103" lat="13.025766">
                <ele>98.800000</ele>
                <time>2018-07-22T04:47:00Z</time>
            </trkpt>
            <trkpt lon="101.051111" lat="13.025729">
                <ele>98.500000</ele>
                <time>2018-07-22T04:47:01Z</time>
            </trkpt>
            <trkpt lon="101.051119" lat="13.025692">
                <ele>98.100000</ele>
                <time>2018-07-22T04:47:02Z</time>
            </trkpt>
            <trkpt lon="101.051127" lat="13.025652">
                <ele>97.600000</ele>
                <time>2018-07-22T04:47:03Z</time>
            </trkpt>
            <trkpt lon="101.051133" lat="13.025617">
                <ele>97.700000</ele>
                <time>2018-07-22T04:47:04Z</time>
            </trkpt>
            <trkpt lon="101.051141" lat="13.025575">
                <ele>97.200000</ele>
                <time>2018-07-22T04:47:05Z</time>
            </trkpt>
            <trkpt lon="101.051148" lat="13.025534">
                <ele>97.100000</ele>
                <time>2018-07-22T04:47:06Z</time>
            </trkpt>
            <trkpt lon="101.051161" lat="13.025495">
                <ele>97.100000</ele>
                <time>2018-07-22T04:47:07Z</time>
            </trkpt>
            <trkpt lon="101.051181" lat="13.025451">
                <ele>97.400000</ele>
                <time>2018-07-22T04:47:08Z</time>
            </trkpt>
            <trkpt lon="101.051196" lat="13.025407">
                <ele>97.300000</ele>
                <time>2018-07-22T04:47:09Z</time>
            </trkpt>
            <trkpt lon="101.051211" lat="13.025360">
                <ele>97.300000</ele>
                <time>2018-07-22T04:47:10Z</time>
            </trkpt>
            <trkpt lon="101.051227" lat="13.025310">
                <ele>97.600000</ele>
                <time>2018-07-22T04:47:11Z</time>
            </trkpt>
            <trkpt lon="101.051250" lat="13.025270">
                <ele>97.600000</ele>
                <time>2018-07-22T04:47:12Z</time>
            </trkpt>
            <trkpt lon="101.051275" lat="13.025227">
                <ele>97.800000</ele>
                <time>2018-07-22T04:47:13Z</time>
            </trkpt>
            <trkpt lon="101.051303" lat="13.025180">
                <ele>97.800000</ele>
                <time>2018-07-22T04:47:14Z</time>
            </trkpt>
            <trkpt lon="101.051329" lat="13.025132">
                <ele>97.600000</ele>
                <time>2018-07-22T04:47:15Z</time>
            </trkpt>
            <trkpt lon="101.051351" lat="13.025089">
                <ele>97.700000</ele>
                <time>2018-07-22T04:47:16Z</time>
            </trkpt>
            <trkpt lon="101.051376" lat="13.025056">
                <ele>97.600000</ele>
                <time>2018-07-22T04:47:17Z</time>
            </trkpt>
            <trkpt lon="101.051398" lat="13.025028">
                <ele>97.900000</ele>
                <time>2018-07-22T04:47:18Z</time>
            </trkpt>
            <trkpt lon="101.051423" lat="13.024992">
                <ele>97.700000</ele>
                <time>2018-07-22T04:47:19Z</time>
            </trkpt>
            <trkpt lon="101.051460" lat="13.024960">
                <ele>97.900000</ele>
                <time>2018-07-22T04:47:20Z</time>
            </trkpt>
            <trkpt lon="101.051499" lat="13.024927">
                <ele>98.300000</ele>
                <time>2018-07-22T04:47:21Z</time>
            </trkpt>
            <trkpt lon="101.051530" lat="13.024892">
                <ele>98.100000</ele>
                <time>2018-07-22T04:47:22Z</time>
            </trkpt>
            <trkpt lon="101.051554" lat="13.024851">
                <ele>97.900000</ele>
                <time>2018-07-22T04:47:23Z</time>
            </trkpt>
            <trkpt lon="101.051576" lat="13.024809">
                <ele>97.800000</ele>
                <time>2018-07-22T04:47:24Z</time>
            </trkpt>
            <trkpt lon="101.051594" lat="13.024767">
                <ele>97.700000</ele>
                <time>2018-07-22T04:47:25Z</time>
            </trkpt>
            <trkpt lon="101.051604" lat="13.024724">
                <ele>97.800000</ele>
                <time>2018-07-22T04:47:26Z</time>
            </trkpt>
            <trkpt lon="101.051619" lat="13.024687">
                <ele>97.800000</ele>
                <time>2018-07-22T04:47:27Z</time>
            </trkpt>
            <trkpt lon="101.051639" lat="13.024661">
                <ele>97.800000</ele>
                <time>2018-07-22T04:47:28Z</time>
            </trkpt>
            <trkpt lon="101.051669" lat="13.024641">
                <ele>98.100000</ele>
                <time>2018-07-22T04:47:29Z</time>
            </trkpt>
            <trkpt lon="101.051704" lat="13.024620">
                <ele>98.300000</ele>
                <time>2018-07-22T04:47:31Z</time>
            </trkpt>
            <trkpt lon="101.051744" lat="13.024598">
                <ele>98.600000</ele>
                <time>2018-07-22T04:47:33Z</time>
            </trkpt>
            <trkpt lon="101.051779" lat="13.024582">
                <ele>98.800000</ele>
                <time>2018-07-22T04:47:35Z</time>
            </trkpt>
            <trkpt lon="101.051823" lat="13.024559">
                <ele>99.000000</ele>
                <time>2018-07-22T04:47:37Z</time>
            </trkpt>
            <trkpt lon="101.051853" lat="13.024546">
                <ele>99.000000</ele>
                <time>2018-07-22T04:47:38Z</time>
            </trkpt>
            <trkpt lon="101.051881" lat="13.024538">
                <ele>99.000000</ele>
                <time>2018-07-22T04:47:39Z</time>
            </trkpt>
            <trkpt lon="101.051907" lat="13.024528">
                <ele>99.000000</ele>
                <time>2018-07-22T04:47:40Z</time>
            </trkpt>
            <trkpt lon="101.051936" lat="13.024520">
                <ele>99.000000</ele>
                <time>2018-07-22T04:47:41Z</time>
            </trkpt>
            <trkpt lon="101.051965" lat="13.024511">
                <ele>99.000000</ele>
                <time>2018-07-22T04:47:42Z</time>
            </trkpt>
            <trkpt lon="101.051999" lat="13.024497">
                <ele>99.000000</ele>
                <time>2018-07-22T04:47:43Z</time>
            </trkpt>
            <trkpt lon="101.052028" lat="13.024483">
                <ele>99.000000</ele>
                <time>2018-07-22T04:47:44Z</time>
            </trkpt>
            <trkpt lon="101.052058" lat="13.024472">
                <ele>99.000000</ele>
                <time>2018-07-22T04:47:45Z</time>
            </trkpt>
            <trkpt lon="101.052084" lat="13.024461">
                <ele>99.000000</ele>
                <time>2018-07-22T04:47:46Z</time>
            </trkpt>
            <trkpt lon="101.052115" lat="13.024455">
                <ele>99.000000</ele>
                <time>2018-07-22T04:47:47Z</time>
            </trkpt>
            <trkpt lon="101.052150" lat="13.024444">
                <ele>99.000000</ele>
                <time>2018-07-22T04:47:48Z</time>
            </trkpt>
            <trkpt lon="101.052180" lat="13.024429">
                <ele>99.000000</ele>
                <time>2018-07-22T04:47:49Z</time>
            </trkpt>
            <trkpt lon="101.052211" lat="13.024414">
                <ele>99.000000</ele>
                <time>2018-07-22T04:47:50Z</time>
            </trkpt>
            <trkpt lon="101.052237" lat="13.024399">
                <ele>99.000000</ele>
                <time>2018-07-22T04:47:51Z</time>
            </trkpt>
            <trkpt lon="101.052264" lat="13.024384">
                <ele>99.000000</ele>
                <time>2018-07-22T04:47:52Z</time>
            </trkpt>
            <trkpt lon="101.052290" lat="13.024369">
                <ele>99.000000</ele>
                <time>2018-07-22T04:47:53Z</time>
            </trkpt>
            <trkpt lon="101.052333" lat="13.024335">
                <ele>99.000000</ele>
                <time>2018-07-22T04:47:55Z</time>
            </trkpt>
            <trkpt lon="101.052362" lat="13.024317">
                <ele>99.000000</ele>
                <time>2018-07-22T04:47:56Z</time>
            </trkpt>
            <trkpt lon="101.052391" lat="13.024305">
                <ele>99.000000</ele>
                <time>2018-07-22T04:47:57Z</time>
            </trkpt>
            <trkpt lon="101.052420" lat="13.024290">
                <ele>99.000000</ele>
                <time>2018-07-22T04:47:58Z</time>
            </trkpt>
            <trkpt lon="101.052449" lat="13.024276">
                <ele>99.000000</ele>
                <time>2018-07-22T04:47:59Z</time>
            </trkpt>
            <trkpt lon="101.052476" lat="13.024262">
                <ele>99.000000</ele>
                <time>2018-07-22T04:48:00Z</time>
            </trkpt>
            <trkpt lon="101.052505" lat="13.024248">
                <ele>99.000000</ele>
                <time>2018-07-22T04:48:01Z</time>
            </trkpt>
            <trkpt lon="101.052531" lat="13.024230">
                <ele>99.000000</ele>
                <time>2018-07-22T04:48:02Z</time>
            </trkpt>
            <trkpt lon="101.052560" lat="13.024206">
                <ele>99.300000</ele>
                <time>2018-07-22T04:48:03Z</time>
            </trkpt>
            <trkpt lon="101.052584" lat="13.024186">
                <ele>99.300000</ele>
                <time>2018-07-22T04:48:04Z</time>
            </trkpt>
            <trkpt lon="101.052609" lat="13.024166">
                <ele>99.700000</ele>
                <time>2018-07-22T04:48:05Z</time>
            </trkpt>
            <trkpt lon="101.052630" lat="13.024146">
                <ele>99.700000</ele>
                <time>2018-07-22T04:48:06Z</time>
            </trkpt>
            <trkpt lon="101.052665" lat="13.024107">
                <ele>100.300000</ele>
                <time>2018-07-22T04:48:08Z</time>
            </trkpt>
            <trkpt lon="101.052691" lat="13.024063">
                <ele>100.900000</ele>
                <time>2018-07-22T04:48:10Z</time>
            </trkpt>
            <trkpt lon="101.052707" lat="13.024037">
                <ele>101.300000</ele>
                <time>2018-07-22T04:48:11Z</time>
            </trkpt>
            <trkpt lon="101.052723" lat="13.024009">
                <ele>101.300000</ele>
                <time>2018-07-22T04:48:12Z</time>
            </trkpt>
            <trkpt lon="101.052741" lat="13.023982">
                <ele>101.800000</ele>
                <time>2018-07-22T04:48:13Z</time>
            </trkpt>
            <trkpt lon="101.052760" lat="13.023956">
                <ele>102.300000</ele>
                <time>2018-07-22T04:48:14Z</time>
            </trkpt>
            <trkpt lon="101.052785" lat="13.023930">
                <ele>102.300000</ele>
                <time>2018-07-22T04:48:15Z</time>
            </trkpt>
            <trkpt lon="101.052807" lat="13.023901">
                <ele>102.800000</ele>
                <time>2018-07-22T04:48:16Z</time>
            </trkpt>
            <trkpt lon="101.052829" lat="13.023876">
                <ele>102.800000</ele>
                <time>2018-07-22T04:48:17Z</time>
            </trkpt>
            <trkpt lon="101.052853" lat="13.023849">
                <ele>103.900000</ele>
                <time>2018-07-22T04:48:18Z</time>
            </trkpt>
            <trkpt lon="101.052877" lat="13.023822">
                <ele>104.600000</ele>
                <time>2018-07-22T04:48:19Z</time>
            </trkpt>
            <trkpt lon="101.052897" lat="13.023802">
                <ele>105.000000</ele>
                <time>2018-07-22T04:48:20Z</time>
            </trkpt>
            <trkpt lon="101.052917" lat="13.023779">
                <ele>105.600000</ele>
                <time>2018-07-22T04:48:21Z</time>
            </trkpt>
            <trkpt lon="101.052941" lat="13.023753">
                <ele>105.900000</ele>
                <time>2018-07-22T04:48:22Z</time>
            </trkpt>
            <trkpt lon="101.052964" lat="13.023725">
                <ele>106.500000</ele>
                <time>2018-07-22T04:48:23Z</time>
            </trkpt>
            <trkpt lon="101.052986" lat="13.023696">
                <ele>107.100000</ele>
                <time>2018-07-22T04:48:24Z</time>
            </trkpt>
            <trkpt lon="101.053003" lat="13.023673">
                <ele>107.100000</ele>
                <time>2018-07-22T04:48:25Z</time>
            </trkpt>
            <trkpt lon="101.053024" lat="13.023643">
                <ele>107.500000</ele>
                <time>2018-07-22T04:48:26Z</time>
            </trkpt>
            <trkpt lon="101.053042" lat="13.023617">
                <ele>107.700000</ele>
                <time>2018-07-22T04:48:27Z</time>
            </trkpt>
            <trkpt lon="101.053057" lat="13.023588">
                <ele>107.700000</ele>
                <time>2018-07-22T04:48:28Z</time>
            </trkpt>
            <trkpt lon="101.053073" lat="13.023556">
                <ele>108.000000</ele>
                <time>2018-07-22T04:48:29Z</time>
            </trkpt>
            <trkpt lon="101.053088" lat="13.023523">
                <ele>107.700000</ele>
                <time>2018-07-22T04:48:30Z</time>
            </trkpt>
            <trkpt lon="101.053100" lat="13.023498">
                <ele>107.200000</ele>
                <time>2018-07-22T04:48:31Z</time>
            </trkpt>
            <trkpt lon="101.053102" lat="13.023452">
                <ele>106.700000</ele>
                <time>2018-07-22T04:48:33Z</time>
            </trkpt>
            <trkpt lon="101.053081" lat="13.023395">
                <ele>106.200000</ele>
                <time>2018-07-22T04:48:35Z</time>
            </trkpt>
            <trkpt lon="101.053071" lat="13.023366">
                <ele>106.000000</ele>
                <time>2018-07-22T04:48:36Z</time>
            </trkpt>
            <trkpt lon="101.053042" lat="13.023312">
                <ele>106.000000</ele>
                <time>2018-07-22T04:48:38Z</time>
            </trkpt>
            <trkpt lon="101.053013" lat="13.023296">
                <ele>106.100000</ele>
                <time>2018-07-22T04:48:39Z</time>
            </trkpt>
            <trkpt lon="101.052980" lat="13.023278">
                <ele>106.100000</ele>
                <time>2018-07-22T04:48:40Z</time>
            </trkpt>
            <trkpt lon="101.052951" lat="13.023258">
                <ele>106.300000</ele>
                <time>2018-07-22T04:48:41Z</time>
            </trkpt>
            <trkpt lon="101.052922" lat="13.023233">
                <ele>106.600000</ele>
                <time>2018-07-22T04:48:42Z</time>
            </trkpt>
            <trkpt lon="101.052902" lat="13.023211">
                <ele>106.600000</ele>
                <time>2018-07-22T04:48:43Z</time>
            </trkpt>
            <trkpt lon="101.052865" lat="13.023157">
                <ele>106.900000</ele>
                <time>2018-07-22T04:48:45Z</time>
            </trkpt>
            <trkpt lon="101.052846" lat="13.023127">
                <ele>107.000000</ele>
                <time>2018-07-22T04:48:46Z</time>
            </trkpt>
            <trkpt lon="101.052827" lat="13.023086">
                <ele>107.000000</ele>
                <time>2018-07-22T04:48:47Z</time>
            </trkpt>
            <trkpt lon="101.052810" lat="13.023061">
                <ele>107.000000</ele>
                <time>2018-07-22T04:48:48Z</time>
            </trkpt>
            <trkpt lon="101.052793" lat="13.023030">
                <ele>107.200000</ele>
                <time>2018-07-22T04:48:49Z</time>
            </trkpt>
            <trkpt lon="101.052779" lat="13.022998">
                <ele>107.200000</ele>
                <time>2018-07-22T04:48:50Z</time>
            </trkpt>
            <trkpt lon="101.052762" lat="13.022967">
                <ele>107.400000</ele>
                <time>2018-07-22T04:48:51Z</time>
            </trkpt>
            <trkpt lon="101.052746" lat="13.022921">
                <ele>107.700000</ele>
                <time>2018-07-22T04:48:52Z</time>
            </trkpt>
            <trkpt lon="101.052735" lat="13.022892">
                <ele>107.900000</ele>
                <time>2018-07-22T04:48:53Z</time>
            </trkpt>
            <trkpt lon="101.052720" lat="13.022853">
                <ele>108.000000</ele>
                <time>2018-07-22T04:48:54Z</time>
            </trkpt>
            <trkpt lon="101.052710" lat="13.022807">
                <ele>108.000000</ele>
                <time>2018-07-22T04:48:55Z</time>
            </trkpt>
            <trkpt lon="101.052711" lat="13.022759">
                <ele>108.000000</ele>
                <time>2018-07-22T04:48:56Z</time>
            </trkpt>
            <trkpt lon="101.052714" lat="13.022720">
                <ele>108.000000</ele>
                <time>2018-07-22T04:48:57Z</time>
            </trkpt>
            <trkpt lon="101.052717" lat="13.022681">
                <ele>107.900000</ele>
                <time>2018-07-22T04:48:58Z</time>
            </trkpt>
            <trkpt lon="101.052727" lat="13.022639">
                <ele>107.800000</ele>
                <time>2018-07-22T04:48:59Z</time>
            </trkpt>
            <trkpt lon="101.052733" lat="13.022598">
                <ele>107.600000</ele>
                <time>2018-07-22T04:49:00Z</time>
            </trkpt>
            <trkpt lon="101.052739" lat="13.022553">
                <ele>107.500000</ele>
                <time>2018-07-22T04:49:01Z</time>
            </trkpt>
            <trkpt lon="101.052748" lat="13.022506">
                <ele>107.200000</ele>
                <time>2018-07-22T04:49:02Z</time>
            </trkpt>
            <trkpt lon="101.052758" lat="13.022462">
                <ele>106.800000</ele>
                <time>2018-07-22T04:49:03Z</time>
            </trkpt>
            <trkpt lon="101.052776" lat="13.022432">
                <ele>106.800000</ele>
                <time>2018-07-22T04:49:04Z</time>
            </trkpt>
            <trkpt lon="101.052792" lat="13.022394">
                <ele>106.500000</ele>
                <time>2018-07-22T04:49:05Z</time>
            </trkpt>
            <trkpt lon="101.052815" lat="13.022365">
                <ele>106.700000</ele>
                <time>2018-07-22T04:49:06Z</time>
            </trkpt>
            <trkpt lon="101.052843" lat="13.022338">
                <ele>106.700000</ele>
                <time>2018-07-22T04:49:07Z</time>
            </trkpt>
            <trkpt lon="101.052864" lat="13.022311">
                <ele>106.900000</ele>
                <time>2018-07-22T04:49:08Z</time>
            </trkpt>
            <trkpt lon="101.052887" lat="13.022272">
                <ele>106.700000</ele>
                <time>2018-07-22T04:49:10Z</time>
            </trkpt>
            <trkpt lon="101.052914" lat="13.022226">
                <ele>106.900000</ele>
                <time>2018-07-22T04:49:12Z</time>
            </trkpt>
            <trkpt lon="101.052935" lat="13.022177">
                <ele>107.100000</ele>
                <time>2018-07-22T04:49:14Z</time>
            </trkpt>
            <trkpt lon="101.052946" lat="13.022128">
                <ele>106.700000</ele>
                <time>2018-07-22T04:49:16Z</time>
            </trkpt>
            <trkpt lon="101.052945" lat="13.022078">
                <ele>106.300000</ele>
                <time>2018-07-22T04:49:18Z</time>
            </trkpt>
            <trkpt lon="101.052952" lat="13.022049">
                <ele>105.900000</ele>
                <time>2018-07-22T04:49:19Z</time>
            </trkpt>
            <trkpt lon="101.052962" lat="13.022022">
                <ele>105.700000</ele>
                <time>2018-07-22T04:49:20Z</time>
            </trkpt>
            <trkpt lon="101.052970" lat="13.021993">
                <ele>105.800000</ele>
                <time>2018-07-22T04:49:21Z</time>
            </trkpt>
            <trkpt lon="101.052981" lat="13.021967">
                <ele>106.000000</ele>
                <time>2018-07-22T04:49:22Z</time>
            </trkpt>
            <trkpt lon="101.053004" lat="13.021924">
                <ele>106.000000</ele>
                <time>2018-07-22T04:49:24Z</time>
            </trkpt>
            <trkpt lon="101.053021" lat="13.021903">
                <ele>106.000000</ele>
                <time>2018-07-22T04:49:25Z</time>
            </trkpt>
            <trkpt lon="101.053040" lat="13.021882">
                <ele>106.000000</ele>
                <time>2018-07-22T04:49:26Z</time>
            </trkpt>
            <trkpt lon="101.053061" lat="13.021862">
                <ele>106.100000</ele>
                <time>2018-07-22T04:49:27Z</time>
            </trkpt>
            <trkpt lon="101.053079" lat="13.021841">
                <ele>106.100000</ele>
                <time>2018-07-22T04:49:28Z</time>
            </trkpt>
            <trkpt lon="101.053115" lat="13.021810">
                <ele>106.400000</ele>
                <time>2018-07-22T04:49:30Z</time>
            </trkpt>
            <trkpt lon="101.053153" lat="13.021783">
                <ele>106.600000</ele>
                <time>2018-07-22T04:49:32Z</time>
            </trkpt>
            <trkpt lon="101.053182" lat="13.021775">
                <ele>106.600000</ele>
                <time>2018-07-22T04:49:33Z</time>
            </trkpt>
            <trkpt lon="101.053230" lat="13.021763">
                <ele>106.600000</ele>
                <time>2018-07-22T04:49:35Z</time>
            </trkpt>
            <trkpt lon="101.053271" lat="13.021745">
                <ele>106.500000</ele>
                <time>2018-07-22T04:49:37Z</time>
            </trkpt>
            <trkpt lon="101.053296" lat="13.021732">
                <ele>106.400000</ele>
                <time>2018-07-22T04:49:38Z</time>
            </trkpt>
            <trkpt lon="101.053321" lat="13.021721">
                <ele>106.200000</ele>
                <time>2018-07-22T04:49:39Z</time>
            </trkpt>
            <trkpt lon="101.053368" lat="13.021708">
                <ele>106.100000</ele>
                <time>2018-07-22T04:49:41Z</time>
            </trkpt>
            <trkpt lon="101.053396" lat="13.021700">
                <ele>106.000000</ele>
                <time>2018-07-22T04:49:42Z</time>
            </trkpt>
            <trkpt lon="101.053450" lat="13.021684">
                <ele>106.100000</ele>
                <time>2018-07-22T04:49:44Z</time>
            </trkpt>
            <trkpt lon="101.053499" lat="13.021666">
                <ele>106.100000</ele>
                <time>2018-07-22T04:49:46Z</time>
            </trkpt>
            <trkpt lon="101.053548" lat="13.021647">
                <ele>106.800000</ele>
                <time>2018-07-22T04:49:48Z</time>
            </trkpt>
            <trkpt lon="101.053585" lat="13.021634">
                <ele>107.300000</ele>
                <time>2018-07-22T04:49:50Z</time>
            </trkpt>
            <trkpt lon="101.053628" lat="13.021616">
                <ele>108.000000</ele>
                <time>2018-07-22T04:49:52Z</time>
            </trkpt>
            <trkpt lon="101.053674" lat="13.021611">
                <ele>108.500000</ele>
                <time>2018-07-22T04:49:54Z</time>
            </trkpt>
            <trkpt lon="101.053713" lat="13.021606">
                <ele>109.200000</ele>
                <time>2018-07-22T04:49:56Z</time>
            </trkpt>
            <trkpt lon="101.053749" lat="13.021601">
                <ele>109.900000</ele>
                <time>2018-07-22T04:49:58Z</time>
            </trkpt>
            <trkpt lon="101.053776" lat="13.021601">
                <ele>109.900000</ele>
                <time>2018-07-22T04:49:59Z</time>
            </trkpt>
            <trkpt lon="101.053823" lat="13.021605">
                <ele>110.700000</ele>
                <time>2018-07-22T04:50:01Z</time>
            </trkpt>
            <trkpt lon="101.053852" lat="13.021602">
                <ele>111.400000</ele>
                <time>2018-07-22T04:50:02Z</time>
            </trkpt>
            <trkpt lon="101.053901" lat="13.021599">
                <ele>111.900000</ele>
                <time>2018-07-22T04:50:04Z</time>
            </trkpt>
            <trkpt lon="101.053944" lat="13.021592">
                <ele>112.300000</ele>
                <time>2018-07-22T04:50:06Z</time>
            </trkpt>
            <trkpt lon="101.053991" lat="13.021582">
                <ele>112.700000</ele>
                <time>2018-07-22T04:50:08Z</time>
            </trkpt>
            <trkpt lon="101.054035" lat="13.021582">
                <ele>113.200000</ele>
                <time>2018-07-22T04:50:10Z</time>
            </trkpt>
            <trkpt lon="101.054075" lat="13.021573">
                <ele>113.800000</ele>
                <time>2018-07-22T04:50:12Z</time>
            </trkpt>
            <trkpt lon="101.054122" lat="13.021562">
                <ele>113.800000</ele>
                <time>2018-07-22T04:50:14Z</time>
            </trkpt>
            <trkpt lon="101.054173" lat="13.021551">
                <ele>113.900000</ele>
                <time>2018-07-22T04:50:16Z</time>
            </trkpt>
            <trkpt lon="101.054204" lat="13.021541">
                <ele>113.900000</ele>
                <time>2018-07-22T04:50:17Z</time>
            </trkpt>
            <trkpt lon="101.054258" lat="13.021531">
                <ele>114.300000</ele>
                <time>2018-07-22T04:50:19Z</time>
            </trkpt>
            <trkpt lon="101.054310" lat="13.021513">
                <ele>114.700000</ele>
                <time>2018-07-22T04:50:21Z</time>
            </trkpt>
            <trkpt lon="101.054337" lat="13.021504">
                <ele>114.700000</ele>
                <time>2018-07-22T04:50:22Z</time>
            </trkpt>
            <trkpt lon="101.054390" lat="13.021487">
                <ele>115.000000</ele>
                <time>2018-07-22T04:50:24Z</time>
            </trkpt>
            <trkpt lon="101.054418" lat="13.021479">
                <ele>115.000000</ele>
                <time>2018-07-22T04:50:25Z</time>
            </trkpt>
            <trkpt lon="101.054448" lat="13.021469">
                <ele>115.000000</ele>
                <time>2018-07-22T04:50:26Z</time>
            </trkpt>
            <trkpt lon="101.054477" lat="13.021461">
                <ele>115.000000</ele>
                <time>2018-07-22T04:50:27Z</time>
            </trkpt>
            <trkpt lon="101.054511" lat="13.021450">
                <ele>115.000000</ele>
                <time>2018-07-22T04:50:28Z</time>
            </trkpt>
            <trkpt lon="101.054540" lat="13.021442">
                <ele>115.000000</ele>
                <time>2018-07-22T04:50:29Z</time>
            </trkpt>
            <trkpt lon="101.054592" lat="13.021431">
                <ele>115.100000</ele>
                <time>2018-07-22T04:50:31Z</time>
            </trkpt>
            <trkpt lon="101.054624" lat="13.021425">
                <ele>115.200000</ele>
                <time>2018-07-22T04:50:32Z</time>
            </trkpt>
            <trkpt lon="101.054651" lat="13.021415">
                <ele>115.200000</ele>
                <time>2018-07-22T04:50:33Z</time>
            </trkpt>
            <trkpt lon="101.054679" lat="13.021409">
                <ele>115.200000</ele>
                <time>2018-07-22T04:50:34Z</time>
            </trkpt>
            <trkpt lon="101.054730" lat="13.021403">
                <ele>115.100000</ele>
                <time>2018-07-22T04:50:36Z</time>
            </trkpt>
            <trkpt lon="101.054775" lat="13.021393">
                <ele>115.100000</ele>
                <time>2018-07-22T04:50:38Z</time>
            </trkpt>
            <trkpt lon="101.054814" lat="13.021385">
                <ele>115.100000</ele>
                <time>2018-07-22T04:50:40Z</time>
            </trkpt>
            <trkpt lon="101.054859" lat="13.021405">
                <ele>115.000000</ele>
                <time>2018-07-22T04:50:42Z</time>
            </trkpt>
            <trkpt lon="101.054871" lat="13.021432">
                <ele>115.000000</ele>
                <time>2018-07-22T04:50:43Z</time>
            </trkpt>
            <trkpt lon="101.054882" lat="13.021464">
                <ele>115.100000</ele>
                <time>2018-07-22T04:50:44Z</time>
            </trkpt>
            <trkpt lon="101.054883" lat="13.021492">
                <ele>115.100000</ele>
                <time>2018-07-22T04:50:45Z</time>
            </trkpt>
            <trkpt lon="101.054883" lat="13.021525">
                <ele>115.100000</ele>
                <time>2018-07-22T04:50:46Z</time>
            </trkpt>
            <trkpt lon="101.054886" lat="13.021561">
                <ele>115.100000</ele>
                <time>2018-07-22T04:50:47Z</time>
            </trkpt>
            <trkpt lon="101.054890" lat="13.021598">
                <ele>115.100000</ele>
                <time>2018-07-22T04:50:48Z</time>
            </trkpt>
            <trkpt lon="101.054894" lat="13.021636">
                <ele>115.100000</ele>
                <time>2018-07-22T04:50:49Z</time>
            </trkpt>
            <trkpt lon="101.054901" lat="13.021673">
                <ele>115.100000</ele>
                <time>2018-07-22T04:50:50Z</time>
            </trkpt>
            <trkpt lon="101.054901" lat="13.021713">
                <ele>115.100000</ele>
                <time>2018-07-22T04:50:51Z</time>
            </trkpt>
            <trkpt lon="101.054901" lat="13.021762">
                <ele>115.100000</ele>
                <time>2018-07-22T04:50:52Z</time>
            </trkpt>
            <trkpt lon="101.054904" lat="13.021810">
                <ele>115.000000</ele>
                <time>2018-07-22T04:50:53Z</time>
            </trkpt>
            <trkpt lon="101.054913" lat="13.021857">
                <ele>114.900000</ele>
                <time>2018-07-22T04:50:54Z</time>
            </trkpt>
            <trkpt lon="101.054918" lat="13.021904">
                <ele>114.700000</ele>
                <time>2018-07-22T04:50:55Z</time>
            </trkpt>
            <trkpt lon="101.054918" lat="13.021972">
                <ele>114.300000</ele>
                <time>2018-07-22T04:50:56Z</time>
            </trkpt>
            <trkpt lon="101.054922" lat="13.022042">
                <ele>114.000000</ele>
                <time>2018-07-22T04:50:57Z</time>
            </trkpt>
            <trkpt lon="101.054928" lat="13.022103">
                <ele>114.000000</ele>
                <time>2018-07-22T04:50:58Z</time>
            </trkpt>
            <trkpt lon="101.054930" lat="13.022160">
                <ele>114.000000</ele>
                <time>2018-07-22T04:50:59Z</time>
            </trkpt>
            <trkpt lon="101.054937" lat="13.022216">
                <ele>114.000000</ele>
                <time>2018-07-22T04:51:00Z</time>
            </trkpt>
            <trkpt lon="101.054939" lat="13.022280">
                <ele>114.000000</ele>
                <time>2018-07-22T04:51:01Z</time>
            </trkpt>
            <trkpt lon="101.054941" lat="13.022344">
                <ele>114.000000</ele>
                <time>2018-07-22T04:51:02Z</time>
            </trkpt>
            <trkpt lon="101.054946" lat="13.022415">
                <ele>114.000000</ele>
                <time>2018-07-22T04:51:03Z</time>
            </trkpt>
        </trkseg>
    </trk>
</gpx>